<?xml version="1.0" encoding="UTF-8" standalone="no" ?>
<gpx xmlns="http://www.topografix.com/GPX/1/1" xmlns:xsi="http://www.w3.org/2001/XMLSchema-instance" xsi:schemaLocation="http://www.topografix.com/GPX/1/1 http://www.topografix.com/GPX/1/1/gpx.xsd" version="1.1" creator="VisuGPX - https://www.visugpx.com">
  <metadata>
    <name>2017-08-19 Bike rideVal d-Azergues O</name>
    <desc><![CDATA[2017-08-19 Bike ride-Val d-Azergues O first time]]></desc>
  </metadata>
  <wpt lat="45.9246" lon="4.73722">
    <ele>174</ele>
    <name><![CDATA[2017-08-19 10:36 (Start)]]></name>
  </wpt>
  <wpt lat="45.92462" lon="4.7371">
    <ele>174</ele>
    <name><![CDATA[2017-08-19 10:36 (End)]]></name>
    <desc><![CDATA[Created by Google My Tracks on Android  Name: 2017-08-19 10:36 Activity type: biking Description: - Total distance: 33.31 km (20.7 mi) Total time: 1:42:18 Moving time: 1:39:57 Average speed: 19.54 km/h (12.1 mi/h) Average moving speed: 20.00 km/h (12.4 mi/h) Max speed: 33.28 km/h (20.7 mi/h) Average pace: 3:04 min/km (4:57 min/mi) Average moving pace: 3:00 min/km (4:50 min/mi) Fastest pace: 1:48 min/km (2:54 min/mi) Max elevation: 235 m (770 ft) Min elevation: 168 m (551 ft) Elevation gain: 494 m (1622 ft) Max grade: 9 % Min grade: -10 % Recorded: 19/08/2017 10:36]]></desc>
  </wpt>
  <trk>
    <name><![CDATA[2017-08-19 10:36]]></name>
    <trkseg>
      <trkpt lat="45.9246" lon="4.73722">
        <ele>174</ele>
        <time>2017-08-19T08:36:51.338Z</time>
      </trkpt>
      <trkpt lat="45.9246" lon="4.73723">
        <ele>174</ele>
        <time>2017-08-19T08:37:09Z</time>
      </trkpt>
      <trkpt lat="45.92458" lon="4.73719">
        <ele>174</ele>
        <time>2017-08-19T08:37:27Z</time>
      </trkpt>
      <trkpt lat="45.9246" lon="4.73711">
        <ele>174</ele>
        <time>2017-08-19T08:37:28Z</time>
      </trkpt>
      <trkpt lat="45.92465" lon="4.73701">
        <ele>174</ele>
        <time>2017-08-19T08:37:33Z</time>
      </trkpt>
      <trkpt lat="45.92465" lon="4.73697">
        <ele>174</ele>
        <time>2017-08-19T08:37:34Z</time>
      </trkpt>
      <trkpt lat="45.92465" lon="4.73689">
        <ele>174</ele>
        <time>2017-08-19T08:37:36Z</time>
      </trkpt>
      <trkpt lat="45.92466" lon="4.73684">
        <ele>174</ele>
        <time>2017-08-19T08:37:37Z</time>
      </trkpt>
      <trkpt lat="45.92467" lon="4.73674">
        <ele>174</ele>
        <time>2017-08-19T08:37:39Z</time>
      </trkpt>
      <trkpt lat="45.92468" lon="4.73669">
        <ele>174</ele>
        <time>2017-08-19T08:37:40Z</time>
      </trkpt>
      <trkpt lat="45.92469" lon="4.73658">
        <ele>174</ele>
        <time>2017-08-19T08:37:42Z</time>
      </trkpt>
      <trkpt lat="45.9247" lon="4.73653">
        <ele>174</ele>
        <time>2017-08-19T08:37:43Z</time>
      </trkpt>
      <trkpt lat="45.92475" lon="4.73645">
        <ele>174</ele>
        <time>2017-08-19T08:37:45Z</time>
      </trkpt>
      <trkpt lat="45.92478" lon="4.73643">
        <ele>174</ele>
        <time>2017-08-19T08:37:46Z</time>
      </trkpt>
      <trkpt lat="45.92486" lon="4.73643">
        <ele>174</ele>
        <time>2017-08-19T08:37:48Z</time>
      </trkpt>
      <trkpt lat="45.9249" lon="4.73643">
        <ele>174</ele>
        <time>2017-08-19T08:37:49Z</time>
      </trkpt>
      <trkpt lat="45.92498" lon="4.73642">
        <ele>174</ele>
        <time>2017-08-19T08:37:51Z</time>
      </trkpt>
      <trkpt lat="45.92502" lon="4.73641">
        <ele>174</ele>
        <time>2017-08-19T08:37:52Z</time>
      </trkpt>
      <trkpt lat="45.92507" lon="4.73641">
        <ele>174</ele>
        <time>2017-08-19T08:37:53Z</time>
      </trkpt>
      <trkpt lat="45.92511" lon="4.73641">
        <ele>174</ele>
        <time>2017-08-19T08:37:54Z</time>
      </trkpt>
      <trkpt lat="45.92516" lon="4.73641">
        <ele>174</ele>
        <time>2017-08-19T08:37:55Z</time>
      </trkpt>
      <trkpt lat="45.9252" lon="4.73641">
        <ele>173</ele>
        <time>2017-08-19T08:37:56Z</time>
      </trkpt>
      <trkpt lat="45.92525" lon="4.73641">
        <ele>173</ele>
        <time>2017-08-19T08:37:57Z</time>
      </trkpt>
      <trkpt lat="45.9253" lon="4.73641">
        <ele>173</ele>
        <time>2017-08-19T08:37:58Z</time>
      </trkpt>
      <trkpt lat="45.92535" lon="4.7364">
        <ele>173</ele>
        <time>2017-08-19T08:37:59Z</time>
      </trkpt>
      <trkpt lat="45.9254" lon="4.73639">
        <ele>173</ele>
        <time>2017-08-19T08:38:00Z</time>
      </trkpt>
      <trkpt lat="45.92545" lon="4.73637">
        <ele>173</ele>
        <time>2017-08-19T08:38:01Z</time>
      </trkpt>
      <trkpt lat="45.9255" lon="4.73636">
        <ele>173</ele>
        <time>2017-08-19T08:38:02Z</time>
      </trkpt>
      <trkpt lat="45.92555" lon="4.73635">
        <ele>173</ele>
        <time>2017-08-19T08:38:03Z</time>
      </trkpt>
      <trkpt lat="45.92561" lon="4.73633">
        <ele>173</ele>
        <time>2017-08-19T08:38:04Z</time>
      </trkpt>
      <trkpt lat="45.92566" lon="4.73632">
        <ele>173</ele>
        <time>2017-08-19T08:38:05Z</time>
      </trkpt>
      <trkpt lat="45.92571" lon="4.73631">
        <ele>173</ele>
        <time>2017-08-19T08:38:06Z</time>
      </trkpt>
      <trkpt lat="45.92575" lon="4.7363">
        <ele>173</ele>
        <time>2017-08-19T08:38:07Z</time>
      </trkpt>
      <trkpt lat="45.9258" lon="4.73629">
        <ele>173</ele>
        <time>2017-08-19T08:38:08Z</time>
      </trkpt>
      <trkpt lat="45.92585" lon="4.73628">
        <ele>172</ele>
        <time>2017-08-19T08:38:09Z</time>
      </trkpt>
      <trkpt lat="45.9259" lon="4.73627">
        <ele>172</ele>
        <time>2017-08-19T08:38:10Z</time>
      </trkpt>
      <trkpt lat="45.92598" lon="4.73626">
        <ele>173</ele>
        <time>2017-08-19T08:38:12Z</time>
      </trkpt>
      <trkpt lat="45.92603" lon="4.73626">
        <ele>173</ele>
        <time>2017-08-19T08:38:13Z</time>
      </trkpt>
      <trkpt lat="45.92608" lon="4.73629">
        <ele>173</ele>
        <time>2017-08-19T08:38:14Z</time>
      </trkpt>
      <trkpt lat="45.92613" lon="4.73633">
        <ele>173</ele>
        <time>2017-08-19T08:38:15Z</time>
      </trkpt>
      <trkpt lat="45.92617" lon="4.73637">
        <ele>173</ele>
        <time>2017-08-19T08:38:16Z</time>
      </trkpt>
      <trkpt lat="45.92619" lon="4.73643">
        <ele>173</ele>
        <time>2017-08-19T08:38:17Z</time>
      </trkpt>
      <trkpt lat="45.92622" lon="4.73649">
        <ele>173</ele>
        <time>2017-08-19T08:38:18Z</time>
      </trkpt>
      <trkpt lat="45.92625" lon="4.73655">
        <ele>173</ele>
        <time>2017-08-19T08:38:19Z</time>
      </trkpt>
      <trkpt lat="45.92627" lon="4.73661">
        <ele>173</ele>
        <time>2017-08-19T08:38:20Z</time>
      </trkpt>
      <trkpt lat="45.92631" lon="4.73668">
        <ele>173</ele>
        <time>2017-08-19T08:38:21Z</time>
      </trkpt>
      <trkpt lat="45.92634" lon="4.73674">
        <ele>173</ele>
        <time>2017-08-19T08:38:22Z</time>
      </trkpt>
      <trkpt lat="45.92638" lon="4.7368">
        <ele>173</ele>
        <time>2017-08-19T08:38:23Z</time>
      </trkpt>
      <trkpt lat="45.92642" lon="4.73685">
        <ele>173</ele>
        <time>2017-08-19T08:38:24Z</time>
      </trkpt>
      <trkpt lat="45.92647" lon="4.7369">
        <ele>173</ele>
        <time>2017-08-19T08:38:25Z</time>
      </trkpt>
      <trkpt lat="45.92652" lon="4.73695">
        <ele>173</ele>
        <time>2017-08-19T08:38:26Z</time>
      </trkpt>
      <trkpt lat="45.92657" lon="4.737">
        <ele>173</ele>
        <time>2017-08-19T08:38:27Z</time>
      </trkpt>
      <trkpt lat="45.92662" lon="4.73704">
        <ele>173</ele>
        <time>2017-08-19T08:38:28Z</time>
      </trkpt>
      <trkpt lat="45.92667" lon="4.73708">
        <ele>173</ele>
        <time>2017-08-19T08:38:29Z</time>
      </trkpt>
      <trkpt lat="45.92672" lon="4.7371">
        <ele>174</ele>
        <time>2017-08-19T08:38:30Z</time>
      </trkpt>
      <trkpt lat="45.92677" lon="4.73712">
        <ele>173</ele>
        <time>2017-08-19T08:38:31Z</time>
      </trkpt>
      <trkpt lat="45.92683" lon="4.73714">
        <ele>173</ele>
        <time>2017-08-19T08:38:32Z</time>
      </trkpt>
      <trkpt lat="45.92688" lon="4.73714">
        <ele>173</ele>
        <time>2017-08-19T08:38:33Z</time>
      </trkpt>
      <trkpt lat="45.92693" lon="4.73716">
        <ele>173</ele>
        <time>2017-08-19T08:38:34Z</time>
      </trkpt>
      <trkpt lat="45.92698" lon="4.73717">
        <ele>173</ele>
        <time>2017-08-19T08:38:35Z</time>
      </trkpt>
      <trkpt lat="45.92703" lon="4.73718">
        <ele>173</ele>
        <time>2017-08-19T08:38:36Z</time>
      </trkpt>
      <trkpt lat="45.92708" lon="4.7372">
        <ele>173</ele>
        <time>2017-08-19T08:38:37Z</time>
      </trkpt>
      <trkpt lat="45.92714" lon="4.73721">
        <ele>173</ele>
        <time>2017-08-19T08:38:38Z</time>
      </trkpt>
      <trkpt lat="45.92719" lon="4.73722">
        <ele>173</ele>
        <time>2017-08-19T08:38:39Z</time>
      </trkpt>
      <trkpt lat="45.92724" lon="4.73723">
        <ele>173</ele>
        <time>2017-08-19T08:38:40Z</time>
      </trkpt>
      <trkpt lat="45.9273" lon="4.73724">
        <ele>173</ele>
        <time>2017-08-19T08:38:41Z</time>
      </trkpt>
      <trkpt lat="45.92735" lon="4.73725">
        <ele>173</ele>
        <time>2017-08-19T08:38:42Z</time>
      </trkpt>
      <trkpt lat="45.9274" lon="4.73726">
        <ele>173</ele>
        <time>2017-08-19T08:38:43Z</time>
      </trkpt>
      <trkpt lat="45.92745" lon="4.73727">
        <ele>173</ele>
        <time>2017-08-19T08:38:44Z</time>
      </trkpt>
      <trkpt lat="45.9275" lon="4.73728">
        <ele>173</ele>
        <time>2017-08-19T08:38:45Z</time>
      </trkpt>
      <trkpt lat="45.92758" lon="4.73731">
        <ele>172</ele>
        <time>2017-08-19T08:38:47Z</time>
      </trkpt>
      <trkpt lat="45.92761" lon="4.73732">
        <ele>172</ele>
        <time>2017-08-19T08:38:48Z</time>
      </trkpt>
      <trkpt lat="45.92769" lon="4.73735">
        <ele>172</ele>
        <time>2017-08-19T08:38:50Z</time>
      </trkpt>
      <trkpt lat="45.92773" lon="4.73736">
        <ele>172</ele>
        <time>2017-08-19T08:38:51Z</time>
      </trkpt>
      <trkpt lat="45.92777" lon="4.73744">
        <ele>172</ele>
        <time>2017-08-19T08:38:53Z</time>
      </trkpt>
      <trkpt lat="45.92779" lon="4.73748">
        <ele>172</ele>
        <time>2017-08-19T08:38:54Z</time>
      </trkpt>
      <trkpt lat="45.92785" lon="4.73756">
        <ele>173</ele>
        <time>2017-08-19T08:38:56Z</time>
      </trkpt>
      <trkpt lat="45.92789" lon="4.7376">
        <ele>173</ele>
        <time>2017-08-19T08:38:57Z</time>
      </trkpt>
      <trkpt lat="45.92794" lon="4.73763">
        <ele>173</ele>
        <time>2017-08-19T08:38:58Z</time>
      </trkpt>
      <trkpt lat="45.92799" lon="4.73765">
        <ele>173</ele>
        <time>2017-08-19T08:38:59Z</time>
      </trkpt>
      <trkpt lat="45.92804" lon="4.73768">
        <ele>173</ele>
        <time>2017-08-19T08:39:00Z</time>
      </trkpt>
      <trkpt lat="45.92809" lon="4.73771">
        <ele>173</ele>
        <time>2017-08-19T08:39:01Z</time>
      </trkpt>
      <trkpt lat="45.92815" lon="4.73775">
        <ele>173</ele>
        <time>2017-08-19T08:39:02Z</time>
      </trkpt>
      <trkpt lat="45.9282" lon="4.73778">
        <ele>173</ele>
        <time>2017-08-19T08:39:03Z</time>
      </trkpt>
      <trkpt lat="45.92825" lon="4.73782">
        <ele>173</ele>
        <time>2017-08-19T08:39:04Z</time>
      </trkpt>
      <trkpt lat="45.92831" lon="4.73786">
        <ele>173</ele>
        <time>2017-08-19T08:39:05Z</time>
      </trkpt>
      <trkpt lat="45.92836" lon="4.73789">
        <ele>173</ele>
        <time>2017-08-19T08:39:06Z</time>
      </trkpt>
      <trkpt lat="45.92841" lon="4.73793">
        <ele>173</ele>
        <time>2017-08-19T08:39:07Z</time>
      </trkpt>
      <trkpt lat="45.92846" lon="4.73796">
        <ele>173</ele>
        <time>2017-08-19T08:39:08Z</time>
      </trkpt>
      <trkpt lat="45.92851" lon="4.73801">
        <ele>173</ele>
        <time>2017-08-19T08:39:09Z</time>
      </trkpt>
      <trkpt lat="45.92855" lon="4.73807">
        <ele>173</ele>
        <time>2017-08-19T08:39:10Z</time>
      </trkpt>
      <trkpt lat="45.92857" lon="4.73814">
        <ele>173</ele>
        <time>2017-08-19T08:39:11Z</time>
      </trkpt>
      <trkpt lat="45.92859" lon="4.73822">
        <ele>173</ele>
        <time>2017-08-19T08:39:12Z</time>
      </trkpt>
      <trkpt lat="45.92861" lon="4.73829">
        <ele>173</ele>
        <time>2017-08-19T08:39:13Z</time>
      </trkpt>
      <trkpt lat="45.92863" lon="4.73837">
        <ele>173</ele>
        <time>2017-08-19T08:39:14Z</time>
      </trkpt>
      <trkpt lat="45.92864" lon="4.73844">
        <ele>173</ele>
        <time>2017-08-19T08:39:15Z</time>
      </trkpt>
      <trkpt lat="45.92866" lon="4.7385">
        <ele>173</ele>
        <time>2017-08-19T08:39:16Z</time>
      </trkpt>
      <trkpt lat="45.92867" lon="4.73857">
        <ele>173</ele>
        <time>2017-08-19T08:39:17Z</time>
      </trkpt>
      <trkpt lat="45.92869" lon="4.73866">
        <ele>173</ele>
        <time>2017-08-19T08:39:18Z</time>
      </trkpt>
      <trkpt lat="45.9287" lon="4.73873">
        <ele>173</ele>
        <time>2017-08-19T08:39:19Z</time>
      </trkpt>
      <trkpt lat="45.92872" lon="4.73882">
        <ele>173</ele>
        <time>2017-08-19T08:39:20Z</time>
      </trkpt>
      <trkpt lat="45.92874" lon="4.73891">
        <ele>173</ele>
        <time>2017-08-19T08:39:21Z</time>
      </trkpt>
      <trkpt lat="45.92874" lon="4.73899">
        <ele>173</ele>
        <time>2017-08-19T08:39:22Z</time>
      </trkpt>
      <trkpt lat="45.92874" lon="4.73906">
        <ele>173</ele>
        <time>2017-08-19T08:39:23Z</time>
      </trkpt>
      <trkpt lat="45.92875" lon="4.73914">
        <ele>173</ele>
        <time>2017-08-19T08:39:24Z</time>
      </trkpt>
      <trkpt lat="45.92876" lon="4.73923">
        <ele>172</ele>
        <time>2017-08-19T08:39:25Z</time>
      </trkpt>
      <trkpt lat="45.92877" lon="4.73931">
        <ele>172</ele>
        <time>2017-08-19T08:39:26Z</time>
      </trkpt>
      <trkpt lat="45.92877" lon="4.73939">
        <ele>172</ele>
        <time>2017-08-19T08:39:27Z</time>
      </trkpt>
      <trkpt lat="45.92877" lon="4.73947">
        <ele>172</ele>
        <time>2017-08-19T08:39:28Z</time>
      </trkpt>
      <trkpt lat="45.92877" lon="4.73955">
        <ele>172</ele>
        <time>2017-08-19T08:39:29Z</time>
      </trkpt>
      <trkpt lat="45.92877" lon="4.73963">
        <ele>172</ele>
        <time>2017-08-19T08:39:30Z</time>
      </trkpt>
      <trkpt lat="45.92877" lon="4.73971">
        <ele>172</ele>
        <time>2017-08-19T08:39:31Z</time>
      </trkpt>
      <trkpt lat="45.92877" lon="4.73979">
        <ele>172</ele>
        <time>2017-08-19T08:39:32Z</time>
      </trkpt>
      <trkpt lat="45.92876" lon="4.73986">
        <ele>172</ele>
        <time>2017-08-19T08:39:33Z</time>
      </trkpt>
      <trkpt lat="45.92874" lon="4.73992">
        <ele>173</ele>
        <time>2017-08-19T08:39:34Z</time>
      </trkpt>
      <trkpt lat="45.92873" lon="4.73998">
        <ele>173</ele>
        <time>2017-08-19T08:39:35Z</time>
      </trkpt>
      <trkpt lat="45.9287" lon="4.7401">
        <ele>172</ele>
        <time>2017-08-19T08:39:37Z</time>
      </trkpt>
      <trkpt lat="45.92869" lon="4.74016">
        <ele>172</ele>
        <time>2017-08-19T08:39:38Z</time>
      </trkpt>
      <trkpt lat="45.92868" lon="4.74022">
        <ele>172</ele>
        <time>2017-08-19T08:39:39Z</time>
      </trkpt>
      <trkpt lat="45.92867" lon="4.74029">
        <ele>172</ele>
        <time>2017-08-19T08:39:40Z</time>
      </trkpt>
      <trkpt lat="45.92865" lon="4.74036">
        <ele>172</ele>
        <time>2017-08-19T08:39:41Z</time>
      </trkpt>
      <trkpt lat="45.92863" lon="4.74042">
        <ele>172</ele>
        <time>2017-08-19T08:39:42Z</time>
      </trkpt>
      <trkpt lat="45.92859" lon="4.74047">
        <ele>172</ele>
        <time>2017-08-19T08:39:43Z</time>
      </trkpt>
      <trkpt lat="45.92855" lon="4.74053">
        <ele>172</ele>
        <time>2017-08-19T08:39:44Z</time>
      </trkpt>
      <trkpt lat="45.92851" lon="4.74059">
        <ele>172</ele>
        <time>2017-08-19T08:39:45Z</time>
      </trkpt>
      <trkpt lat="45.92846" lon="4.74064">
        <ele>172</ele>
        <time>2017-08-19T08:39:46Z</time>
      </trkpt>
      <trkpt lat="45.92842" lon="4.7407">
        <ele>172</ele>
        <time>2017-08-19T08:39:47Z</time>
      </trkpt>
      <trkpt lat="45.92838" lon="4.74075">
        <ele>171</ele>
        <time>2017-08-19T08:39:48Z</time>
      </trkpt>
      <trkpt lat="45.92834" lon="4.7408">
        <ele>171</ele>
        <time>2017-08-19T08:39:49Z</time>
      </trkpt>
      <trkpt lat="45.92831" lon="4.74085">
        <ele>171</ele>
        <time>2017-08-19T08:39:50Z</time>
      </trkpt>
      <trkpt lat="45.92827" lon="4.7409">
        <ele>171</ele>
        <time>2017-08-19T08:39:51Z</time>
      </trkpt>
      <trkpt lat="45.92823" lon="4.74094">
        <ele>171</ele>
        <time>2017-08-19T08:39:52Z</time>
      </trkpt>
      <trkpt lat="45.92819" lon="4.74099">
        <ele>171</ele>
        <time>2017-08-19T08:39:53Z</time>
      </trkpt>
      <trkpt lat="45.92815" lon="4.74104">
        <ele>172</ele>
        <time>2017-08-19T08:39:54Z</time>
      </trkpt>
      <trkpt lat="45.9281" lon="4.74109">
        <ele>172</ele>
        <time>2017-08-19T08:39:55Z</time>
      </trkpt>
      <trkpt lat="45.92806" lon="4.74114">
        <ele>172</ele>
        <time>2017-08-19T08:39:56Z</time>
      </trkpt>
      <trkpt lat="45.92801" lon="4.74119">
        <ele>172</ele>
        <time>2017-08-19T08:39:57Z</time>
      </trkpt>
      <trkpt lat="45.92796" lon="4.74124">
        <ele>172</ele>
        <time>2017-08-19T08:39:58Z</time>
      </trkpt>
      <trkpt lat="45.92791" lon="4.74128">
        <ele>172</ele>
        <time>2017-08-19T08:39:59Z</time>
      </trkpt>
      <trkpt lat="45.92787" lon="4.74133">
        <ele>172</ele>
        <time>2017-08-19T08:40:00Z</time>
      </trkpt>
      <trkpt lat="45.92782" lon="4.74138">
        <ele>172</ele>
        <time>2017-08-19T08:40:01Z</time>
      </trkpt>
      <trkpt lat="45.92777" lon="4.74143">
        <ele>172</ele>
        <time>2017-08-19T08:40:02Z</time>
      </trkpt>
      <trkpt lat="45.92772" lon="4.74148">
        <ele>172</ele>
        <time>2017-08-19T08:40:03Z</time>
      </trkpt>
      <trkpt lat="45.92768" lon="4.74153">
        <ele>172</ele>
        <time>2017-08-19T08:40:04Z</time>
      </trkpt>
      <trkpt lat="45.92763" lon="4.74159">
        <ele>172</ele>
        <time>2017-08-19T08:40:05Z</time>
      </trkpt>
      <trkpt lat="45.92758" lon="4.74164">
        <ele>172</ele>
        <time>2017-08-19T08:40:06Z</time>
      </trkpt>
      <trkpt lat="45.92753" lon="4.7417">
        <ele>172</ele>
        <time>2017-08-19T08:40:07Z</time>
      </trkpt>
      <trkpt lat="45.92748" lon="4.74175">
        <ele>172</ele>
        <time>2017-08-19T08:40:08Z</time>
      </trkpt>
      <trkpt lat="45.92743" lon="4.74181">
        <ele>172</ele>
        <time>2017-08-19T08:40:09Z</time>
      </trkpt>
      <trkpt lat="45.92738" lon="4.74187">
        <ele>172</ele>
        <time>2017-08-19T08:40:10Z</time>
      </trkpt>
      <trkpt lat="45.92734" lon="4.74193">
        <ele>171</ele>
        <time>2017-08-19T08:40:11Z</time>
      </trkpt>
      <trkpt lat="45.92729" lon="4.742">
        <ele>171</ele>
        <time>2017-08-19T08:40:12Z</time>
      </trkpt>
      <trkpt lat="45.92725" lon="4.74206">
        <ele>171</ele>
        <time>2017-08-19T08:40:13Z</time>
      </trkpt>
      <trkpt lat="45.92721" lon="4.74213">
        <ele>171</ele>
        <time>2017-08-19T08:40:14Z</time>
      </trkpt>
      <trkpt lat="45.92717" lon="4.74219">
        <ele>171</ele>
        <time>2017-08-19T08:40:15Z</time>
      </trkpt>
      <trkpt lat="45.92712" lon="4.74226">
        <ele>171</ele>
        <time>2017-08-19T08:40:16Z</time>
      </trkpt>
      <trkpt lat="45.92708" lon="4.74233">
        <ele>171</ele>
        <time>2017-08-19T08:40:17Z</time>
      </trkpt>
      <trkpt lat="45.92704" lon="4.7424">
        <ele>171</ele>
        <time>2017-08-19T08:40:18Z</time>
      </trkpt>
      <trkpt lat="45.927" lon="4.74247">
        <ele>171</ele>
        <time>2017-08-19T08:40:19Z</time>
      </trkpt>
      <trkpt lat="45.92696" lon="4.74255">
        <ele>171</ele>
        <time>2017-08-19T08:40:20Z</time>
      </trkpt>
      <trkpt lat="45.92692" lon="4.74262">
        <ele>171</ele>
        <time>2017-08-19T08:40:21Z</time>
      </trkpt>
      <trkpt lat="45.92688" lon="4.74269">
        <ele>171</ele>
        <time>2017-08-19T08:40:22Z</time>
      </trkpt>
      <trkpt lat="45.92684" lon="4.74275">
        <ele>171</ele>
        <time>2017-08-19T08:40:23Z</time>
      </trkpt>
      <trkpt lat="45.9268" lon="4.74282">
        <ele>171</ele>
        <time>2017-08-19T08:40:24Z</time>
      </trkpt>
      <trkpt lat="45.92676" lon="4.74288">
        <ele>171</ele>
        <time>2017-08-19T08:40:25Z</time>
      </trkpt>
      <trkpt lat="45.92672" lon="4.74295">
        <ele>171</ele>
        <time>2017-08-19T08:40:26Z</time>
      </trkpt>
      <trkpt lat="45.92669" lon="4.74301">
        <ele>171</ele>
        <time>2017-08-19T08:40:27Z</time>
      </trkpt>
      <trkpt lat="45.92665" lon="4.74307">
        <ele>171</ele>
        <time>2017-08-19T08:40:28Z</time>
      </trkpt>
      <trkpt lat="45.92662" lon="4.74313">
        <ele>171</ele>
        <time>2017-08-19T08:40:29Z</time>
      </trkpt>
      <trkpt lat="45.92659" lon="4.74318">
        <ele>171</ele>
        <time>2017-08-19T08:40:30Z</time>
      </trkpt>
      <trkpt lat="45.92655" lon="4.74324">
        <ele>171</ele>
        <time>2017-08-19T08:40:31Z</time>
      </trkpt>
      <trkpt lat="45.92652" lon="4.74331">
        <ele>171</ele>
        <time>2017-08-19T08:40:32Z</time>
      </trkpt>
      <trkpt lat="45.92648" lon="4.74338">
        <ele>171</ele>
        <time>2017-08-19T08:40:33Z</time>
      </trkpt>
      <trkpt lat="45.92644" lon="4.74344">
        <ele>171</ele>
        <time>2017-08-19T08:40:34Z</time>
      </trkpt>
      <trkpt lat="45.9264" lon="4.74351">
        <ele>171</ele>
        <time>2017-08-19T08:40:35Z</time>
      </trkpt>
      <trkpt lat="45.92636" lon="4.74358">
        <ele>171</ele>
        <time>2017-08-19T08:40:36Z</time>
      </trkpt>
      <trkpt lat="45.92632" lon="4.74365">
        <ele>171</ele>
        <time>2017-08-19T08:40:37Z</time>
      </trkpt>
      <trkpt lat="45.92628" lon="4.74372">
        <ele>171</ele>
        <time>2017-08-19T08:40:38Z</time>
      </trkpt>
      <trkpt lat="45.92625" lon="4.74379">
        <ele>170</ele>
        <time>2017-08-19T08:40:39Z</time>
      </trkpt>
      <trkpt lat="45.92621" lon="4.74387">
        <ele>170</ele>
        <time>2017-08-19T08:40:40Z</time>
      </trkpt>
      <trkpt lat="45.92617" lon="4.74394">
        <ele>170</ele>
        <time>2017-08-19T08:40:41Z</time>
      </trkpt>
      <trkpt lat="45.92613" lon="4.74401">
        <ele>170</ele>
        <time>2017-08-19T08:40:42Z</time>
      </trkpt>
      <trkpt lat="45.92609" lon="4.74409">
        <ele>170</ele>
        <time>2017-08-19T08:40:43Z</time>
      </trkpt>
      <trkpt lat="45.92605" lon="4.74416">
        <ele>170</ele>
        <time>2017-08-19T08:40:44Z</time>
      </trkpt>
      <trkpt lat="45.92601" lon="4.74424">
        <ele>170</ele>
        <time>2017-08-19T08:40:45Z</time>
      </trkpt>
      <trkpt lat="45.92597" lon="4.74431">
        <ele>170</ele>
        <time>2017-08-19T08:40:46Z</time>
      </trkpt>
      <trkpt lat="45.92592" lon="4.74439">
        <ele>170</ele>
        <time>2017-08-19T08:40:47Z</time>
      </trkpt>
      <trkpt lat="45.92588" lon="4.74447">
        <ele>170</ele>
        <time>2017-08-19T08:40:48Z</time>
      </trkpt>
      <trkpt lat="45.92584" lon="4.74455">
        <ele>170</ele>
        <time>2017-08-19T08:40:49Z</time>
      </trkpt>
      <trkpt lat="45.9258" lon="4.74462">
        <ele>170</ele>
        <time>2017-08-19T08:40:50Z</time>
      </trkpt>
      <trkpt lat="45.92576" lon="4.74469">
        <ele>170</ele>
        <time>2017-08-19T08:40:51Z</time>
      </trkpt>
      <trkpt lat="45.92572" lon="4.74476">
        <ele>170</ele>
        <time>2017-08-19T08:40:52Z</time>
      </trkpt>
      <trkpt lat="45.92568" lon="4.74483">
        <ele>170</ele>
        <time>2017-08-19T08:40:53Z</time>
      </trkpt>
      <trkpt lat="45.92564" lon="4.7449">
        <ele>170</ele>
        <time>2017-08-19T08:40:54Z</time>
      </trkpt>
      <trkpt lat="45.92561" lon="4.74496">
        <ele>170</ele>
        <time>2017-08-19T08:40:55Z</time>
      </trkpt>
      <trkpt lat="45.92557" lon="4.74502">
        <ele>170</ele>
        <time>2017-08-19T08:40:56Z</time>
      </trkpt>
      <trkpt lat="45.92553" lon="4.74509">
        <ele>170</ele>
        <time>2017-08-19T08:40:57Z</time>
      </trkpt>
      <trkpt lat="45.9255" lon="4.74515">
        <ele>170</ele>
        <time>2017-08-19T08:40:58Z</time>
      </trkpt>
      <trkpt lat="45.92546" lon="4.74521">
        <ele>170</ele>
        <time>2017-08-19T08:40:59Z</time>
      </trkpt>
      <trkpt lat="45.92543" lon="4.74528">
        <ele>170</ele>
        <time>2017-08-19T08:41:00Z</time>
      </trkpt>
      <trkpt lat="45.92539" lon="4.74534">
        <ele>171</ele>
        <time>2017-08-19T08:41:01Z</time>
      </trkpt>
      <trkpt lat="45.92535" lon="4.74541">
        <ele>171</ele>
        <time>2017-08-19T08:41:02Z</time>
      </trkpt>
      <trkpt lat="45.92531" lon="4.74548">
        <ele>171</ele>
        <time>2017-08-19T08:41:03Z</time>
      </trkpt>
      <trkpt lat="45.92526" lon="4.74555">
        <ele>171</ele>
        <time>2017-08-19T08:41:04Z</time>
      </trkpt>
      <trkpt lat="45.92522" lon="4.74562">
        <ele>171</ele>
        <time>2017-08-19T08:41:05Z</time>
      </trkpt>
      <trkpt lat="45.92517" lon="4.74568">
        <ele>171</ele>
        <time>2017-08-19T08:41:06Z</time>
      </trkpt>
      <trkpt lat="45.92511" lon="4.74574">
        <ele>171</ele>
        <time>2017-08-19T08:41:07Z</time>
      </trkpt>
      <trkpt lat="45.92506" lon="4.74579">
        <ele>171</ele>
        <time>2017-08-19T08:41:08Z</time>
      </trkpt>
      <trkpt lat="45.92502" lon="4.74585">
        <ele>171</ele>
        <time>2017-08-19T08:41:09Z</time>
      </trkpt>
      <trkpt lat="45.92497" lon="4.74591">
        <ele>171</ele>
        <time>2017-08-19T08:41:10Z</time>
      </trkpt>
      <trkpt lat="45.92492" lon="4.74597">
        <ele>171</ele>
        <time>2017-08-19T08:41:11Z</time>
      </trkpt>
      <trkpt lat="45.92487" lon="4.74603">
        <ele>171</ele>
        <time>2017-08-19T08:41:12Z</time>
      </trkpt>
      <trkpt lat="45.92482" lon="4.74609">
        <ele>171</ele>
        <time>2017-08-19T08:41:13Z</time>
      </trkpt>
      <trkpt lat="45.92477" lon="4.74616">
        <ele>171</ele>
        <time>2017-08-19T08:41:14Z</time>
      </trkpt>
      <trkpt lat="45.92473" lon="4.74623">
        <ele>171</ele>
        <time>2017-08-19T08:41:15Z</time>
      </trkpt>
      <trkpt lat="45.92469" lon="4.7463">
        <ele>171</ele>
        <time>2017-08-19T08:41:16Z</time>
      </trkpt>
      <trkpt lat="45.92464" lon="4.74636">
        <ele>171</ele>
        <time>2017-08-19T08:41:17Z</time>
      </trkpt>
      <trkpt lat="45.9246" lon="4.74642">
        <ele>171</ele>
        <time>2017-08-19T08:41:18Z</time>
      </trkpt>
      <trkpt lat="45.92456" lon="4.74647">
        <ele>171</ele>
        <time>2017-08-19T08:41:19Z</time>
      </trkpt>
      <trkpt lat="45.92452" lon="4.74653">
        <ele>171</ele>
        <time>2017-08-19T08:41:20Z</time>
      </trkpt>
      <trkpt lat="45.92449" lon="4.7466">
        <ele>171</ele>
        <time>2017-08-19T08:41:21Z</time>
      </trkpt>
      <trkpt lat="45.92446" lon="4.74668">
        <ele>171</ele>
        <time>2017-08-19T08:41:22Z</time>
      </trkpt>
      <trkpt lat="45.92443" lon="4.74674">
        <ele>171</ele>
        <time>2017-08-19T08:41:23Z</time>
      </trkpt>
      <trkpt lat="45.92439" lon="4.74682">
        <ele>171</ele>
        <time>2017-08-19T08:41:24Z</time>
      </trkpt>
      <trkpt lat="45.92437" lon="4.74689">
        <ele>171</ele>
        <time>2017-08-19T08:41:25Z</time>
      </trkpt>
      <trkpt lat="45.92434" lon="4.74697">
        <ele>171</ele>
        <time>2017-08-19T08:41:26Z</time>
      </trkpt>
      <trkpt lat="45.92431" lon="4.74705">
        <ele>171</ele>
        <time>2017-08-19T08:41:27Z</time>
      </trkpt>
      <trkpt lat="45.92428" lon="4.74711">
        <ele>171</ele>
        <time>2017-08-19T08:41:28Z</time>
      </trkpt>
      <trkpt lat="45.92425" lon="4.74719">
        <ele>171</ele>
        <time>2017-08-19T08:41:29Z</time>
      </trkpt>
      <trkpt lat="45.92423" lon="4.74727">
        <ele>171</ele>
        <time>2017-08-19T08:41:30Z</time>
      </trkpt>
      <trkpt lat="45.9242" lon="4.74735">
        <ele>171</ele>
        <time>2017-08-19T08:41:31Z</time>
      </trkpt>
      <trkpt lat="45.92418" lon="4.74743">
        <ele>172</ele>
        <time>2017-08-19T08:41:32Z</time>
      </trkpt>
      <trkpt lat="45.92415" lon="4.74752">
        <ele>172</ele>
        <time>2017-08-19T08:41:33Z</time>
      </trkpt>
      <trkpt lat="45.92413" lon="4.7476">
        <ele>172</ele>
        <time>2017-08-19T08:41:34Z</time>
      </trkpt>
      <trkpt lat="45.92411" lon="4.74768">
        <ele>172</ele>
        <time>2017-08-19T08:41:35Z</time>
      </trkpt>
      <trkpt lat="45.92409" lon="4.74777">
        <ele>171</ele>
        <time>2017-08-19T08:41:36Z</time>
      </trkpt>
      <trkpt lat="45.92407" lon="4.74786">
        <ele>171</ele>
        <time>2017-08-19T08:41:37Z</time>
      </trkpt>
      <trkpt lat="45.92405" lon="4.74795">
        <ele>171</ele>
        <time>2017-08-19T08:41:38Z</time>
      </trkpt>
      <trkpt lat="45.92404" lon="4.74803">
        <ele>171</ele>
        <time>2017-08-19T08:41:39Z</time>
      </trkpt>
      <trkpt lat="45.92402" lon="4.74811">
        <ele>171</ele>
        <time>2017-08-19T08:41:40Z</time>
      </trkpt>
      <trkpt lat="45.924" lon="4.7482">
        <ele>171</ele>
        <time>2017-08-19T08:41:41Z</time>
      </trkpt>
      <trkpt lat="45.92398" lon="4.74828">
        <ele>171</ele>
        <time>2017-08-19T08:41:42Z</time>
      </trkpt>
      <trkpt lat="45.92396" lon="4.74836">
        <ele>171</ele>
        <time>2017-08-19T08:41:43Z</time>
      </trkpt>
      <trkpt lat="45.92394" lon="4.74844">
        <ele>171</ele>
        <time>2017-08-19T08:41:44Z</time>
      </trkpt>
      <trkpt lat="45.92391" lon="4.74853">
        <ele>171</ele>
        <time>2017-08-19T08:41:45Z</time>
      </trkpt>
      <trkpt lat="45.92389" lon="4.7486">
        <ele>171</ele>
        <time>2017-08-19T08:41:46Z</time>
      </trkpt>
      <trkpt lat="45.92386" lon="4.74868">
        <ele>171</ele>
        <time>2017-08-19T08:41:47Z</time>
      </trkpt>
      <trkpt lat="45.92383" lon="4.74876">
        <ele>171</ele>
        <time>2017-08-19T08:41:48Z</time>
      </trkpt>
      <trkpt lat="45.9238" lon="4.74884">
        <ele>171</ele>
        <time>2017-08-19T08:41:49Z</time>
      </trkpt>
      <trkpt lat="45.92377" lon="4.74892">
        <ele>171</ele>
        <time>2017-08-19T08:41:50Z</time>
      </trkpt>
      <trkpt lat="45.92374" lon="4.749">
        <ele>171</ele>
        <time>2017-08-19T08:41:51Z</time>
      </trkpt>
      <trkpt lat="45.92371" lon="4.74908">
        <ele>171</ele>
        <time>2017-08-19T08:41:52Z</time>
      </trkpt>
      <trkpt lat="45.92367" lon="4.74916">
        <ele>171</ele>
        <time>2017-08-19T08:41:53Z</time>
      </trkpt>
      <trkpt lat="45.92364" lon="4.74924">
        <ele>170</ele>
        <time>2017-08-19T08:41:54Z</time>
      </trkpt>
      <trkpt lat="45.92361" lon="4.74931">
        <ele>170</ele>
        <time>2017-08-19T08:41:55Z</time>
      </trkpt>
      <trkpt lat="45.92358" lon="4.74939">
        <ele>170</ele>
        <time>2017-08-19T08:41:56Z</time>
      </trkpt>
      <trkpt lat="45.92355" lon="4.74947">
        <ele>170</ele>
        <time>2017-08-19T08:41:57Z</time>
      </trkpt>
      <trkpt lat="45.92352" lon="4.74955">
        <ele>170</ele>
        <time>2017-08-19T08:41:58Z</time>
      </trkpt>
      <trkpt lat="45.92349" lon="4.74962">
        <ele>170</ele>
        <time>2017-08-19T08:41:59Z</time>
      </trkpt>
      <trkpt lat="45.92345" lon="4.7497">
        <ele>170</ele>
        <time>2017-08-19T08:42:00Z</time>
      </trkpt>
      <trkpt lat="45.92342" lon="4.74978">
        <ele>170</ele>
        <time>2017-08-19T08:42:01Z</time>
      </trkpt>
      <trkpt lat="45.92339" lon="4.74986">
        <ele>170</ele>
        <time>2017-08-19T08:42:02Z</time>
      </trkpt>
      <trkpt lat="45.92336" lon="4.74994">
        <ele>170</ele>
        <time>2017-08-19T08:42:03Z</time>
      </trkpt>
      <trkpt lat="45.92333" lon="4.75002">
        <ele>170</ele>
        <time>2017-08-19T08:42:04Z</time>
      </trkpt>
      <trkpt lat="45.9233" lon="4.75009">
        <ele>171</ele>
        <time>2017-08-19T08:42:05Z</time>
      </trkpt>
      <trkpt lat="45.92327" lon="4.75016">
        <ele>171</ele>
        <time>2017-08-19T08:42:06Z</time>
      </trkpt>
      <trkpt lat="45.92323" lon="4.75023">
        <ele>171</ele>
        <time>2017-08-19T08:42:07Z</time>
      </trkpt>
      <trkpt lat="45.9232" lon="4.7503">
        <ele>171</ele>
        <time>2017-08-19T08:42:08Z</time>
      </trkpt>
      <trkpt lat="45.92316" lon="4.75036">
        <ele>171</ele>
        <time>2017-08-19T08:42:09Z</time>
      </trkpt>
      <trkpt lat="45.92313" lon="4.75041">
        <ele>172</ele>
        <time>2017-08-19T08:42:10Z</time>
      </trkpt>
      <trkpt lat="45.92309" lon="4.75047">
        <ele>172</ele>
        <time>2017-08-19T08:42:11Z</time>
      </trkpt>
      <trkpt lat="45.92305" lon="4.75052">
        <ele>172</ele>
        <time>2017-08-19T08:42:12Z</time>
      </trkpt>
      <trkpt lat="45.92301" lon="4.75057">
        <ele>172</ele>
        <time>2017-08-19T08:42:13Z</time>
      </trkpt>
      <trkpt lat="45.92297" lon="4.75062">
        <ele>172</ele>
        <time>2017-08-19T08:42:14Z</time>
      </trkpt>
      <trkpt lat="45.92292" lon="4.75068">
        <ele>172</ele>
        <time>2017-08-19T08:42:15Z</time>
      </trkpt>
      <trkpt lat="45.92288" lon="4.75073">
        <ele>172</ele>
        <time>2017-08-19T08:42:16Z</time>
      </trkpt>
      <trkpt lat="45.92283" lon="4.75079">
        <ele>172</ele>
        <time>2017-08-19T08:42:17Z</time>
      </trkpt>
      <trkpt lat="45.92279" lon="4.75084">
        <ele>173</ele>
        <time>2017-08-19T08:42:18Z</time>
      </trkpt>
      <trkpt lat="45.92274" lon="4.7509">
        <ele>173</ele>
        <time>2017-08-19T08:42:19Z</time>
      </trkpt>
      <trkpt lat="45.92269" lon="4.75095">
        <ele>173</ele>
        <time>2017-08-19T08:42:20Z</time>
      </trkpt>
      <trkpt lat="45.92264" lon="4.75099">
        <ele>173</ele>
        <time>2017-08-19T08:42:21Z</time>
      </trkpt>
      <trkpt lat="45.92259" lon="4.75105">
        <ele>173</ele>
        <time>2017-08-19T08:42:22Z</time>
      </trkpt>
      <trkpt lat="45.92255" lon="4.7511">
        <ele>174</ele>
        <time>2017-08-19T08:42:23Z</time>
      </trkpt>
      <trkpt lat="45.9225" lon="4.75116">
        <ele>174</ele>
        <time>2017-08-19T08:42:24Z</time>
      </trkpt>
      <trkpt lat="45.92245" lon="4.75121">
        <ele>174</ele>
        <time>2017-08-19T08:42:25Z</time>
      </trkpt>
      <trkpt lat="45.92241" lon="4.75127">
        <ele>174</ele>
        <time>2017-08-19T08:42:26Z</time>
      </trkpt>
      <trkpt lat="45.92237" lon="4.75133">
        <ele>174</ele>
        <time>2017-08-19T08:42:27Z</time>
      </trkpt>
      <trkpt lat="45.92233" lon="4.75139">
        <ele>174</ele>
        <time>2017-08-19T08:42:28Z</time>
      </trkpt>
      <trkpt lat="45.92229" lon="4.75146">
        <ele>174</ele>
        <time>2017-08-19T08:42:29Z</time>
      </trkpt>
      <trkpt lat="45.92225" lon="4.75152">
        <ele>174</ele>
        <time>2017-08-19T08:42:30Z</time>
      </trkpt>
      <trkpt lat="45.92222" lon="4.7516">
        <ele>174</ele>
        <time>2017-08-19T08:42:31Z</time>
      </trkpt>
      <trkpt lat="45.92219" lon="4.75167">
        <ele>175</ele>
        <time>2017-08-19T08:42:32Z</time>
      </trkpt>
      <trkpt lat="45.92217" lon="4.75175">
        <ele>175</ele>
        <time>2017-08-19T08:42:33Z</time>
      </trkpt>
      <trkpt lat="45.92215" lon="4.75183">
        <ele>175</ele>
        <time>2017-08-19T08:42:34Z</time>
      </trkpt>
      <trkpt lat="45.92213" lon="4.7519">
        <ele>175</ele>
        <time>2017-08-19T08:42:35Z</time>
      </trkpt>
      <trkpt lat="45.92211" lon="4.75198">
        <ele>175</ele>
        <time>2017-08-19T08:42:36Z</time>
      </trkpt>
      <trkpt lat="45.9221" lon="4.75206">
        <ele>175</ele>
        <time>2017-08-19T08:42:37Z</time>
      </trkpt>
      <trkpt lat="45.92209" lon="4.75213">
        <ele>175</ele>
        <time>2017-08-19T08:42:38Z</time>
      </trkpt>
      <trkpt lat="45.92209" lon="4.75221">
        <ele>175</ele>
        <time>2017-08-19T08:42:39Z</time>
      </trkpt>
      <trkpt lat="45.92208" lon="4.75228">
        <ele>175</ele>
        <time>2017-08-19T08:42:40Z</time>
      </trkpt>
      <trkpt lat="45.92208" lon="4.75236">
        <ele>175</ele>
        <time>2017-08-19T08:42:41Z</time>
      </trkpt>
      <trkpt lat="45.92208" lon="4.75243">
        <ele>175</ele>
        <time>2017-08-19T08:42:42Z</time>
      </trkpt>
      <trkpt lat="45.92207" lon="4.7525">
        <ele>175</ele>
        <time>2017-08-19T08:42:43Z</time>
      </trkpt>
      <trkpt lat="45.92207" lon="4.75257">
        <ele>175</ele>
        <time>2017-08-19T08:42:44Z</time>
      </trkpt>
      <trkpt lat="45.92207" lon="4.75264">
        <ele>176</ele>
        <time>2017-08-19T08:42:45Z</time>
      </trkpt>
      <trkpt lat="45.92207" lon="4.75271">
        <ele>176</ele>
        <time>2017-08-19T08:42:46Z</time>
      </trkpt>
      <trkpt lat="45.92207" lon="4.75278">
        <ele>176</ele>
        <time>2017-08-19T08:42:47Z</time>
      </trkpt>
      <trkpt lat="45.92207" lon="4.75286">
        <ele>176</ele>
        <time>2017-08-19T08:42:48Z</time>
      </trkpt>
      <trkpt lat="45.92206" lon="4.75293">
        <ele>176</ele>
        <time>2017-08-19T08:42:49Z</time>
      </trkpt>
      <trkpt lat="45.92206" lon="4.75299">
        <ele>176</ele>
        <time>2017-08-19T08:42:50Z</time>
      </trkpt>
      <trkpt lat="45.92205" lon="4.75306">
        <ele>176</ele>
        <time>2017-08-19T08:42:51Z</time>
      </trkpt>
      <trkpt lat="45.92204" lon="4.75313">
        <ele>176</ele>
        <time>2017-08-19T08:42:52Z</time>
      </trkpt>
      <trkpt lat="45.92203" lon="4.7532">
        <ele>176</ele>
        <time>2017-08-19T08:42:53Z</time>
      </trkpt>
      <trkpt lat="45.92202" lon="4.75327">
        <ele>176</ele>
        <time>2017-08-19T08:42:54Z</time>
      </trkpt>
      <trkpt lat="45.92201" lon="4.75334">
        <ele>177</ele>
        <time>2017-08-19T08:42:55Z</time>
      </trkpt>
      <trkpt lat="45.922" lon="4.75341">
        <ele>177</ele>
        <time>2017-08-19T08:42:56Z</time>
      </trkpt>
      <trkpt lat="45.92199" lon="4.75347">
        <ele>177</ele>
        <time>2017-08-19T08:42:57Z</time>
      </trkpt>
      <trkpt lat="45.92197" lon="4.75354">
        <ele>177</ele>
        <time>2017-08-19T08:42:58Z</time>
      </trkpt>
      <trkpt lat="45.92195" lon="4.7536">
        <ele>177</ele>
        <time>2017-08-19T08:42:59Z</time>
      </trkpt>
      <trkpt lat="45.92192" lon="4.75366">
        <ele>177</ele>
        <time>2017-08-19T08:43:00Z</time>
      </trkpt>
      <trkpt lat="45.9219" lon="4.75372">
        <ele>177</ele>
        <time>2017-08-19T08:43:01Z</time>
      </trkpt>
      <trkpt lat="45.92188" lon="4.75379">
        <ele>177</ele>
        <time>2017-08-19T08:43:02Z</time>
      </trkpt>
      <trkpt lat="45.92185" lon="4.75386">
        <ele>177</ele>
        <time>2017-08-19T08:43:03Z</time>
      </trkpt>
      <trkpt lat="45.92182" lon="4.75393">
        <ele>177</ele>
        <time>2017-08-19T08:43:04Z</time>
      </trkpt>
      <trkpt lat="45.9218" lon="4.754">
        <ele>177</ele>
        <time>2017-08-19T08:43:05Z</time>
      </trkpt>
      <trkpt lat="45.92177" lon="4.75407">
        <ele>177</ele>
        <time>2017-08-19T08:43:06Z</time>
      </trkpt>
      <trkpt lat="45.92174" lon="4.75415">
        <ele>178</ele>
        <time>2017-08-19T08:43:07Z</time>
      </trkpt>
      <trkpt lat="45.92171" lon="4.75421">
        <ele>177</ele>
        <time>2017-08-19T08:43:08Z</time>
      </trkpt>
      <trkpt lat="45.92168" lon="4.75427">
        <ele>177</ele>
        <time>2017-08-19T08:43:09Z</time>
      </trkpt>
      <trkpt lat="45.92166" lon="4.75434">
        <ele>177</ele>
        <time>2017-08-19T08:43:10Z</time>
      </trkpt>
      <trkpt lat="45.92163" lon="4.75441">
        <ele>177</ele>
        <time>2017-08-19T08:43:11Z</time>
      </trkpt>
      <trkpt lat="45.9216" lon="4.75447">
        <ele>176</ele>
        <time>2017-08-19T08:43:12Z</time>
      </trkpt>
      <trkpt lat="45.92157" lon="4.75454">
        <ele>176</ele>
        <time>2017-08-19T08:43:13Z</time>
      </trkpt>
      <trkpt lat="45.92155" lon="4.75461">
        <ele>176</ele>
        <time>2017-08-19T08:43:14Z</time>
      </trkpt>
      <trkpt lat="45.92152" lon="4.75467">
        <ele>176</ele>
        <time>2017-08-19T08:43:15Z</time>
      </trkpt>
      <trkpt lat="45.9215" lon="4.75474">
        <ele>176</ele>
        <time>2017-08-19T08:43:16Z</time>
      </trkpt>
      <trkpt lat="45.92147" lon="4.7548">
        <ele>176</ele>
        <time>2017-08-19T08:43:17Z</time>
      </trkpt>
      <trkpt lat="45.92144" lon="4.75486">
        <ele>176</ele>
        <time>2017-08-19T08:43:18Z</time>
      </trkpt>
      <trkpt lat="45.9214" lon="4.75492">
        <ele>176</ele>
        <time>2017-08-19T08:43:19Z</time>
      </trkpt>
      <trkpt lat="45.92137" lon="4.75499">
        <ele>175</ele>
        <time>2017-08-19T08:43:20Z</time>
      </trkpt>
      <trkpt lat="45.92133" lon="4.75506">
        <ele>174</ele>
        <time>2017-08-19T08:43:21Z</time>
      </trkpt>
      <trkpt lat="45.92129" lon="4.75513">
        <ele>174</ele>
        <time>2017-08-19T08:43:22Z</time>
      </trkpt>
      <trkpt lat="45.92126" lon="4.75521">
        <ele>174</ele>
        <time>2017-08-19T08:43:23Z</time>
      </trkpt>
      <trkpt lat="45.92122" lon="4.75528">
        <ele>174</ele>
        <time>2017-08-19T08:43:24Z</time>
      </trkpt>
      <trkpt lat="45.92118" lon="4.75535">
        <ele>174</ele>
        <time>2017-08-19T08:43:25Z</time>
      </trkpt>
      <trkpt lat="45.92114" lon="4.75542">
        <ele>174</ele>
        <time>2017-08-19T08:43:26Z</time>
      </trkpt>
      <trkpt lat="45.9211" lon="4.7555">
        <ele>174</ele>
        <time>2017-08-19T08:43:27Z</time>
      </trkpt>
      <trkpt lat="45.92106" lon="4.75557">
        <ele>174</ele>
        <time>2017-08-19T08:43:28Z</time>
      </trkpt>
      <trkpt lat="45.92102" lon="4.75564">
        <ele>174</ele>
        <time>2017-08-19T08:43:29Z</time>
      </trkpt>
      <trkpt lat="45.92098" lon="4.75571">
        <ele>174</ele>
        <time>2017-08-19T08:43:30Z</time>
      </trkpt>
      <trkpt lat="45.92094" lon="4.75579">
        <ele>174</ele>
        <time>2017-08-19T08:43:31Z</time>
      </trkpt>
      <trkpt lat="45.9209" lon="4.75587">
        <ele>174</ele>
        <time>2017-08-19T08:43:32Z</time>
      </trkpt>
      <trkpt lat="45.92086" lon="4.75595">
        <ele>174</ele>
        <time>2017-08-19T08:43:33Z</time>
      </trkpt>
      <trkpt lat="45.92082" lon="4.75602">
        <ele>175</ele>
        <time>2017-08-19T08:43:34Z</time>
      </trkpt>
      <trkpt lat="45.92078" lon="4.7561">
        <ele>175</ele>
        <time>2017-08-19T08:43:35Z</time>
      </trkpt>
      <trkpt lat="45.92074" lon="4.75617">
        <ele>175</ele>
        <time>2017-08-19T08:43:36Z</time>
      </trkpt>
      <trkpt lat="45.9207" lon="4.75624">
        <ele>175</ele>
        <time>2017-08-19T08:43:37Z</time>
      </trkpt>
      <trkpt lat="45.92066" lon="4.75632">
        <ele>175</ele>
        <time>2017-08-19T08:43:38Z</time>
      </trkpt>
      <trkpt lat="45.92063" lon="4.75638">
        <ele>175</ele>
        <time>2017-08-19T08:43:39Z</time>
      </trkpt>
      <trkpt lat="45.92059" lon="4.75645">
        <ele>175</ele>
        <time>2017-08-19T08:43:40Z</time>
      </trkpt>
      <trkpt lat="45.92056" lon="4.75651">
        <ele>175</ele>
        <time>2017-08-19T08:43:41Z</time>
      </trkpt>
      <trkpt lat="45.92052" lon="4.75658">
        <ele>175</ele>
        <time>2017-08-19T08:43:42Z</time>
      </trkpt>
      <trkpt lat="45.92049" lon="4.75664">
        <ele>175</ele>
        <time>2017-08-19T08:43:43Z</time>
      </trkpt>
      <trkpt lat="45.92045" lon="4.75671">
        <ele>175</ele>
        <time>2017-08-19T08:43:44Z</time>
      </trkpt>
      <trkpt lat="45.92042" lon="4.75678">
        <ele>175</ele>
        <time>2017-08-19T08:43:45Z</time>
      </trkpt>
      <trkpt lat="45.92038" lon="4.75685">
        <ele>175</ele>
        <time>2017-08-19T08:43:46Z</time>
      </trkpt>
      <trkpt lat="45.92034" lon="4.75692">
        <ele>175</ele>
        <time>2017-08-19T08:43:47Z</time>
      </trkpt>
      <trkpt lat="45.9203" lon="4.75698">
        <ele>175</ele>
        <time>2017-08-19T08:43:48Z</time>
      </trkpt>
      <trkpt lat="45.92026" lon="4.75705">
        <ele>175</ele>
        <time>2017-08-19T08:43:49Z</time>
      </trkpt>
      <trkpt lat="45.92022" lon="4.75712">
        <ele>175</ele>
        <time>2017-08-19T08:43:50Z</time>
      </trkpt>
      <trkpt lat="45.92018" lon="4.75719">
        <ele>175</ele>
        <time>2017-08-19T08:43:51Z</time>
      </trkpt>
      <trkpt lat="45.92013" lon="4.75726">
        <ele>175</ele>
        <time>2017-08-19T08:43:52Z</time>
      </trkpt>
      <trkpt lat="45.92009" lon="4.75734">
        <ele>174</ele>
        <time>2017-08-19T08:43:53Z</time>
      </trkpt>
      <trkpt lat="45.92005" lon="4.75741">
        <ele>174</ele>
        <time>2017-08-19T08:43:54Z</time>
      </trkpt>
      <trkpt lat="45.92" lon="4.75749">
        <ele>174</ele>
        <time>2017-08-19T08:43:55Z</time>
      </trkpt>
      <trkpt lat="45.91996" lon="4.75756">
        <ele>174</ele>
        <time>2017-08-19T08:43:56Z</time>
      </trkpt>
      <trkpt lat="45.91992" lon="4.75764">
        <ele>174</ele>
        <time>2017-08-19T08:43:57Z</time>
      </trkpt>
      <trkpt lat="45.91987" lon="4.75771">
        <ele>174</ele>
        <time>2017-08-19T08:43:58Z</time>
      </trkpt>
      <trkpt lat="45.91983" lon="4.75779">
        <ele>174</ele>
        <time>2017-08-19T08:43:59Z</time>
      </trkpt>
      <trkpt lat="45.9198" lon="4.75786">
        <ele>173</ele>
        <time>2017-08-19T08:44:00Z</time>
      </trkpt>
      <trkpt lat="45.91976" lon="4.75793">
        <ele>173</ele>
        <time>2017-08-19T08:44:01Z</time>
      </trkpt>
      <trkpt lat="45.91972" lon="4.758">
        <ele>173</ele>
        <time>2017-08-19T08:44:02Z</time>
      </trkpt>
      <trkpt lat="45.91968" lon="4.75807">
        <ele>173</ele>
        <time>2017-08-19T08:44:03Z</time>
      </trkpt>
      <trkpt lat="45.91964" lon="4.75814">
        <ele>173</ele>
        <time>2017-08-19T08:44:04Z</time>
      </trkpt>
      <trkpt lat="45.9196" lon="4.7582">
        <ele>173</ele>
        <time>2017-08-19T08:44:05Z</time>
      </trkpt>
      <trkpt lat="45.91957" lon="4.75827">
        <ele>173</ele>
        <time>2017-08-19T08:44:06Z</time>
      </trkpt>
      <trkpt lat="45.91953" lon="4.75833">
        <ele>173</ele>
        <time>2017-08-19T08:44:07Z</time>
      </trkpt>
      <trkpt lat="45.91949" lon="4.75839">
        <ele>172</ele>
        <time>2017-08-19T08:44:08Z</time>
      </trkpt>
      <trkpt lat="45.91946" lon="4.75846">
        <ele>172</ele>
        <time>2017-08-19T08:44:09Z</time>
      </trkpt>
      <trkpt lat="45.91942" lon="4.75853">
        <ele>172</ele>
        <time>2017-08-19T08:44:10Z</time>
      </trkpt>
      <trkpt lat="45.91939" lon="4.7586">
        <ele>172</ele>
        <time>2017-08-19T08:44:11Z</time>
      </trkpt>
      <trkpt lat="45.91935" lon="4.75868">
        <ele>172</ele>
        <time>2017-08-19T08:44:12Z</time>
      </trkpt>
      <trkpt lat="45.91932" lon="4.75876">
        <ele>172</ele>
        <time>2017-08-19T08:44:13Z</time>
      </trkpt>
      <trkpt lat="45.91929" lon="4.75884">
        <ele>172</ele>
        <time>2017-08-19T08:44:14Z</time>
      </trkpt>
      <trkpt lat="45.91926" lon="4.75892">
        <ele>172</ele>
        <time>2017-08-19T08:44:15Z</time>
      </trkpt>
      <trkpt lat="45.91924" lon="4.759">
        <ele>172</ele>
        <time>2017-08-19T08:44:16Z</time>
      </trkpt>
      <trkpt lat="45.91921" lon="4.75909">
        <ele>172</ele>
        <time>2017-08-19T08:44:17Z</time>
      </trkpt>
      <trkpt lat="45.91919" lon="4.75917">
        <ele>172</ele>
        <time>2017-08-19T08:44:18Z</time>
      </trkpt>
      <trkpt lat="45.91916" lon="4.75925">
        <ele>172</ele>
        <time>2017-08-19T08:44:19Z</time>
      </trkpt>
      <trkpt lat="45.91914" lon="4.75934">
        <ele>173</ele>
        <time>2017-08-19T08:44:20Z</time>
      </trkpt>
      <trkpt lat="45.91912" lon="4.75943">
        <ele>173</ele>
        <time>2017-08-19T08:44:21Z</time>
      </trkpt>
      <trkpt lat="45.9191" lon="4.75951">
        <ele>173</ele>
        <time>2017-08-19T08:44:22Z</time>
      </trkpt>
      <trkpt lat="45.91908" lon="4.7596">
        <ele>173</ele>
        <time>2017-08-19T08:44:23Z</time>
      </trkpt>
      <trkpt lat="45.91906" lon="4.75969">
        <ele>173</ele>
        <time>2017-08-19T08:44:24Z</time>
      </trkpt>
      <trkpt lat="45.91903" lon="4.75978">
        <ele>173</ele>
        <time>2017-08-19T08:44:25Z</time>
      </trkpt>
      <trkpt lat="45.91901" lon="4.75987">
        <ele>173</ele>
        <time>2017-08-19T08:44:26Z</time>
      </trkpt>
      <trkpt lat="45.91899" lon="4.75996">
        <ele>173</ele>
        <time>2017-08-19T08:44:27Z</time>
      </trkpt>
      <trkpt lat="45.91896" lon="4.76004">
        <ele>173</ele>
        <time>2017-08-19T08:44:28Z</time>
      </trkpt>
      <trkpt lat="45.91894" lon="4.76013">
        <ele>173</ele>
        <time>2017-08-19T08:44:29Z</time>
      </trkpt>
      <trkpt lat="45.91892" lon="4.76022">
        <ele>173</ele>
        <time>2017-08-19T08:44:30Z</time>
      </trkpt>
      <trkpt lat="45.91889" lon="4.76031">
        <ele>173</ele>
        <time>2017-08-19T08:44:31Z</time>
      </trkpt>
      <trkpt lat="45.91887" lon="4.7604">
        <ele>173</ele>
        <time>2017-08-19T08:44:32Z</time>
      </trkpt>
      <trkpt lat="45.91885" lon="4.76048">
        <ele>173</ele>
        <time>2017-08-19T08:44:33Z</time>
      </trkpt>
      <trkpt lat="45.91883" lon="4.76056">
        <ele>173</ele>
        <time>2017-08-19T08:44:34Z</time>
      </trkpt>
      <trkpt lat="45.9188" lon="4.76064">
        <ele>173</ele>
        <time>2017-08-19T08:44:35Z</time>
      </trkpt>
      <trkpt lat="45.91878" lon="4.76071">
        <ele>173</ele>
        <time>2017-08-19T08:44:36Z</time>
      </trkpt>
      <trkpt lat="45.91876" lon="4.76079">
        <ele>173</ele>
        <time>2017-08-19T08:44:37Z</time>
      </trkpt>
      <trkpt lat="45.91874" lon="4.76087">
        <ele>173</ele>
        <time>2017-08-19T08:44:38Z</time>
      </trkpt>
      <trkpt lat="45.91872" lon="4.76095">
        <ele>173</ele>
        <time>2017-08-19T08:44:39Z</time>
      </trkpt>
      <trkpt lat="45.9187" lon="4.76103">
        <ele>173</ele>
        <time>2017-08-19T08:44:40Z</time>
      </trkpt>
      <trkpt lat="45.91868" lon="4.76112">
        <ele>173</ele>
        <time>2017-08-19T08:44:41Z</time>
      </trkpt>
      <trkpt lat="45.91866" lon="4.7612">
        <ele>173</ele>
        <time>2017-08-19T08:44:42Z</time>
      </trkpt>
      <trkpt lat="45.91863" lon="4.76129">
        <ele>173</ele>
        <time>2017-08-19T08:44:43Z</time>
      </trkpt>
      <trkpt lat="45.91861" lon="4.76138">
        <ele>173</ele>
        <time>2017-08-19T08:44:44Z</time>
      </trkpt>
      <trkpt lat="45.91859" lon="4.76147">
        <ele>173</ele>
        <time>2017-08-19T08:44:45Z</time>
      </trkpt>
      <trkpt lat="45.91857" lon="4.76157">
        <ele>173</ele>
        <time>2017-08-19T08:44:46Z</time>
      </trkpt>
      <trkpt lat="45.91854" lon="4.76165">
        <ele>173</ele>
        <time>2017-08-19T08:44:47Z</time>
      </trkpt>
      <trkpt lat="45.91852" lon="4.76175">
        <ele>172</ele>
        <time>2017-08-19T08:44:48Z</time>
      </trkpt>
      <trkpt lat="45.9185" lon="4.76184">
        <ele>172</ele>
        <time>2017-08-19T08:44:49Z</time>
      </trkpt>
      <trkpt lat="45.91848" lon="4.76192">
        <ele>172</ele>
        <time>2017-08-19T08:44:50Z</time>
      </trkpt>
      <trkpt lat="45.91846" lon="4.76201">
        <ele>172</ele>
        <time>2017-08-19T08:44:51Z</time>
      </trkpt>
      <trkpt lat="45.91843" lon="4.7621">
        <ele>172</ele>
        <time>2017-08-19T08:44:52Z</time>
      </trkpt>
      <trkpt lat="45.91842" lon="4.76218">
        <ele>172</ele>
        <time>2017-08-19T08:44:53Z</time>
      </trkpt>
      <trkpt lat="45.9184" lon="4.76226">
        <ele>172</ele>
        <time>2017-08-19T08:44:54Z</time>
      </trkpt>
      <trkpt lat="45.91838" lon="4.76235">
        <ele>173</ele>
        <time>2017-08-19T08:44:55Z</time>
      </trkpt>
      <trkpt lat="45.91835" lon="4.76242">
        <ele>173</ele>
        <time>2017-08-19T08:44:56Z</time>
      </trkpt>
      <trkpt lat="45.91833" lon="4.76251">
        <ele>173</ele>
        <time>2017-08-19T08:44:57Z</time>
      </trkpt>
      <trkpt lat="45.91831" lon="4.76259">
        <ele>174</ele>
        <time>2017-08-19T08:44:58Z</time>
      </trkpt>
      <trkpt lat="45.91829" lon="4.76268">
        <ele>174</ele>
        <time>2017-08-19T08:44:59Z</time>
      </trkpt>
      <trkpt lat="45.91827" lon="4.76276">
        <ele>174</ele>
        <time>2017-08-19T08:45:00Z</time>
      </trkpt>
      <trkpt lat="45.91824" lon="4.76285">
        <ele>174</ele>
        <time>2017-08-19T08:45:01Z</time>
      </trkpt>
      <trkpt lat="45.91822" lon="4.76293">
        <ele>174</ele>
        <time>2017-08-19T08:45:02Z</time>
      </trkpt>
      <trkpt lat="45.9182" lon="4.76302">
        <ele>174</ele>
        <time>2017-08-19T08:45:03Z</time>
      </trkpt>
      <trkpt lat="45.91818" lon="4.7631">
        <ele>174</ele>
        <time>2017-08-19T08:45:04Z</time>
      </trkpt>
      <trkpt lat="45.91816" lon="4.76319">
        <ele>174</ele>
        <time>2017-08-19T08:45:05Z</time>
      </trkpt>
      <trkpt lat="45.91814" lon="4.76327">
        <ele>174</ele>
        <time>2017-08-19T08:45:06Z</time>
      </trkpt>
      <trkpt lat="45.91813" lon="4.76336">
        <ele>174</ele>
        <time>2017-08-19T08:45:07Z</time>
      </trkpt>
      <trkpt lat="45.91812" lon="4.76344">
        <ele>174</ele>
        <time>2017-08-19T08:45:08Z</time>
      </trkpt>
      <trkpt lat="45.91811" lon="4.76353">
        <ele>174</ele>
        <time>2017-08-19T08:45:09Z</time>
      </trkpt>
      <trkpt lat="45.9181" lon="4.76362">
        <ele>174</ele>
        <time>2017-08-19T08:45:10Z</time>
      </trkpt>
      <trkpt lat="45.91809" lon="4.7637">
        <ele>174</ele>
        <time>2017-08-19T08:45:11Z</time>
      </trkpt>
      <trkpt lat="45.91809" lon="4.76379">
        <ele>174</ele>
        <time>2017-08-19T08:45:12Z</time>
      </trkpt>
      <trkpt lat="45.91808" lon="4.76388">
        <ele>174</ele>
        <time>2017-08-19T08:45:13Z</time>
      </trkpt>
      <trkpt lat="45.91808" lon="4.76398">
        <ele>173</ele>
        <time>2017-08-19T08:45:14Z</time>
      </trkpt>
      <trkpt lat="45.91807" lon="4.76407">
        <ele>173</ele>
        <time>2017-08-19T08:45:15Z</time>
      </trkpt>
      <trkpt lat="45.91807" lon="4.76416">
        <ele>173</ele>
        <time>2017-08-19T08:45:16Z</time>
      </trkpt>
      <trkpt lat="45.91807" lon="4.76425">
        <ele>173</ele>
        <time>2017-08-19T08:45:17Z</time>
      </trkpt>
      <trkpt lat="45.91806" lon="4.76434">
        <ele>173</ele>
        <time>2017-08-19T08:45:18Z</time>
      </trkpt>
      <trkpt lat="45.91806" lon="4.76443">
        <ele>173</ele>
        <time>2017-08-19T08:45:19Z</time>
      </trkpt>
      <trkpt lat="45.91805" lon="4.76452">
        <ele>173</ele>
        <time>2017-08-19T08:45:20Z</time>
      </trkpt>
      <trkpt lat="45.91805" lon="4.76461">
        <ele>173</ele>
        <time>2017-08-19T08:45:21Z</time>
      </trkpt>
      <trkpt lat="45.91804" lon="4.76471">
        <ele>173</ele>
        <time>2017-08-19T08:45:22Z</time>
      </trkpt>
      <trkpt lat="45.91803" lon="4.7648">
        <ele>173</ele>
        <time>2017-08-19T08:45:23Z</time>
      </trkpt>
      <trkpt lat="45.91802" lon="4.76489">
        <ele>173</ele>
        <time>2017-08-19T08:45:24Z</time>
      </trkpt>
      <trkpt lat="45.91802" lon="4.76497">
        <ele>173</ele>
        <time>2017-08-19T08:45:25Z</time>
      </trkpt>
      <trkpt lat="45.91801" lon="4.76504">
        <ele>173</ele>
        <time>2017-08-19T08:45:26Z</time>
      </trkpt>
      <trkpt lat="45.91801" lon="4.76512">
        <ele>173</ele>
        <time>2017-08-19T08:45:27Z</time>
      </trkpt>
      <trkpt lat="45.918" lon="4.7652">
        <ele>173</ele>
        <time>2017-08-19T08:45:28Z</time>
      </trkpt>
      <trkpt lat="45.918" lon="4.76527">
        <ele>173</ele>
        <time>2017-08-19T08:45:29Z</time>
      </trkpt>
      <trkpt lat="45.91799" lon="4.76534">
        <ele>173</ele>
        <time>2017-08-19T08:45:30Z</time>
      </trkpt>
      <trkpt lat="45.91799" lon="4.7654">
        <ele>173</ele>
        <time>2017-08-19T08:45:31Z</time>
      </trkpt>
      <trkpt lat="45.91799" lon="4.76547">
        <ele>173</ele>
        <time>2017-08-19T08:45:32Z</time>
      </trkpt>
      <trkpt lat="45.91798" lon="4.76554">
        <ele>173</ele>
        <time>2017-08-19T08:45:33Z</time>
      </trkpt>
      <trkpt lat="45.91798" lon="4.76562">
        <ele>173</ele>
        <time>2017-08-19T08:45:34Z</time>
      </trkpt>
      <trkpt lat="45.91797" lon="4.7657">
        <ele>173</ele>
        <time>2017-08-19T08:45:35Z</time>
      </trkpt>
      <trkpt lat="45.91796" lon="4.76579">
        <ele>173</ele>
        <time>2017-08-19T08:45:36Z</time>
      </trkpt>
      <trkpt lat="45.91795" lon="4.76587">
        <ele>173</ele>
        <time>2017-08-19T08:45:37Z</time>
      </trkpt>
      <trkpt lat="45.91794" lon="4.76596">
        <ele>173</ele>
        <time>2017-08-19T08:45:38Z</time>
      </trkpt>
      <trkpt lat="45.91793" lon="4.76605">
        <ele>173</ele>
        <time>2017-08-19T08:45:39Z</time>
      </trkpt>
      <trkpt lat="45.91791" lon="4.76615">
        <ele>173</ele>
        <time>2017-08-19T08:45:40Z</time>
      </trkpt>
      <trkpt lat="45.9179" lon="4.76624">
        <ele>173</ele>
        <time>2017-08-19T08:45:41Z</time>
      </trkpt>
      <trkpt lat="45.91789" lon="4.76633">
        <ele>173</ele>
        <time>2017-08-19T08:45:42Z</time>
      </trkpt>
      <trkpt lat="45.91788" lon="4.76643">
        <ele>173</ele>
        <time>2017-08-19T08:45:43Z</time>
      </trkpt>
      <trkpt lat="45.91786" lon="4.76652">
        <ele>173</ele>
        <time>2017-08-19T08:45:44Z</time>
      </trkpt>
      <trkpt lat="45.91785" lon="4.76661">
        <ele>173</ele>
        <time>2017-08-19T08:45:45Z</time>
      </trkpt>
      <trkpt lat="45.91784" lon="4.7667">
        <ele>172</ele>
        <time>2017-08-19T08:45:46Z</time>
      </trkpt>
      <trkpt lat="45.91782" lon="4.76679">
        <ele>172</ele>
        <time>2017-08-19T08:45:47Z</time>
      </trkpt>
      <trkpt lat="45.91781" lon="4.76689">
        <ele>172</ele>
        <time>2017-08-19T08:45:48Z</time>
      </trkpt>
      <trkpt lat="45.9178" lon="4.76697">
        <ele>172</ele>
        <time>2017-08-19T08:45:49Z</time>
      </trkpt>
      <trkpt lat="45.91779" lon="4.76706">
        <ele>172</ele>
        <time>2017-08-19T08:45:50Z</time>
      </trkpt>
      <trkpt lat="45.91778" lon="4.76715">
        <ele>172</ele>
        <time>2017-08-19T08:45:51Z</time>
      </trkpt>
      <trkpt lat="45.91777" lon="4.76724">
        <ele>172</ele>
        <time>2017-08-19T08:45:52Z</time>
      </trkpt>
      <trkpt lat="45.91777" lon="4.76733">
        <ele>172</ele>
        <time>2017-08-19T08:45:53Z</time>
      </trkpt>
      <trkpt lat="45.91778" lon="4.76743">
        <ele>172</ele>
        <time>2017-08-19T08:45:54Z</time>
      </trkpt>
      <trkpt lat="45.91777" lon="4.76752">
        <ele>171</ele>
        <time>2017-08-19T08:45:55Z</time>
      </trkpt>
      <trkpt lat="45.91777" lon="4.76762">
        <ele>171</ele>
        <time>2017-08-19T08:45:56Z</time>
      </trkpt>
      <trkpt lat="45.91777" lon="4.76771">
        <ele>171</ele>
        <time>2017-08-19T08:45:57Z</time>
      </trkpt>
      <trkpt lat="45.91777" lon="4.76781">
        <ele>171</ele>
        <time>2017-08-19T08:45:58Z</time>
      </trkpt>
      <trkpt lat="45.91777" lon="4.7679">
        <ele>171</ele>
        <time>2017-08-19T08:45:59Z</time>
      </trkpt>
      <trkpt lat="45.91777" lon="4.768">
        <ele>171</ele>
        <time>2017-08-19T08:46:00Z</time>
      </trkpt>
      <trkpt lat="45.91777" lon="4.76811">
        <ele>171</ele>
        <time>2017-08-19T08:46:01Z</time>
      </trkpt>
      <trkpt lat="45.91777" lon="4.76821">
        <ele>171</ele>
        <time>2017-08-19T08:46:02Z</time>
      </trkpt>
      <trkpt lat="45.91777" lon="4.76831">
        <ele>171</ele>
        <time>2017-08-19T08:46:03Z</time>
      </trkpt>
      <trkpt lat="45.91776" lon="4.76841">
        <ele>170</ele>
        <time>2017-08-19T08:46:04Z</time>
      </trkpt>
      <trkpt lat="45.91776" lon="4.76852">
        <ele>170</ele>
        <time>2017-08-19T08:46:05Z</time>
      </trkpt>
      <trkpt lat="45.91775" lon="4.76862">
        <ele>170</ele>
        <time>2017-08-19T08:46:06Z</time>
      </trkpt>
      <trkpt lat="45.91775" lon="4.76873">
        <ele>170</ele>
        <time>2017-08-19T08:46:07Z</time>
      </trkpt>
      <trkpt lat="45.91775" lon="4.76883">
        <ele>170</ele>
        <time>2017-08-19T08:46:08Z</time>
      </trkpt>
      <trkpt lat="45.91774" lon="4.76893">
        <ele>170</ele>
        <time>2017-08-19T08:46:09Z</time>
      </trkpt>
      <trkpt lat="45.91773" lon="4.76903">
        <ele>170</ele>
        <time>2017-08-19T08:46:10Z</time>
      </trkpt>
      <trkpt lat="45.91773" lon="4.76913">
        <ele>170</ele>
        <time>2017-08-19T08:46:11Z</time>
      </trkpt>
      <trkpt lat="45.91772" lon="4.76922">
        <ele>170</ele>
        <time>2017-08-19T08:46:12Z</time>
      </trkpt>
      <trkpt lat="45.91771" lon="4.76931">
        <ele>170</ele>
        <time>2017-08-19T08:46:13Z</time>
      </trkpt>
      <trkpt lat="45.9177" lon="4.7694">
        <ele>169</ele>
        <time>2017-08-19T08:46:14Z</time>
      </trkpt>
      <trkpt lat="45.91769" lon="4.76949">
        <ele>169</ele>
        <time>2017-08-19T08:46:15Z</time>
      </trkpt>
      <trkpt lat="45.91769" lon="4.76958">
        <ele>169</ele>
        <time>2017-08-19T08:46:16Z</time>
      </trkpt>
      <trkpt lat="45.91768" lon="4.76966">
        <ele>169</ele>
        <time>2017-08-19T08:46:17Z</time>
      </trkpt>
      <trkpt lat="45.91767" lon="4.76975">
        <ele>169</ele>
        <time>2017-08-19T08:46:18Z</time>
      </trkpt>
      <trkpt lat="45.91765" lon="4.76984">
        <ele>169</ele>
        <time>2017-08-19T08:46:19Z</time>
      </trkpt>
      <trkpt lat="45.91764" lon="4.76992">
        <ele>169</ele>
        <time>2017-08-19T08:46:20Z</time>
      </trkpt>
      <trkpt lat="45.91762" lon="4.77001">
        <ele>169</ele>
        <time>2017-08-19T08:46:21Z</time>
      </trkpt>
      <trkpt lat="45.91761" lon="4.7701">
        <ele>169</ele>
        <time>2017-08-19T08:46:22Z</time>
      </trkpt>
      <trkpt lat="45.9176" lon="4.77019">
        <ele>169</ele>
        <time>2017-08-19T08:46:23Z</time>
      </trkpt>
      <trkpt lat="45.91759" lon="4.77028">
        <ele>169</ele>
        <time>2017-08-19T08:46:24Z</time>
      </trkpt>
      <trkpt lat="45.91757" lon="4.77038">
        <ele>169</ele>
        <time>2017-08-19T08:46:25Z</time>
      </trkpt>
      <trkpt lat="45.91755" lon="4.77048">
        <ele>169</ele>
        <time>2017-08-19T08:46:26Z</time>
      </trkpt>
      <trkpt lat="45.91754" lon="4.77057">
        <ele>169</ele>
        <time>2017-08-19T08:46:27Z</time>
      </trkpt>
      <trkpt lat="45.91752" lon="4.77067">
        <ele>169</ele>
        <time>2017-08-19T08:46:28Z</time>
      </trkpt>
      <trkpt lat="45.91751" lon="4.77077">
        <ele>169</ele>
        <time>2017-08-19T08:46:29Z</time>
      </trkpt>
      <trkpt lat="45.91749" lon="4.77086">
        <ele>169</ele>
        <time>2017-08-19T08:46:30Z</time>
      </trkpt>
      <trkpt lat="45.91748" lon="4.77096">
        <ele>170</ele>
        <time>2017-08-19T08:46:31Z</time>
      </trkpt>
      <trkpt lat="45.91747" lon="4.77106">
        <ele>170</ele>
        <time>2017-08-19T08:46:32Z</time>
      </trkpt>
      <trkpt lat="45.91745" lon="4.77115">
        <ele>170</ele>
        <time>2017-08-19T08:46:33Z</time>
      </trkpt>
      <trkpt lat="45.91744" lon="4.77125">
        <ele>170</ele>
        <time>2017-08-19T08:46:34Z</time>
      </trkpt>
      <trkpt lat="45.91743" lon="4.77135">
        <ele>170</ele>
        <time>2017-08-19T08:46:35Z</time>
      </trkpt>
      <trkpt lat="45.91741" lon="4.77144">
        <ele>170</ele>
        <time>2017-08-19T08:46:36Z</time>
      </trkpt>
      <trkpt lat="45.9174" lon="4.77153">
        <ele>170</ele>
        <time>2017-08-19T08:46:37Z</time>
      </trkpt>
      <trkpt lat="45.91738" lon="4.77162">
        <ele>170</ele>
        <time>2017-08-19T08:46:38Z</time>
      </trkpt>
      <trkpt lat="45.91737" lon="4.77171">
        <ele>170</ele>
        <time>2017-08-19T08:46:39Z</time>
      </trkpt>
      <trkpt lat="45.91736" lon="4.77179">
        <ele>170</ele>
        <time>2017-08-19T08:46:40Z</time>
      </trkpt>
      <trkpt lat="45.91734" lon="4.77188">
        <ele>170</ele>
        <time>2017-08-19T08:46:41Z</time>
      </trkpt>
      <trkpt lat="45.91733" lon="4.77196">
        <ele>170</ele>
        <time>2017-08-19T08:46:42Z</time>
      </trkpt>
      <trkpt lat="45.91732" lon="4.77204">
        <ele>170</ele>
        <time>2017-08-19T08:46:43Z</time>
      </trkpt>
      <trkpt lat="45.91731" lon="4.77212">
        <ele>170</ele>
        <time>2017-08-19T08:46:44Z</time>
      </trkpt>
      <trkpt lat="45.9173" lon="4.7722">
        <ele>170</ele>
        <time>2017-08-19T08:46:45Z</time>
      </trkpt>
      <trkpt lat="45.91728" lon="4.77228">
        <ele>170</ele>
        <time>2017-08-19T08:46:46Z</time>
      </trkpt>
      <trkpt lat="45.91727" lon="4.77236">
        <ele>170</ele>
        <time>2017-08-19T08:46:47Z</time>
      </trkpt>
      <trkpt lat="45.91725" lon="4.77245">
        <ele>170</ele>
        <time>2017-08-19T08:46:48Z</time>
      </trkpt>
      <trkpt lat="45.91723" lon="4.77253">
        <ele>170</ele>
        <time>2017-08-19T08:46:49Z</time>
      </trkpt>
      <trkpt lat="45.91722" lon="4.77261">
        <ele>170</ele>
        <time>2017-08-19T08:46:50Z</time>
      </trkpt>
      <trkpt lat="45.9172" lon="4.77269">
        <ele>170</ele>
        <time>2017-08-19T08:46:51Z</time>
      </trkpt>
      <trkpt lat="45.91719" lon="4.77278">
        <ele>170</ele>
        <time>2017-08-19T08:46:52Z</time>
      </trkpt>
      <trkpt lat="45.91718" lon="4.77287">
        <ele>170</ele>
        <time>2017-08-19T08:46:53Z</time>
      </trkpt>
      <trkpt lat="45.91716" lon="4.77296">
        <ele>170</ele>
        <time>2017-08-19T08:46:54Z</time>
      </trkpt>
      <trkpt lat="45.91715" lon="4.77306">
        <ele>170</ele>
        <time>2017-08-19T08:46:55Z</time>
      </trkpt>
      <trkpt lat="45.91713" lon="4.77315">
        <ele>170</ele>
        <time>2017-08-19T08:46:56Z</time>
      </trkpt>
      <trkpt lat="45.91712" lon="4.77324">
        <ele>170</ele>
        <time>2017-08-19T08:46:57Z</time>
      </trkpt>
      <trkpt lat="45.9171" lon="4.77332">
        <ele>170</ele>
        <time>2017-08-19T08:46:58Z</time>
      </trkpt>
      <trkpt lat="45.91708" lon="4.7734">
        <ele>171</ele>
        <time>2017-08-19T08:46:59Z</time>
      </trkpt>
      <trkpt lat="45.91707" lon="4.77347">
        <ele>171</ele>
        <time>2017-08-19T08:47:00Z</time>
      </trkpt>
      <trkpt lat="45.91706" lon="4.77354">
        <ele>171</ele>
        <time>2017-08-19T08:47:01Z</time>
      </trkpt>
      <trkpt lat="45.91704" lon="4.77362">
        <ele>171</ele>
        <time>2017-08-19T08:47:02Z</time>
      </trkpt>
      <trkpt lat="45.91703" lon="4.77369">
        <ele>171</ele>
        <time>2017-08-19T08:47:03Z</time>
      </trkpt>
      <trkpt lat="45.91701" lon="4.77376">
        <ele>171</ele>
        <time>2017-08-19T08:47:04Z</time>
      </trkpt>
      <trkpt lat="45.91699" lon="4.77384">
        <ele>171</ele>
        <time>2017-08-19T08:47:05Z</time>
      </trkpt>
      <trkpt lat="45.91698" lon="4.77392">
        <ele>171</ele>
        <time>2017-08-19T08:47:06Z</time>
      </trkpt>
      <trkpt lat="45.91696" lon="4.77401">
        <ele>171</ele>
        <time>2017-08-19T08:47:07Z</time>
      </trkpt>
      <trkpt lat="45.91694" lon="4.77409">
        <ele>171</ele>
        <time>2017-08-19T08:47:08Z</time>
      </trkpt>
      <trkpt lat="45.91693" lon="4.77418">
        <ele>171</ele>
        <time>2017-08-19T08:47:09Z</time>
      </trkpt>
      <trkpt lat="45.91693" lon="4.77426">
        <ele>171</ele>
        <time>2017-08-19T08:47:10Z</time>
      </trkpt>
      <trkpt lat="45.91692" lon="4.77435">
        <ele>171</ele>
        <time>2017-08-19T08:47:11Z</time>
      </trkpt>
      <trkpt lat="45.91692" lon="4.77443">
        <ele>171</ele>
        <time>2017-08-19T08:47:12Z</time>
      </trkpt>
      <trkpt lat="45.91691" lon="4.77451">
        <ele>171</ele>
        <time>2017-08-19T08:47:13Z</time>
      </trkpt>
      <trkpt lat="45.9169" lon="4.77458">
        <ele>171</ele>
        <time>2017-08-19T08:47:14Z</time>
      </trkpt>
      <trkpt lat="45.91687" lon="4.77464">
        <ele>171</ele>
        <time>2017-08-19T08:47:15Z</time>
      </trkpt>
      <trkpt lat="45.91683" lon="4.77469">
        <ele>171</ele>
        <time>2017-08-19T08:47:16Z</time>
      </trkpt>
      <trkpt lat="45.91678" lon="4.77473">
        <ele>170</ele>
        <time>2017-08-19T08:47:17Z</time>
      </trkpt>
      <trkpt lat="45.91673" lon="4.77477">
        <ele>170</ele>
        <time>2017-08-19T08:47:18Z</time>
      </trkpt>
      <trkpt lat="45.91668" lon="4.77481">
        <ele>170</ele>
        <time>2017-08-19T08:47:19Z</time>
      </trkpt>
      <trkpt lat="45.91663" lon="4.77485">
        <ele>171</ele>
        <time>2017-08-19T08:47:20Z</time>
      </trkpt>
      <trkpt lat="45.91658" lon="4.77487">
        <ele>171</ele>
        <time>2017-08-19T08:47:21Z</time>
      </trkpt>
      <trkpt lat="45.91652" lon="4.7749">
        <ele>171</ele>
        <time>2017-08-19T08:47:22Z</time>
      </trkpt>
      <trkpt lat="45.91647" lon="4.77493">
        <ele>171</ele>
        <time>2017-08-19T08:47:23Z</time>
      </trkpt>
      <trkpt lat="45.91641" lon="4.77496">
        <ele>171</ele>
        <time>2017-08-19T08:47:24Z</time>
      </trkpt>
      <trkpt lat="45.91635" lon="4.77498">
        <ele>171</ele>
        <time>2017-08-19T08:47:25Z</time>
      </trkpt>
      <trkpt lat="45.91629" lon="4.77501">
        <ele>171</ele>
        <time>2017-08-19T08:47:26Z</time>
      </trkpt>
      <trkpt lat="45.91624" lon="4.77507">
        <ele>171</ele>
        <time>2017-08-19T08:47:27Z</time>
      </trkpt>
      <trkpt lat="45.91619" lon="4.77512">
        <ele>171</ele>
        <time>2017-08-19T08:47:28Z</time>
      </trkpt>
      <trkpt lat="45.91615" lon="4.77518">
        <ele>171</ele>
        <time>2017-08-19T08:47:29Z</time>
      </trkpt>
      <trkpt lat="45.91611" lon="4.77526">
        <ele>171</ele>
        <time>2017-08-19T08:47:30Z</time>
      </trkpt>
      <trkpt lat="45.91607" lon="4.77533">
        <ele>171</ele>
        <time>2017-08-19T08:47:31Z</time>
      </trkpt>
      <trkpt lat="45.91603" lon="4.7754">
        <ele>171</ele>
        <time>2017-08-19T08:47:32Z</time>
      </trkpt>
      <trkpt lat="45.91598" lon="4.77547">
        <ele>171</ele>
        <time>2017-08-19T08:47:33Z</time>
      </trkpt>
      <trkpt lat="45.91593" lon="4.77555">
        <ele>172</ele>
        <time>2017-08-19T08:47:34Z</time>
      </trkpt>
      <trkpt lat="45.91589" lon="4.77562">
        <ele>172</ele>
        <time>2017-08-19T08:47:35Z</time>
      </trkpt>
      <trkpt lat="45.91585" lon="4.7757">
        <ele>172</ele>
        <time>2017-08-19T08:47:36Z</time>
      </trkpt>
      <trkpt lat="45.91581" lon="4.77577">
        <ele>173</ele>
        <time>2017-08-19T08:47:37Z</time>
      </trkpt>
      <trkpt lat="45.91576" lon="4.77584">
        <ele>173</ele>
        <time>2017-08-19T08:47:38Z</time>
      </trkpt>
      <trkpt lat="45.91572" lon="4.77591">
        <ele>173</ele>
        <time>2017-08-19T08:47:39Z</time>
      </trkpt>
      <trkpt lat="45.91568" lon="4.77598">
        <ele>174</ele>
        <time>2017-08-19T08:47:40Z</time>
      </trkpt>
      <trkpt lat="45.91565" lon="4.77605">
        <ele>174</ele>
        <time>2017-08-19T08:47:41Z</time>
      </trkpt>
      <trkpt lat="45.91561" lon="4.77611">
        <ele>174</ele>
        <time>2017-08-19T08:47:42Z</time>
      </trkpt>
      <trkpt lat="45.91558" lon="4.77617">
        <ele>174</ele>
        <time>2017-08-19T08:47:43Z</time>
      </trkpt>
      <trkpt lat="45.91554" lon="4.77623">
        <ele>174</ele>
        <time>2017-08-19T08:47:44Z</time>
      </trkpt>
      <trkpt lat="45.9155" lon="4.77629">
        <ele>174</ele>
        <time>2017-08-19T08:47:45Z</time>
      </trkpt>
      <trkpt lat="45.91546" lon="4.77635">
        <ele>174</ele>
        <time>2017-08-19T08:47:46Z</time>
      </trkpt>
      <trkpt lat="45.91542" lon="4.7764">
        <ele>174</ele>
        <time>2017-08-19T08:47:47Z</time>
      </trkpt>
      <trkpt lat="45.91539" lon="4.77645">
        <ele>174</ele>
        <time>2017-08-19T08:47:48Z</time>
      </trkpt>
      <trkpt lat="45.91535" lon="4.77651">
        <ele>174</ele>
        <time>2017-08-19T08:47:49Z</time>
      </trkpt>
      <trkpt lat="45.91531" lon="4.77655">
        <ele>174</ele>
        <time>2017-08-19T08:47:50Z</time>
      </trkpt>
      <trkpt lat="45.91527" lon="4.7766">
        <ele>175</ele>
        <time>2017-08-19T08:47:51Z</time>
      </trkpt>
      <trkpt lat="45.91523" lon="4.77665">
        <ele>175</ele>
        <time>2017-08-19T08:47:52Z</time>
      </trkpt>
      <trkpt lat="45.9152" lon="4.77671">
        <ele>175</ele>
        <time>2017-08-19T08:47:53Z</time>
      </trkpt>
      <trkpt lat="45.91517" lon="4.77676">
        <ele>176</ele>
        <time>2017-08-19T08:47:54Z</time>
      </trkpt>
      <trkpt lat="45.91512" lon="4.77686">
        <ele>176</ele>
        <time>2017-08-19T08:47:56Z</time>
      </trkpt>
      <trkpt lat="45.9151" lon="4.7769">
        <ele>176</ele>
        <time>2017-08-19T08:47:57Z</time>
      </trkpt>
      <trkpt lat="45.91506" lon="4.77699">
        <ele>176</ele>
        <time>2017-08-19T08:47:59Z</time>
      </trkpt>
      <trkpt lat="45.91504" lon="4.77703">
        <ele>176</ele>
        <time>2017-08-19T08:48:00Z</time>
      </trkpt>
      <trkpt lat="45.915" lon="4.77714">
        <ele>176</ele>
        <time>2017-08-19T08:48:02Z</time>
      </trkpt>
      <trkpt lat="45.91499" lon="4.77719">
        <ele>178</ele>
        <time>2017-08-19T08:48:03Z</time>
      </trkpt>
      <trkpt lat="45.91495" lon="4.7773">
        <ele>178</ele>
        <time>2017-08-19T08:48:05Z</time>
      </trkpt>
      <trkpt lat="45.91493" lon="4.77735">
        <ele>178</ele>
        <time>2017-08-19T08:48:06Z</time>
      </trkpt>
      <trkpt lat="45.91489" lon="4.77746">
        <ele>178</ele>
        <time>2017-08-19T08:48:08Z</time>
      </trkpt>
      <trkpt lat="45.91488" lon="4.77752">
        <ele>179</ele>
        <time>2017-08-19T08:48:09Z</time>
      </trkpt>
      <trkpt lat="45.91485" lon="4.77764">
        <ele>179</ele>
        <time>2017-08-19T08:48:11Z</time>
      </trkpt>
      <trkpt lat="45.91483" lon="4.77769">
        <ele>179</ele>
        <time>2017-08-19T08:48:12Z</time>
      </trkpt>
      <trkpt lat="45.9148" lon="4.7778">
        <ele>179</ele>
        <time>2017-08-19T08:48:14Z</time>
      </trkpt>
      <trkpt lat="45.91479" lon="4.77786">
        <ele>179</ele>
        <time>2017-08-19T08:48:15Z</time>
      </trkpt>
      <trkpt lat="45.91478" lon="4.77793">
        <ele>179</ele>
        <time>2017-08-19T08:48:16Z</time>
      </trkpt>
      <trkpt lat="45.91477" lon="4.778">
        <ele>179</ele>
        <time>2017-08-19T08:48:17Z</time>
      </trkpt>
      <trkpt lat="45.91477" lon="4.77807">
        <ele>179</ele>
        <time>2017-08-19T08:48:18Z</time>
      </trkpt>
      <trkpt lat="45.91477" lon="4.77814">
        <ele>179</ele>
        <time>2017-08-19T08:48:19Z</time>
      </trkpt>
      <trkpt lat="45.91477" lon="4.77821">
        <ele>180</ele>
        <time>2017-08-19T08:48:20Z</time>
      </trkpt>
      <trkpt lat="45.91477" lon="4.77829">
        <ele>180</ele>
        <time>2017-08-19T08:48:21Z</time>
      </trkpt>
      <trkpt lat="45.91477" lon="4.77836">
        <ele>180</ele>
        <time>2017-08-19T08:48:22Z</time>
      </trkpt>
      <trkpt lat="45.91477" lon="4.77843">
        <ele>180</ele>
        <time>2017-08-19T08:48:23Z</time>
      </trkpt>
      <trkpt lat="45.91477" lon="4.7785">
        <ele>180</ele>
        <time>2017-08-19T08:48:24Z</time>
      </trkpt>
      <trkpt lat="45.91478" lon="4.77857">
        <ele>180</ele>
        <time>2017-08-19T08:48:25Z</time>
      </trkpt>
      <trkpt lat="45.91478" lon="4.77864">
        <ele>180</ele>
        <time>2017-08-19T08:48:26Z</time>
      </trkpt>
      <trkpt lat="45.91478" lon="4.7787">
        <ele>180</ele>
        <time>2017-08-19T08:48:27Z</time>
      </trkpt>
      <trkpt lat="45.91478" lon="4.77877">
        <ele>180</ele>
        <time>2017-08-19T08:48:28Z</time>
      </trkpt>
      <trkpt lat="45.91477" lon="4.77884">
        <ele>180</ele>
        <time>2017-08-19T08:48:29Z</time>
      </trkpt>
      <trkpt lat="45.91475" lon="4.77896">
        <ele>180</ele>
        <time>2017-08-19T08:48:31Z</time>
      </trkpt>
      <trkpt lat="45.91472" lon="4.77899">
        <ele>180</ele>
        <time>2017-08-19T08:48:32Z</time>
      </trkpt>
      <trkpt lat="45.91466" lon="4.77908">
        <ele>180</ele>
        <time>2017-08-19T08:48:34Z</time>
      </trkpt>
      <trkpt lat="45.91463" lon="4.77912">
        <ele>180</ele>
        <time>2017-08-19T08:48:35Z</time>
      </trkpt>
      <trkpt lat="45.91456" lon="4.7792">
        <ele>180</ele>
        <time>2017-08-19T08:48:37Z</time>
      </trkpt>
      <trkpt lat="45.91453" lon="4.77924">
        <ele>180</ele>
        <time>2017-08-19T08:48:38Z</time>
      </trkpt>
      <trkpt lat="45.9145" lon="4.77929">
        <ele>180</ele>
        <time>2017-08-19T08:48:39Z</time>
      </trkpt>
      <trkpt lat="45.91446" lon="4.77934">
        <ele>180</ele>
        <time>2017-08-19T08:48:40Z</time>
      </trkpt>
      <trkpt lat="45.91442" lon="4.77939">
        <ele>180</ele>
        <time>2017-08-19T08:48:41Z</time>
      </trkpt>
      <trkpt lat="45.91438" lon="4.77944">
        <ele>180</ele>
        <time>2017-08-19T08:48:42Z</time>
      </trkpt>
      <trkpt lat="45.91433" lon="4.77949">
        <ele>180</ele>
        <time>2017-08-19T08:48:43Z</time>
      </trkpt>
      <trkpt lat="45.91429" lon="4.77954">
        <ele>180</ele>
        <time>2017-08-19T08:48:44Z</time>
      </trkpt>
      <trkpt lat="45.91424" lon="4.77959">
        <ele>179</ele>
        <time>2017-08-19T08:48:45Z</time>
      </trkpt>
      <trkpt lat="45.9142" lon="4.77964">
        <ele>179</ele>
        <time>2017-08-19T08:48:46Z</time>
      </trkpt>
      <trkpt lat="45.91415" lon="4.77968">
        <ele>179</ele>
        <time>2017-08-19T08:48:47Z</time>
      </trkpt>
      <trkpt lat="45.91411" lon="4.77972">
        <ele>179</ele>
        <time>2017-08-19T08:48:48Z</time>
      </trkpt>
      <trkpt lat="45.91406" lon="4.77976">
        <ele>179</ele>
        <time>2017-08-19T08:48:49Z</time>
      </trkpt>
      <trkpt lat="45.91402" lon="4.77979">
        <ele>179</ele>
        <time>2017-08-19T08:48:50Z</time>
      </trkpt>
      <trkpt lat="45.91397" lon="4.77983">
        <ele>179</ele>
        <time>2017-08-19T08:48:51Z</time>
      </trkpt>
      <trkpt lat="45.91393" lon="4.77986">
        <ele>179</ele>
        <time>2017-08-19T08:48:52Z</time>
      </trkpt>
      <trkpt lat="45.91389" lon="4.7799">
        <ele>179</ele>
        <time>2017-08-19T08:48:53Z</time>
      </trkpt>
      <trkpt lat="45.91385" lon="4.77993">
        <ele>179</ele>
        <time>2017-08-19T08:48:54Z</time>
      </trkpt>
      <trkpt lat="45.91381" lon="4.77997">
        <ele>179</ele>
        <time>2017-08-19T08:48:55Z</time>
      </trkpt>
      <trkpt lat="45.91377" lon="4.78">
        <ele>179</ele>
        <time>2017-08-19T08:48:56Z</time>
      </trkpt>
      <trkpt lat="45.91374" lon="4.78004">
        <ele>179</ele>
        <time>2017-08-19T08:48:57Z</time>
      </trkpt>
      <trkpt lat="45.91369" lon="4.78008">
        <ele>179</ele>
        <time>2017-08-19T08:48:58Z</time>
      </trkpt>
      <trkpt lat="45.91365" lon="4.78013">
        <ele>179</ele>
        <time>2017-08-19T08:48:59Z</time>
      </trkpt>
      <trkpt lat="45.9136" lon="4.78019">
        <ele>179</ele>
        <time>2017-08-19T08:49:00Z</time>
      </trkpt>
      <trkpt lat="45.91355" lon="4.78025">
        <ele>179</ele>
        <time>2017-08-19T08:49:01Z</time>
      </trkpt>
      <trkpt lat="45.91351" lon="4.78032">
        <ele>179</ele>
        <time>2017-08-19T08:49:02Z</time>
      </trkpt>
      <trkpt lat="45.91348" lon="4.78039">
        <ele>179</ele>
        <time>2017-08-19T08:49:03Z</time>
      </trkpt>
      <trkpt lat="45.91344" lon="4.78045">
        <ele>179</ele>
        <time>2017-08-19T08:49:04Z</time>
      </trkpt>
      <trkpt lat="45.91341" lon="4.78054">
        <ele>179</ele>
        <time>2017-08-19T08:49:05Z</time>
      </trkpt>
      <trkpt lat="45.91338" lon="4.78062">
        <ele>179</ele>
        <time>2017-08-19T08:49:06Z</time>
      </trkpt>
      <trkpt lat="45.91335" lon="4.78069">
        <ele>179</ele>
        <time>2017-08-19T08:49:07Z</time>
      </trkpt>
      <trkpt lat="45.91331" lon="4.78077">
        <ele>179</ele>
        <time>2017-08-19T08:49:08Z</time>
      </trkpt>
      <trkpt lat="45.91328" lon="4.78085">
        <ele>179</ele>
        <time>2017-08-19T08:49:09Z</time>
      </trkpt>
      <trkpt lat="45.91325" lon="4.78091">
        <ele>179</ele>
        <time>2017-08-19T08:49:10Z</time>
      </trkpt>
      <trkpt lat="45.91322" lon="4.78098">
        <ele>179</ele>
        <time>2017-08-19T08:49:11Z</time>
      </trkpt>
      <trkpt lat="45.91319" lon="4.78105">
        <ele>179</ele>
        <time>2017-08-19T08:49:12Z</time>
      </trkpt>
      <trkpt lat="45.91316" lon="4.78111">
        <ele>179</ele>
        <time>2017-08-19T08:49:13Z</time>
      </trkpt>
      <trkpt lat="45.91313" lon="4.78117">
        <ele>179</ele>
        <time>2017-08-19T08:49:14Z</time>
      </trkpt>
      <trkpt lat="45.9131" lon="4.78123">
        <ele>179</ele>
        <time>2017-08-19T08:49:15Z</time>
      </trkpt>
      <trkpt lat="45.91307" lon="4.78129">
        <ele>179</ele>
        <time>2017-08-19T08:49:16Z</time>
      </trkpt>
      <trkpt lat="45.91305" lon="4.78136">
        <ele>179</ele>
        <time>2017-08-19T08:49:17Z</time>
      </trkpt>
      <trkpt lat="45.91301" lon="4.78142">
        <ele>179</ele>
        <time>2017-08-19T08:49:18Z</time>
      </trkpt>
      <trkpt lat="45.91298" lon="4.78148">
        <ele>179</ele>
        <time>2017-08-19T08:49:19Z</time>
      </trkpt>
      <trkpt lat="45.91295" lon="4.78154">
        <ele>179</ele>
        <time>2017-08-19T08:49:20Z</time>
      </trkpt>
      <trkpt lat="45.91292" lon="4.78161">
        <ele>179</ele>
        <time>2017-08-19T08:49:21Z</time>
      </trkpt>
      <trkpt lat="45.91289" lon="4.78167">
        <ele>179</ele>
        <time>2017-08-19T08:49:22Z</time>
      </trkpt>
      <trkpt lat="45.91287" lon="4.78174">
        <ele>179</ele>
        <time>2017-08-19T08:49:23Z</time>
      </trkpt>
      <trkpt lat="45.91285" lon="4.78181">
        <ele>179</ele>
        <time>2017-08-19T08:49:24Z</time>
      </trkpt>
      <trkpt lat="45.91283" lon="4.78187">
        <ele>179</ele>
        <time>2017-08-19T08:49:25Z</time>
      </trkpt>
      <trkpt lat="45.9128" lon="4.78193">
        <ele>179</ele>
        <time>2017-08-19T08:49:26Z</time>
      </trkpt>
      <trkpt lat="45.91277" lon="4.782">
        <ele>179</ele>
        <time>2017-08-19T08:49:27Z</time>
      </trkpt>
      <trkpt lat="45.91274" lon="4.78208">
        <ele>179</ele>
        <time>2017-08-19T08:49:28Z</time>
      </trkpt>
      <trkpt lat="45.91271" lon="4.78216">
        <ele>178</ele>
        <time>2017-08-19T08:49:29Z</time>
      </trkpt>
      <trkpt lat="45.91269" lon="4.78224">
        <ele>178</ele>
        <time>2017-08-19T08:49:30Z</time>
      </trkpt>
      <trkpt lat="45.91266" lon="4.78232">
        <ele>178</ele>
        <time>2017-08-19T08:49:31Z</time>
      </trkpt>
      <trkpt lat="45.91263" lon="4.78239">
        <ele>178</ele>
        <time>2017-08-19T08:49:32Z</time>
      </trkpt>
      <trkpt lat="45.9126" lon="4.78247">
        <ele>178</ele>
        <time>2017-08-19T08:49:33Z</time>
      </trkpt>
      <trkpt lat="45.91257" lon="4.78254">
        <ele>178</ele>
        <time>2017-08-19T08:49:34Z</time>
      </trkpt>
      <trkpt lat="45.91255" lon="4.78261">
        <ele>178</ele>
        <time>2017-08-19T08:49:35Z</time>
      </trkpt>
      <trkpt lat="45.91252" lon="4.78268">
        <ele>178</ele>
        <time>2017-08-19T08:49:36Z</time>
      </trkpt>
      <trkpt lat="45.9125" lon="4.78275">
        <ele>177</ele>
        <time>2017-08-19T08:49:37Z</time>
      </trkpt>
      <trkpt lat="45.91247" lon="4.78282">
        <ele>177</ele>
        <time>2017-08-19T08:49:38Z</time>
      </trkpt>
      <trkpt lat="45.91244" lon="4.7829">
        <ele>177</ele>
        <time>2017-08-19T08:49:39Z</time>
      </trkpt>
      <trkpt lat="45.91241" lon="4.78297">
        <ele>177</ele>
        <time>2017-08-19T08:49:40Z</time>
      </trkpt>
      <trkpt lat="45.9124" lon="4.78305">
        <ele>177</ele>
        <time>2017-08-19T08:49:41Z</time>
      </trkpt>
      <trkpt lat="45.91238" lon="4.78313">
        <ele>177</ele>
        <time>2017-08-19T08:49:42Z</time>
      </trkpt>
      <trkpt lat="45.91236" lon="4.7832">
        <ele>177</ele>
        <time>2017-08-19T08:49:43Z</time>
      </trkpt>
      <trkpt lat="45.91234" lon="4.78328">
        <ele>177</ele>
        <time>2017-08-19T08:49:44Z</time>
      </trkpt>
      <trkpt lat="45.91231" lon="4.78336">
        <ele>177</ele>
        <time>2017-08-19T08:49:45Z</time>
      </trkpt>
      <trkpt lat="45.91228" lon="4.78343">
        <ele>177</ele>
        <time>2017-08-19T08:49:46Z</time>
      </trkpt>
      <trkpt lat="45.91226" lon="4.78351">
        <ele>176</ele>
        <time>2017-08-19T08:49:47Z</time>
      </trkpt>
      <trkpt lat="45.91224" lon="4.78359">
        <ele>176</ele>
        <time>2017-08-19T08:49:48Z</time>
      </trkpt>
      <trkpt lat="45.91222" lon="4.78367">
        <ele>176</ele>
        <time>2017-08-19T08:49:49Z</time>
      </trkpt>
      <trkpt lat="45.91219" lon="4.78375">
        <ele>176</ele>
        <time>2017-08-19T08:49:50Z</time>
      </trkpt>
      <trkpt lat="45.91218" lon="4.78383">
        <ele>176</ele>
        <time>2017-08-19T08:49:51Z</time>
      </trkpt>
      <trkpt lat="45.91216" lon="4.78392">
        <ele>176</ele>
        <time>2017-08-19T08:49:52Z</time>
      </trkpt>
      <trkpt lat="45.91214" lon="4.78401">
        <ele>176</ele>
        <time>2017-08-19T08:49:53Z</time>
      </trkpt>
      <trkpt lat="45.91212" lon="4.7841">
        <ele>176</ele>
        <time>2017-08-19T08:49:54Z</time>
      </trkpt>
      <trkpt lat="45.9121" lon="4.7842">
        <ele>176</ele>
        <time>2017-08-19T08:49:55Z</time>
      </trkpt>
      <trkpt lat="45.91208" lon="4.7843">
        <ele>176</ele>
        <time>2017-08-19T08:49:56Z</time>
      </trkpt>
      <trkpt lat="45.91204" lon="4.78439">
        <ele>176</ele>
        <time>2017-08-19T08:49:57Z</time>
      </trkpt>
      <trkpt lat="45.91202" lon="4.78449">
        <ele>176</ele>
        <time>2017-08-19T08:49:58Z</time>
      </trkpt>
      <trkpt lat="45.91199" lon="4.78457">
        <ele>176</ele>
        <time>2017-08-19T08:49:59Z</time>
      </trkpt>
      <trkpt lat="45.91197" lon="4.78466">
        <ele>176</ele>
        <time>2017-08-19T08:50:00Z</time>
      </trkpt>
      <trkpt lat="45.91194" lon="4.78473">
        <ele>176</ele>
        <time>2017-08-19T08:50:01Z</time>
      </trkpt>
      <trkpt lat="45.9119" lon="4.78481">
        <ele>176</ele>
        <time>2017-08-19T08:50:02Z</time>
      </trkpt>
      <trkpt lat="45.91188" lon="4.78489">
        <ele>176</ele>
        <time>2017-08-19T08:50:03Z</time>
      </trkpt>
      <trkpt lat="45.91186" lon="4.78495">
        <ele>176</ele>
        <time>2017-08-19T08:50:04Z</time>
      </trkpt>
      <trkpt lat="45.91183" lon="4.78501">
        <ele>176</ele>
        <time>2017-08-19T08:50:05Z</time>
      </trkpt>
      <trkpt lat="45.9118" lon="4.78507">
        <ele>176</ele>
        <time>2017-08-19T08:50:06Z</time>
      </trkpt>
      <trkpt lat="45.91178" lon="4.78514">
        <ele>176</ele>
        <time>2017-08-19T08:50:07Z</time>
      </trkpt>
      <trkpt lat="45.91175" lon="4.78521">
        <ele>176</ele>
        <time>2017-08-19T08:50:08Z</time>
      </trkpt>
      <trkpt lat="45.91173" lon="4.78529">
        <ele>176</ele>
        <time>2017-08-19T08:50:09Z</time>
      </trkpt>
      <trkpt lat="45.91171" lon="4.78536">
        <ele>176</ele>
        <time>2017-08-19T08:50:10Z</time>
      </trkpt>
      <trkpt lat="45.91168" lon="4.78544">
        <ele>176</ele>
        <time>2017-08-19T08:50:11Z</time>
      </trkpt>
      <trkpt lat="45.91166" lon="4.78551">
        <ele>177</ele>
        <time>2017-08-19T08:50:12Z</time>
      </trkpt>
      <trkpt lat="45.91163" lon="4.78559">
        <ele>177</ele>
        <time>2017-08-19T08:50:13Z</time>
      </trkpt>
      <trkpt lat="45.9116" lon="4.78566">
        <ele>177</ele>
        <time>2017-08-19T08:50:14Z</time>
      </trkpt>
      <trkpt lat="45.91158" lon="4.78575">
        <ele>177</ele>
        <time>2017-08-19T08:50:15Z</time>
      </trkpt>
      <trkpt lat="45.91155" lon="4.78583">
        <ele>177</ele>
        <time>2017-08-19T08:50:16Z</time>
      </trkpt>
      <trkpt lat="45.91153" lon="4.78591">
        <ele>177</ele>
        <time>2017-08-19T08:50:17Z</time>
      </trkpt>
      <trkpt lat="45.91151" lon="4.786">
        <ele>177</ele>
        <time>2017-08-19T08:50:18Z</time>
      </trkpt>
      <trkpt lat="45.91149" lon="4.78607">
        <ele>177</ele>
        <time>2017-08-19T08:50:19Z</time>
      </trkpt>
      <trkpt lat="45.91147" lon="4.78615">
        <ele>177</ele>
        <time>2017-08-19T08:50:20Z</time>
      </trkpt>
      <trkpt lat="45.91146" lon="4.78622">
        <ele>177</ele>
        <time>2017-08-19T08:50:21Z</time>
      </trkpt>
      <trkpt lat="45.91144" lon="4.78629">
        <ele>177</ele>
        <time>2017-08-19T08:50:22Z</time>
      </trkpt>
      <trkpt lat="45.91143" lon="4.78637">
        <ele>177</ele>
        <time>2017-08-19T08:50:23Z</time>
      </trkpt>
      <trkpt lat="45.91142" lon="4.78643">
        <ele>177</ele>
        <time>2017-08-19T08:50:24Z</time>
      </trkpt>
      <trkpt lat="45.91141" lon="4.78651">
        <ele>177</ele>
        <time>2017-08-19T08:50:25Z</time>
      </trkpt>
      <trkpt lat="45.9114" lon="4.78658">
        <ele>177</ele>
        <time>2017-08-19T08:50:26Z</time>
      </trkpt>
      <trkpt lat="45.91139" lon="4.78666">
        <ele>177</ele>
        <time>2017-08-19T08:50:27Z</time>
      </trkpt>
      <trkpt lat="45.91137" lon="4.78673">
        <ele>177</ele>
        <time>2017-08-19T08:50:28Z</time>
      </trkpt>
      <trkpt lat="45.91136" lon="4.78679">
        <ele>177</ele>
        <time>2017-08-19T08:50:29Z</time>
      </trkpt>
      <trkpt lat="45.91135" lon="4.78686">
        <ele>177</ele>
        <time>2017-08-19T08:50:30Z</time>
      </trkpt>
      <trkpt lat="45.91134" lon="4.78693">
        <ele>177</ele>
        <time>2017-08-19T08:50:31Z</time>
      </trkpt>
      <trkpt lat="45.91133" lon="4.78699">
        <ele>177</ele>
        <time>2017-08-19T08:50:32Z</time>
      </trkpt>
      <trkpt lat="45.91133" lon="4.78705">
        <ele>177</ele>
        <time>2017-08-19T08:50:33Z</time>
      </trkpt>
      <trkpt lat="45.91134" lon="4.78712">
        <ele>177</ele>
        <time>2017-08-19T08:50:34Z</time>
      </trkpt>
      <trkpt lat="45.91134" lon="4.78721">
        <ele>177</ele>
        <time>2017-08-19T08:50:35Z</time>
      </trkpt>
      <trkpt lat="45.91134" lon="4.78728">
        <ele>177</ele>
        <time>2017-08-19T08:50:36Z</time>
      </trkpt>
      <trkpt lat="45.91133" lon="4.78735">
        <ele>177</ele>
        <time>2017-08-19T08:50:37Z</time>
      </trkpt>
      <trkpt lat="45.91132" lon="4.78743">
        <ele>177</ele>
        <time>2017-08-19T08:50:38Z</time>
      </trkpt>
      <trkpt lat="45.91131" lon="4.78752">
        <ele>177</ele>
        <time>2017-08-19T08:50:39Z</time>
      </trkpt>
      <trkpt lat="45.9113" lon="4.78761">
        <ele>177</ele>
        <time>2017-08-19T08:50:40Z</time>
      </trkpt>
      <trkpt lat="45.91129" lon="4.78769">
        <ele>177</ele>
        <time>2017-08-19T08:50:41Z</time>
      </trkpt>
      <trkpt lat="45.91128" lon="4.78778">
        <ele>177</ele>
        <time>2017-08-19T08:50:42Z</time>
      </trkpt>
      <trkpt lat="45.91127" lon="4.78786">
        <ele>177</ele>
        <time>2017-08-19T08:50:43Z</time>
      </trkpt>
      <trkpt lat="45.91126" lon="4.78794">
        <ele>176</ele>
        <time>2017-08-19T08:50:44Z</time>
      </trkpt>
      <trkpt lat="45.91124" lon="4.78802">
        <ele>176</ele>
        <time>2017-08-19T08:50:45Z</time>
      </trkpt>
      <trkpt lat="45.91123" lon="4.78809">
        <ele>176</ele>
        <time>2017-08-19T08:50:46Z</time>
      </trkpt>
      <trkpt lat="45.91124" lon="4.7882">
        <ele>176</ele>
        <time>2017-08-19T08:50:48Z</time>
      </trkpt>
      <trkpt lat="45.91123" lon="4.78823">
        <ele>176</ele>
        <time>2017-08-19T08:50:49Z</time>
      </trkpt>
      <trkpt lat="45.91123" lon="4.78814">
        <ele>176</ele>
        <time>2017-08-19T08:50:56Z</time>
      </trkpt>
      <trkpt lat="45.91124" lon="4.7881">
        <ele>176</ele>
        <time>2017-08-19T08:50:57Z</time>
      </trkpt>
      <trkpt lat="45.91127" lon="4.78799">
        <ele>176</ele>
        <time>2017-08-19T08:50:59Z</time>
      </trkpt>
      <trkpt lat="45.91128" lon="4.78793">
        <ele>177</ele>
        <time>2017-08-19T08:51:00Z</time>
      </trkpt>
      <trkpt lat="45.9113" lon="4.78787">
        <ele>177</ele>
        <time>2017-08-19T08:51:01Z</time>
      </trkpt>
      <trkpt lat="45.91131" lon="4.7878">
        <ele>177</ele>
        <time>2017-08-19T08:51:02Z</time>
      </trkpt>
      <trkpt lat="45.91132" lon="4.78773">
        <ele>177</ele>
        <time>2017-08-19T08:51:03Z</time>
      </trkpt>
      <trkpt lat="45.91134" lon="4.78766">
        <ele>177</ele>
        <time>2017-08-19T08:51:04Z</time>
      </trkpt>
      <trkpt lat="45.91136" lon="4.78759">
        <ele>177</ele>
        <time>2017-08-19T08:51:05Z</time>
      </trkpt>
      <trkpt lat="45.91137" lon="4.78753">
        <ele>177</ele>
        <time>2017-08-19T08:51:06Z</time>
      </trkpt>
      <trkpt lat="45.91138" lon="4.78747">
        <ele>177</ele>
        <time>2017-08-19T08:51:07Z</time>
      </trkpt>
      <trkpt lat="45.91139" lon="4.7874">
        <ele>177</ele>
        <time>2017-08-19T08:51:08Z</time>
      </trkpt>
      <trkpt lat="45.9114" lon="4.78733">
        <ele>177</ele>
        <time>2017-08-19T08:51:09Z</time>
      </trkpt>
      <trkpt lat="45.91141" lon="4.78725">
        <ele>177</ele>
        <time>2017-08-19T08:51:10Z</time>
      </trkpt>
      <trkpt lat="45.91142" lon="4.78717">
        <ele>177</ele>
        <time>2017-08-19T08:51:11Z</time>
      </trkpt>
      <trkpt lat="45.91142" lon="4.78709">
        <ele>177</ele>
        <time>2017-08-19T08:51:12Z</time>
      </trkpt>
      <trkpt lat="45.91144" lon="4.78701">
        <ele>177</ele>
        <time>2017-08-19T08:51:13Z</time>
      </trkpt>
      <trkpt lat="45.91144" lon="4.78693">
        <ele>177</ele>
        <time>2017-08-19T08:51:14Z</time>
      </trkpt>
      <trkpt lat="45.91146" lon="4.78685">
        <ele>177</ele>
        <time>2017-08-19T08:51:15Z</time>
      </trkpt>
      <trkpt lat="45.91147" lon="4.78676">
        <ele>177</ele>
        <time>2017-08-19T08:51:16Z</time>
      </trkpt>
      <trkpt lat="45.91148" lon="4.78668">
        <ele>177</ele>
        <time>2017-08-19T08:51:17Z</time>
      </trkpt>
      <trkpt lat="45.91149" lon="4.78659">
        <ele>177</ele>
        <time>2017-08-19T08:51:18Z</time>
      </trkpt>
      <trkpt lat="45.9115" lon="4.78651">
        <ele>177</ele>
        <time>2017-08-19T08:51:19Z</time>
      </trkpt>
      <trkpt lat="45.91151" lon="4.78643">
        <ele>177</ele>
        <time>2017-08-19T08:51:20Z</time>
      </trkpt>
      <trkpt lat="45.91152" lon="4.78635">
        <ele>177</ele>
        <time>2017-08-19T08:51:21Z</time>
      </trkpt>
      <trkpt lat="45.91154" lon="4.78628">
        <ele>177</ele>
        <time>2017-08-19T08:51:22Z</time>
      </trkpt>
      <trkpt lat="45.91156" lon="4.78621">
        <ele>177</ele>
        <time>2017-08-19T08:51:23Z</time>
      </trkpt>
      <trkpt lat="45.91157" lon="4.78614">
        <ele>177</ele>
        <time>2017-08-19T08:51:24Z</time>
      </trkpt>
      <trkpt lat="45.91159" lon="4.78608">
        <ele>177</ele>
        <time>2017-08-19T08:51:25Z</time>
      </trkpt>
      <trkpt lat="45.9116" lon="4.78601">
        <ele>177</ele>
        <time>2017-08-19T08:51:26Z</time>
      </trkpt>
      <trkpt lat="45.91161" lon="4.78594">
        <ele>177</ele>
        <time>2017-08-19T08:51:27Z</time>
      </trkpt>
      <trkpt lat="45.91163" lon="4.78586">
        <ele>177</ele>
        <time>2017-08-19T08:51:28Z</time>
      </trkpt>
      <trkpt lat="45.91164" lon="4.78579">
        <ele>177</ele>
        <time>2017-08-19T08:51:29Z</time>
      </trkpt>
      <trkpt lat="45.91166" lon="4.78571">
        <ele>177</ele>
        <time>2017-08-19T08:51:30Z</time>
      </trkpt>
      <trkpt lat="45.91169" lon="4.78563">
        <ele>177</ele>
        <time>2017-08-19T08:51:31Z</time>
      </trkpt>
      <trkpt lat="45.91171" lon="4.78555">
        <ele>176</ele>
        <time>2017-08-19T08:51:32Z</time>
      </trkpt>
      <trkpt lat="45.91174" lon="4.78548">
        <ele>176</ele>
        <time>2017-08-19T08:51:33Z</time>
      </trkpt>
      <trkpt lat="45.91176" lon="4.78541">
        <ele>176</ele>
        <time>2017-08-19T08:51:34Z</time>
      </trkpt>
      <trkpt lat="45.91178" lon="4.78533">
        <ele>176</ele>
        <time>2017-08-19T08:51:35Z</time>
      </trkpt>
      <trkpt lat="45.91181" lon="4.78526">
        <ele>176</ele>
        <time>2017-08-19T08:51:36Z</time>
      </trkpt>
      <trkpt lat="45.91184" lon="4.7852">
        <ele>176</ele>
        <time>2017-08-19T08:51:37Z</time>
      </trkpt>
      <trkpt lat="45.91188" lon="4.78513">
        <ele>176</ele>
        <time>2017-08-19T08:51:38Z</time>
      </trkpt>
      <trkpt lat="45.9119" lon="4.78506">
        <ele>176</ele>
        <time>2017-08-19T08:51:39Z</time>
      </trkpt>
      <trkpt lat="45.91193" lon="4.78499">
        <ele>176</ele>
        <time>2017-08-19T08:51:40Z</time>
      </trkpt>
      <trkpt lat="45.91195" lon="4.78492">
        <ele>176</ele>
        <time>2017-08-19T08:51:41Z</time>
      </trkpt>
      <trkpt lat="45.91197" lon="4.78485">
        <ele>176</ele>
        <time>2017-08-19T08:51:42Z</time>
      </trkpt>
      <trkpt lat="45.912" lon="4.78479">
        <ele>176</ele>
        <time>2017-08-19T08:51:43Z</time>
      </trkpt>
      <trkpt lat="45.91203" lon="4.78473">
        <ele>176</ele>
        <time>2017-08-19T08:51:44Z</time>
      </trkpt>
      <trkpt lat="45.91206" lon="4.78466">
        <ele>176</ele>
        <time>2017-08-19T08:51:45Z</time>
      </trkpt>
      <trkpt lat="45.91208" lon="4.78459">
        <ele>176</ele>
        <time>2017-08-19T08:51:46Z</time>
      </trkpt>
      <trkpt lat="45.9121" lon="4.78452">
        <ele>176</ele>
        <time>2017-08-19T08:51:47Z</time>
      </trkpt>
      <trkpt lat="45.91211" lon="4.78445">
        <ele>176</ele>
        <time>2017-08-19T08:51:48Z</time>
      </trkpt>
      <trkpt lat="45.91213" lon="4.78436">
        <ele>176</ele>
        <time>2017-08-19T08:51:49Z</time>
      </trkpt>
      <trkpt lat="45.91216" lon="4.78428">
        <ele>176</ele>
        <time>2017-08-19T08:51:50Z</time>
      </trkpt>
      <trkpt lat="45.91218" lon="4.78419">
        <ele>176</ele>
        <time>2017-08-19T08:51:51Z</time>
      </trkpt>
      <trkpt lat="45.9122" lon="4.7841">
        <ele>176</ele>
        <time>2017-08-19T08:51:52Z</time>
      </trkpt>
      <trkpt lat="45.91222" lon="4.78402">
        <ele>176</ele>
        <time>2017-08-19T08:51:53Z</time>
      </trkpt>
      <trkpt lat="45.91224" lon="4.78393">
        <ele>176</ele>
        <time>2017-08-19T08:51:54Z</time>
      </trkpt>
      <trkpt lat="45.91226" lon="4.78384">
        <ele>176</ele>
        <time>2017-08-19T08:51:55Z</time>
      </trkpt>
      <trkpt lat="45.91228" lon="4.78376">
        <ele>176</ele>
        <time>2017-08-19T08:51:56Z</time>
      </trkpt>
      <trkpt lat="45.9123" lon="4.78368">
        <ele>176</ele>
        <time>2017-08-19T08:51:57Z</time>
      </trkpt>
      <trkpt lat="45.91232" lon="4.78361">
        <ele>176</ele>
        <time>2017-08-19T08:51:58Z</time>
      </trkpt>
      <trkpt lat="45.91234" lon="4.78354">
        <ele>176</ele>
        <time>2017-08-19T08:51:59Z</time>
      </trkpt>
      <trkpt lat="45.91235" lon="4.78347">
        <ele>177</ele>
        <time>2017-08-19T08:52:00Z</time>
      </trkpt>
      <trkpt lat="45.91237" lon="4.78341">
        <ele>177</ele>
        <time>2017-08-19T08:52:01Z</time>
      </trkpt>
      <trkpt lat="45.91239" lon="4.78335">
        <ele>177</ele>
        <time>2017-08-19T08:52:02Z</time>
      </trkpt>
      <trkpt lat="45.91241" lon="4.78328">
        <ele>177</ele>
        <time>2017-08-19T08:52:03Z</time>
      </trkpt>
      <trkpt lat="45.91243" lon="4.78321">
        <ele>177</ele>
        <time>2017-08-19T08:52:04Z</time>
      </trkpt>
      <trkpt lat="45.91244" lon="4.78314">
        <ele>177</ele>
        <time>2017-08-19T08:52:05Z</time>
      </trkpt>
      <trkpt lat="45.91245" lon="4.78306">
        <ele>177</ele>
        <time>2017-08-19T08:52:06Z</time>
      </trkpt>
      <trkpt lat="45.91247" lon="4.78299">
        <ele>177</ele>
        <time>2017-08-19T08:52:07Z</time>
      </trkpt>
      <trkpt lat="45.91248" lon="4.78293">
        <ele>177</ele>
        <time>2017-08-19T08:52:08Z</time>
      </trkpt>
      <trkpt lat="45.9125" lon="4.78286">
        <ele>177</ele>
        <time>2017-08-19T08:52:09Z</time>
      </trkpt>
      <trkpt lat="45.91252" lon="4.7828">
        <ele>178</ele>
        <time>2017-08-19T08:52:10Z</time>
      </trkpt>
      <trkpt lat="45.91254" lon="4.78274">
        <ele>178</ele>
        <time>2017-08-19T08:52:11Z</time>
      </trkpt>
      <trkpt lat="45.91257" lon="4.78267">
        <ele>178</ele>
        <time>2017-08-19T08:52:12Z</time>
      </trkpt>
      <trkpt lat="45.91259" lon="4.78261">
        <ele>178</ele>
        <time>2017-08-19T08:52:13Z</time>
      </trkpt>
      <trkpt lat="45.91262" lon="4.78253">
        <ele>178</ele>
        <time>2017-08-19T08:52:14Z</time>
      </trkpt>
      <trkpt lat="45.91265" lon="4.78246">
        <ele>178</ele>
        <time>2017-08-19T08:52:15Z</time>
      </trkpt>
      <trkpt lat="45.91268" lon="4.78239">
        <ele>178</ele>
        <time>2017-08-19T08:52:16Z</time>
      </trkpt>
      <trkpt lat="45.91271" lon="4.78232">
        <ele>178</ele>
        <time>2017-08-19T08:52:17Z</time>
      </trkpt>
      <trkpt lat="45.91274" lon="4.78225">
        <ele>178</ele>
        <time>2017-08-19T08:52:18Z</time>
      </trkpt>
      <trkpt lat="45.91277" lon="4.78217">
        <ele>178</ele>
        <time>2017-08-19T08:52:19Z</time>
      </trkpt>
      <trkpt lat="45.9128" lon="4.7821">
        <ele>178</ele>
        <time>2017-08-19T08:52:20Z</time>
      </trkpt>
      <trkpt lat="45.91282" lon="4.78203">
        <ele>179</ele>
        <time>2017-08-19T08:52:21Z</time>
      </trkpt>
      <trkpt lat="45.91285" lon="4.78197">
        <ele>179</ele>
        <time>2017-08-19T08:52:22Z</time>
      </trkpt>
      <trkpt lat="45.91287" lon="4.78191">
        <ele>179</ele>
        <time>2017-08-19T08:52:23Z</time>
      </trkpt>
      <trkpt lat="45.9129" lon="4.78185">
        <ele>179</ele>
        <time>2017-08-19T08:52:24Z</time>
      </trkpt>
      <trkpt lat="45.91294" lon="4.78174">
        <ele>178</ele>
        <time>2017-08-19T08:52:26Z</time>
      </trkpt>
      <trkpt lat="45.91294" lon="4.78169">
        <ele>178</ele>
        <time>2017-08-19T08:52:27Z</time>
      </trkpt>
      <trkpt lat="45.91289" lon="4.78161">
        <ele>179</ele>
        <time>2017-08-19T08:52:29Z</time>
      </trkpt>
      <trkpt lat="45.91285" lon="4.7816">
        <ele>179</ele>
        <time>2017-08-19T08:52:30Z</time>
      </trkpt>
      <trkpt lat="45.91276" lon="4.78159">
        <ele>179</ele>
        <time>2017-08-19T08:52:32Z</time>
      </trkpt>
      <trkpt lat="45.91272" lon="4.78159">
        <ele>179</ele>
        <time>2017-08-19T08:52:33Z</time>
      </trkpt>
      <trkpt lat="45.91267" lon="4.78159">
        <ele>179</ele>
        <time>2017-08-19T08:52:34Z</time>
      </trkpt>
      <trkpt lat="45.91261" lon="4.7816">
        <ele>179</ele>
        <time>2017-08-19T08:52:35Z</time>
      </trkpt>
      <trkpt lat="45.91256" lon="4.78159">
        <ele>179</ele>
        <time>2017-08-19T08:52:36Z</time>
      </trkpt>
      <trkpt lat="45.9125" lon="4.78158">
        <ele>179</ele>
        <time>2017-08-19T08:52:37Z</time>
      </trkpt>
      <trkpt lat="45.91244" lon="4.78158">
        <ele>179</ele>
        <time>2017-08-19T08:52:38Z</time>
      </trkpt>
      <trkpt lat="45.91239" lon="4.78158">
        <ele>179</ele>
        <time>2017-08-19T08:52:39Z</time>
      </trkpt>
      <trkpt lat="45.91234" lon="4.78157">
        <ele>179</ele>
        <time>2017-08-19T08:52:40Z</time>
      </trkpt>
      <trkpt lat="45.91228" lon="4.78157">
        <ele>179</ele>
        <time>2017-08-19T08:52:41Z</time>
      </trkpt>
      <trkpt lat="45.91223" lon="4.78156">
        <ele>179</ele>
        <time>2017-08-19T08:52:42Z</time>
      </trkpt>
      <trkpt lat="45.91218" lon="4.78154">
        <ele>179</ele>
        <time>2017-08-19T08:52:43Z</time>
      </trkpt>
      <trkpt lat="45.91212" lon="4.78153">
        <ele>179</ele>
        <time>2017-08-19T08:52:44Z</time>
      </trkpt>
      <trkpt lat="45.91206" lon="4.78151">
        <ele>179</ele>
        <time>2017-08-19T08:52:45Z</time>
      </trkpt>
      <trkpt lat="45.912" lon="4.78148">
        <ele>179</ele>
        <time>2017-08-19T08:52:46Z</time>
      </trkpt>
      <trkpt lat="45.91195" lon="4.78146">
        <ele>179</ele>
        <time>2017-08-19T08:52:47Z</time>
      </trkpt>
      <trkpt lat="45.91189" lon="4.78143">
        <ele>179</ele>
        <time>2017-08-19T08:52:48Z</time>
      </trkpt>
      <trkpt lat="45.91183" lon="4.78141">
        <ele>179</ele>
        <time>2017-08-19T08:52:49Z</time>
      </trkpt>
      <trkpt lat="45.91177" lon="4.78138">
        <ele>179</ele>
        <time>2017-08-19T08:52:50Z</time>
      </trkpt>
      <trkpt lat="45.91171" lon="4.78136">
        <ele>179</ele>
        <time>2017-08-19T08:52:51Z</time>
      </trkpt>
      <trkpt lat="45.91166" lon="4.78135">
        <ele>179</ele>
        <time>2017-08-19T08:52:52Z</time>
      </trkpt>
      <trkpt lat="45.9116" lon="4.78135">
        <ele>179</ele>
        <time>2017-08-19T08:52:53Z</time>
      </trkpt>
      <trkpt lat="45.91154" lon="4.78134">
        <ele>179</ele>
        <time>2017-08-19T08:52:54Z</time>
      </trkpt>
      <trkpt lat="45.91148" lon="4.78133">
        <ele>179</ele>
        <time>2017-08-19T08:52:55Z</time>
      </trkpt>
      <trkpt lat="45.91143" lon="4.78132">
        <ele>179</ele>
        <time>2017-08-19T08:52:56Z</time>
      </trkpt>
      <trkpt lat="45.91137" lon="4.78132">
        <ele>179</ele>
        <time>2017-08-19T08:52:57Z</time>
      </trkpt>
      <trkpt lat="45.91132" lon="4.78131">
        <ele>179</ele>
        <time>2017-08-19T08:52:58Z</time>
      </trkpt>
      <trkpt lat="45.91126" lon="4.78129">
        <ele>179</ele>
        <time>2017-08-19T08:52:59Z</time>
      </trkpt>
      <trkpt lat="45.91121" lon="4.78128">
        <ele>179</ele>
        <time>2017-08-19T08:53:00Z</time>
      </trkpt>
      <trkpt lat="45.91116" lon="4.78128">
        <ele>179</ele>
        <time>2017-08-19T08:53:01Z</time>
      </trkpt>
      <trkpt lat="45.91111" lon="4.78128">
        <ele>179</ele>
        <time>2017-08-19T08:53:02Z</time>
      </trkpt>
      <trkpt lat="45.91106" lon="4.78127">
        <ele>179</ele>
        <time>2017-08-19T08:53:03Z</time>
      </trkpt>
      <trkpt lat="45.91101" lon="4.78126">
        <ele>179</ele>
        <time>2017-08-19T08:53:04Z</time>
      </trkpt>
      <trkpt lat="45.91097" lon="4.78124">
        <ele>179</ele>
        <time>2017-08-19T08:53:05Z</time>
      </trkpt>
      <trkpt lat="45.91091" lon="4.78124">
        <ele>178</ele>
        <time>2017-08-19T08:53:06Z</time>
      </trkpt>
      <trkpt lat="45.91086" lon="4.78124">
        <ele>178</ele>
        <time>2017-08-19T08:53:07Z</time>
      </trkpt>
      <trkpt lat="45.91079" lon="4.78123">
        <ele>178</ele>
        <time>2017-08-19T08:53:08Z</time>
      </trkpt>
      <trkpt lat="45.91073" lon="4.78122">
        <ele>178</ele>
        <time>2017-08-19T08:53:09Z</time>
      </trkpt>
      <trkpt lat="45.91067" lon="4.78121">
        <ele>178</ele>
        <time>2017-08-19T08:53:10Z</time>
      </trkpt>
      <trkpt lat="45.91061" lon="4.78119">
        <ele>178</ele>
        <time>2017-08-19T08:53:11Z</time>
      </trkpt>
      <trkpt lat="45.91055" lon="4.78117">
        <ele>178</ele>
        <time>2017-08-19T08:53:12Z</time>
      </trkpt>
      <trkpt lat="45.91049" lon="4.78115">
        <ele>177</ele>
        <time>2017-08-19T08:53:13Z</time>
      </trkpt>
      <trkpt lat="45.91042" lon="4.78112">
        <ele>177</ele>
        <time>2017-08-19T08:53:14Z</time>
      </trkpt>
      <trkpt lat="45.91036" lon="4.7811">
        <ele>177</ele>
        <time>2017-08-19T08:53:15Z</time>
      </trkpt>
      <trkpt lat="45.9103" lon="4.78108">
        <ele>177</ele>
        <time>2017-08-19T08:53:16Z</time>
      </trkpt>
      <trkpt lat="45.91024" lon="4.78107">
        <ele>177</ele>
        <time>2017-08-19T08:53:17Z</time>
      </trkpt>
      <trkpt lat="45.91018" lon="4.78106">
        <ele>177</ele>
        <time>2017-08-19T08:53:18Z</time>
      </trkpt>
      <trkpt lat="45.91012" lon="4.78105">
        <ele>177</ele>
        <time>2017-08-19T08:53:19Z</time>
      </trkpt>
      <trkpt lat="45.91006" lon="4.78104">
        <ele>177</ele>
        <time>2017-08-19T08:53:20Z</time>
      </trkpt>
      <trkpt lat="45.91001" lon="4.78103">
        <ele>177</ele>
        <time>2017-08-19T08:53:21Z</time>
      </trkpt>
      <trkpt lat="45.90995" lon="4.78102">
        <ele>176</ele>
        <time>2017-08-19T08:53:22Z</time>
      </trkpt>
      <trkpt lat="45.9099" lon="4.78101">
        <ele>176</ele>
        <time>2017-08-19T08:53:23Z</time>
      </trkpt>
      <trkpt lat="45.90985" lon="4.781">
        <ele>177</ele>
        <time>2017-08-19T08:53:24Z</time>
      </trkpt>
      <trkpt lat="45.9098" lon="4.78099">
        <ele>177</ele>
        <time>2017-08-19T08:53:25Z</time>
      </trkpt>
      <trkpt lat="45.90976" lon="4.78098">
        <ele>177</ele>
        <time>2017-08-19T08:53:26Z</time>
      </trkpt>
      <trkpt lat="45.90971" lon="4.78097">
        <ele>177</ele>
        <time>2017-08-19T08:53:27Z</time>
      </trkpt>
      <trkpt lat="45.90966" lon="4.78096">
        <ele>177</ele>
        <time>2017-08-19T08:53:28Z</time>
      </trkpt>
      <trkpt lat="45.9096" lon="4.78095">
        <ele>177</ele>
        <time>2017-08-19T08:53:29Z</time>
      </trkpt>
      <trkpt lat="45.90955" lon="4.78093">
        <ele>177</ele>
        <time>2017-08-19T08:53:30Z</time>
      </trkpt>
      <trkpt lat="45.90949" lon="4.78092">
        <ele>177</ele>
        <time>2017-08-19T08:53:31Z</time>
      </trkpt>
      <trkpt lat="45.90943" lon="4.78091">
        <ele>177</ele>
        <time>2017-08-19T08:53:32Z</time>
      </trkpt>
      <trkpt lat="45.90937" lon="4.78089">
        <ele>177</ele>
        <time>2017-08-19T08:53:33Z</time>
      </trkpt>
      <trkpt lat="45.90931" lon="4.78088">
        <ele>177</ele>
        <time>2017-08-19T08:53:34Z</time>
      </trkpt>
      <trkpt lat="45.90925" lon="4.78087">
        <ele>177</ele>
        <time>2017-08-19T08:53:35Z</time>
      </trkpt>
      <trkpt lat="45.90919" lon="4.78086">
        <ele>177</ele>
        <time>2017-08-19T08:53:36Z</time>
      </trkpt>
      <trkpt lat="45.90913" lon="4.78085">
        <ele>177</ele>
        <time>2017-08-19T08:53:37Z</time>
      </trkpt>
      <trkpt lat="45.90908" lon="4.78084">
        <ele>177</ele>
        <time>2017-08-19T08:53:38Z</time>
      </trkpt>
      <trkpt lat="45.90903" lon="4.78083">
        <ele>177</ele>
        <time>2017-08-19T08:53:39Z</time>
      </trkpt>
      <trkpt lat="45.90898" lon="4.78082">
        <ele>177</ele>
        <time>2017-08-19T08:53:40Z</time>
      </trkpt>
      <trkpt lat="45.90893" lon="4.7808">
        <ele>177</ele>
        <time>2017-08-19T08:53:41Z</time>
      </trkpt>
      <trkpt lat="45.90888" lon="4.78079">
        <ele>177</ele>
        <time>2017-08-19T08:53:42Z</time>
      </trkpt>
      <trkpt lat="45.90883" lon="4.78078">
        <ele>177</ele>
        <time>2017-08-19T08:53:43Z</time>
      </trkpt>
      <trkpt lat="45.90874" lon="4.78075">
        <ele>177</ele>
        <time>2017-08-19T08:53:45Z</time>
      </trkpt>
      <trkpt lat="45.9087" lon="4.78074">
        <ele>177</ele>
        <time>2017-08-19T08:53:46Z</time>
      </trkpt>
      <trkpt lat="45.90861" lon="4.78071">
        <ele>177</ele>
        <time>2017-08-19T08:53:48Z</time>
      </trkpt>
      <trkpt lat="45.90857" lon="4.78069">
        <ele>177</ele>
        <time>2017-08-19T08:53:49Z</time>
      </trkpt>
      <trkpt lat="45.90854" lon="4.78063">
        <ele>177</ele>
        <time>2017-08-19T08:53:50Z</time>
      </trkpt>
      <trkpt lat="45.90852" lon="4.78057">
        <ele>177</ele>
        <time>2017-08-19T08:53:51Z</time>
      </trkpt>
      <trkpt lat="45.90852" lon="4.78049">
        <ele>177</ele>
        <time>2017-08-19T08:53:52Z</time>
      </trkpt>
      <trkpt lat="45.90853" lon="4.78041">
        <ele>178</ele>
        <time>2017-08-19T08:53:53Z</time>
      </trkpt>
      <trkpt lat="45.90853" lon="4.78033">
        <ele>178</ele>
        <time>2017-08-19T08:53:54Z</time>
      </trkpt>
      <trkpt lat="45.90853" lon="4.78025">
        <ele>178</ele>
        <time>2017-08-19T08:53:55Z</time>
      </trkpt>
      <trkpt lat="45.90853" lon="4.78017">
        <ele>178</ele>
        <time>2017-08-19T08:53:56Z</time>
      </trkpt>
      <trkpt lat="45.90853" lon="4.78008">
        <ele>178</ele>
        <time>2017-08-19T08:53:57Z</time>
      </trkpt>
      <trkpt lat="45.90853" lon="4.77999">
        <ele>178</ele>
        <time>2017-08-19T08:53:58Z</time>
      </trkpt>
      <trkpt lat="45.90853" lon="4.7799">
        <ele>178</ele>
        <time>2017-08-19T08:53:59Z</time>
      </trkpt>
      <trkpt lat="45.90854" lon="4.77982">
        <ele>178</ele>
        <time>2017-08-19T08:54:00Z</time>
      </trkpt>
      <trkpt lat="45.90855" lon="4.77974">
        <ele>178</ele>
        <time>2017-08-19T08:54:01Z</time>
      </trkpt>
      <trkpt lat="45.90856" lon="4.77967">
        <ele>177</ele>
        <time>2017-08-19T08:54:02Z</time>
      </trkpt>
      <trkpt lat="45.90857" lon="4.7796">
        <ele>177</ele>
        <time>2017-08-19T08:54:03Z</time>
      </trkpt>
      <trkpt lat="45.90858" lon="4.77953">
        <ele>177</ele>
        <time>2017-08-19T08:54:04Z</time>
      </trkpt>
      <trkpt lat="45.90858" lon="4.77946">
        <ele>177</ele>
        <time>2017-08-19T08:54:05Z</time>
      </trkpt>
      <trkpt lat="45.90859" lon="4.77939">
        <ele>177</ele>
        <time>2017-08-19T08:54:06Z</time>
      </trkpt>
      <trkpt lat="45.90859" lon="4.77932">
        <ele>177</ele>
        <time>2017-08-19T08:54:07Z</time>
      </trkpt>
      <trkpt lat="45.9086" lon="4.77926">
        <ele>177</ele>
        <time>2017-08-19T08:54:08Z</time>
      </trkpt>
      <trkpt lat="45.9086" lon="4.77919">
        <ele>177</ele>
        <time>2017-08-19T08:54:09Z</time>
      </trkpt>
      <trkpt lat="45.9086" lon="4.77912">
        <ele>177</ele>
        <time>2017-08-19T08:54:10Z</time>
      </trkpt>
      <trkpt lat="45.9086" lon="4.77906">
        <ele>177</ele>
        <time>2017-08-19T08:54:11Z</time>
      </trkpt>
      <trkpt lat="45.90859" lon="4.77899">
        <ele>177</ele>
        <time>2017-08-19T08:54:12Z</time>
      </trkpt>
      <trkpt lat="45.90859" lon="4.77893">
        <ele>177</ele>
        <time>2017-08-19T08:54:13Z</time>
      </trkpt>
      <trkpt lat="45.90858" lon="4.77886">
        <ele>177</ele>
        <time>2017-08-19T08:54:14Z</time>
      </trkpt>
      <trkpt lat="45.90857" lon="4.7788">
        <ele>177</ele>
        <time>2017-08-19T08:54:15Z</time>
      </trkpt>
      <trkpt lat="45.90857" lon="4.77873">
        <ele>177</ele>
        <time>2017-08-19T08:54:16Z</time>
      </trkpt>
      <trkpt lat="45.90858" lon="4.77865">
        <ele>177</ele>
        <time>2017-08-19T08:54:17Z</time>
      </trkpt>
      <trkpt lat="45.90858" lon="4.77857">
        <ele>177</ele>
        <time>2017-08-19T08:54:18Z</time>
      </trkpt>
      <trkpt lat="45.90858" lon="4.7785">
        <ele>177</ele>
        <time>2017-08-19T08:54:19Z</time>
      </trkpt>
      <trkpt lat="45.90858" lon="4.77842">
        <ele>177</ele>
        <time>2017-08-19T08:54:20Z</time>
      </trkpt>
      <trkpt lat="45.90858" lon="4.77836">
        <ele>177</ele>
        <time>2017-08-19T08:54:21Z</time>
      </trkpt>
      <trkpt lat="45.90857" lon="4.77824">
        <ele>177</ele>
        <time>2017-08-19T08:54:24Z</time>
      </trkpt>
      <trkpt lat="45.90856" lon="4.77821">
        <ele>177</ele>
        <time>2017-08-19T08:54:25Z</time>
      </trkpt>
      <trkpt lat="45.90848" lon="4.77816">
        <ele>177</ele>
        <time>2017-08-19T08:54:28Z</time>
      </trkpt>
      <trkpt lat="45.90845" lon="4.77816">
        <ele>177</ele>
        <time>2017-08-19T08:54:29Z</time>
      </trkpt>
      <trkpt lat="45.90837" lon="4.77816">
        <ele>177</ele>
        <time>2017-08-19T08:54:31Z</time>
      </trkpt>
      <trkpt lat="45.90833" lon="4.77816">
        <ele>178</ele>
        <time>2017-08-19T08:54:32Z</time>
      </trkpt>
      <trkpt lat="45.90825" lon="4.77817">
        <ele>178</ele>
        <time>2017-08-19T08:54:34Z</time>
      </trkpt>
      <trkpt lat="45.90822" lon="4.77816">
        <ele>178</ele>
        <time>2017-08-19T08:54:35Z</time>
      </trkpt>
      <trkpt lat="45.90815" lon="4.77815">
        <ele>178</ele>
        <time>2017-08-19T08:54:37Z</time>
      </trkpt>
      <trkpt lat="45.90812" lon="4.77815">
        <ele>178</ele>
        <time>2017-08-19T08:54:38Z</time>
      </trkpt>
      <trkpt lat="45.90806" lon="4.77816">
        <ele>178</ele>
        <time>2017-08-19T08:54:40Z</time>
      </trkpt>
      <trkpt lat="45.90802" lon="4.77816">
        <ele>178</ele>
        <time>2017-08-19T08:54:41Z</time>
      </trkpt>
      <trkpt lat="45.90794" lon="4.77816">
        <ele>178</ele>
        <time>2017-08-19T08:54:43Z</time>
      </trkpt>
      <trkpt lat="45.9079" lon="4.77816">
        <ele>178</ele>
        <time>2017-08-19T08:54:44Z</time>
      </trkpt>
      <trkpt lat="45.90786" lon="4.77817">
        <ele>178</ele>
        <time>2017-08-19T08:54:45Z</time>
      </trkpt>
      <trkpt lat="45.90781" lon="4.77817">
        <ele>178</ele>
        <time>2017-08-19T08:54:46Z</time>
      </trkpt>
      <trkpt lat="45.90776" lon="4.77818">
        <ele>178</ele>
        <time>2017-08-19T08:54:47Z</time>
      </trkpt>
      <trkpt lat="45.90771" lon="4.77818">
        <ele>178</ele>
        <time>2017-08-19T08:54:48Z</time>
      </trkpt>
      <trkpt lat="45.90767" lon="4.77818">
        <ele>178</ele>
        <time>2017-08-19T08:54:49Z</time>
      </trkpt>
      <trkpt lat="45.90762" lon="4.77818">
        <ele>179</ele>
        <time>2017-08-19T08:54:50Z</time>
      </trkpt>
      <trkpt lat="45.90754" lon="4.77818">
        <ele>179</ele>
        <time>2017-08-19T08:54:52Z</time>
      </trkpt>
      <trkpt lat="45.90751" lon="4.77819">
        <ele>179</ele>
        <time>2017-08-19T08:54:53Z</time>
      </trkpt>
      <trkpt lat="45.90744" lon="4.77819">
        <ele>179</ele>
        <time>2017-08-19T08:54:55Z</time>
      </trkpt>
      <trkpt lat="45.90741" lon="4.77818">
        <ele>179</ele>
        <time>2017-08-19T08:54:56Z</time>
      </trkpt>
      <trkpt lat="45.90733" lon="4.77818">
        <ele>179</ele>
        <time>2017-08-19T08:54:59Z</time>
      </trkpt>
      <trkpt lat="45.9073" lon="4.77819">
        <ele>179</ele>
        <time>2017-08-19T08:55:00Z</time>
      </trkpt>
      <trkpt lat="45.90723" lon="4.77821">
        <ele>179</ele>
        <time>2017-08-19T08:55:02Z</time>
      </trkpt>
      <trkpt lat="45.90719" lon="4.77822">
        <ele>179</ele>
        <time>2017-08-19T08:55:03Z</time>
      </trkpt>
      <trkpt lat="45.90713" lon="4.77824">
        <ele>179</ele>
        <time>2017-08-19T08:55:05Z</time>
      </trkpt>
      <trkpt lat="45.9071" lon="4.77825">
        <ele>179</ele>
        <time>2017-08-19T08:55:06Z</time>
      </trkpt>
      <trkpt lat="45.90702" lon="4.77827">
        <ele>179</ele>
        <time>2017-08-19T08:55:10Z</time>
      </trkpt>
      <trkpt lat="45.90701" lon="4.7783">
        <ele>179</ele>
        <time>2017-08-19T08:55:11Z</time>
      </trkpt>
      <trkpt lat="45.90707" lon="4.77838">
        <ele>180</ele>
        <time>2017-08-19T08:55:15Z</time>
      </trkpt>
      <trkpt lat="45.90709" lon="4.77836">
        <ele>179</ele>
        <time>2017-08-19T08:55:16Z</time>
      </trkpt>
      <trkpt lat="45.90716" lon="4.77829">
        <ele>179</ele>
        <time>2017-08-19T08:55:19Z</time>
      </trkpt>
      <trkpt lat="45.9072" lon="4.77827">
        <ele>179</ele>
        <time>2017-08-19T08:55:20Z</time>
      </trkpt>
      <trkpt lat="45.90726" lon="4.77827">
        <ele>179</ele>
        <time>2017-08-19T08:55:21Z</time>
      </trkpt>
      <trkpt lat="45.9073" lon="4.77827">
        <ele>179</ele>
        <time>2017-08-19T08:55:22Z</time>
      </trkpt>
      <trkpt lat="45.90736" lon="4.77828">
        <ele>179</ele>
        <time>2017-08-19T08:55:23Z</time>
      </trkpt>
      <trkpt lat="45.90741" lon="4.77829">
        <ele>179</ele>
        <time>2017-08-19T08:55:24Z</time>
      </trkpt>
      <trkpt lat="45.90746" lon="4.77829">
        <ele>179</ele>
        <time>2017-08-19T08:55:25Z</time>
      </trkpt>
      <trkpt lat="45.9075" lon="4.77829">
        <ele>179</ele>
        <time>2017-08-19T08:55:26Z</time>
      </trkpt>
      <trkpt lat="45.90755" lon="4.77827">
        <ele>179</ele>
        <time>2017-08-19T08:55:27Z</time>
      </trkpt>
      <trkpt lat="45.9076" lon="4.77827">
        <ele>179</ele>
        <time>2017-08-19T08:55:28Z</time>
      </trkpt>
      <trkpt lat="45.90764" lon="4.77826">
        <ele>179</ele>
        <time>2017-08-19T08:55:29Z</time>
      </trkpt>
      <trkpt lat="45.90769" lon="4.77826">
        <ele>178</ele>
        <time>2017-08-19T08:55:30Z</time>
      </trkpt>
      <trkpt lat="45.90777" lon="4.77823">
        <ele>178</ele>
        <time>2017-08-19T08:55:32Z</time>
      </trkpt>
      <trkpt lat="45.90781" lon="4.77821">
        <ele>178</ele>
        <time>2017-08-19T08:55:33Z</time>
      </trkpt>
      <trkpt lat="45.90786" lon="4.77819">
        <ele>178</ele>
        <time>2017-08-19T08:55:34Z</time>
      </trkpt>
      <trkpt lat="45.9079" lon="4.77817">
        <ele>178</ele>
        <time>2017-08-19T08:55:35Z</time>
      </trkpt>
      <trkpt lat="45.90796" lon="4.77816">
        <ele>178</ele>
        <time>2017-08-19T08:55:36Z</time>
      </trkpt>
      <trkpt lat="45.90801" lon="4.77816">
        <ele>178</ele>
        <time>2017-08-19T08:55:37Z</time>
      </trkpt>
      <trkpt lat="45.90806" lon="4.77816">
        <ele>178</ele>
        <time>2017-08-19T08:55:38Z</time>
      </trkpt>
      <trkpt lat="45.90812" lon="4.77819">
        <ele>178</ele>
        <time>2017-08-19T08:55:39Z</time>
      </trkpt>
      <trkpt lat="45.90816" lon="4.77819">
        <ele>178</ele>
        <time>2017-08-19T08:55:40Z</time>
      </trkpt>
      <trkpt lat="45.90821" lon="4.77819">
        <ele>178</ele>
        <time>2017-08-19T08:55:41Z</time>
      </trkpt>
      <trkpt lat="45.90826" lon="4.77819">
        <ele>178</ele>
        <time>2017-08-19T08:55:42Z</time>
      </trkpt>
      <trkpt lat="45.90832" lon="4.77819">
        <ele>178</ele>
        <time>2017-08-19T08:55:43Z</time>
      </trkpt>
      <trkpt lat="45.90837" lon="4.77819">
        <ele>177</ele>
        <time>2017-08-19T08:55:44Z</time>
      </trkpt>
      <trkpt lat="45.90843" lon="4.7782">
        <ele>177</ele>
        <time>2017-08-19T08:55:45Z</time>
      </trkpt>
      <trkpt lat="45.90849" lon="4.7782">
        <ele>177</ele>
        <time>2017-08-19T08:55:46Z</time>
      </trkpt>
      <trkpt lat="45.90855" lon="4.7782">
        <ele>177</ele>
        <time>2017-08-19T08:55:47Z</time>
      </trkpt>
      <trkpt lat="45.9086" lon="4.77821">
        <ele>177</ele>
        <time>2017-08-19T08:55:48Z</time>
      </trkpt>
      <trkpt lat="45.90865" lon="4.77821">
        <ele>177</ele>
        <time>2017-08-19T08:55:49Z</time>
      </trkpt>
      <trkpt lat="45.9087" lon="4.7782">
        <ele>177</ele>
        <time>2017-08-19T08:55:50Z</time>
      </trkpt>
      <trkpt lat="45.90875" lon="4.7782">
        <ele>177</ele>
        <time>2017-08-19T08:55:51Z</time>
      </trkpt>
      <trkpt lat="45.9088" lon="4.77819">
        <ele>177</ele>
        <time>2017-08-19T08:55:52Z</time>
      </trkpt>
      <trkpt lat="45.90884" lon="4.77818">
        <ele>177</ele>
        <time>2017-08-19T08:55:53Z</time>
      </trkpt>
      <trkpt lat="45.90889" lon="4.77818">
        <ele>177</ele>
        <time>2017-08-19T08:55:54Z</time>
      </trkpt>
      <trkpt lat="45.90894" lon="4.77817">
        <ele>177</ele>
        <time>2017-08-19T08:55:55Z</time>
      </trkpt>
      <trkpt lat="45.90898" lon="4.77816">
        <ele>177</ele>
        <time>2017-08-19T08:55:56Z</time>
      </trkpt>
      <trkpt lat="45.90903" lon="4.77815">
        <ele>177</ele>
        <time>2017-08-19T08:55:57Z</time>
      </trkpt>
      <trkpt lat="45.90907" lon="4.77814">
        <ele>177</ele>
        <time>2017-08-19T08:55:58Z</time>
      </trkpt>
      <trkpt lat="45.90912" lon="4.77812">
        <ele>177</ele>
        <time>2017-08-19T08:55:59Z</time>
      </trkpt>
      <trkpt lat="45.90917" lon="4.7781">
        <ele>177</ele>
        <time>2017-08-19T08:56:00Z</time>
      </trkpt>
      <trkpt lat="45.90921" lon="4.77809">
        <ele>177</ele>
        <time>2017-08-19T08:56:01Z</time>
      </trkpt>
      <trkpt lat="45.90926" lon="4.77807">
        <ele>177</ele>
        <time>2017-08-19T08:56:02Z</time>
      </trkpt>
      <trkpt lat="45.9093" lon="4.77804">
        <ele>177</ele>
        <time>2017-08-19T08:56:03Z</time>
      </trkpt>
      <trkpt lat="45.90937" lon="4.778">
        <ele>177</ele>
        <time>2017-08-19T08:56:05Z</time>
      </trkpt>
      <trkpt lat="45.9094" lon="4.77798">
        <ele>177</ele>
        <time>2017-08-19T08:56:06Z</time>
      </trkpt>
      <trkpt lat="45.90947" lon="4.77796">
        <ele>177</ele>
        <time>2017-08-19T08:56:08Z</time>
      </trkpt>
      <trkpt lat="45.90951" lon="4.77793">
        <ele>177</ele>
        <time>2017-08-19T08:56:09Z</time>
      </trkpt>
      <trkpt lat="45.90953" lon="4.77782">
        <ele>177</ele>
        <time>2017-08-19T08:56:11Z</time>
      </trkpt>
      <trkpt lat="45.90952" lon="4.77777">
        <ele>177</ele>
        <time>2017-08-19T08:56:12Z</time>
      </trkpt>
      <trkpt lat="45.90948" lon="4.77772">
        <ele>177</ele>
        <time>2017-08-19T08:56:13Z</time>
      </trkpt>
      <trkpt lat="45.90943" lon="4.77771">
        <ele>177</ele>
        <time>2017-08-19T08:56:14Z</time>
      </trkpt>
      <trkpt lat="45.90937" lon="4.77771">
        <ele>177</ele>
        <time>2017-08-19T08:56:15Z</time>
      </trkpt>
      <trkpt lat="45.90932" lon="4.7777">
        <ele>177</ele>
        <time>2017-08-19T08:56:16Z</time>
      </trkpt>
      <trkpt lat="45.90928" lon="4.77768">
        <ele>177</ele>
        <time>2017-08-19T08:56:17Z</time>
      </trkpt>
      <trkpt lat="45.90924" lon="4.77764">
        <ele>176</ele>
        <time>2017-08-19T08:56:18Z</time>
      </trkpt>
      <trkpt lat="45.90921" lon="4.77759">
        <ele>176</ele>
        <time>2017-08-19T08:56:19Z</time>
      </trkpt>
      <trkpt lat="45.90917" lon="4.77754">
        <ele>176</ele>
        <time>2017-08-19T08:56:20Z</time>
      </trkpt>
      <trkpt lat="45.90914" lon="4.7775">
        <ele>176</ele>
        <time>2017-08-19T08:56:21Z</time>
      </trkpt>
      <trkpt lat="45.9091" lon="4.77746">
        <ele>176</ele>
        <time>2017-08-19T08:56:22Z</time>
      </trkpt>
      <trkpt lat="45.90906" lon="4.77741">
        <ele>177</ele>
        <time>2017-08-19T08:56:23Z</time>
      </trkpt>
      <trkpt lat="45.90902" lon="4.77737">
        <ele>177</ele>
        <time>2017-08-19T08:56:24Z</time>
      </trkpt>
      <trkpt lat="45.90899" lon="4.77732">
        <ele>177</ele>
        <time>2017-08-19T08:56:25Z</time>
      </trkpt>
      <trkpt lat="45.90895" lon="4.77728">
        <ele>177</ele>
        <time>2017-08-19T08:56:26Z</time>
      </trkpt>
      <trkpt lat="45.90892" lon="4.77724">
        <ele>177</ele>
        <time>2017-08-19T08:56:27Z</time>
      </trkpt>
      <trkpt lat="45.90888" lon="4.7772">
        <ele>177</ele>
        <time>2017-08-19T08:56:28Z</time>
      </trkpt>
      <trkpt lat="45.90884" lon="4.77715">
        <ele>177</ele>
        <time>2017-08-19T08:56:29Z</time>
      </trkpt>
      <trkpt lat="45.90881" lon="4.77712">
        <ele>177</ele>
        <time>2017-08-19T08:56:30Z</time>
      </trkpt>
      <trkpt lat="45.90874" lon="4.77705">
        <ele>178</ele>
        <time>2017-08-19T08:56:32Z</time>
      </trkpt>
      <trkpt lat="45.90871" lon="4.77701">
        <ele>178</ele>
        <time>2017-08-19T08:56:33Z</time>
      </trkpt>
      <trkpt lat="45.90864" lon="4.77696">
        <ele>178</ele>
        <time>2017-08-19T08:56:35Z</time>
      </trkpt>
      <trkpt lat="45.9086" lon="4.77693">
        <ele>178</ele>
        <time>2017-08-19T08:56:36Z</time>
      </trkpt>
      <trkpt lat="45.90853" lon="4.77689">
        <ele>178</ele>
        <time>2017-08-19T08:56:38Z</time>
      </trkpt>
      <trkpt lat="45.90849" lon="4.77686">
        <ele>178</ele>
        <time>2017-08-19T08:56:39Z</time>
      </trkpt>
      <trkpt lat="45.90841" lon="4.77682">
        <ele>178</ele>
        <time>2017-08-19T08:56:41Z</time>
      </trkpt>
      <trkpt lat="45.90836" lon="4.7768">
        <ele>178</ele>
        <time>2017-08-19T08:56:42Z</time>
      </trkpt>
      <trkpt lat="45.90828" lon="4.77675">
        <ele>179</ele>
        <time>2017-08-19T08:56:44Z</time>
      </trkpt>
      <trkpt lat="45.90823" lon="4.77674">
        <ele>179</ele>
        <time>2017-08-19T08:56:45Z</time>
      </trkpt>
      <trkpt lat="45.90815" lon="4.77671">
        <ele>179</ele>
        <time>2017-08-19T08:56:47Z</time>
      </trkpt>
      <trkpt lat="45.90812" lon="4.7767">
        <ele>179</ele>
        <time>2017-08-19T08:56:48Z</time>
      </trkpt>
      <trkpt lat="45.90805" lon="4.77667">
        <ele>179</ele>
        <time>2017-08-19T08:56:50Z</time>
      </trkpt>
      <trkpt lat="45.90801" lon="4.77667">
        <ele>179</ele>
        <time>2017-08-19T08:56:51Z</time>
      </trkpt>
      <trkpt lat="45.90793" lon="4.77665">
        <ele>179</ele>
        <time>2017-08-19T08:56:53Z</time>
      </trkpt>
      <trkpt lat="45.90789" lon="4.77664">
        <ele>179</ele>
        <time>2017-08-19T08:56:54Z</time>
      </trkpt>
      <trkpt lat="45.90781" lon="4.77661">
        <ele>180</ele>
        <time>2017-08-19T08:56:56Z</time>
      </trkpt>
      <trkpt lat="45.90777" lon="4.7766">
        <ele>180</ele>
        <time>2017-08-19T08:56:57Z</time>
      </trkpt>
      <trkpt lat="45.9077" lon="4.77658">
        <ele>180</ele>
        <time>2017-08-19T08:56:59Z</time>
      </trkpt>
      <trkpt lat="45.90766" lon="4.77656">
        <ele>180</ele>
        <time>2017-08-19T08:57:00Z</time>
      </trkpt>
      <trkpt lat="45.9076" lon="4.77653">
        <ele>180</ele>
        <time>2017-08-19T08:57:02Z</time>
      </trkpt>
      <trkpt lat="45.90757" lon="4.77651">
        <ele>180</ele>
        <time>2017-08-19T08:57:03Z</time>
      </trkpt>
      <trkpt lat="45.90749" lon="4.77646">
        <ele>180</ele>
        <time>2017-08-19T08:57:05Z</time>
      </trkpt>
      <trkpt lat="45.90745" lon="4.77645">
        <ele>180</ele>
        <time>2017-08-19T08:57:06Z</time>
      </trkpt>
      <trkpt lat="45.9074" lon="4.77645">
        <ele>180</ele>
        <time>2017-08-19T08:57:07Z</time>
      </trkpt>
      <trkpt lat="45.90735" lon="4.77645">
        <ele>180</ele>
        <time>2017-08-19T08:57:08Z</time>
      </trkpt>
      <trkpt lat="45.9073" lon="4.77644">
        <ele>180</ele>
        <time>2017-08-19T08:57:09Z</time>
      </trkpt>
      <trkpt lat="45.90725" lon="4.77643">
        <ele>180</ele>
        <time>2017-08-19T08:57:10Z</time>
      </trkpt>
      <trkpt lat="45.90719" lon="4.77642">
        <ele>180</ele>
        <time>2017-08-19T08:57:11Z</time>
      </trkpt>
      <trkpt lat="45.90714" lon="4.77641">
        <ele>180</ele>
        <time>2017-08-19T08:57:12Z</time>
      </trkpt>
      <trkpt lat="45.90709" lon="4.77639">
        <ele>179</ele>
        <time>2017-08-19T08:57:13Z</time>
      </trkpt>
      <trkpt lat="45.90703" lon="4.77637">
        <ele>179</ele>
        <time>2017-08-19T08:57:14Z</time>
      </trkpt>
      <trkpt lat="45.90698" lon="4.77635">
        <ele>179</ele>
        <time>2017-08-19T08:57:15Z</time>
      </trkpt>
      <trkpt lat="45.90691" lon="4.77633">
        <ele>179</ele>
        <time>2017-08-19T08:57:16Z</time>
      </trkpt>
      <trkpt lat="45.90685" lon="4.77631">
        <ele>179</ele>
        <time>2017-08-19T08:57:17Z</time>
      </trkpt>
      <trkpt lat="45.90679" lon="4.77629">
        <ele>179</ele>
        <time>2017-08-19T08:57:18Z</time>
      </trkpt>
      <trkpt lat="45.90673" lon="4.77627">
        <ele>179</ele>
        <time>2017-08-19T08:57:19Z</time>
      </trkpt>
      <trkpt lat="45.90667" lon="4.77625">
        <ele>179</ele>
        <time>2017-08-19T08:57:20Z</time>
      </trkpt>
      <trkpt lat="45.90661" lon="4.77623">
        <ele>179</ele>
        <time>2017-08-19T08:57:21Z</time>
      </trkpt>
      <trkpt lat="45.90654" lon="4.77622">
        <ele>179</ele>
        <time>2017-08-19T08:57:22Z</time>
      </trkpt>
      <trkpt lat="45.90648" lon="4.77621">
        <ele>179</ele>
        <time>2017-08-19T08:57:23Z</time>
      </trkpt>
      <trkpt lat="45.90642" lon="4.7762">
        <ele>179</ele>
        <time>2017-08-19T08:57:24Z</time>
      </trkpt>
      <trkpt lat="45.90635" lon="4.7762">
        <ele>179</ele>
        <time>2017-08-19T08:57:25Z</time>
      </trkpt>
      <trkpt lat="45.90628" lon="4.77619">
        <ele>179</ele>
        <time>2017-08-19T08:57:26Z</time>
      </trkpt>
      <trkpt lat="45.90622" lon="4.77619">
        <ele>179</ele>
        <time>2017-08-19T08:57:27Z</time>
      </trkpt>
      <trkpt lat="45.90616" lon="4.7762">
        <ele>179</ele>
        <time>2017-08-19T08:57:28Z</time>
      </trkpt>
      <trkpt lat="45.9061" lon="4.7762">
        <ele>179</ele>
        <time>2017-08-19T08:57:29Z</time>
      </trkpt>
      <trkpt lat="45.90603" lon="4.77621">
        <ele>179</ele>
        <time>2017-08-19T08:57:30Z</time>
      </trkpt>
      <trkpt lat="45.90597" lon="4.77621">
        <ele>179</ele>
        <time>2017-08-19T08:57:31Z</time>
      </trkpt>
      <trkpt lat="45.9059" lon="4.77622">
        <ele>179</ele>
        <time>2017-08-19T08:57:32Z</time>
      </trkpt>
      <trkpt lat="45.90584" lon="4.77624">
        <ele>179</ele>
        <time>2017-08-19T08:57:33Z</time>
      </trkpt>
      <trkpt lat="45.90578" lon="4.77626">
        <ele>178</ele>
        <time>2017-08-19T08:57:34Z</time>
      </trkpt>
      <trkpt lat="45.90571" lon="4.77627">
        <ele>178</ele>
        <time>2017-08-19T08:57:35Z</time>
      </trkpt>
      <trkpt lat="45.90565" lon="4.77628">
        <ele>178</ele>
        <time>2017-08-19T08:57:36Z</time>
      </trkpt>
      <trkpt lat="45.90559" lon="4.77629">
        <ele>178</ele>
        <time>2017-08-19T08:57:37Z</time>
      </trkpt>
      <trkpt lat="45.90552" lon="4.7763">
        <ele>178</ele>
        <time>2017-08-19T08:57:38Z</time>
      </trkpt>
      <trkpt lat="45.90546" lon="4.77631">
        <ele>178</ele>
        <time>2017-08-19T08:57:39Z</time>
      </trkpt>
      <trkpt lat="45.9054" lon="4.77632">
        <ele>178</ele>
        <time>2017-08-19T08:57:40Z</time>
      </trkpt>
      <trkpt lat="45.90534" lon="4.77633">
        <ele>178</ele>
        <time>2017-08-19T08:57:41Z</time>
      </trkpt>
      <trkpt lat="45.90528" lon="4.77634">
        <ele>178</ele>
        <time>2017-08-19T08:57:42Z</time>
      </trkpt>
      <trkpt lat="45.90522" lon="4.77635">
        <ele>178</ele>
        <time>2017-08-19T08:57:43Z</time>
      </trkpt>
      <trkpt lat="45.90517" lon="4.77636">
        <ele>178</ele>
        <time>2017-08-19T08:57:44Z</time>
      </trkpt>
      <trkpt lat="45.90511" lon="4.77637">
        <ele>178</ele>
        <time>2017-08-19T08:57:45Z</time>
      </trkpt>
      <trkpt lat="45.90505" lon="4.77638">
        <ele>178</ele>
        <time>2017-08-19T08:57:46Z</time>
      </trkpt>
      <trkpt lat="45.90499" lon="4.77639">
        <ele>179</ele>
        <time>2017-08-19T08:57:47Z</time>
      </trkpt>
      <trkpt lat="45.90493" lon="4.77641">
        <ele>179</ele>
        <time>2017-08-19T08:57:48Z</time>
      </trkpt>
      <trkpt lat="45.90486" lon="4.77642">
        <ele>179</ele>
        <time>2017-08-19T08:57:49Z</time>
      </trkpt>
      <trkpt lat="45.90481" lon="4.77644">
        <ele>179</ele>
        <time>2017-08-19T08:57:50Z</time>
      </trkpt>
      <trkpt lat="45.90474" lon="4.77646">
        <ele>179</ele>
        <time>2017-08-19T08:57:51Z</time>
      </trkpt>
      <trkpt lat="45.90468" lon="4.77647">
        <ele>179</ele>
        <time>2017-08-19T08:57:52Z</time>
      </trkpt>
      <trkpt lat="45.90461" lon="4.77648">
        <ele>179</ele>
        <time>2017-08-19T08:57:53Z</time>
      </trkpt>
      <trkpt lat="45.90455" lon="4.77649">
        <ele>179</ele>
        <time>2017-08-19T08:57:54Z</time>
      </trkpt>
      <trkpt lat="45.90448" lon="4.77649">
        <ele>179</ele>
        <time>2017-08-19T08:57:55Z</time>
      </trkpt>
      <trkpt lat="45.90441" lon="4.7765">
        <ele>180</ele>
        <time>2017-08-19T08:57:56Z</time>
      </trkpt>
      <trkpt lat="45.90435" lon="4.77651">
        <ele>180</ele>
        <time>2017-08-19T08:57:57Z</time>
      </trkpt>
      <trkpt lat="45.90429" lon="4.77651">
        <ele>180</ele>
        <time>2017-08-19T08:57:58Z</time>
      </trkpt>
      <trkpt lat="45.90423" lon="4.77652">
        <ele>180</ele>
        <time>2017-08-19T08:57:59Z</time>
      </trkpt>
      <trkpt lat="45.90417" lon="4.77653">
        <ele>180</ele>
        <time>2017-08-19T08:58:00Z</time>
      </trkpt>
      <trkpt lat="45.90412" lon="4.77653">
        <ele>181</ele>
        <time>2017-08-19T08:58:01Z</time>
      </trkpt>
      <trkpt lat="45.90407" lon="4.77654">
        <ele>181</ele>
        <time>2017-08-19T08:58:02Z</time>
      </trkpt>
      <trkpt lat="45.90403" lon="4.77655">
        <ele>181</ele>
        <time>2017-08-19T08:58:03Z</time>
      </trkpt>
      <trkpt lat="45.90398" lon="4.77656">
        <ele>181</ele>
        <time>2017-08-19T08:58:04Z</time>
      </trkpt>
      <trkpt lat="45.90393" lon="4.77656">
        <ele>181</ele>
        <time>2017-08-19T08:58:05Z</time>
      </trkpt>
      <trkpt lat="45.90388" lon="4.77657">
        <ele>181</ele>
        <time>2017-08-19T08:58:06Z</time>
      </trkpt>
      <trkpt lat="45.90382" lon="4.77657">
        <ele>181</ele>
        <time>2017-08-19T08:58:07Z</time>
      </trkpt>
      <trkpt lat="45.90377" lon="4.77658">
        <ele>181</ele>
        <time>2017-08-19T08:58:08Z</time>
      </trkpt>
      <trkpt lat="45.90371" lon="4.7766">
        <ele>181</ele>
        <time>2017-08-19T08:58:09Z</time>
      </trkpt>
      <trkpt lat="45.90366" lon="4.77661">
        <ele>181</ele>
        <time>2017-08-19T08:58:10Z</time>
      </trkpt>
      <trkpt lat="45.9036" lon="4.77662">
        <ele>181</ele>
        <time>2017-08-19T08:58:11Z</time>
      </trkpt>
      <trkpt lat="45.90355" lon="4.77663">
        <ele>181</ele>
        <time>2017-08-19T08:58:12Z</time>
      </trkpt>
      <trkpt lat="45.9035" lon="4.77664">
        <ele>181</ele>
        <time>2017-08-19T08:58:13Z</time>
      </trkpt>
      <trkpt lat="45.90345" lon="4.77665">
        <ele>181</ele>
        <time>2017-08-19T08:58:14Z</time>
      </trkpt>
      <trkpt lat="45.9034" lon="4.77665">
        <ele>182</ele>
        <time>2017-08-19T08:58:15Z</time>
      </trkpt>
      <trkpt lat="45.90336" lon="4.77665">
        <ele>182</ele>
        <time>2017-08-19T08:58:16Z</time>
      </trkpt>
      <trkpt lat="45.90331" lon="4.77666">
        <ele>182</ele>
        <time>2017-08-19T08:58:17Z</time>
      </trkpt>
      <trkpt lat="45.90326" lon="4.77666">
        <ele>182</ele>
        <time>2017-08-19T08:58:18Z</time>
      </trkpt>
      <trkpt lat="45.90321" lon="4.77667">
        <ele>182</ele>
        <time>2017-08-19T08:58:19Z</time>
      </trkpt>
      <trkpt lat="45.90316" lon="4.77667">
        <ele>182</ele>
        <time>2017-08-19T08:58:20Z</time>
      </trkpt>
      <trkpt lat="45.9031" lon="4.77667">
        <ele>182</ele>
        <time>2017-08-19T08:58:21Z</time>
      </trkpt>
      <trkpt lat="45.90304" lon="4.77668">
        <ele>182</ele>
        <time>2017-08-19T08:58:22Z</time>
      </trkpt>
      <trkpt lat="45.90298" lon="4.77668">
        <ele>182</ele>
        <time>2017-08-19T08:58:23Z</time>
      </trkpt>
      <trkpt lat="45.90292" lon="4.77669">
        <ele>182</ele>
        <time>2017-08-19T08:58:24Z</time>
      </trkpt>
      <trkpt lat="45.90286" lon="4.7767">
        <ele>182</ele>
        <time>2017-08-19T08:58:25Z</time>
      </trkpt>
      <trkpt lat="45.9028" lon="4.7767">
        <ele>182</ele>
        <time>2017-08-19T08:58:26Z</time>
      </trkpt>
      <trkpt lat="45.90274" lon="4.7767">
        <ele>182</ele>
        <time>2017-08-19T08:58:27Z</time>
      </trkpt>
      <trkpt lat="45.90268" lon="4.7767">
        <ele>182</ele>
        <time>2017-08-19T08:58:28Z</time>
      </trkpt>
      <trkpt lat="45.90262" lon="4.7767">
        <ele>182</ele>
        <time>2017-08-19T08:58:29Z</time>
      </trkpt>
      <trkpt lat="45.90256" lon="4.7767">
        <ele>182</ele>
        <time>2017-08-19T08:58:30Z</time>
      </trkpt>
      <trkpt lat="45.9025" lon="4.77669">
        <ele>182</ele>
        <time>2017-08-19T08:58:31Z</time>
      </trkpt>
      <trkpt lat="45.90244" lon="4.77669">
        <ele>183</ele>
        <time>2017-08-19T08:58:32Z</time>
      </trkpt>
      <trkpt lat="45.90238" lon="4.77669">
        <ele>183</ele>
        <time>2017-08-19T08:58:33Z</time>
      </trkpt>
      <trkpt lat="45.90233" lon="4.77668">
        <ele>183</ele>
        <time>2017-08-19T08:58:34Z</time>
      </trkpt>
      <trkpt lat="45.90228" lon="4.77668">
        <ele>183</ele>
        <time>2017-08-19T08:58:35Z</time>
      </trkpt>
      <trkpt lat="45.90223" lon="4.77668">
        <ele>184</ele>
        <time>2017-08-19T08:58:36Z</time>
      </trkpt>
      <trkpt lat="45.90214" lon="4.77669">
        <ele>184</ele>
        <time>2017-08-19T08:58:38Z</time>
      </trkpt>
      <trkpt lat="45.90209" lon="4.7767">
        <ele>184</ele>
        <time>2017-08-19T08:58:39Z</time>
      </trkpt>
      <trkpt lat="45.90205" lon="4.7767">
        <ele>184</ele>
        <time>2017-08-19T08:58:40Z</time>
      </trkpt>
      <trkpt lat="45.902" lon="4.7767">
        <ele>184</ele>
        <time>2017-08-19T08:58:41Z</time>
      </trkpt>
      <trkpt lat="45.90194" lon="4.7767">
        <ele>184</ele>
        <time>2017-08-19T08:58:42Z</time>
      </trkpt>
      <trkpt lat="45.90189" lon="4.77669">
        <ele>185</ele>
        <time>2017-08-19T08:58:43Z</time>
      </trkpt>
      <trkpt lat="45.90183" lon="4.77669">
        <ele>185</ele>
        <time>2017-08-19T08:58:44Z</time>
      </trkpt>
      <trkpt lat="45.90177" lon="4.77669">
        <ele>185</ele>
        <time>2017-08-19T08:58:45Z</time>
      </trkpt>
      <trkpt lat="45.90171" lon="4.77669">
        <ele>185</ele>
        <time>2017-08-19T08:58:46Z</time>
      </trkpt>
      <trkpt lat="45.90165" lon="4.77669">
        <ele>185</ele>
        <time>2017-08-19T08:58:47Z</time>
      </trkpt>
      <trkpt lat="45.90159" lon="4.77669">
        <ele>185</ele>
        <time>2017-08-19T08:58:48Z</time>
      </trkpt>
      <trkpt lat="45.90153" lon="4.7767">
        <ele>185</ele>
        <time>2017-08-19T08:58:49Z</time>
      </trkpt>
      <trkpt lat="45.90148" lon="4.7767">
        <ele>185</ele>
        <time>2017-08-19T08:58:50Z</time>
      </trkpt>
      <trkpt lat="45.90143" lon="4.77671">
        <ele>185</ele>
        <time>2017-08-19T08:58:51Z</time>
      </trkpt>
      <trkpt lat="45.90137" lon="4.77671">
        <ele>185</ele>
        <time>2017-08-19T08:58:52Z</time>
      </trkpt>
      <trkpt lat="45.90132" lon="4.77671">
        <ele>185</ele>
        <time>2017-08-19T08:58:53Z</time>
      </trkpt>
      <trkpt lat="45.90128" lon="4.77671">
        <ele>185</ele>
        <time>2017-08-19T08:58:54Z</time>
      </trkpt>
      <trkpt lat="45.90123" lon="4.7767">
        <ele>184</ele>
        <time>2017-08-19T08:58:55Z</time>
      </trkpt>
      <trkpt lat="45.90117" lon="4.7767">
        <ele>184</ele>
        <time>2017-08-19T08:58:56Z</time>
      </trkpt>
      <trkpt lat="45.90112" lon="4.7767">
        <ele>184</ele>
        <time>2017-08-19T08:58:57Z</time>
      </trkpt>
      <trkpt lat="45.90106" lon="4.77669">
        <ele>184</ele>
        <time>2017-08-19T08:58:58Z</time>
      </trkpt>
      <trkpt lat="45.90101" lon="4.77669">
        <ele>184</ele>
        <time>2017-08-19T08:58:59Z</time>
      </trkpt>
      <trkpt lat="45.90095" lon="4.77669">
        <ele>184</ele>
        <time>2017-08-19T08:59:00Z</time>
      </trkpt>
      <trkpt lat="45.90089" lon="4.77669">
        <ele>183</ele>
        <time>2017-08-19T08:59:01Z</time>
      </trkpt>
      <trkpt lat="45.90083" lon="4.77669">
        <ele>183</ele>
        <time>2017-08-19T08:59:02Z</time>
      </trkpt>
      <trkpt lat="45.90078" lon="4.77669">
        <ele>183</ele>
        <time>2017-08-19T08:59:03Z</time>
      </trkpt>
      <trkpt lat="45.90072" lon="4.77668">
        <ele>184</ele>
        <time>2017-08-19T08:59:04Z</time>
      </trkpt>
      <trkpt lat="45.90066" lon="4.77668">
        <ele>184</ele>
        <time>2017-08-19T08:59:05Z</time>
      </trkpt>
      <trkpt lat="45.9006" lon="4.77668">
        <ele>184</ele>
        <time>2017-08-19T08:59:06Z</time>
      </trkpt>
      <trkpt lat="45.90054" lon="4.77668">
        <ele>184</ele>
        <time>2017-08-19T08:59:07Z</time>
      </trkpt>
      <trkpt lat="45.90048" lon="4.77668">
        <ele>184</ele>
        <time>2017-08-19T08:59:08Z</time>
      </trkpt>
      <trkpt lat="45.90043" lon="4.77668">
        <ele>185</ele>
        <time>2017-08-19T08:59:09Z</time>
      </trkpt>
      <trkpt lat="45.90037" lon="4.77668">
        <ele>185</ele>
        <time>2017-08-19T08:59:10Z</time>
      </trkpt>
      <trkpt lat="45.90032" lon="4.77668">
        <ele>185</ele>
        <time>2017-08-19T08:59:11Z</time>
      </trkpt>
      <trkpt lat="45.90027" lon="4.77668">
        <ele>185</ele>
        <time>2017-08-19T08:59:12Z</time>
      </trkpt>
      <trkpt lat="45.90022" lon="4.77668">
        <ele>185</ele>
        <time>2017-08-19T08:59:13Z</time>
      </trkpt>
      <trkpt lat="45.90016" lon="4.77668">
        <ele>185</ele>
        <time>2017-08-19T08:59:14Z</time>
      </trkpt>
      <trkpt lat="45.90011" lon="4.77669">
        <ele>186</ele>
        <time>2017-08-19T08:59:15Z</time>
      </trkpt>
      <trkpt lat="45.90006" lon="4.77669">
        <ele>186</ele>
        <time>2017-08-19T08:59:16Z</time>
      </trkpt>
      <trkpt lat="45.90001" lon="4.77668">
        <ele>186</ele>
        <time>2017-08-19T08:59:17Z</time>
      </trkpt>
      <trkpt lat="45.89995" lon="4.77668">
        <ele>186</ele>
        <time>2017-08-19T08:59:18Z</time>
      </trkpt>
      <trkpt lat="45.89989" lon="4.77668">
        <ele>186</ele>
        <time>2017-08-19T08:59:19Z</time>
      </trkpt>
      <trkpt lat="45.89983" lon="4.77668">
        <ele>187</ele>
        <time>2017-08-19T08:59:20Z</time>
      </trkpt>
      <trkpt lat="45.89976" lon="4.77669">
        <ele>187</ele>
        <time>2017-08-19T08:59:21Z</time>
      </trkpt>
      <trkpt lat="45.8997" lon="4.77668">
        <ele>187</ele>
        <time>2017-08-19T08:59:22Z</time>
      </trkpt>
      <trkpt lat="45.89964" lon="4.77668">
        <ele>187</ele>
        <time>2017-08-19T08:59:23Z</time>
      </trkpt>
      <trkpt lat="45.89958" lon="4.77667">
        <ele>187</ele>
        <time>2017-08-19T08:59:24Z</time>
      </trkpt>
      <trkpt lat="45.89953" lon="4.77668">
        <ele>187</ele>
        <time>2017-08-19T08:59:25Z</time>
      </trkpt>
      <trkpt lat="45.89947" lon="4.77668">
        <ele>187</ele>
        <time>2017-08-19T08:59:26Z</time>
      </trkpt>
      <trkpt lat="45.89941" lon="4.77668">
        <ele>187</ele>
        <time>2017-08-19T08:59:27Z</time>
      </trkpt>
      <trkpt lat="45.89935" lon="4.77668">
        <ele>187</ele>
        <time>2017-08-19T08:59:28Z</time>
      </trkpt>
      <trkpt lat="45.89929" lon="4.77669">
        <ele>187</ele>
        <time>2017-08-19T08:59:29Z</time>
      </trkpt>
      <trkpt lat="45.89923" lon="4.77669">
        <ele>187</ele>
        <time>2017-08-19T08:59:30Z</time>
      </trkpt>
      <trkpt lat="45.89918" lon="4.77669">
        <ele>187</ele>
        <time>2017-08-19T08:59:31Z</time>
      </trkpt>
      <trkpt lat="45.89913" lon="4.77669">
        <ele>187</ele>
        <time>2017-08-19T08:59:32Z</time>
      </trkpt>
      <trkpt lat="45.89907" lon="4.77669">
        <ele>188</ele>
        <time>2017-08-19T08:59:33Z</time>
      </trkpt>
      <trkpt lat="45.89901" lon="4.77668">
        <ele>188</ele>
        <time>2017-08-19T08:59:34Z</time>
      </trkpt>
      <trkpt lat="45.89895" lon="4.77668">
        <ele>188</ele>
        <time>2017-08-19T08:59:35Z</time>
      </trkpt>
      <trkpt lat="45.89889" lon="4.77668">
        <ele>188</ele>
        <time>2017-08-19T08:59:36Z</time>
      </trkpt>
      <trkpt lat="45.89883" lon="4.77668">
        <ele>189</ele>
        <time>2017-08-19T08:59:37Z</time>
      </trkpt>
      <trkpt lat="45.89878" lon="4.77668">
        <ele>189</ele>
        <time>2017-08-19T08:59:38Z</time>
      </trkpt>
      <trkpt lat="45.89873" lon="4.77667">
        <ele>189</ele>
        <time>2017-08-19T08:59:39Z</time>
      </trkpt>
      <trkpt lat="45.89864" lon="4.77667">
        <ele>189</ele>
        <time>2017-08-19T08:59:41Z</time>
      </trkpt>
      <trkpt lat="45.8986" lon="4.77667">
        <ele>187</ele>
        <time>2017-08-19T08:59:42Z</time>
      </trkpt>
      <trkpt lat="45.89855" lon="4.77667">
        <ele>187</ele>
        <time>2017-08-19T08:59:43Z</time>
      </trkpt>
      <trkpt lat="45.8985" lon="4.77667">
        <ele>187</ele>
        <time>2017-08-19T08:59:44Z</time>
      </trkpt>
      <trkpt lat="45.89846" lon="4.77667">
        <ele>188</ele>
        <time>2017-08-19T08:59:45Z</time>
      </trkpt>
      <trkpt lat="45.89841" lon="4.77666">
        <ele>188</ele>
        <time>2017-08-19T08:59:46Z</time>
      </trkpt>
      <trkpt lat="45.89836" lon="4.77666">
        <ele>189</ele>
        <time>2017-08-19T08:59:47Z</time>
      </trkpt>
      <trkpt lat="45.89831" lon="4.77665">
        <ele>189</ele>
        <time>2017-08-19T08:59:48Z</time>
      </trkpt>
      <trkpt lat="45.89826" lon="4.77664">
        <ele>189</ele>
        <time>2017-08-19T08:59:49Z</time>
      </trkpt>
      <trkpt lat="45.89822" lon="4.77664">
        <ele>189</ele>
        <time>2017-08-19T08:59:50Z</time>
      </trkpt>
      <trkpt lat="45.89817" lon="4.77662">
        <ele>188</ele>
        <time>2017-08-19T08:59:51Z</time>
      </trkpt>
      <trkpt lat="45.89812" lon="4.77662">
        <ele>188</ele>
        <time>2017-08-19T08:59:52Z</time>
      </trkpt>
      <trkpt lat="45.89808" lon="4.77661">
        <ele>188</ele>
        <time>2017-08-19T08:59:53Z</time>
      </trkpt>
      <trkpt lat="45.89803" lon="4.7766">
        <ele>188</ele>
        <time>2017-08-19T08:59:54Z</time>
      </trkpt>
      <trkpt lat="45.89794" lon="4.7766">
        <ele>189</ele>
        <time>2017-08-19T08:59:56Z</time>
      </trkpt>
      <trkpt lat="45.8979" lon="4.77661">
        <ele>189</ele>
        <time>2017-08-19T08:59:57Z</time>
      </trkpt>
      <trkpt lat="45.89782" lon="4.77661">
        <ele>189</ele>
        <time>2017-08-19T08:59:59Z</time>
      </trkpt>
      <trkpt lat="45.89777" lon="4.77661">
        <ele>189</ele>
        <time>2017-08-19T09:00:00Z</time>
      </trkpt>
      <trkpt lat="45.89769" lon="4.77661">
        <ele>190</ele>
        <time>2017-08-19T09:00:02Z</time>
      </trkpt>
      <trkpt lat="45.89765" lon="4.7766">
        <ele>190</ele>
        <time>2017-08-19T09:00:03Z</time>
      </trkpt>
      <trkpt lat="45.89757" lon="4.77657">
        <ele>190</ele>
        <time>2017-08-19T09:00:05Z</time>
      </trkpt>
      <trkpt lat="45.89753" lon="4.77657">
        <ele>191</ele>
        <time>2017-08-19T09:00:06Z</time>
      </trkpt>
      <trkpt lat="45.89744" lon="4.77655">
        <ele>191</ele>
        <time>2017-08-19T09:00:08Z</time>
      </trkpt>
      <trkpt lat="45.89739" lon="4.77654">
        <ele>191</ele>
        <time>2017-08-19T09:00:09Z</time>
      </trkpt>
      <trkpt lat="45.89734" lon="4.77654">
        <ele>191</ele>
        <time>2017-08-19T09:00:10Z</time>
      </trkpt>
      <trkpt lat="45.89729" lon="4.77653">
        <ele>190</ele>
        <time>2017-08-19T09:00:11Z</time>
      </trkpt>
      <trkpt lat="45.89724" lon="4.77651">
        <ele>190</ele>
        <time>2017-08-19T09:00:12Z</time>
      </trkpt>
      <trkpt lat="45.89719" lon="4.7765">
        <ele>190</ele>
        <time>2017-08-19T09:00:13Z</time>
      </trkpt>
      <trkpt lat="45.89714" lon="4.77649">
        <ele>190</ele>
        <time>2017-08-19T09:00:14Z</time>
      </trkpt>
      <trkpt lat="45.89709" lon="4.77649">
        <ele>190</ele>
        <time>2017-08-19T09:00:15Z</time>
      </trkpt>
      <trkpt lat="45.89701" lon="4.77648">
        <ele>190</ele>
        <time>2017-08-19T09:00:17Z</time>
      </trkpt>
      <trkpt lat="45.89696" lon="4.77647">
        <ele>190</ele>
        <time>2017-08-19T09:00:18Z</time>
      </trkpt>
      <trkpt lat="45.89692" lon="4.77646">
        <ele>190</ele>
        <time>2017-08-19T09:00:19Z</time>
      </trkpt>
      <trkpt lat="45.89687" lon="4.77646">
        <ele>190</ele>
        <time>2017-08-19T09:00:20Z</time>
      </trkpt>
      <trkpt lat="45.89682" lon="4.77645">
        <ele>190</ele>
        <time>2017-08-19T09:00:21Z</time>
      </trkpt>
      <trkpt lat="45.89676" lon="4.77643">
        <ele>190</ele>
        <time>2017-08-19T09:00:22Z</time>
      </trkpt>
      <trkpt lat="45.89671" lon="4.77642">
        <ele>190</ele>
        <time>2017-08-19T09:00:23Z</time>
      </trkpt>
      <trkpt lat="45.89665" lon="4.77642">
        <ele>190</ele>
        <time>2017-08-19T09:00:24Z</time>
      </trkpt>
      <trkpt lat="45.8966" lon="4.77641">
        <ele>190</ele>
        <time>2017-08-19T09:00:25Z</time>
      </trkpt>
      <trkpt lat="45.89654" lon="4.7764">
        <ele>190</ele>
        <time>2017-08-19T09:00:26Z</time>
      </trkpt>
      <trkpt lat="45.89649" lon="4.77639">
        <ele>190</ele>
        <time>2017-08-19T09:00:27Z</time>
      </trkpt>
      <trkpt lat="45.89643" lon="4.77638">
        <ele>190</ele>
        <time>2017-08-19T09:00:28Z</time>
      </trkpt>
      <trkpt lat="45.89638" lon="4.77638">
        <ele>190</ele>
        <time>2017-08-19T09:00:29Z</time>
      </trkpt>
      <trkpt lat="45.89633" lon="4.77636">
        <ele>190</ele>
        <time>2017-08-19T09:00:30Z</time>
      </trkpt>
      <trkpt lat="45.89628" lon="4.77635">
        <ele>191</ele>
        <time>2017-08-19T09:00:31Z</time>
      </trkpt>
      <trkpt lat="45.89623" lon="4.77634">
        <ele>191</ele>
        <time>2017-08-19T09:00:32Z</time>
      </trkpt>
      <trkpt lat="45.89618" lon="4.77633">
        <ele>191</ele>
        <time>2017-08-19T09:00:33Z</time>
      </trkpt>
      <trkpt lat="45.89613" lon="4.77632">
        <ele>191</ele>
        <time>2017-08-19T09:00:34Z</time>
      </trkpt>
      <trkpt lat="45.89608" lon="4.77631">
        <ele>191</ele>
        <time>2017-08-19T09:00:35Z</time>
      </trkpt>
      <trkpt lat="45.89604" lon="4.7763">
        <ele>191</ele>
        <time>2017-08-19T09:00:36Z</time>
      </trkpt>
      <trkpt lat="45.89599" lon="4.77629">
        <ele>191</ele>
        <time>2017-08-19T09:00:37Z</time>
      </trkpt>
      <trkpt lat="45.89593" lon="4.77629">
        <ele>191</ele>
        <time>2017-08-19T09:00:38Z</time>
      </trkpt>
      <trkpt lat="45.89588" lon="4.77628">
        <ele>191</ele>
        <time>2017-08-19T09:00:39Z</time>
      </trkpt>
      <trkpt lat="45.89583" lon="4.77627">
        <ele>192</ele>
        <time>2017-08-19T09:00:40Z</time>
      </trkpt>
      <trkpt lat="45.89577" lon="4.77626">
        <ele>192</ele>
        <time>2017-08-19T09:00:41Z</time>
      </trkpt>
      <trkpt lat="45.89572" lon="4.77625">
        <ele>192</ele>
        <time>2017-08-19T09:00:42Z</time>
      </trkpt>
      <trkpt lat="45.89566" lon="4.77623">
        <ele>192</ele>
        <time>2017-08-19T09:00:43Z</time>
      </trkpt>
      <trkpt lat="45.8956" lon="4.77622">
        <ele>192</ele>
        <time>2017-08-19T09:00:44Z</time>
      </trkpt>
      <trkpt lat="45.89554" lon="4.77621">
        <ele>192</ele>
        <time>2017-08-19T09:00:45Z</time>
      </trkpt>
      <trkpt lat="45.89548" lon="4.7762">
        <ele>192</ele>
        <time>2017-08-19T09:00:46Z</time>
      </trkpt>
      <trkpt lat="45.89542" lon="4.7762">
        <ele>192</ele>
        <time>2017-08-19T09:00:47Z</time>
      </trkpt>
      <trkpt lat="45.89537" lon="4.77619">
        <ele>192</ele>
        <time>2017-08-19T09:00:48Z</time>
      </trkpt>
      <trkpt lat="45.89532" lon="4.77618">
        <ele>192</ele>
        <time>2017-08-19T09:00:49Z</time>
      </trkpt>
      <trkpt lat="45.89526" lon="4.77616">
        <ele>192</ele>
        <time>2017-08-19T09:00:50Z</time>
      </trkpt>
      <trkpt lat="45.89521" lon="4.77615">
        <ele>192</ele>
        <time>2017-08-19T09:00:51Z</time>
      </trkpt>
      <trkpt lat="45.89516" lon="4.77615">
        <ele>192</ele>
        <time>2017-08-19T09:00:52Z</time>
      </trkpt>
      <trkpt lat="45.89511" lon="4.77614">
        <ele>192</ele>
        <time>2017-08-19T09:00:53Z</time>
      </trkpt>
      <trkpt lat="45.89506" lon="4.77612">
        <ele>192</ele>
        <time>2017-08-19T09:00:54Z</time>
      </trkpt>
      <trkpt lat="45.89501" lon="4.77611">
        <ele>192</ele>
        <time>2017-08-19T09:00:55Z</time>
      </trkpt>
      <trkpt lat="45.89496" lon="4.77611">
        <ele>193</ele>
        <time>2017-08-19T09:00:56Z</time>
      </trkpt>
      <trkpt lat="45.8949" lon="4.7761">
        <ele>193</ele>
        <time>2017-08-19T09:00:57Z</time>
      </trkpt>
      <trkpt lat="45.89485" lon="4.77609">
        <ele>193</ele>
        <time>2017-08-19T09:00:58Z</time>
      </trkpt>
      <trkpt lat="45.89479" lon="4.77607">
        <ele>193</ele>
        <time>2017-08-19T09:00:59Z</time>
      </trkpt>
      <trkpt lat="45.89474" lon="4.77606">
        <ele>193</ele>
        <time>2017-08-19T09:01:00Z</time>
      </trkpt>
      <trkpt lat="45.89468" lon="4.77604">
        <ele>193</ele>
        <time>2017-08-19T09:01:01Z</time>
      </trkpt>
      <trkpt lat="45.89463" lon="4.77602">
        <ele>193</ele>
        <time>2017-08-19T09:01:02Z</time>
      </trkpt>
      <trkpt lat="45.89458" lon="4.776">
        <ele>193</ele>
        <time>2017-08-19T09:01:03Z</time>
      </trkpt>
      <trkpt lat="45.89452" lon="4.77598">
        <ele>193</ele>
        <time>2017-08-19T09:01:04Z</time>
      </trkpt>
      <trkpt lat="45.89447" lon="4.77596">
        <ele>193</ele>
        <time>2017-08-19T09:01:05Z</time>
      </trkpt>
      <trkpt lat="45.89442" lon="4.77594">
        <ele>193</ele>
        <time>2017-08-19T09:01:06Z</time>
      </trkpt>
      <trkpt lat="45.89437" lon="4.77591">
        <ele>193</ele>
        <time>2017-08-19T09:01:07Z</time>
      </trkpt>
      <trkpt lat="45.89432" lon="4.77589">
        <ele>194</ele>
        <time>2017-08-19T09:01:08Z</time>
      </trkpt>
      <trkpt lat="45.89427" lon="4.77587">
        <ele>194</ele>
        <time>2017-08-19T09:01:09Z</time>
      </trkpt>
      <trkpt lat="45.89421" lon="4.77585">
        <ele>194</ele>
        <time>2017-08-19T09:01:10Z</time>
      </trkpt>
      <trkpt lat="45.89416" lon="4.77583">
        <ele>194</ele>
        <time>2017-08-19T09:01:11Z</time>
      </trkpt>
      <trkpt lat="45.89411" lon="4.77581">
        <ele>194</ele>
        <time>2017-08-19T09:01:12Z</time>
      </trkpt>
      <trkpt lat="45.89407" lon="4.77579">
        <ele>194</ele>
        <time>2017-08-19T09:01:13Z</time>
      </trkpt>
      <trkpt lat="45.89402" lon="4.77577">
        <ele>194</ele>
        <time>2017-08-19T09:01:14Z</time>
      </trkpt>
      <trkpt lat="45.89398" lon="4.77575">
        <ele>194</ele>
        <time>2017-08-19T09:01:15Z</time>
      </trkpt>
      <trkpt lat="45.89393" lon="4.77573">
        <ele>194</ele>
        <time>2017-08-19T09:01:16Z</time>
      </trkpt>
      <trkpt lat="45.89387" lon="4.77571">
        <ele>194</ele>
        <time>2017-08-19T09:01:17Z</time>
      </trkpt>
      <trkpt lat="45.89382" lon="4.77568">
        <ele>194</ele>
        <time>2017-08-19T09:01:18Z</time>
      </trkpt>
      <trkpt lat="45.89376" lon="4.77566">
        <ele>194</ele>
        <time>2017-08-19T09:01:19Z</time>
      </trkpt>
      <trkpt lat="45.8937" lon="4.77563">
        <ele>194</ele>
        <time>2017-08-19T09:01:20Z</time>
      </trkpt>
      <trkpt lat="45.89364" lon="4.7756">
        <ele>194</ele>
        <time>2017-08-19T09:01:21Z</time>
      </trkpt>
      <trkpt lat="45.89358" lon="4.77558">
        <ele>194</ele>
        <time>2017-08-19T09:01:22Z</time>
      </trkpt>
      <trkpt lat="45.89352" lon="4.77556">
        <ele>194</ele>
        <time>2017-08-19T09:01:23Z</time>
      </trkpt>
      <trkpt lat="45.89346" lon="4.77553">
        <ele>194</ele>
        <time>2017-08-19T09:01:24Z</time>
      </trkpt>
      <trkpt lat="45.89341" lon="4.77551">
        <ele>194</ele>
        <time>2017-08-19T09:01:25Z</time>
      </trkpt>
      <trkpt lat="45.89336" lon="4.77549">
        <ele>194</ele>
        <time>2017-08-19T09:01:26Z</time>
      </trkpt>
      <trkpt lat="45.89331" lon="4.77547">
        <ele>194</ele>
        <time>2017-08-19T09:01:27Z</time>
      </trkpt>
      <trkpt lat="45.89327" lon="4.77545">
        <ele>194</ele>
        <time>2017-08-19T09:01:28Z</time>
      </trkpt>
      <trkpt lat="45.89318" lon="4.77542">
        <ele>194</ele>
        <time>2017-08-19T09:01:30Z</time>
      </trkpt>
      <trkpt lat="45.89314" lon="4.7754">
        <ele>194</ele>
        <time>2017-08-19T09:01:31Z</time>
      </trkpt>
      <trkpt lat="45.89309" lon="4.77538">
        <ele>194</ele>
        <time>2017-08-19T09:01:32Z</time>
      </trkpt>
      <trkpt lat="45.89303" lon="4.77536">
        <ele>194</ele>
        <time>2017-08-19T09:01:33Z</time>
      </trkpt>
      <trkpt lat="45.89298" lon="4.77534">
        <ele>194</ele>
        <time>2017-08-19T09:01:34Z</time>
      </trkpt>
      <trkpt lat="45.89293" lon="4.77532">
        <ele>194</ele>
        <time>2017-08-19T09:01:35Z</time>
      </trkpt>
      <trkpt lat="45.89287" lon="4.7753">
        <ele>193</ele>
        <time>2017-08-19T09:01:36Z</time>
      </trkpt>
      <trkpt lat="45.89283" lon="4.77528">
        <ele>193</ele>
        <time>2017-08-19T09:01:37Z</time>
      </trkpt>
      <trkpt lat="45.89278" lon="4.77527">
        <ele>193</ele>
        <time>2017-08-19T09:01:38Z</time>
      </trkpt>
      <trkpt lat="45.89272" lon="4.77526">
        <ele>193</ele>
        <time>2017-08-19T09:01:39Z</time>
      </trkpt>
      <trkpt lat="45.89267" lon="4.77525">
        <ele>193</ele>
        <time>2017-08-19T09:01:40Z</time>
      </trkpt>
      <trkpt lat="45.89261" lon="4.77524">
        <ele>193</ele>
        <time>2017-08-19T09:01:41Z</time>
      </trkpt>
      <trkpt lat="45.89255" lon="4.77524">
        <ele>193</ele>
        <time>2017-08-19T09:01:42Z</time>
      </trkpt>
      <trkpt lat="45.8925" lon="4.77525">
        <ele>193</ele>
        <time>2017-08-19T09:01:43Z</time>
      </trkpt>
      <trkpt lat="45.89244" lon="4.77525">
        <ele>193</ele>
        <time>2017-08-19T09:01:44Z</time>
      </trkpt>
      <trkpt lat="45.89238" lon="4.77526">
        <ele>193</ele>
        <time>2017-08-19T09:01:45Z</time>
      </trkpt>
      <trkpt lat="45.89232" lon="4.77528">
        <ele>194</ele>
        <time>2017-08-19T09:01:46Z</time>
      </trkpt>
      <trkpt lat="45.89226" lon="4.77529">
        <ele>194</ele>
        <time>2017-08-19T09:01:47Z</time>
      </trkpt>
      <trkpt lat="45.8922" lon="4.77531">
        <ele>194</ele>
        <time>2017-08-19T09:01:48Z</time>
      </trkpt>
      <trkpt lat="45.89214" lon="4.77532">
        <ele>194</ele>
        <time>2017-08-19T09:01:49Z</time>
      </trkpt>
      <trkpt lat="45.89208" lon="4.77533">
        <ele>194</ele>
        <time>2017-08-19T09:01:50Z</time>
      </trkpt>
      <trkpt lat="45.89201" lon="4.77535">
        <ele>194</ele>
        <time>2017-08-19T09:01:51Z</time>
      </trkpt>
      <trkpt lat="45.89195" lon="4.77536">
        <ele>194</ele>
        <time>2017-08-19T09:01:52Z</time>
      </trkpt>
      <trkpt lat="45.89189" lon="4.77538">
        <ele>194</ele>
        <time>2017-08-19T09:01:53Z</time>
      </trkpt>
      <trkpt lat="45.89182" lon="4.77539">
        <ele>194</ele>
        <time>2017-08-19T09:01:54Z</time>
      </trkpt>
      <trkpt lat="45.89176" lon="4.7754">
        <ele>194</ele>
        <time>2017-08-19T09:01:55Z</time>
      </trkpt>
      <trkpt lat="45.8917" lon="4.77541">
        <ele>194</ele>
        <time>2017-08-19T09:01:56Z</time>
      </trkpt>
      <trkpt lat="45.89165" lon="4.77541">
        <ele>195</ele>
        <time>2017-08-19T09:01:57Z</time>
      </trkpt>
      <trkpt lat="45.8916" lon="4.77542">
        <ele>195</ele>
        <time>2017-08-19T09:01:58Z</time>
      </trkpt>
      <trkpt lat="45.89155" lon="4.77543">
        <ele>195</ele>
        <time>2017-08-19T09:01:59Z</time>
      </trkpt>
      <trkpt lat="45.8915" lon="4.77545">
        <ele>195</ele>
        <time>2017-08-19T09:02:00Z</time>
      </trkpt>
      <trkpt lat="45.89145" lon="4.77546">
        <ele>195</ele>
        <time>2017-08-19T09:02:01Z</time>
      </trkpt>
      <trkpt lat="45.89139" lon="4.77548">
        <ele>195</ele>
        <time>2017-08-19T09:02:02Z</time>
      </trkpt>
      <trkpt lat="45.89134" lon="4.77549">
        <ele>195</ele>
        <time>2017-08-19T09:02:03Z</time>
      </trkpt>
      <trkpt lat="45.89129" lon="4.7755">
        <ele>195</ele>
        <time>2017-08-19T09:02:04Z</time>
      </trkpt>
      <trkpt lat="45.89124" lon="4.77553">
        <ele>195</ele>
        <time>2017-08-19T09:02:05Z</time>
      </trkpt>
      <trkpt lat="45.89118" lon="4.77555">
        <ele>195</ele>
        <time>2017-08-19T09:02:06Z</time>
      </trkpt>
      <trkpt lat="45.89113" lon="4.77557">
        <ele>195</ele>
        <time>2017-08-19T09:02:07Z</time>
      </trkpt>
      <trkpt lat="45.89108" lon="4.7756">
        <ele>195</ele>
        <time>2017-08-19T09:02:08Z</time>
      </trkpt>
      <trkpt lat="45.89103" lon="4.77563">
        <ele>196</ele>
        <time>2017-08-19T09:02:09Z</time>
      </trkpt>
      <trkpt lat="45.89098" lon="4.77566">
        <ele>196</ele>
        <time>2017-08-19T09:02:10Z</time>
      </trkpt>
      <trkpt lat="45.89093" lon="4.7757">
        <ele>196</ele>
        <time>2017-08-19T09:02:11Z</time>
      </trkpt>
      <trkpt lat="45.89088" lon="4.77573">
        <ele>196</ele>
        <time>2017-08-19T09:02:12Z</time>
      </trkpt>
      <trkpt lat="45.89083" lon="4.77577">
        <ele>196</ele>
        <time>2017-08-19T09:02:13Z</time>
      </trkpt>
      <trkpt lat="45.89078" lon="4.77581">
        <ele>196</ele>
        <time>2017-08-19T09:02:14Z</time>
      </trkpt>
      <trkpt lat="45.89074" lon="4.77584">
        <ele>196</ele>
        <time>2017-08-19T09:02:15Z</time>
      </trkpt>
      <trkpt lat="45.8907" lon="4.77588">
        <ele>196</ele>
        <time>2017-08-19T09:02:16Z</time>
      </trkpt>
      <trkpt lat="45.89066" lon="4.77591">
        <ele>196</ele>
        <time>2017-08-19T09:02:17Z</time>
      </trkpt>
      <trkpt lat="45.89062" lon="4.77594">
        <ele>196</ele>
        <time>2017-08-19T09:02:18Z</time>
      </trkpt>
      <trkpt lat="45.89058" lon="4.77598">
        <ele>197</ele>
        <time>2017-08-19T09:02:19Z</time>
      </trkpt>
      <trkpt lat="45.89054" lon="4.77602">
        <ele>197</ele>
        <time>2017-08-19T09:02:20Z</time>
      </trkpt>
      <trkpt lat="45.89049" lon="4.77606">
        <ele>197</ele>
        <time>2017-08-19T09:02:21Z</time>
      </trkpt>
      <trkpt lat="45.89045" lon="4.7761">
        <ele>197</ele>
        <time>2017-08-19T09:02:22Z</time>
      </trkpt>
      <trkpt lat="45.89041" lon="4.77614">
        <ele>197</ele>
        <time>2017-08-19T09:02:23Z</time>
      </trkpt>
      <trkpt lat="45.89036" lon="4.77618">
        <ele>197</ele>
        <time>2017-08-19T09:02:24Z</time>
      </trkpt>
      <trkpt lat="45.89031" lon="4.77622">
        <ele>197</ele>
        <time>2017-08-19T09:02:25Z</time>
      </trkpt>
      <trkpt lat="45.89026" lon="4.77626">
        <ele>197</ele>
        <time>2017-08-19T09:02:26Z</time>
      </trkpt>
      <trkpt lat="45.89022" lon="4.7763">
        <ele>197</ele>
        <time>2017-08-19T09:02:27Z</time>
      </trkpt>
      <trkpt lat="45.89018" lon="4.77634">
        <ele>197</ele>
        <time>2017-08-19T09:02:28Z</time>
      </trkpt>
      <trkpt lat="45.89013" lon="4.77637">
        <ele>197</ele>
        <time>2017-08-19T09:02:29Z</time>
      </trkpt>
      <trkpt lat="45.89008" lon="4.77641">
        <ele>197</ele>
        <time>2017-08-19T09:02:30Z</time>
      </trkpt>
      <trkpt lat="45.89003" lon="4.77645">
        <ele>197</ele>
        <time>2017-08-19T09:02:31Z</time>
      </trkpt>
      <trkpt lat="45.88999" lon="4.77649">
        <ele>198</ele>
        <time>2017-08-19T09:02:32Z</time>
      </trkpt>
      <trkpt lat="45.88994" lon="4.77653">
        <ele>198</ele>
        <time>2017-08-19T09:02:33Z</time>
      </trkpt>
      <trkpt lat="45.88989" lon="4.77656">
        <ele>198</ele>
        <time>2017-08-19T09:02:34Z</time>
      </trkpt>
      <trkpt lat="45.88985" lon="4.7766">
        <ele>198</ele>
        <time>2017-08-19T09:02:35Z</time>
      </trkpt>
      <trkpt lat="45.8898" lon="4.77663">
        <ele>198</ele>
        <time>2017-08-19T09:02:36Z</time>
      </trkpt>
      <trkpt lat="45.88975" lon="4.77667">
        <ele>198</ele>
        <time>2017-08-19T09:02:37Z</time>
      </trkpt>
      <trkpt lat="45.8897" lon="4.7767">
        <ele>198</ele>
        <time>2017-08-19T09:02:38Z</time>
      </trkpt>
      <trkpt lat="45.88965" lon="4.77673">
        <ele>198</ele>
        <time>2017-08-19T09:02:39Z</time>
      </trkpt>
      <trkpt lat="45.8896" lon="4.77676">
        <ele>198</ele>
        <time>2017-08-19T09:02:40Z</time>
      </trkpt>
      <trkpt lat="45.88955" lon="4.77679">
        <ele>199</ele>
        <time>2017-08-19T09:02:41Z</time>
      </trkpt>
      <trkpt lat="45.8895" lon="4.77681">
        <ele>199</ele>
        <time>2017-08-19T09:02:42Z</time>
      </trkpt>
      <trkpt lat="45.88945" lon="4.77684">
        <ele>199</ele>
        <time>2017-08-19T09:02:43Z</time>
      </trkpt>
      <trkpt lat="45.8894" lon="4.77686">
        <ele>199</ele>
        <time>2017-08-19T09:02:44Z</time>
      </trkpt>
      <trkpt lat="45.88934" lon="4.77688">
        <ele>199</ele>
        <time>2017-08-19T09:02:45Z</time>
      </trkpt>
      <trkpt lat="45.88929" lon="4.7769">
        <ele>199</ele>
        <time>2017-08-19T09:02:46Z</time>
      </trkpt>
      <trkpt lat="45.88924" lon="4.77692">
        <ele>199</ele>
        <time>2017-08-19T09:02:47Z</time>
      </trkpt>
      <trkpt lat="45.88918" lon="4.77694">
        <ele>199</ele>
        <time>2017-08-19T09:02:48Z</time>
      </trkpt>
      <trkpt lat="45.88913" lon="4.77695">
        <ele>200</ele>
        <time>2017-08-19T09:02:49Z</time>
      </trkpt>
      <trkpt lat="45.88907" lon="4.77696">
        <ele>200</ele>
        <time>2017-08-19T09:02:50Z</time>
      </trkpt>
      <trkpt lat="45.88902" lon="4.77697">
        <ele>200</ele>
        <time>2017-08-19T09:02:51Z</time>
      </trkpt>
      <trkpt lat="45.88897" lon="4.77699">
        <ele>200</ele>
        <time>2017-08-19T09:02:52Z</time>
      </trkpt>
      <trkpt lat="45.88892" lon="4.777">
        <ele>200</ele>
        <time>2017-08-19T09:02:53Z</time>
      </trkpt>
      <trkpt lat="45.88886" lon="4.777">
        <ele>200</ele>
        <time>2017-08-19T09:02:54Z</time>
      </trkpt>
      <trkpt lat="45.88881" lon="4.77701">
        <ele>200</ele>
        <time>2017-08-19T09:02:55Z</time>
      </trkpt>
      <trkpt lat="45.88876" lon="4.77701">
        <ele>200</ele>
        <time>2017-08-19T09:02:56Z</time>
      </trkpt>
      <trkpt lat="45.88872" lon="4.77702">
        <ele>201</ele>
        <time>2017-08-19T09:02:57Z</time>
      </trkpt>
      <trkpt lat="45.88864" lon="4.77703">
        <ele>201</ele>
        <time>2017-08-19T09:02:59Z</time>
      </trkpt>
      <trkpt lat="45.8886" lon="4.77703">
        <ele>201</ele>
        <time>2017-08-19T09:03:00Z</time>
      </trkpt>
      <trkpt lat="45.88856" lon="4.77703">
        <ele>201</ele>
        <time>2017-08-19T09:03:01Z</time>
      </trkpt>
      <trkpt lat="45.88851" lon="4.77703">
        <ele>201</ele>
        <time>2017-08-19T09:03:02Z</time>
      </trkpt>
      <trkpt lat="45.88846" lon="4.77704">
        <ele>201</ele>
        <time>2017-08-19T09:03:03Z</time>
      </trkpt>
      <trkpt lat="45.8884" lon="4.77704">
        <ele>201</ele>
        <time>2017-08-19T09:03:04Z</time>
      </trkpt>
      <trkpt lat="45.88835" lon="4.77705">
        <ele>201</ele>
        <time>2017-08-19T09:03:05Z</time>
      </trkpt>
      <trkpt lat="45.8883" lon="4.77705">
        <ele>201</ele>
        <time>2017-08-19T09:03:06Z</time>
      </trkpt>
      <trkpt lat="45.88826" lon="4.77705">
        <ele>201</ele>
        <time>2017-08-19T09:03:07Z</time>
      </trkpt>
      <trkpt lat="45.88821" lon="4.77705">
        <ele>202</ele>
        <time>2017-08-19T09:03:08Z</time>
      </trkpt>
      <trkpt lat="45.88816" lon="4.77705">
        <ele>202</ele>
        <time>2017-08-19T09:03:09Z</time>
      </trkpt>
      <trkpt lat="45.88811" lon="4.77706">
        <ele>202</ele>
        <time>2017-08-19T09:03:10Z</time>
      </trkpt>
      <trkpt lat="45.88805" lon="4.77706">
        <ele>202</ele>
        <time>2017-08-19T09:03:11Z</time>
      </trkpt>
      <trkpt lat="45.888" lon="4.77707">
        <ele>202</ele>
        <time>2017-08-19T09:03:12Z</time>
      </trkpt>
      <trkpt lat="45.88795" lon="4.77707">
        <ele>202</ele>
        <time>2017-08-19T09:03:13Z</time>
      </trkpt>
      <trkpt lat="45.88789" lon="4.77708">
        <ele>202</ele>
        <time>2017-08-19T09:03:14Z</time>
      </trkpt>
      <trkpt lat="45.88784" lon="4.77708">
        <ele>202</ele>
        <time>2017-08-19T09:03:15Z</time>
      </trkpt>
      <trkpt lat="45.8878" lon="4.77708">
        <ele>202</ele>
        <time>2017-08-19T09:03:16Z</time>
      </trkpt>
      <trkpt lat="45.88775" lon="4.77708">
        <ele>202</ele>
        <time>2017-08-19T09:03:17Z</time>
      </trkpt>
      <trkpt lat="45.88771" lon="4.77708">
        <ele>202</ele>
        <time>2017-08-19T09:03:18Z</time>
      </trkpt>
      <trkpt lat="45.88762" lon="4.77709">
        <ele>202</ele>
        <time>2017-08-19T09:03:20Z</time>
      </trkpt>
      <trkpt lat="45.88757" lon="4.77709">
        <ele>202</ele>
        <time>2017-08-19T09:03:21Z</time>
      </trkpt>
      <trkpt lat="45.88752" lon="4.77709">
        <ele>202</ele>
        <time>2017-08-19T09:03:22Z</time>
      </trkpt>
      <trkpt lat="45.88747" lon="4.77709">
        <ele>203</ele>
        <time>2017-08-19T09:03:23Z</time>
      </trkpt>
      <trkpt lat="45.88742" lon="4.77709">
        <ele>203</ele>
        <time>2017-08-19T09:03:24Z</time>
      </trkpt>
      <trkpt lat="45.88737" lon="4.77709">
        <ele>203</ele>
        <time>2017-08-19T09:03:25Z</time>
      </trkpt>
      <trkpt lat="45.88732" lon="4.77709">
        <ele>203</ele>
        <time>2017-08-19T09:03:26Z</time>
      </trkpt>
      <trkpt lat="45.88727" lon="4.77709">
        <ele>203</ele>
        <time>2017-08-19T09:03:27Z</time>
      </trkpt>
      <trkpt lat="45.88722" lon="4.77709">
        <ele>203</ele>
        <time>2017-08-19T09:03:28Z</time>
      </trkpt>
      <trkpt lat="45.88716" lon="4.77709">
        <ele>203</ele>
        <time>2017-08-19T09:03:29Z</time>
      </trkpt>
      <trkpt lat="45.88712" lon="4.77709">
        <ele>203</ele>
        <time>2017-08-19T09:03:30Z</time>
      </trkpt>
      <trkpt lat="45.88707" lon="4.7771">
        <ele>203</ele>
        <time>2017-08-19T09:03:31Z</time>
      </trkpt>
      <trkpt lat="45.88703" lon="4.7771">
        <ele>203</ele>
        <time>2017-08-19T09:03:32Z</time>
      </trkpt>
      <trkpt lat="45.88698" lon="4.7771">
        <ele>203</ele>
        <time>2017-08-19T09:03:33Z</time>
      </trkpt>
      <trkpt lat="45.88693" lon="4.7771">
        <ele>203</ele>
        <time>2017-08-19T09:03:34Z</time>
      </trkpt>
      <trkpt lat="45.88688" lon="4.77711">
        <ele>203</ele>
        <time>2017-08-19T09:03:35Z</time>
      </trkpt>
      <trkpt lat="45.88682" lon="4.77711">
        <ele>203</ele>
        <time>2017-08-19T09:03:36Z</time>
      </trkpt>
      <trkpt lat="45.88677" lon="4.77711">
        <ele>203</ele>
        <time>2017-08-19T09:03:37Z</time>
      </trkpt>
      <trkpt lat="45.88671" lon="4.7771">
        <ele>203</ele>
        <time>2017-08-19T09:03:38Z</time>
      </trkpt>
      <trkpt lat="45.88666" lon="4.7771">
        <ele>203</ele>
        <time>2017-08-19T09:03:39Z</time>
      </trkpt>
      <trkpt lat="45.88661" lon="4.7771">
        <ele>203</ele>
        <time>2017-08-19T09:03:40Z</time>
      </trkpt>
      <trkpt lat="45.88656" lon="4.7771">
        <ele>203</ele>
        <time>2017-08-19T09:03:41Z</time>
      </trkpt>
      <trkpt lat="45.88651" lon="4.7771">
        <ele>203</ele>
        <time>2017-08-19T09:03:42Z</time>
      </trkpt>
      <trkpt lat="45.88647" lon="4.77709">
        <ele>203</ele>
        <time>2017-08-19T09:03:43Z</time>
      </trkpt>
      <trkpt lat="45.88638" lon="4.77709">
        <ele>203</ele>
        <time>2017-08-19T09:03:45Z</time>
      </trkpt>
      <trkpt lat="45.88634" lon="4.77708">
        <ele>203</ele>
        <time>2017-08-19T09:03:46Z</time>
      </trkpt>
      <trkpt lat="45.88625" lon="4.77707">
        <ele>203</ele>
        <time>2017-08-19T09:03:48Z</time>
      </trkpt>
      <trkpt lat="45.88621" lon="4.77706">
        <ele>203</ele>
        <time>2017-08-19T09:03:49Z</time>
      </trkpt>
      <trkpt lat="45.88616" lon="4.77705">
        <ele>203</ele>
        <time>2017-08-19T09:03:50Z</time>
      </trkpt>
      <trkpt lat="45.88611" lon="4.77704">
        <ele>203</ele>
        <time>2017-08-19T09:03:51Z</time>
      </trkpt>
      <trkpt lat="45.88606" lon="4.77703">
        <ele>203</ele>
        <time>2017-08-19T09:03:52Z</time>
      </trkpt>
      <trkpt lat="45.88601" lon="4.77702">
        <ele>203</ele>
        <time>2017-08-19T09:03:53Z</time>
      </trkpt>
      <trkpt lat="45.88596" lon="4.77701">
        <ele>203</ele>
        <time>2017-08-19T09:03:54Z</time>
      </trkpt>
      <trkpt lat="45.8859" lon="4.777">
        <ele>203</ele>
        <time>2017-08-19T09:03:55Z</time>
      </trkpt>
      <trkpt lat="45.88585" lon="4.77698">
        <ele>203</ele>
        <time>2017-08-19T09:03:56Z</time>
      </trkpt>
      <trkpt lat="45.88581" lon="4.77697">
        <ele>204</ele>
        <time>2017-08-19T09:03:57Z</time>
      </trkpt>
      <trkpt lat="45.88576" lon="4.77697">
        <ele>204</ele>
        <time>2017-08-19T09:03:58Z</time>
      </trkpt>
      <trkpt lat="45.88571" lon="4.77696">
        <ele>204</ele>
        <time>2017-08-19T09:03:59Z</time>
      </trkpt>
      <trkpt lat="45.88563" lon="4.77694">
        <ele>204</ele>
        <time>2017-08-19T09:04:01Z</time>
      </trkpt>
      <trkpt lat="45.88558" lon="4.77693">
        <ele>204</ele>
        <time>2017-08-19T09:04:02Z</time>
      </trkpt>
      <trkpt lat="45.88553" lon="4.77692">
        <ele>204</ele>
        <time>2017-08-19T09:04:03Z</time>
      </trkpt>
      <trkpt lat="45.88548" lon="4.77691">
        <ele>204</ele>
        <time>2017-08-19T09:04:04Z</time>
      </trkpt>
      <trkpt lat="45.88542" lon="4.77689">
        <ele>204</ele>
        <time>2017-08-19T09:04:05Z</time>
      </trkpt>
      <trkpt lat="45.88537" lon="4.77688">
        <ele>204</ele>
        <time>2017-08-19T09:04:06Z</time>
      </trkpt>
      <trkpt lat="45.88533" lon="4.77687">
        <ele>204</ele>
        <time>2017-08-19T09:04:07Z</time>
      </trkpt>
      <trkpt lat="45.88528" lon="4.77686">
        <ele>204</ele>
        <time>2017-08-19T09:04:08Z</time>
      </trkpt>
      <trkpt lat="45.88523" lon="4.77685">
        <ele>204</ele>
        <time>2017-08-19T09:04:09Z</time>
      </trkpt>
      <trkpt lat="45.88518" lon="4.77683">
        <ele>204</ele>
        <time>2017-08-19T09:04:10Z</time>
      </trkpt>
      <trkpt lat="45.88513" lon="4.77682">
        <ele>205</ele>
        <time>2017-08-19T09:04:11Z</time>
      </trkpt>
      <trkpt lat="45.88508" lon="4.77681">
        <ele>205</ele>
        <time>2017-08-19T09:04:12Z</time>
      </trkpt>
      <trkpt lat="45.88504" lon="4.7768">
        <ele>205</ele>
        <time>2017-08-19T09:04:13Z</time>
      </trkpt>
      <trkpt lat="45.88499" lon="4.77679">
        <ele>205</ele>
        <time>2017-08-19T09:04:14Z</time>
      </trkpt>
      <trkpt lat="45.88494" lon="4.77678">
        <ele>205</ele>
        <time>2017-08-19T09:04:15Z</time>
      </trkpt>
      <trkpt lat="45.88489" lon="4.77677">
        <ele>205</ele>
        <time>2017-08-19T09:04:16Z</time>
      </trkpt>
      <trkpt lat="45.88485" lon="4.77676">
        <ele>206</ele>
        <time>2017-08-19T09:04:17Z</time>
      </trkpt>
      <trkpt lat="45.8848" lon="4.77675">
        <ele>206</ele>
        <time>2017-08-19T09:04:18Z</time>
      </trkpt>
      <trkpt lat="45.88475" lon="4.77674">
        <ele>206</ele>
        <time>2017-08-19T09:04:19Z</time>
      </trkpt>
      <trkpt lat="45.8847" lon="4.77674">
        <ele>206</ele>
        <time>2017-08-19T09:04:20Z</time>
      </trkpt>
      <trkpt lat="45.88465" lon="4.77673">
        <ele>206</ele>
        <time>2017-08-19T09:04:21Z</time>
      </trkpt>
      <trkpt lat="45.8846" lon="4.77672">
        <ele>206</ele>
        <time>2017-08-19T09:04:22Z</time>
      </trkpt>
      <trkpt lat="45.88455" lon="4.77671">
        <ele>206</ele>
        <time>2017-08-19T09:04:23Z</time>
      </trkpt>
      <trkpt lat="45.8845" lon="4.7767">
        <ele>206</ele>
        <time>2017-08-19T09:04:24Z</time>
      </trkpt>
      <trkpt lat="45.88445" lon="4.77669">
        <ele>206</ele>
        <time>2017-08-19T09:04:25Z</time>
      </trkpt>
      <trkpt lat="45.88439" lon="4.77667">
        <ele>206</ele>
        <time>2017-08-19T09:04:26Z</time>
      </trkpt>
      <trkpt lat="45.88434" lon="4.77666">
        <ele>206</ele>
        <time>2017-08-19T09:04:27Z</time>
      </trkpt>
      <trkpt lat="45.88429" lon="4.77666">
        <ele>206</ele>
        <time>2017-08-19T09:04:28Z</time>
      </trkpt>
      <trkpt lat="45.8842" lon="4.77664">
        <ele>206</ele>
        <time>2017-08-19T09:04:30Z</time>
      </trkpt>
      <trkpt lat="45.88416" lon="4.77664">
        <ele>206</ele>
        <time>2017-08-19T09:04:31Z</time>
      </trkpt>
      <trkpt lat="45.8841" lon="4.77662">
        <ele>206</ele>
        <time>2017-08-19T09:04:33Z</time>
      </trkpt>
      <trkpt lat="45.88406" lon="4.77661">
        <ele>207</ele>
        <time>2017-08-19T09:04:34Z</time>
      </trkpt>
      <trkpt lat="45.88397" lon="4.77659">
        <ele>207</ele>
        <time>2017-08-19T09:04:36Z</time>
      </trkpt>
      <trkpt lat="45.88392" lon="4.77658">
        <ele>207</ele>
        <time>2017-08-19T09:04:37Z</time>
      </trkpt>
      <trkpt lat="45.88388" lon="4.77657">
        <ele>207</ele>
        <time>2017-08-19T09:04:38Z</time>
      </trkpt>
      <trkpt lat="45.88383" lon="4.77657">
        <ele>207</ele>
        <time>2017-08-19T09:04:39Z</time>
      </trkpt>
      <trkpt lat="45.88374" lon="4.77655">
        <ele>207</ele>
        <time>2017-08-19T09:04:41Z</time>
      </trkpt>
      <trkpt lat="45.88369" lon="4.77654">
        <ele>207</ele>
        <time>2017-08-19T09:04:42Z</time>
      </trkpt>
      <trkpt lat="45.88365" lon="4.77653">
        <ele>207</ele>
        <time>2017-08-19T09:04:43Z</time>
      </trkpt>
      <trkpt lat="45.8836" lon="4.77653">
        <ele>208</ele>
        <time>2017-08-19T09:04:44Z</time>
      </trkpt>
      <trkpt lat="45.88355" lon="4.77653">
        <ele>208</ele>
        <time>2017-08-19T09:04:45Z</time>
      </trkpt>
      <trkpt lat="45.88351" lon="4.77653">
        <ele>208</ele>
        <time>2017-08-19T09:04:46Z</time>
      </trkpt>
      <trkpt lat="45.88346" lon="4.77653">
        <ele>208</ele>
        <time>2017-08-19T09:04:47Z</time>
      </trkpt>
      <trkpt lat="45.88341" lon="4.77653">
        <ele>208</ele>
        <time>2017-08-19T09:04:48Z</time>
      </trkpt>
      <trkpt lat="45.88336" lon="4.77654">
        <ele>208</ele>
        <time>2017-08-19T09:04:49Z</time>
      </trkpt>
      <trkpt lat="45.88332" lon="4.77654">
        <ele>208</ele>
        <time>2017-08-19T09:04:50Z</time>
      </trkpt>
      <trkpt lat="45.88327" lon="4.77654">
        <ele>209</ele>
        <time>2017-08-19T09:04:51Z</time>
      </trkpt>
      <trkpt lat="45.88322" lon="4.77654">
        <ele>209</ele>
        <time>2017-08-19T09:04:52Z</time>
      </trkpt>
      <trkpt lat="45.88313" lon="4.77655">
        <ele>209</ele>
        <time>2017-08-19T09:04:54Z</time>
      </trkpt>
      <trkpt lat="45.88309" lon="4.77655">
        <ele>209</ele>
        <time>2017-08-19T09:04:55Z</time>
      </trkpt>
      <trkpt lat="45.88301" lon="4.77655">
        <ele>209</ele>
        <time>2017-08-19T09:04:57Z</time>
      </trkpt>
      <trkpt lat="45.88297" lon="4.77656">
        <ele>209</ele>
        <time>2017-08-19T09:04:58Z</time>
      </trkpt>
      <trkpt lat="45.88288" lon="4.77656">
        <ele>209</ele>
        <time>2017-08-19T09:05:00Z</time>
      </trkpt>
      <trkpt lat="45.88283" lon="4.77656">
        <ele>210</ele>
        <time>2017-08-19T09:05:01Z</time>
      </trkpt>
      <trkpt lat="45.88278" lon="4.77656">
        <ele>210</ele>
        <time>2017-08-19T09:05:02Z</time>
      </trkpt>
      <trkpt lat="45.88274" lon="4.77656">
        <ele>210</ele>
        <time>2017-08-19T09:05:03Z</time>
      </trkpt>
      <trkpt lat="45.88265" lon="4.77656">
        <ele>210</ele>
        <time>2017-08-19T09:05:05Z</time>
      </trkpt>
      <trkpt lat="45.8826" lon="4.77656">
        <ele>210</ele>
        <time>2017-08-19T09:05:06Z</time>
      </trkpt>
      <trkpt lat="45.88251" lon="4.77657">
        <ele>210</ele>
        <time>2017-08-19T09:05:08Z</time>
      </trkpt>
      <trkpt lat="45.88247" lon="4.77657">
        <ele>211</ele>
        <time>2017-08-19T09:05:09Z</time>
      </trkpt>
      <trkpt lat="45.88239" lon="4.77657">
        <ele>211</ele>
        <time>2017-08-19T09:05:11Z</time>
      </trkpt>
      <trkpt lat="45.88234" lon="4.77657">
        <ele>211</ele>
        <time>2017-08-19T09:05:12Z</time>
      </trkpt>
      <trkpt lat="45.88225" lon="4.77658">
        <ele>211</ele>
        <time>2017-08-19T09:05:14Z</time>
      </trkpt>
      <trkpt lat="45.88221" lon="4.77659">
        <ele>211</ele>
        <time>2017-08-19T09:05:15Z</time>
      </trkpt>
      <trkpt lat="45.88212" lon="4.7766">
        <ele>211</ele>
        <time>2017-08-19T09:05:17Z</time>
      </trkpt>
      <trkpt lat="45.88208" lon="4.77661">
        <ele>211</ele>
        <time>2017-08-19T09:05:18Z</time>
      </trkpt>
      <trkpt lat="45.882" lon="4.77662">
        <ele>211</ele>
        <time>2017-08-19T09:05:20Z</time>
      </trkpt>
      <trkpt lat="45.88197" lon="4.77663">
        <ele>211</ele>
        <time>2017-08-19T09:05:21Z</time>
      </trkpt>
      <trkpt lat="45.88188" lon="4.77665">
        <ele>212</ele>
        <time>2017-08-19T09:05:23Z</time>
      </trkpt>
      <trkpt lat="45.88184" lon="4.77666">
        <ele>212</ele>
        <time>2017-08-19T09:05:24Z</time>
      </trkpt>
      <trkpt lat="45.88179" lon="4.77666">
        <ele>212</ele>
        <time>2017-08-19T09:05:25Z</time>
      </trkpt>
      <trkpt lat="45.88174" lon="4.77667">
        <ele>212</ele>
        <time>2017-08-19T09:05:26Z</time>
      </trkpt>
      <trkpt lat="45.88169" lon="4.77668">
        <ele>212</ele>
        <time>2017-08-19T09:05:27Z</time>
      </trkpt>
      <trkpt lat="45.88165" lon="4.77669">
        <ele>212</ele>
        <time>2017-08-19T09:05:28Z</time>
      </trkpt>
      <trkpt lat="45.88157" lon="4.7767">
        <ele>213</ele>
        <time>2017-08-19T09:05:30Z</time>
      </trkpt>
      <trkpt lat="45.88153" lon="4.7767">
        <ele>213</ele>
        <time>2017-08-19T09:05:31Z</time>
      </trkpt>
      <trkpt lat="45.88148" lon="4.7767">
        <ele>213</ele>
        <time>2017-08-19T09:05:32Z</time>
      </trkpt>
      <trkpt lat="45.88143" lon="4.7767">
        <ele>213</ele>
        <time>2017-08-19T09:05:33Z</time>
      </trkpt>
      <trkpt lat="45.88138" lon="4.77671">
        <ele>213</ele>
        <time>2017-08-19T09:05:34Z</time>
      </trkpt>
      <trkpt lat="45.88133" lon="4.77672">
        <ele>213</ele>
        <time>2017-08-19T09:05:35Z</time>
      </trkpt>
      <trkpt lat="45.88128" lon="4.77673">
        <ele>214</ele>
        <time>2017-08-19T09:05:36Z</time>
      </trkpt>
      <trkpt lat="45.88123" lon="4.77674">
        <ele>214</ele>
        <time>2017-08-19T09:05:37Z</time>
      </trkpt>
      <trkpt lat="45.88115" lon="4.77675">
        <ele>214</ele>
        <time>2017-08-19T09:05:39Z</time>
      </trkpt>
      <trkpt lat="45.88111" lon="4.77676">
        <ele>214</ele>
        <time>2017-08-19T09:05:40Z</time>
      </trkpt>
      <trkpt lat="45.88104" lon="4.77677">
        <ele>214</ele>
        <time>2017-08-19T09:05:42Z</time>
      </trkpt>
      <trkpt lat="45.881" lon="4.77678">
        <ele>214</ele>
        <time>2017-08-19T09:05:43Z</time>
      </trkpt>
      <trkpt lat="45.88091" lon="4.77679">
        <ele>214</ele>
        <time>2017-08-19T09:05:45Z</time>
      </trkpt>
      <trkpt lat="45.88087" lon="4.77681">
        <ele>215</ele>
        <time>2017-08-19T09:05:46Z</time>
      </trkpt>
      <trkpt lat="45.88082" lon="4.77682">
        <ele>215</ele>
        <time>2017-08-19T09:05:47Z</time>
      </trkpt>
      <trkpt lat="45.88077" lon="4.77683">
        <ele>215</ele>
        <time>2017-08-19T09:05:48Z</time>
      </trkpt>
      <trkpt lat="45.88072" lon="4.77684">
        <ele>215</ele>
        <time>2017-08-19T09:05:49Z</time>
      </trkpt>
      <trkpt lat="45.88067" lon="4.77685">
        <ele>215</ele>
        <time>2017-08-19T09:05:50Z</time>
      </trkpt>
      <trkpt lat="45.88063" lon="4.77685">
        <ele>216</ele>
        <time>2017-08-19T09:05:51Z</time>
      </trkpt>
      <trkpt lat="45.88058" lon="4.77686">
        <ele>216</ele>
        <time>2017-08-19T09:05:52Z</time>
      </trkpt>
      <trkpt lat="45.88049" lon="4.77686">
        <ele>216</ele>
        <time>2017-08-19T09:05:54Z</time>
      </trkpt>
      <trkpt lat="45.88045" lon="4.77687">
        <ele>216</ele>
        <time>2017-08-19T09:05:55Z</time>
      </trkpt>
      <trkpt lat="45.88037" lon="4.77687">
        <ele>216</ele>
        <time>2017-08-19T09:05:57Z</time>
      </trkpt>
      <trkpt lat="45.88032" lon="4.77687">
        <ele>216</ele>
        <time>2017-08-19T09:05:58Z</time>
      </trkpt>
      <trkpt lat="45.88028" lon="4.77687">
        <ele>216</ele>
        <time>2017-08-19T09:05:59Z</time>
      </trkpt>
      <trkpt lat="45.88023" lon="4.77688">
        <ele>216</ele>
        <time>2017-08-19T09:06:00Z</time>
      </trkpt>
      <trkpt lat="45.88018" lon="4.77689">
        <ele>216</ele>
        <time>2017-08-19T09:06:01Z</time>
      </trkpt>
      <trkpt lat="45.88013" lon="4.7769">
        <ele>216</ele>
        <time>2017-08-19T09:06:02Z</time>
      </trkpt>
      <trkpt lat="45.88008" lon="4.77691">
        <ele>216</ele>
        <time>2017-08-19T09:06:03Z</time>
      </trkpt>
      <trkpt lat="45.88003" lon="4.7769">
        <ele>216</ele>
        <time>2017-08-19T09:06:04Z</time>
      </trkpt>
      <trkpt lat="45.87995" lon="4.7769">
        <ele>217</ele>
        <time>2017-08-19T09:06:06Z</time>
      </trkpt>
      <trkpt lat="45.87991" lon="4.77689">
        <ele>217</ele>
        <time>2017-08-19T09:06:07Z</time>
      </trkpt>
      <trkpt lat="45.87983" lon="4.77687">
        <ele>217</ele>
        <time>2017-08-19T09:06:09Z</time>
      </trkpt>
      <trkpt lat="45.87979" lon="4.77685">
        <ele>218</ele>
        <time>2017-08-19T09:06:10Z</time>
      </trkpt>
      <trkpt lat="45.87972" lon="4.77679">
        <ele>218</ele>
        <time>2017-08-19T09:06:12Z</time>
      </trkpt>
      <trkpt lat="45.87969" lon="4.77675">
        <ele>218</ele>
        <time>2017-08-19T09:06:13Z</time>
      </trkpt>
      <trkpt lat="45.87962" lon="4.77669">
        <ele>218</ele>
        <time>2017-08-19T09:06:15Z</time>
      </trkpt>
      <trkpt lat="45.87957" lon="4.77666">
        <ele>218</ele>
        <time>2017-08-19T09:06:16Z</time>
      </trkpt>
      <trkpt lat="45.87953" lon="4.77664">
        <ele>218</ele>
        <time>2017-08-19T09:06:17Z</time>
      </trkpt>
      <trkpt lat="45.87948" lon="4.77662">
        <ele>218</ele>
        <time>2017-08-19T09:06:18Z</time>
      </trkpt>
      <trkpt lat="45.87944" lon="4.77658">
        <ele>218</ele>
        <time>2017-08-19T09:06:19Z</time>
      </trkpt>
      <trkpt lat="45.8794" lon="4.77654">
        <ele>219</ele>
        <time>2017-08-19T09:06:20Z</time>
      </trkpt>
      <trkpt lat="45.87935" lon="4.7765">
        <ele>219</ele>
        <time>2017-08-19T09:06:21Z</time>
      </trkpt>
      <trkpt lat="45.87931" lon="4.77646">
        <ele>219</ele>
        <time>2017-08-19T09:06:22Z</time>
      </trkpt>
      <trkpt lat="45.87924" lon="4.7764">
        <ele>219</ele>
        <time>2017-08-19T09:06:24Z</time>
      </trkpt>
      <trkpt lat="45.8792" lon="4.77636">
        <ele>219</ele>
        <time>2017-08-19T09:06:25Z</time>
      </trkpt>
      <trkpt lat="45.87913" lon="4.77631">
        <ele>220</ele>
        <time>2017-08-19T09:06:27Z</time>
      </trkpt>
      <trkpt lat="45.8791" lon="4.77628">
        <ele>221</ele>
        <time>2017-08-19T09:06:28Z</time>
      </trkpt>
      <trkpt lat="45.87903" lon="4.77622">
        <ele>221</ele>
        <time>2017-08-19T09:06:30Z</time>
      </trkpt>
      <trkpt lat="45.879" lon="4.77618">
        <ele>221</ele>
        <time>2017-08-19T09:06:31Z</time>
      </trkpt>
      <trkpt lat="45.87892" lon="4.77612">
        <ele>221</ele>
        <time>2017-08-19T09:06:33Z</time>
      </trkpt>
      <trkpt lat="45.87887" lon="4.7761">
        <ele>221</ele>
        <time>2017-08-19T09:06:34Z</time>
      </trkpt>
      <trkpt lat="45.87879" lon="4.77605">
        <ele>221</ele>
        <time>2017-08-19T09:06:36Z</time>
      </trkpt>
      <trkpt lat="45.87875" lon="4.77602">
        <ele>221</ele>
        <time>2017-08-19T09:06:37Z</time>
      </trkpt>
      <trkpt lat="45.87871" lon="4.776">
        <ele>221</ele>
        <time>2017-08-19T09:06:38Z</time>
      </trkpt>
      <trkpt lat="45.87866" lon="4.77596">
        <ele>221</ele>
        <time>2017-08-19T09:06:39Z</time>
      </trkpt>
      <trkpt lat="45.87862" lon="4.77592">
        <ele>221</ele>
        <time>2017-08-19T09:06:40Z</time>
      </trkpt>
      <trkpt lat="45.87858" lon="4.77588">
        <ele>221</ele>
        <time>2017-08-19T09:06:41Z</time>
      </trkpt>
      <trkpt lat="45.87854" lon="4.77584">
        <ele>221</ele>
        <time>2017-08-19T09:06:42Z</time>
      </trkpt>
      <trkpt lat="45.8785" lon="4.7758">
        <ele>221</ele>
        <time>2017-08-19T09:06:43Z</time>
      </trkpt>
      <trkpt lat="45.87845" lon="4.77577">
        <ele>221</ele>
        <time>2017-08-19T09:06:44Z</time>
      </trkpt>
      <trkpt lat="45.8784" lon="4.77573">
        <ele>221</ele>
        <time>2017-08-19T09:06:45Z</time>
      </trkpt>
      <trkpt lat="45.87836" lon="4.7757">
        <ele>221</ele>
        <time>2017-08-19T09:06:46Z</time>
      </trkpt>
      <trkpt lat="45.87832" lon="4.77567">
        <ele>222</ele>
        <time>2017-08-19T09:06:47Z</time>
      </trkpt>
      <trkpt lat="45.87828" lon="4.77563">
        <ele>222</ele>
        <time>2017-08-19T09:06:48Z</time>
      </trkpt>
      <trkpt lat="45.87824" lon="4.77559">
        <ele>223</ele>
        <time>2017-08-19T09:06:49Z</time>
      </trkpt>
      <trkpt lat="45.87817" lon="4.77551">
        <ele>223</ele>
        <time>2017-08-19T09:06:51Z</time>
      </trkpt>
      <trkpt lat="45.87813" lon="4.77548">
        <ele>223</ele>
        <time>2017-08-19T09:06:52Z</time>
      </trkpt>
      <trkpt lat="45.87806" lon="4.77543">
        <ele>223</ele>
        <time>2017-08-19T09:06:54Z</time>
      </trkpt>
      <trkpt lat="45.87802" lon="4.7754">
        <ele>223</ele>
        <time>2017-08-19T09:06:55Z</time>
      </trkpt>
      <trkpt lat="45.87794" lon="4.77534">
        <ele>223</ele>
        <time>2017-08-19T09:06:57Z</time>
      </trkpt>
      <trkpt lat="45.8779" lon="4.7753">
        <ele>223</ele>
        <time>2017-08-19T09:06:58Z</time>
      </trkpt>
      <trkpt lat="45.87785" lon="4.77528">
        <ele>223</ele>
        <time>2017-08-19T09:06:59Z</time>
      </trkpt>
      <trkpt lat="45.8778" lon="4.77525">
        <ele>223</ele>
        <time>2017-08-19T09:07:00Z</time>
      </trkpt>
      <trkpt lat="45.87776" lon="4.77522">
        <ele>223</ele>
        <time>2017-08-19T09:07:01Z</time>
      </trkpt>
      <trkpt lat="45.87771" lon="4.77519">
        <ele>223</ele>
        <time>2017-08-19T09:07:02Z</time>
      </trkpt>
      <trkpt lat="45.87764" lon="4.77514">
        <ele>223</ele>
        <time>2017-08-19T09:07:04Z</time>
      </trkpt>
      <trkpt lat="45.87761" lon="4.7751">
        <ele>224</ele>
        <time>2017-08-19T09:07:05Z</time>
      </trkpt>
      <trkpt lat="45.87753" lon="4.77503">
        <ele>224</ele>
        <time>2017-08-19T09:07:07Z</time>
      </trkpt>
      <trkpt lat="45.87748" lon="4.775">
        <ele>224</ele>
        <time>2017-08-19T09:07:08Z</time>
      </trkpt>
      <trkpt lat="45.8774" lon="4.77495">
        <ele>225</ele>
        <time>2017-08-19T09:07:10Z</time>
      </trkpt>
      <trkpt lat="45.87736" lon="4.77492">
        <ele>225</ele>
        <time>2017-08-19T09:07:11Z</time>
      </trkpt>
      <trkpt lat="45.87728" lon="4.77488">
        <ele>226</ele>
        <time>2017-08-19T09:07:13Z</time>
      </trkpt>
      <trkpt lat="45.87723" lon="4.77486">
        <ele>226</ele>
        <time>2017-08-19T09:07:14Z</time>
      </trkpt>
      <trkpt lat="45.87716" lon="4.77485">
        <ele>226</ele>
        <time>2017-08-19T09:07:16Z</time>
      </trkpt>
      <trkpt lat="45.87712" lon="4.77485">
        <ele>226</ele>
        <time>2017-08-19T09:07:17Z</time>
      </trkpt>
      <trkpt lat="45.87705" lon="4.77485">
        <ele>226</ele>
        <time>2017-08-19T09:07:19Z</time>
      </trkpt>
      <trkpt lat="45.877" lon="4.77484">
        <ele>227</ele>
        <time>2017-08-19T09:07:20Z</time>
      </trkpt>
      <trkpt lat="45.87692" lon="4.77483">
        <ele>227</ele>
        <time>2017-08-19T09:07:22Z</time>
      </trkpt>
      <trkpt lat="45.87689" lon="4.77482">
        <ele>227</ele>
        <time>2017-08-19T09:07:23Z</time>
      </trkpt>
      <trkpt lat="45.8768" lon="4.77482">
        <ele>227</ele>
        <time>2017-08-19T09:07:25Z</time>
      </trkpt>
      <trkpt lat="45.87675" lon="4.77483">
        <ele>228</ele>
        <time>2017-08-19T09:07:26Z</time>
      </trkpt>
      <trkpt lat="45.87667" lon="4.77483">
        <ele>228</ele>
        <time>2017-08-19T09:07:28Z</time>
      </trkpt>
      <trkpt lat="45.87663" lon="4.77483">
        <ele>230</ele>
        <time>2017-08-19T09:07:29Z</time>
      </trkpt>
      <trkpt lat="45.87655" lon="4.77484">
        <ele>230</ele>
        <time>2017-08-19T09:07:31Z</time>
      </trkpt>
      <trkpt lat="45.87652" lon="4.77485">
        <ele>230</ele>
        <time>2017-08-19T09:07:32Z</time>
      </trkpt>
      <trkpt lat="45.87646" lon="4.77486">
        <ele>230</ele>
        <time>2017-08-19T09:07:34Z</time>
      </trkpt>
      <trkpt lat="45.87643" lon="4.77486">
        <ele>230</ele>
        <time>2017-08-19T09:07:35Z</time>
      </trkpt>
      <trkpt lat="45.87638" lon="4.77487">
        <ele>230</ele>
        <time>2017-08-19T09:07:36Z</time>
      </trkpt>
      <trkpt lat="45.87633" lon="4.77488">
        <ele>231</ele>
        <time>2017-08-19T09:07:37Z</time>
      </trkpt>
      <trkpt lat="45.87625" lon="4.77489">
        <ele>231</ele>
        <time>2017-08-19T09:07:39Z</time>
      </trkpt>
      <trkpt lat="45.87623" lon="4.77489">
        <ele>231</ele>
        <time>2017-08-19T09:07:40Z</time>
      </trkpt>
      <trkpt lat="45.87615" lon="4.7749">
        <ele>231</ele>
        <time>2017-08-19T09:07:43Z</time>
      </trkpt>
      <trkpt lat="45.87611" lon="4.77491">
        <ele>231</ele>
        <time>2017-08-19T09:07:44Z</time>
      </trkpt>
      <trkpt lat="45.87603" lon="4.77492">
        <ele>231</ele>
        <time>2017-08-19T09:07:47Z</time>
      </trkpt>
      <trkpt lat="45.876" lon="4.77493">
        <ele>232</ele>
        <time>2017-08-19T09:07:48Z</time>
      </trkpt>
      <trkpt lat="45.87591" lon="4.77494">
        <ele>232</ele>
        <time>2017-08-19T09:07:51Z</time>
      </trkpt>
      <trkpt lat="45.87588" lon="4.77494">
        <ele>232</ele>
        <time>2017-08-19T09:07:52Z</time>
      </trkpt>
      <trkpt lat="45.87582" lon="4.77496">
        <ele>232</ele>
        <time>2017-08-19T09:07:54Z</time>
      </trkpt>
      <trkpt lat="45.87578" lon="4.77496">
        <ele>232</ele>
        <time>2017-08-19T09:07:55Z</time>
      </trkpt>
      <trkpt lat="45.87572" lon="4.77496">
        <ele>233</ele>
        <time>2017-08-19T09:07:57Z</time>
      </trkpt>
      <trkpt lat="45.87569" lon="4.77495">
        <ele>233</ele>
        <time>2017-08-19T09:07:58Z</time>
      </trkpt>
      <trkpt lat="45.87563" lon="4.77491">
        <ele>233</ele>
        <time>2017-08-19T09:08:00Z</time>
      </trkpt>
      <trkpt lat="45.8756" lon="4.77488">
        <ele>233</ele>
        <time>2017-08-19T09:08:01Z</time>
      </trkpt>
      <trkpt lat="45.87554" lon="4.77483">
        <ele>233</ele>
        <time>2017-08-19T09:08:03Z</time>
      </trkpt>
      <trkpt lat="45.87552" lon="4.7748">
        <ele>233</ele>
        <time>2017-08-19T09:08:04Z</time>
      </trkpt>
      <trkpt lat="45.87545" lon="4.77473">
        <ele>233</ele>
        <time>2017-08-19T09:08:07Z</time>
      </trkpt>
      <trkpt lat="45.87542" lon="4.7747">
        <ele>233</ele>
        <time>2017-08-19T09:08:08Z</time>
      </trkpt>
      <trkpt lat="45.87536" lon="4.77464">
        <ele>233</ele>
        <time>2017-08-19T09:08:10Z</time>
      </trkpt>
      <trkpt lat="45.87533" lon="4.77461">
        <ele>233</ele>
        <time>2017-08-19T09:08:11Z</time>
      </trkpt>
      <trkpt lat="45.87528" lon="4.77453">
        <ele>234</ele>
        <time>2017-08-19T09:08:13Z</time>
      </trkpt>
      <trkpt lat="45.87526" lon="4.7745">
        <ele>233</ele>
        <time>2017-08-19T09:08:14Z</time>
      </trkpt>
      <trkpt lat="45.87522" lon="4.77443">
        <ele>233</ele>
        <time>2017-08-19T09:08:16Z</time>
      </trkpt>
      <trkpt lat="45.87519" lon="4.7744">
        <ele>233</ele>
        <time>2017-08-19T09:08:17Z</time>
      </trkpt>
      <trkpt lat="45.87515" lon="4.77433">
        <ele>233</ele>
        <time>2017-08-19T09:08:19Z</time>
      </trkpt>
      <trkpt lat="45.87513" lon="4.77429">
        <ele>233</ele>
        <time>2017-08-19T09:08:20Z</time>
      </trkpt>
      <trkpt lat="45.87507" lon="4.77419">
        <ele>233</ele>
        <time>2017-08-19T09:08:23Z</time>
      </trkpt>
      <trkpt lat="45.87505" lon="4.77416">
        <ele>233</ele>
        <time>2017-08-19T09:08:24Z</time>
      </trkpt>
      <trkpt lat="45.875" lon="4.77407">
        <ele>234</ele>
        <time>2017-08-19T09:08:26Z</time>
      </trkpt>
      <trkpt lat="45.87496" lon="4.77403">
        <ele>234</ele>
        <time>2017-08-19T09:08:27Z</time>
      </trkpt>
      <trkpt lat="45.87492" lon="4.77393">
        <ele>235</ele>
        <time>2017-08-19T09:08:29Z</time>
      </trkpt>
      <trkpt lat="45.8749" lon="4.77388">
        <ele>235</ele>
        <time>2017-08-19T09:08:30Z</time>
      </trkpt>
      <trkpt lat="45.87487" lon="4.7738">
        <ele>235</ele>
        <time>2017-08-19T09:08:32Z</time>
      </trkpt>
      <trkpt lat="45.87486" lon="4.77376">
        <ele>235</ele>
        <time>2017-08-19T09:08:33Z</time>
      </trkpt>
      <trkpt lat="45.87485" lon="4.77367">
        <ele>235</ele>
        <time>2017-08-19T09:08:35Z</time>
      </trkpt>
      <trkpt lat="45.87484" lon="4.77363">
        <ele>235</ele>
        <time>2017-08-19T09:08:36Z</time>
      </trkpt>
      <trkpt lat="45.87483" lon="4.77351">
        <ele>235</ele>
        <time>2017-08-19T09:08:38Z</time>
      </trkpt>
      <trkpt lat="45.87482" lon="4.77347">
        <ele>235</ele>
        <time>2017-08-19T09:08:39Z</time>
      </trkpt>
      <trkpt lat="45.87479" lon="4.77338">
        <ele>235</ele>
        <time>2017-08-19T09:08:41Z</time>
      </trkpt>
      <trkpt lat="45.87478" lon="4.77334">
        <ele>235</ele>
        <time>2017-08-19T09:08:42Z</time>
      </trkpt>
      <trkpt lat="45.87475" lon="4.77325">
        <ele>235</ele>
        <time>2017-08-19T09:08:44Z</time>
      </trkpt>
      <trkpt lat="45.87474" lon="4.77319">
        <ele>235</ele>
        <time>2017-08-19T09:08:45Z</time>
      </trkpt>
      <trkpt lat="45.87472" lon="4.77308">
        <ele>235</ele>
        <time>2017-08-19T09:08:47Z</time>
      </trkpt>
      <trkpt lat="45.87471" lon="4.77302">
        <ele>235</ele>
        <time>2017-08-19T09:08:48Z</time>
      </trkpt>
      <trkpt lat="45.87467" lon="4.7729">
        <ele>235</ele>
        <time>2017-08-19T09:08:50Z</time>
      </trkpt>
      <trkpt lat="45.87466" lon="4.77285">
        <ele>235</ele>
        <time>2017-08-19T09:08:51Z</time>
      </trkpt>
      <trkpt lat="45.87462" lon="4.77273">
        <ele>235</ele>
        <time>2017-08-19T09:08:53Z</time>
      </trkpt>
      <trkpt lat="45.8746" lon="4.77268">
        <ele>235</ele>
        <time>2017-08-19T09:08:54Z</time>
      </trkpt>
      <trkpt lat="45.87455" lon="4.77259">
        <ele>235</ele>
        <time>2017-08-19T09:08:56Z</time>
      </trkpt>
      <trkpt lat="45.87453" lon="4.77255">
        <ele>235</ele>
        <time>2017-08-19T09:08:57Z</time>
      </trkpt>
      <trkpt lat="45.87448" lon="4.77247">
        <ele>235</ele>
        <time>2017-08-19T09:08:59Z</time>
      </trkpt>
      <trkpt lat="45.87446" lon="4.77244">
        <ele>235</ele>
        <time>2017-08-19T09:09:00Z</time>
      </trkpt>
      <trkpt lat="45.87441" lon="4.77239">
        <ele>235</ele>
        <time>2017-08-19T09:09:02Z</time>
      </trkpt>
      <trkpt lat="45.87437" lon="4.77236">
        <ele>235</ele>
        <time>2017-08-19T09:09:03Z</time>
      </trkpt>
      <trkpt lat="45.8743" lon="4.7723">
        <ele>235</ele>
        <time>2017-08-19T09:09:05Z</time>
      </trkpt>
      <trkpt lat="45.87426" lon="4.77228">
        <ele>235</ele>
        <time>2017-08-19T09:09:06Z</time>
      </trkpt>
      <trkpt lat="45.87418" lon="4.77224">
        <ele>235</ele>
        <time>2017-08-19T09:09:08Z</time>
      </trkpt>
      <trkpt lat="45.87413" lon="4.77222">
        <ele>238</ele>
        <time>2017-08-19T09:09:09Z</time>
      </trkpt>
      <trkpt lat="45.87404" lon="4.7722">
        <ele>238</ele>
        <time>2017-08-19T09:09:11Z</time>
      </trkpt>
      <trkpt lat="45.87401" lon="4.77219">
        <ele>238</ele>
        <time>2017-08-19T09:09:12Z</time>
      </trkpt>
      <trkpt lat="45.87394" lon="4.77218">
        <ele>239</ele>
        <time>2017-08-19T09:09:14Z</time>
      </trkpt>
      <trkpt lat="45.8739" lon="4.77216">
        <ele>239</ele>
        <time>2017-08-19T09:09:15Z</time>
      </trkpt>
      <trkpt lat="45.87382" lon="4.77217">
        <ele>239</ele>
        <time>2017-08-19T09:09:17Z</time>
      </trkpt>
      <trkpt lat="45.87377" lon="4.77217">
        <ele>239</ele>
        <time>2017-08-19T09:09:18Z</time>
      </trkpt>
      <trkpt lat="45.87373" lon="4.77216">
        <ele>239</ele>
        <time>2017-08-19T09:09:19Z</time>
      </trkpt>
      <trkpt lat="45.87368" lon="4.77216">
        <ele>240</ele>
        <time>2017-08-19T09:09:20Z</time>
      </trkpt>
      <trkpt lat="45.8736" lon="4.77217">
        <ele>240</ele>
        <time>2017-08-19T09:09:22Z</time>
      </trkpt>
      <trkpt lat="45.87356" lon="4.77218">
        <ele>240</ele>
        <time>2017-08-19T09:09:23Z</time>
      </trkpt>
      <trkpt lat="45.87351" lon="4.77219">
        <ele>240</ele>
        <time>2017-08-19T09:09:24Z</time>
      </trkpt>
      <trkpt lat="45.87347" lon="4.7722">
        <ele>240</ele>
        <time>2017-08-19T09:09:25Z</time>
      </trkpt>
      <trkpt lat="45.87339" lon="4.77221">
        <ele>241</ele>
        <time>2017-08-19T09:09:27Z</time>
      </trkpt>
      <trkpt lat="45.87334" lon="4.77221">
        <ele>241</ele>
        <time>2017-08-19T09:09:28Z</time>
      </trkpt>
      <trkpt lat="45.87325" lon="4.77222">
        <ele>243</ele>
        <time>2017-08-19T09:09:30Z</time>
      </trkpt>
      <trkpt lat="45.87321" lon="4.77223">
        <ele>244</ele>
        <time>2017-08-19T09:09:31Z</time>
      </trkpt>
      <trkpt lat="45.87315" lon="4.77223">
        <ele>244</ele>
        <time>2017-08-19T09:09:33Z</time>
      </trkpt>
      <trkpt lat="45.87311" lon="4.77223">
        <ele>244</ele>
        <time>2017-08-19T09:09:34Z</time>
      </trkpt>
      <trkpt lat="45.87302" lon="4.77222">
        <ele>244</ele>
        <time>2017-08-19T09:09:36Z</time>
      </trkpt>
      <trkpt lat="45.87298" lon="4.7722">
        <ele>244</ele>
        <time>2017-08-19T09:09:37Z</time>
      </trkpt>
      <trkpt lat="45.87291" lon="4.77214">
        <ele>244</ele>
        <time>2017-08-19T09:09:39Z</time>
      </trkpt>
      <trkpt lat="45.87288" lon="4.77211">
        <ele>244</ele>
        <time>2017-08-19T09:09:40Z</time>
      </trkpt>
      <trkpt lat="45.87282" lon="4.77204">
        <ele>244</ele>
        <time>2017-08-19T09:09:42Z</time>
      </trkpt>
      <trkpt lat="45.87279" lon="4.772">
        <ele>244</ele>
        <time>2017-08-19T09:09:43Z</time>
      </trkpt>
      <trkpt lat="45.87275" lon="4.77191">
        <ele>244</ele>
        <time>2017-08-19T09:09:45Z</time>
      </trkpt>
      <trkpt lat="45.87274" lon="4.77187">
        <ele>244</ele>
        <time>2017-08-19T09:09:46Z</time>
      </trkpt>
      <trkpt lat="45.87271" lon="4.77175">
        <ele>244</ele>
        <time>2017-08-19T09:09:48Z</time>
      </trkpt>
      <trkpt lat="45.8727" lon="4.77169">
        <ele>244</ele>
        <time>2017-08-19T09:09:49Z</time>
      </trkpt>
      <trkpt lat="45.8727" lon="4.77163">
        <ele>242</ele>
        <time>2017-08-19T09:09:50Z</time>
      </trkpt>
      <trkpt lat="45.87269" lon="4.77156">
        <ele>242</ele>
        <time>2017-08-19T09:09:51Z</time>
      </trkpt>
      <trkpt lat="45.87269" lon="4.77144">
        <ele>241</ele>
        <time>2017-08-19T09:09:53Z</time>
      </trkpt>
      <trkpt lat="45.87269" lon="4.77138">
        <ele>241</ele>
        <time>2017-08-19T09:09:54Z</time>
      </trkpt>
      <trkpt lat="45.87269" lon="4.77126">
        <ele>241</ele>
        <time>2017-08-19T09:09:56Z</time>
      </trkpt>
      <trkpt lat="45.8727" lon="4.7712">
        <ele>241</ele>
        <time>2017-08-19T09:09:57Z</time>
      </trkpt>
      <trkpt lat="45.87271" lon="4.77108">
        <ele>240</ele>
        <time>2017-08-19T09:09:59Z</time>
      </trkpt>
      <trkpt lat="45.87271" lon="4.77102">
        <ele>240</ele>
        <time>2017-08-19T09:10:00Z</time>
      </trkpt>
      <trkpt lat="45.87271" lon="4.77095">
        <ele>240</ele>
        <time>2017-08-19T09:10:01Z</time>
      </trkpt>
      <trkpt lat="45.87272" lon="4.77088">
        <ele>240</ele>
        <time>2017-08-19T09:10:02Z</time>
      </trkpt>
      <trkpt lat="45.87273" lon="4.77081">
        <ele>239</ele>
        <time>2017-08-19T09:10:03Z</time>
      </trkpt>
      <trkpt lat="45.87272" lon="4.77075">
        <ele>239</ele>
        <time>2017-08-19T09:10:04Z</time>
      </trkpt>
      <trkpt lat="45.87272" lon="4.77068">
        <ele>239</ele>
        <time>2017-08-19T09:10:05Z</time>
      </trkpt>
      <trkpt lat="45.87272" lon="4.77061">
        <ele>239</ele>
        <time>2017-08-19T09:10:06Z</time>
      </trkpt>
      <trkpt lat="45.87272" lon="4.77054">
        <ele>239</ele>
        <time>2017-08-19T09:10:07Z</time>
      </trkpt>
      <trkpt lat="45.87272" lon="4.77048">
        <ele>239</ele>
        <time>2017-08-19T09:10:08Z</time>
      </trkpt>
      <trkpt lat="45.87272" lon="4.77041">
        <ele>239</ele>
        <time>2017-08-19T09:10:09Z</time>
      </trkpt>
      <trkpt lat="45.87272" lon="4.77035">
        <ele>239</ele>
        <time>2017-08-19T09:10:10Z</time>
      </trkpt>
      <trkpt lat="45.87272" lon="4.77027">
        <ele>239</ele>
        <time>2017-08-19T09:10:11Z</time>
      </trkpt>
      <trkpt lat="45.87273" lon="4.7702">
        <ele>239</ele>
        <time>2017-08-19T09:10:12Z</time>
      </trkpt>
      <trkpt lat="45.87273" lon="4.77013">
        <ele>239</ele>
        <time>2017-08-19T09:10:13Z</time>
      </trkpt>
      <trkpt lat="45.87272" lon="4.77005">
        <ele>239</ele>
        <time>2017-08-19T09:10:14Z</time>
      </trkpt>
      <trkpt lat="45.87269" lon="4.76993">
        <ele>240</ele>
        <time>2017-08-19T09:10:16Z</time>
      </trkpt>
      <trkpt lat="45.8727" lon="4.76986">
        <ele>240</ele>
        <time>2017-08-19T09:10:17Z</time>
      </trkpt>
      <trkpt lat="45.87269" lon="4.76979">
        <ele>240</ele>
        <time>2017-08-19T09:10:18Z</time>
      </trkpt>
      <trkpt lat="45.87269" lon="4.76973">
        <ele>240</ele>
        <time>2017-08-19T09:10:19Z</time>
      </trkpt>
      <trkpt lat="45.87268" lon="4.76961">
        <ele>240</ele>
        <time>2017-08-19T09:10:21Z</time>
      </trkpt>
      <trkpt lat="45.87267" lon="4.76954">
        <ele>240</ele>
        <time>2017-08-19T09:10:22Z</time>
      </trkpt>
      <trkpt lat="45.87266" lon="4.76942">
        <ele>241</ele>
        <time>2017-08-19T09:10:24Z</time>
      </trkpt>
      <trkpt lat="45.87266" lon="4.76936">
        <ele>241</ele>
        <time>2017-08-19T09:10:25Z</time>
      </trkpt>
      <trkpt lat="45.87265" lon="4.7693">
        <ele>241</ele>
        <time>2017-08-19T09:10:26Z</time>
      </trkpt>
      <trkpt lat="45.87265" lon="4.76923">
        <ele>241</ele>
        <time>2017-08-19T09:10:27Z</time>
      </trkpt>
      <trkpt lat="45.87265" lon="4.76914">
        <ele>241</ele>
        <time>2017-08-19T09:10:28Z</time>
      </trkpt>
      <trkpt lat="45.87265" lon="4.76905">
        <ele>241</ele>
        <time>2017-08-19T09:10:29Z</time>
      </trkpt>
      <trkpt lat="45.87265" lon="4.76897">
        <ele>240</ele>
        <time>2017-08-19T09:10:30Z</time>
      </trkpt>
      <trkpt lat="45.87266" lon="4.76888">
        <ele>240</ele>
        <time>2017-08-19T09:10:31Z</time>
      </trkpt>
      <trkpt lat="45.87266" lon="4.76879">
        <ele>240</ele>
        <time>2017-08-19T09:10:32Z</time>
      </trkpt>
      <trkpt lat="45.87265" lon="4.7687">
        <ele>240</ele>
        <time>2017-08-19T09:10:33Z</time>
      </trkpt>
      <trkpt lat="45.87265" lon="4.76861">
        <ele>239</ele>
        <time>2017-08-19T09:10:34Z</time>
      </trkpt>
      <trkpt lat="45.87265" lon="4.76852">
        <ele>239</ele>
        <time>2017-08-19T09:10:35Z</time>
      </trkpt>
      <trkpt lat="45.87265" lon="4.76842">
        <ele>239</ele>
        <time>2017-08-19T09:10:36Z</time>
      </trkpt>
      <trkpt lat="45.87264" lon="4.76833">
        <ele>237</ele>
        <time>2017-08-19T09:10:37Z</time>
      </trkpt>
      <trkpt lat="45.87265" lon="4.76823">
        <ele>237</ele>
        <time>2017-08-19T09:10:38Z</time>
      </trkpt>
      <trkpt lat="45.87264" lon="4.76814">
        <ele>237</ele>
        <time>2017-08-19T09:10:39Z</time>
      </trkpt>
      <trkpt lat="45.87263" lon="4.76804">
        <ele>237</ele>
        <time>2017-08-19T09:10:40Z</time>
      </trkpt>
      <trkpt lat="45.87262" lon="4.76794">
        <ele>236</ele>
        <time>2017-08-19T09:10:41Z</time>
      </trkpt>
      <trkpt lat="45.87263" lon="4.76786">
        <ele>236</ele>
        <time>2017-08-19T09:10:42Z</time>
      </trkpt>
      <trkpt lat="45.87262" lon="4.76777">
        <ele>236</ele>
        <time>2017-08-19T09:10:43Z</time>
      </trkpt>
      <trkpt lat="45.87261" lon="4.76767">
        <ele>236</ele>
        <time>2017-08-19T09:10:44Z</time>
      </trkpt>
      <trkpt lat="45.87262" lon="4.76758">
        <ele>236</ele>
        <time>2017-08-19T09:10:45Z</time>
      </trkpt>
      <trkpt lat="45.87263" lon="4.76748">
        <ele>235</ele>
        <time>2017-08-19T09:10:46Z</time>
      </trkpt>
      <trkpt lat="45.87263" lon="4.76739">
        <ele>235</ele>
        <time>2017-08-19T09:10:47Z</time>
      </trkpt>
      <trkpt lat="45.87263" lon="4.7673">
        <ele>235</ele>
        <time>2017-08-19T09:10:48Z</time>
      </trkpt>
      <trkpt lat="45.87263" lon="4.76721">
        <ele>234</ele>
        <time>2017-08-19T09:10:49Z</time>
      </trkpt>
      <trkpt lat="45.87263" lon="4.76713">
        <ele>234</ele>
        <time>2017-08-19T09:10:50Z</time>
      </trkpt>
      <trkpt lat="45.87264" lon="4.76705">
        <ele>234</ele>
        <time>2017-08-19T09:10:51Z</time>
      </trkpt>
      <trkpt lat="45.87264" lon="4.76697">
        <ele>234</ele>
        <time>2017-08-19T09:10:52Z</time>
      </trkpt>
      <trkpt lat="45.87265" lon="4.7669">
        <ele>234</ele>
        <time>2017-08-19T09:10:53Z</time>
      </trkpt>
      <trkpt lat="45.87265" lon="4.76682">
        <ele>234</ele>
        <time>2017-08-19T09:10:54Z</time>
      </trkpt>
      <trkpt lat="45.87265" lon="4.76674">
        <ele>234</ele>
        <time>2017-08-19T09:10:55Z</time>
      </trkpt>
      <trkpt lat="45.87265" lon="4.76667">
        <ele>234</ele>
        <time>2017-08-19T09:10:56Z</time>
      </trkpt>
      <trkpt lat="45.87265" lon="4.76658">
        <ele>234</ele>
        <time>2017-08-19T09:10:57Z</time>
      </trkpt>
      <trkpt lat="45.87265" lon="4.76651">
        <ele>234</ele>
        <time>2017-08-19T09:10:58Z</time>
      </trkpt>
      <trkpt lat="45.87265" lon="4.76643">
        <ele>234</ele>
        <time>2017-08-19T09:10:59Z</time>
      </trkpt>
      <trkpt lat="45.87265" lon="4.76637">
        <ele>234</ele>
        <time>2017-08-19T09:11:00Z</time>
      </trkpt>
      <trkpt lat="45.87264" lon="4.7663">
        <ele>234</ele>
        <time>2017-08-19T09:11:01Z</time>
      </trkpt>
      <trkpt lat="45.87263" lon="4.76624">
        <ele>234</ele>
        <time>2017-08-19T09:11:02Z</time>
      </trkpt>
      <trkpt lat="45.87263" lon="4.76617">
        <ele>234</ele>
        <time>2017-08-19T09:11:03Z</time>
      </trkpt>
      <trkpt lat="45.87262" lon="4.7661">
        <ele>235</ele>
        <time>2017-08-19T09:11:04Z</time>
      </trkpt>
      <trkpt lat="45.87261" lon="4.76602">
        <ele>235</ele>
        <time>2017-08-19T09:11:05Z</time>
      </trkpt>
      <trkpt lat="45.87261" lon="4.76595">
        <ele>235</ele>
        <time>2017-08-19T09:11:06Z</time>
      </trkpt>
      <trkpt lat="45.8726" lon="4.76587">
        <ele>235</ele>
        <time>2017-08-19T09:11:07Z</time>
      </trkpt>
      <trkpt lat="45.87259" lon="4.76578">
        <ele>236</ele>
        <time>2017-08-19T09:11:08Z</time>
      </trkpt>
      <trkpt lat="45.87258" lon="4.7657">
        <ele>236</ele>
        <time>2017-08-19T09:11:09Z</time>
      </trkpt>
      <trkpt lat="45.87257" lon="4.76561">
        <ele>235</ele>
        <time>2017-08-19T09:11:10Z</time>
      </trkpt>
      <trkpt lat="45.87257" lon="4.76553">
        <ele>235</ele>
        <time>2017-08-19T09:11:11Z</time>
      </trkpt>
      <trkpt lat="45.87257" lon="4.76545">
        <ele>235</ele>
        <time>2017-08-19T09:11:12Z</time>
      </trkpt>
      <trkpt lat="45.87258" lon="4.76537">
        <ele>236</ele>
        <time>2017-08-19T09:11:13Z</time>
      </trkpt>
      <trkpt lat="45.87259" lon="4.76525">
        <ele>236</ele>
        <time>2017-08-19T09:11:15Z</time>
      </trkpt>
      <trkpt lat="45.87259" lon="4.76518">
        <ele>236</ele>
        <time>2017-08-19T09:11:16Z</time>
      </trkpt>
      <trkpt lat="45.87259" lon="4.76511">
        <ele>236</ele>
        <time>2017-08-19T09:11:17Z</time>
      </trkpt>
      <trkpt lat="45.87258" lon="4.76504">
        <ele>236</ele>
        <time>2017-08-19T09:11:18Z</time>
      </trkpt>
      <trkpt lat="45.87257" lon="4.76497">
        <ele>236</ele>
        <time>2017-08-19T09:11:19Z</time>
      </trkpt>
      <trkpt lat="45.87257" lon="4.76489">
        <ele>236</ele>
        <time>2017-08-19T09:11:20Z</time>
      </trkpt>
      <trkpt lat="45.87256" lon="4.76483">
        <ele>236</ele>
        <time>2017-08-19T09:11:21Z</time>
      </trkpt>
      <trkpt lat="45.87257" lon="4.76476">
        <ele>236</ele>
        <time>2017-08-19T09:11:22Z</time>
      </trkpt>
      <trkpt lat="45.87256" lon="4.76469">
        <ele>236</ele>
        <time>2017-08-19T09:11:23Z</time>
      </trkpt>
      <trkpt lat="45.87255" lon="4.76462">
        <ele>235</ele>
        <time>2017-08-19T09:11:24Z</time>
      </trkpt>
      <trkpt lat="45.87255" lon="4.76456">
        <ele>235</ele>
        <time>2017-08-19T09:11:25Z</time>
      </trkpt>
      <trkpt lat="45.87255" lon="4.76449">
        <ele>235</ele>
        <time>2017-08-19T09:11:26Z</time>
      </trkpt>
      <trkpt lat="45.87256" lon="4.76442">
        <ele>235</ele>
        <time>2017-08-19T09:11:27Z</time>
      </trkpt>
      <trkpt lat="45.87255" lon="4.76434">
        <ele>235</ele>
        <time>2017-08-19T09:11:28Z</time>
      </trkpt>
      <trkpt lat="45.87255" lon="4.76426">
        <ele>236</ele>
        <time>2017-08-19T09:11:29Z</time>
      </trkpt>
      <trkpt lat="45.87254" lon="4.76418">
        <ele>236</ele>
        <time>2017-08-19T09:11:30Z</time>
      </trkpt>
      <trkpt lat="45.87255" lon="4.7641">
        <ele>235</ele>
        <time>2017-08-19T09:11:31Z</time>
      </trkpt>
      <trkpt lat="45.87255" lon="4.76401">
        <ele>235</ele>
        <time>2017-08-19T09:11:32Z</time>
      </trkpt>
      <trkpt lat="45.87255" lon="4.76393">
        <ele>234</ele>
        <time>2017-08-19T09:11:33Z</time>
      </trkpt>
      <trkpt lat="45.87254" lon="4.76385">
        <ele>234</ele>
        <time>2017-08-19T09:11:34Z</time>
      </trkpt>
      <trkpt lat="45.87254" lon="4.76377">
        <ele>234</ele>
        <time>2017-08-19T09:11:35Z</time>
      </trkpt>
      <trkpt lat="45.87254" lon="4.76368">
        <ele>234</ele>
        <time>2017-08-19T09:11:36Z</time>
      </trkpt>
      <trkpt lat="45.87254" lon="4.7636">
        <ele>234</ele>
        <time>2017-08-19T09:11:37Z</time>
      </trkpt>
      <trkpt lat="45.87254" lon="4.76352">
        <ele>234</ele>
        <time>2017-08-19T09:11:38Z</time>
      </trkpt>
      <trkpt lat="45.87254" lon="4.76344">
        <ele>234</ele>
        <time>2017-08-19T09:11:39Z</time>
      </trkpt>
      <trkpt lat="45.87253" lon="4.76335">
        <ele>234</ele>
        <time>2017-08-19T09:11:40Z</time>
      </trkpt>
      <trkpt lat="45.87253" lon="4.76327">
        <ele>234</ele>
        <time>2017-08-19T09:11:41Z</time>
      </trkpt>
      <trkpt lat="45.87252" lon="4.76318">
        <ele>233</ele>
        <time>2017-08-19T09:11:42Z</time>
      </trkpt>
      <trkpt lat="45.87252" lon="4.7631">
        <ele>233</ele>
        <time>2017-08-19T09:11:43Z</time>
      </trkpt>
      <trkpt lat="45.87251" lon="4.76302">
        <ele>233</ele>
        <time>2017-08-19T09:11:44Z</time>
      </trkpt>
      <trkpt lat="45.87251" lon="4.76294">
        <ele>233</ele>
        <time>2017-08-19T09:11:45Z</time>
      </trkpt>
      <trkpt lat="45.87251" lon="4.76286">
        <ele>233</ele>
        <time>2017-08-19T09:11:46Z</time>
      </trkpt>
      <trkpt lat="45.87253" lon="4.7628">
        <ele>233</ele>
        <time>2017-08-19T09:11:47Z</time>
      </trkpt>
      <trkpt lat="45.87253" lon="4.76272">
        <ele>234</ele>
        <time>2017-08-19T09:11:48Z</time>
      </trkpt>
      <trkpt lat="45.87253" lon="4.76263">
        <ele>234</ele>
        <time>2017-08-19T09:11:49Z</time>
      </trkpt>
      <trkpt lat="45.87252" lon="4.76254">
        <ele>235</ele>
        <time>2017-08-19T09:11:50Z</time>
      </trkpt>
      <trkpt lat="45.87251" lon="4.76244">
        <ele>234</ele>
        <time>2017-08-19T09:11:51Z</time>
      </trkpt>
      <trkpt lat="45.87249" lon="4.76233">
        <ele>235</ele>
        <time>2017-08-19T09:11:52Z</time>
      </trkpt>
      <trkpt lat="45.87248" lon="4.76224">
        <ele>235</ele>
        <time>2017-08-19T09:11:53Z</time>
      </trkpt>
      <trkpt lat="45.87248" lon="4.76214">
        <ele>234</ele>
        <time>2017-08-19T09:11:54Z</time>
      </trkpt>
      <trkpt lat="45.87249" lon="4.76203">
        <ele>234</ele>
        <time>2017-08-19T09:11:55Z</time>
      </trkpt>
      <trkpt lat="45.87249" lon="4.76194">
        <ele>234</ele>
        <time>2017-08-19T09:11:56Z</time>
      </trkpt>
      <trkpt lat="45.87249" lon="4.76184">
        <ele>233</ele>
        <time>2017-08-19T09:11:57Z</time>
      </trkpt>
      <trkpt lat="45.87249" lon="4.76175">
        <ele>233</ele>
        <time>2017-08-19T09:11:58Z</time>
      </trkpt>
      <trkpt lat="45.87248" lon="4.76165">
        <ele>232</ele>
        <time>2017-08-19T09:11:59Z</time>
      </trkpt>
      <trkpt lat="45.87248" lon="4.76157">
        <ele>232</ele>
        <time>2017-08-19T09:12:00Z</time>
      </trkpt>
      <trkpt lat="45.87249" lon="4.76148">
        <ele>232</ele>
        <time>2017-08-19T09:12:01Z</time>
      </trkpt>
      <trkpt lat="45.87248" lon="4.76139">
        <ele>232</ele>
        <time>2017-08-19T09:12:02Z</time>
      </trkpt>
      <trkpt lat="45.87248" lon="4.7613">
        <ele>232</ele>
        <time>2017-08-19T09:12:03Z</time>
      </trkpt>
      <trkpt lat="45.87247" lon="4.76122">
        <ele>232</ele>
        <time>2017-08-19T09:12:04Z</time>
      </trkpt>
      <trkpt lat="45.87247" lon="4.76113">
        <ele>232</ele>
        <time>2017-08-19T09:12:05Z</time>
      </trkpt>
      <trkpt lat="45.87246" lon="4.76105">
        <ele>231</ele>
        <time>2017-08-19T09:12:06Z</time>
      </trkpt>
      <trkpt lat="45.87245" lon="4.76096">
        <ele>231</ele>
        <time>2017-08-19T09:12:07Z</time>
      </trkpt>
      <trkpt lat="45.87245" lon="4.76088">
        <ele>231</ele>
        <time>2017-08-19T09:12:08Z</time>
      </trkpt>
      <trkpt lat="45.87245" lon="4.76079">
        <ele>230</ele>
        <time>2017-08-19T09:12:09Z</time>
      </trkpt>
      <trkpt lat="45.87244" lon="4.76071">
        <ele>230</ele>
        <time>2017-08-19T09:12:10Z</time>
      </trkpt>
      <trkpt lat="45.87243" lon="4.76063">
        <ele>230</ele>
        <time>2017-08-19T09:12:11Z</time>
      </trkpt>
      <trkpt lat="45.87243" lon="4.76055">
        <ele>230</ele>
        <time>2017-08-19T09:12:12Z</time>
      </trkpt>
      <trkpt lat="45.87242" lon="4.76046">
        <ele>230</ele>
        <time>2017-08-19T09:12:13Z</time>
      </trkpt>
      <trkpt lat="45.87241" lon="4.76037">
        <ele>230</ele>
        <time>2017-08-19T09:12:14Z</time>
      </trkpt>
      <trkpt lat="45.8724" lon="4.76028">
        <ele>230</ele>
        <time>2017-08-19T09:12:15Z</time>
      </trkpt>
      <trkpt lat="45.87238" lon="4.76017">
        <ele>230</ele>
        <time>2017-08-19T09:12:16Z</time>
      </trkpt>
      <trkpt lat="45.87237" lon="4.76007">
        <ele>229</ele>
        <time>2017-08-19T09:12:17Z</time>
      </trkpt>
      <trkpt lat="45.87236" lon="4.75996">
        <ele>228</ele>
        <time>2017-08-19T09:12:18Z</time>
      </trkpt>
      <trkpt lat="45.87235" lon="4.75986">
        <ele>228</ele>
        <time>2017-08-19T09:12:19Z</time>
      </trkpt>
      <trkpt lat="45.87235" lon="4.75975">
        <ele>228</ele>
        <time>2017-08-19T09:12:20Z</time>
      </trkpt>
      <trkpt lat="45.87234" lon="4.75965">
        <ele>228</ele>
        <time>2017-08-19T09:12:21Z</time>
      </trkpt>
      <trkpt lat="45.87233" lon="4.75954">
        <ele>228</ele>
        <time>2017-08-19T09:12:22Z</time>
      </trkpt>
      <trkpt lat="45.87232" lon="4.75943">
        <ele>228</ele>
        <time>2017-08-19T09:12:23Z</time>
      </trkpt>
      <trkpt lat="45.87231" lon="4.75932">
        <ele>228</ele>
        <time>2017-08-19T09:12:24Z</time>
      </trkpt>
      <trkpt lat="45.8723" lon="4.75921">
        <ele>228</ele>
        <time>2017-08-19T09:12:25Z</time>
      </trkpt>
      <trkpt lat="45.87229" lon="4.7591">
        <ele>227</ele>
        <time>2017-08-19T09:12:26Z</time>
      </trkpt>
      <trkpt lat="45.87228" lon="4.75899">
        <ele>227</ele>
        <time>2017-08-19T09:12:27Z</time>
      </trkpt>
      <trkpt lat="45.87227" lon="4.75888">
        <ele>227</ele>
        <time>2017-08-19T09:12:28Z</time>
      </trkpt>
      <trkpt lat="45.87226" lon="4.75878">
        <ele>226</ele>
        <time>2017-08-19T09:12:29Z</time>
      </trkpt>
      <trkpt lat="45.87225" lon="4.75867">
        <ele>226</ele>
        <time>2017-08-19T09:12:30Z</time>
      </trkpt>
      <trkpt lat="45.87224" lon="4.75856">
        <ele>226</ele>
        <time>2017-08-19T09:12:31Z</time>
      </trkpt>
      <trkpt lat="45.87223" lon="4.75845">
        <ele>226</ele>
        <time>2017-08-19T09:12:32Z</time>
      </trkpt>
      <trkpt lat="45.87221" lon="4.75835">
        <ele>226</ele>
        <time>2017-08-19T09:12:33Z</time>
      </trkpt>
      <trkpt lat="45.87218" lon="4.75824">
        <ele>224</ele>
        <time>2017-08-19T09:12:34Z</time>
      </trkpt>
      <trkpt lat="45.87215" lon="4.75814">
        <ele>224</ele>
        <time>2017-08-19T09:12:35Z</time>
      </trkpt>
      <trkpt lat="45.87212" lon="4.75804">
        <ele>224</ele>
        <time>2017-08-19T09:12:36Z</time>
      </trkpt>
      <trkpt lat="45.87209" lon="4.75794">
        <ele>224</ele>
        <time>2017-08-19T09:12:37Z</time>
      </trkpt>
      <trkpt lat="45.87206" lon="4.75785">
        <ele>224</ele>
        <time>2017-08-19T09:12:38Z</time>
      </trkpt>
      <trkpt lat="45.87202" lon="4.75775">
        <ele>224</ele>
        <time>2017-08-19T09:12:39Z</time>
      </trkpt>
      <trkpt lat="45.87199" lon="4.75765">
        <ele>224</ele>
        <time>2017-08-19T09:12:40Z</time>
      </trkpt>
      <trkpt lat="45.87197" lon="4.75757">
        <ele>224</ele>
        <time>2017-08-19T09:12:41Z</time>
      </trkpt>
      <trkpt lat="45.87194" lon="4.75748">
        <ele>223</ele>
        <time>2017-08-19T09:12:42Z</time>
      </trkpt>
      <trkpt lat="45.87191" lon="4.7574">
        <ele>223</ele>
        <time>2017-08-19T09:12:43Z</time>
      </trkpt>
      <trkpt lat="45.87189" lon="4.75732">
        <ele>223</ele>
        <time>2017-08-19T09:12:44Z</time>
      </trkpt>
      <trkpt lat="45.87187" lon="4.75725">
        <ele>223</ele>
        <time>2017-08-19T09:12:45Z</time>
      </trkpt>
      <trkpt lat="45.87185" lon="4.75717">
        <ele>223</ele>
        <time>2017-08-19T09:12:46Z</time>
      </trkpt>
      <trkpt lat="45.87183" lon="4.75711">
        <ele>223</ele>
        <time>2017-08-19T09:12:47Z</time>
      </trkpt>
      <trkpt lat="45.87183" lon="4.75703">
        <ele>223</ele>
        <time>2017-08-19T09:12:48Z</time>
      </trkpt>
      <trkpt lat="45.87182" lon="4.75696">
        <ele>223</ele>
        <time>2017-08-19T09:12:49Z</time>
      </trkpt>
      <trkpt lat="45.87181" lon="4.75688">
        <ele>223</ele>
        <time>2017-08-19T09:12:50Z</time>
      </trkpt>
      <trkpt lat="45.8718" lon="4.7568">
        <ele>223</ele>
        <time>2017-08-19T09:12:51Z</time>
      </trkpt>
      <trkpt lat="45.87179" lon="4.75671">
        <ele>223</ele>
        <time>2017-08-19T09:12:52Z</time>
      </trkpt>
      <trkpt lat="45.87179" lon="4.75663">
        <ele>223</ele>
        <time>2017-08-19T09:12:53Z</time>
      </trkpt>
      <trkpt lat="45.87179" lon="4.75655">
        <ele>222</ele>
        <time>2017-08-19T09:12:54Z</time>
      </trkpt>
      <trkpt lat="45.87179" lon="4.75647">
        <ele>222</ele>
        <time>2017-08-19T09:12:55Z</time>
      </trkpt>
      <trkpt lat="45.87179" lon="4.75638">
        <ele>222</ele>
        <time>2017-08-19T09:12:56Z</time>
      </trkpt>
      <trkpt lat="45.87179" lon="4.7563">
        <ele>222</ele>
        <time>2017-08-19T09:12:57Z</time>
      </trkpt>
      <trkpt lat="45.8718" lon="4.75621">
        <ele>222</ele>
        <time>2017-08-19T09:12:58Z</time>
      </trkpt>
      <trkpt lat="45.8718" lon="4.75613">
        <ele>222</ele>
        <time>2017-08-19T09:12:59Z</time>
      </trkpt>
      <trkpt lat="45.87181" lon="4.75605">
        <ele>222</ele>
        <time>2017-08-19T09:13:00Z</time>
      </trkpt>
      <trkpt lat="45.87181" lon="4.75597">
        <ele>222</ele>
        <time>2017-08-19T09:13:01Z</time>
      </trkpt>
      <trkpt lat="45.87181" lon="4.75588">
        <ele>222</ele>
        <time>2017-08-19T09:13:02Z</time>
      </trkpt>
      <trkpt lat="45.87182" lon="4.7558">
        <ele>222</ele>
        <time>2017-08-19T09:13:03Z</time>
      </trkpt>
      <trkpt lat="45.87182" lon="4.75572">
        <ele>222</ele>
        <time>2017-08-19T09:13:04Z</time>
      </trkpt>
      <trkpt lat="45.87182" lon="4.75564">
        <ele>222</ele>
        <time>2017-08-19T09:13:05Z</time>
      </trkpt>
      <trkpt lat="45.87183" lon="4.75556">
        <ele>222</ele>
        <time>2017-08-19T09:13:06Z</time>
      </trkpt>
      <trkpt lat="45.87183" lon="4.75548">
        <ele>222</ele>
        <time>2017-08-19T09:13:07Z</time>
      </trkpt>
      <trkpt lat="45.87183" lon="4.7554">
        <ele>222</ele>
        <time>2017-08-19T09:13:08Z</time>
      </trkpt>
      <trkpt lat="45.87184" lon="4.75532">
        <ele>222</ele>
        <time>2017-08-19T09:13:09Z</time>
      </trkpt>
      <trkpt lat="45.87183" lon="4.75524">
        <ele>222</ele>
        <time>2017-08-19T09:13:10Z</time>
      </trkpt>
      <trkpt lat="45.87183" lon="4.75516">
        <ele>222</ele>
        <time>2017-08-19T09:13:11Z</time>
      </trkpt>
      <trkpt lat="45.87183" lon="4.75508">
        <ele>222</ele>
        <time>2017-08-19T09:13:12Z</time>
      </trkpt>
      <trkpt lat="45.87183" lon="4.75499">
        <ele>223</ele>
        <time>2017-08-19T09:13:13Z</time>
      </trkpt>
      <trkpt lat="45.87183" lon="4.75491">
        <ele>222</ele>
        <time>2017-08-19T09:13:14Z</time>
      </trkpt>
      <trkpt lat="45.87183" lon="4.75482">
        <ele>222</ele>
        <time>2017-08-19T09:13:15Z</time>
      </trkpt>
      <trkpt lat="45.87183" lon="4.75473">
        <ele>222</ele>
        <time>2017-08-19T09:13:16Z</time>
      </trkpt>
      <trkpt lat="45.87183" lon="4.75465">
        <ele>222</ele>
        <time>2017-08-19T09:13:17Z</time>
      </trkpt>
      <trkpt lat="45.87182" lon="4.75456">
        <ele>222</ele>
        <time>2017-08-19T09:13:18Z</time>
      </trkpt>
      <trkpt lat="45.87183" lon="4.75447">
        <ele>222</ele>
        <time>2017-08-19T09:13:19Z</time>
      </trkpt>
      <trkpt lat="45.87182" lon="4.75439">
        <ele>222</ele>
        <time>2017-08-19T09:13:20Z</time>
      </trkpt>
      <trkpt lat="45.87181" lon="4.75429">
        <ele>222</ele>
        <time>2017-08-19T09:13:21Z</time>
      </trkpt>
      <trkpt lat="45.87181" lon="4.7542">
        <ele>223</ele>
        <time>2017-08-19T09:13:22Z</time>
      </trkpt>
      <trkpt lat="45.8718" lon="4.7541">
        <ele>223</ele>
        <time>2017-08-19T09:13:23Z</time>
      </trkpt>
      <trkpt lat="45.8718" lon="4.75401">
        <ele>223</ele>
        <time>2017-08-19T09:13:24Z</time>
      </trkpt>
      <trkpt lat="45.8718" lon="4.75391">
        <ele>223</ele>
        <time>2017-08-19T09:13:25Z</time>
      </trkpt>
      <trkpt lat="45.87179" lon="4.75382">
        <ele>223</ele>
        <time>2017-08-19T09:13:26Z</time>
      </trkpt>
      <trkpt lat="45.87179" lon="4.75373">
        <ele>223</ele>
        <time>2017-08-19T09:13:27Z</time>
      </trkpt>
      <trkpt lat="45.87179" lon="4.75364">
        <ele>223</ele>
        <time>2017-08-19T09:13:28Z</time>
      </trkpt>
      <trkpt lat="45.87178" lon="4.75354">
        <ele>223</ele>
        <time>2017-08-19T09:13:29Z</time>
      </trkpt>
      <trkpt lat="45.87177" lon="4.75345">
        <ele>223</ele>
        <time>2017-08-19T09:13:30Z</time>
      </trkpt>
      <trkpt lat="45.87177" lon="4.75336">
        <ele>223</ele>
        <time>2017-08-19T09:13:31Z</time>
      </trkpt>
      <trkpt lat="45.87176" lon="4.75327">
        <ele>224</ele>
        <time>2017-08-19T09:13:32Z</time>
      </trkpt>
      <trkpt lat="45.87175" lon="4.75318">
        <ele>223</ele>
        <time>2017-08-19T09:13:33Z</time>
      </trkpt>
      <trkpt lat="45.87175" lon="4.75309">
        <ele>223</ele>
        <time>2017-08-19T09:13:34Z</time>
      </trkpt>
      <trkpt lat="45.87174" lon="4.753">
        <ele>223</ele>
        <time>2017-08-19T09:13:35Z</time>
      </trkpt>
      <trkpt lat="45.87172" lon="4.75292">
        <ele>223</ele>
        <time>2017-08-19T09:13:36Z</time>
      </trkpt>
      <trkpt lat="45.87171" lon="4.75284">
        <ele>223</ele>
        <time>2017-08-19T09:13:37Z</time>
      </trkpt>
      <trkpt lat="45.8717" lon="4.75277">
        <ele>223</ele>
        <time>2017-08-19T09:13:38Z</time>
      </trkpt>
      <trkpt lat="45.87168" lon="4.75269">
        <ele>223</ele>
        <time>2017-08-19T09:13:39Z</time>
      </trkpt>
      <trkpt lat="45.87167" lon="4.75263">
        <ele>223</ele>
        <time>2017-08-19T09:13:40Z</time>
      </trkpt>
      <trkpt lat="45.87166" lon="4.75256">
        <ele>223</ele>
        <time>2017-08-19T09:13:41Z</time>
      </trkpt>
      <trkpt lat="45.87164" lon="4.7525">
        <ele>223</ele>
        <time>2017-08-19T09:13:42Z</time>
      </trkpt>
      <trkpt lat="45.87163" lon="4.75243">
        <ele>224</ele>
        <time>2017-08-19T09:13:43Z</time>
      </trkpt>
      <trkpt lat="45.87161" lon="4.75236">
        <ele>224</ele>
        <time>2017-08-19T09:13:44Z</time>
      </trkpt>
      <trkpt lat="45.87159" lon="4.75229">
        <ele>224</ele>
        <time>2017-08-19T09:13:45Z</time>
      </trkpt>
      <trkpt lat="45.87158" lon="4.75222">
        <ele>224</ele>
        <time>2017-08-19T09:13:46Z</time>
      </trkpt>
      <trkpt lat="45.87156" lon="4.75214">
        <ele>225</ele>
        <time>2017-08-19T09:13:47Z</time>
      </trkpt>
      <trkpt lat="45.87154" lon="4.75205">
        <ele>225</ele>
        <time>2017-08-19T09:13:48Z</time>
      </trkpt>
      <trkpt lat="45.87152" lon="4.75197">
        <ele>225</ele>
        <time>2017-08-19T09:13:49Z</time>
      </trkpt>
      <trkpt lat="45.8715" lon="4.75189">
        <ele>225</ele>
        <time>2017-08-19T09:13:50Z</time>
      </trkpt>
      <trkpt lat="45.87149" lon="4.75182">
        <ele>225</ele>
        <time>2017-08-19T09:13:51Z</time>
      </trkpt>
      <trkpt lat="45.87148" lon="4.75175">
        <ele>225</ele>
        <time>2017-08-19T09:13:52Z</time>
      </trkpt>
      <trkpt lat="45.87147" lon="4.75168">
        <ele>225</ele>
        <time>2017-08-19T09:13:53Z</time>
      </trkpt>
      <trkpt lat="45.87146" lon="4.75161">
        <ele>225</ele>
        <time>2017-08-19T09:13:54Z</time>
      </trkpt>
      <trkpt lat="45.87145" lon="4.75155">
        <ele>225</ele>
        <time>2017-08-19T09:13:55Z</time>
      </trkpt>
      <trkpt lat="45.87144" lon="4.75148">
        <ele>225</ele>
        <time>2017-08-19T09:13:56Z</time>
      </trkpt>
      <trkpt lat="45.87143" lon="4.75142">
        <ele>225</ele>
        <time>2017-08-19T09:13:57Z</time>
      </trkpt>
      <trkpt lat="45.87142" lon="4.75136">
        <ele>225</ele>
        <time>2017-08-19T09:13:58Z</time>
      </trkpt>
      <trkpt lat="45.87141" lon="4.75129">
        <ele>225</ele>
        <time>2017-08-19T09:13:59Z</time>
      </trkpt>
      <trkpt lat="45.8714" lon="4.75121">
        <ele>225</ele>
        <time>2017-08-19T09:14:00Z</time>
      </trkpt>
      <trkpt lat="45.87139" lon="4.75114">
        <ele>225</ele>
        <time>2017-08-19T09:14:01Z</time>
      </trkpt>
      <trkpt lat="45.87137" lon="4.75106">
        <ele>225</ele>
        <time>2017-08-19T09:14:02Z</time>
      </trkpt>
      <trkpt lat="45.87136" lon="4.75097">
        <ele>225</ele>
        <time>2017-08-19T09:14:03Z</time>
      </trkpt>
      <trkpt lat="45.87134" lon="4.75089">
        <ele>225</ele>
        <time>2017-08-19T09:14:04Z</time>
      </trkpt>
      <trkpt lat="45.87133" lon="4.75081">
        <ele>225</ele>
        <time>2017-08-19T09:14:05Z</time>
      </trkpt>
      <trkpt lat="45.87132" lon="4.75074">
        <ele>225</ele>
        <time>2017-08-19T09:14:06Z</time>
      </trkpt>
      <trkpt lat="45.87131" lon="4.75066">
        <ele>225</ele>
        <time>2017-08-19T09:14:07Z</time>
      </trkpt>
      <trkpt lat="45.8713" lon="4.75059">
        <ele>225</ele>
        <time>2017-08-19T09:14:08Z</time>
      </trkpt>
      <trkpt lat="45.87129" lon="4.75052">
        <ele>225</ele>
        <time>2017-08-19T09:14:09Z</time>
      </trkpt>
      <trkpt lat="45.87128" lon="4.75045">
        <ele>225</ele>
        <time>2017-08-19T09:14:10Z</time>
      </trkpt>
      <trkpt lat="45.87128" lon="4.75038">
        <ele>225</ele>
        <time>2017-08-19T09:14:11Z</time>
      </trkpt>
      <trkpt lat="45.87127" lon="4.75031">
        <ele>226</ele>
        <time>2017-08-19T09:14:12Z</time>
      </trkpt>
      <trkpt lat="45.87127" lon="4.75023">
        <ele>226</ele>
        <time>2017-08-19T09:14:13Z</time>
      </trkpt>
      <trkpt lat="45.87126" lon="4.75015">
        <ele>226</ele>
        <time>2017-08-19T09:14:14Z</time>
      </trkpt>
      <trkpt lat="45.87127" lon="4.75007">
        <ele>226</ele>
        <time>2017-08-19T09:14:15Z</time>
      </trkpt>
      <trkpt lat="45.87127" lon="4.74998">
        <ele>226</ele>
        <time>2017-08-19T09:14:16Z</time>
      </trkpt>
      <trkpt lat="45.87128" lon="4.7499">
        <ele>226</ele>
        <time>2017-08-19T09:14:17Z</time>
      </trkpt>
      <trkpt lat="45.87129" lon="4.74983">
        <ele>226</ele>
        <time>2017-08-19T09:14:18Z</time>
      </trkpt>
      <trkpt lat="45.8713" lon="4.74974">
        <ele>226</ele>
        <time>2017-08-19T09:14:19Z</time>
      </trkpt>
      <trkpt lat="45.87131" lon="4.74967">
        <ele>226</ele>
        <time>2017-08-19T09:14:20Z</time>
      </trkpt>
      <trkpt lat="45.87132" lon="4.74959">
        <ele>226</ele>
        <time>2017-08-19T09:14:21Z</time>
      </trkpt>
      <trkpt lat="45.87134" lon="4.74952">
        <ele>226</ele>
        <time>2017-08-19T09:14:22Z</time>
      </trkpt>
      <trkpt lat="45.87137" lon="4.74946">
        <ele>226</ele>
        <time>2017-08-19T09:14:23Z</time>
      </trkpt>
      <trkpt lat="45.8714" lon="4.74939">
        <ele>226</ele>
        <time>2017-08-19T09:14:24Z</time>
      </trkpt>
      <trkpt lat="45.87143" lon="4.74932">
        <ele>226</ele>
        <time>2017-08-19T09:14:25Z</time>
      </trkpt>
      <trkpt lat="45.87145" lon="4.74924">
        <ele>226</ele>
        <time>2017-08-19T09:14:26Z</time>
      </trkpt>
      <trkpt lat="45.87145" lon="4.74916">
        <ele>225</ele>
        <time>2017-08-19T09:14:27Z</time>
      </trkpt>
      <trkpt lat="45.87142" lon="4.74908">
        <ele>225</ele>
        <time>2017-08-19T09:14:28Z</time>
      </trkpt>
      <trkpt lat="45.87139" lon="4.74901">
        <ele>225</ele>
        <time>2017-08-19T09:14:29Z</time>
      </trkpt>
      <trkpt lat="45.87137" lon="4.74893">
        <ele>225</ele>
        <time>2017-08-19T09:14:30Z</time>
      </trkpt>
      <trkpt lat="45.87136" lon="4.74884">
        <ele>225</ele>
        <time>2017-08-19T09:14:31Z</time>
      </trkpt>
      <trkpt lat="45.87135" lon="4.74876">
        <ele>225</ele>
        <time>2017-08-19T09:14:32Z</time>
      </trkpt>
      <trkpt lat="45.87135" lon="4.74867">
        <ele>225</ele>
        <time>2017-08-19T09:14:33Z</time>
      </trkpt>
      <trkpt lat="45.87134" lon="4.74858">
        <ele>224</ele>
        <time>2017-08-19T09:14:34Z</time>
      </trkpt>
      <trkpt lat="45.87134" lon="4.74849">
        <ele>224</ele>
        <time>2017-08-19T09:14:35Z</time>
      </trkpt>
      <trkpt lat="45.87133" lon="4.74839">
        <ele>224</ele>
        <time>2017-08-19T09:14:36Z</time>
      </trkpt>
      <trkpt lat="45.87133" lon="4.7483">
        <ele>223</ele>
        <time>2017-08-19T09:14:37Z</time>
      </trkpt>
      <trkpt lat="45.87134" lon="4.74821">
        <ele>223</ele>
        <time>2017-08-19T09:14:38Z</time>
      </trkpt>
      <trkpt lat="45.87134" lon="4.74812">
        <ele>222</ele>
        <time>2017-08-19T09:14:39Z</time>
      </trkpt>
      <trkpt lat="45.87133" lon="4.74803">
        <ele>222</ele>
        <time>2017-08-19T09:14:40Z</time>
      </trkpt>
      <trkpt lat="45.87133" lon="4.74794">
        <ele>222</ele>
        <time>2017-08-19T09:14:41Z</time>
      </trkpt>
      <trkpt lat="45.87132" lon="4.74785">
        <ele>222</ele>
        <time>2017-08-19T09:14:42Z</time>
      </trkpt>
      <trkpt lat="45.87132" lon="4.74775">
        <ele>222</ele>
        <time>2017-08-19T09:14:43Z</time>
      </trkpt>
      <trkpt lat="45.87132" lon="4.74766">
        <ele>222</ele>
        <time>2017-08-19T09:14:44Z</time>
      </trkpt>
      <trkpt lat="45.87131" lon="4.74757">
        <ele>222</ele>
        <time>2017-08-19T09:14:45Z</time>
      </trkpt>
      <trkpt lat="45.87131" lon="4.74747">
        <ele>221</ele>
        <time>2017-08-19T09:14:46Z</time>
      </trkpt>
      <trkpt lat="45.87131" lon="4.74738">
        <ele>221</ele>
        <time>2017-08-19T09:14:47Z</time>
      </trkpt>
      <trkpt lat="45.87131" lon="4.74729">
        <ele>221</ele>
        <time>2017-08-19T09:14:48Z</time>
      </trkpt>
      <trkpt lat="45.8713" lon="4.7472">
        <ele>221</ele>
        <time>2017-08-19T09:14:49Z</time>
      </trkpt>
      <trkpt lat="45.87129" lon="4.74711">
        <ele>221</ele>
        <time>2017-08-19T09:14:50Z</time>
      </trkpt>
      <trkpt lat="45.87127" lon="4.74702">
        <ele>221</ele>
        <time>2017-08-19T09:14:51Z</time>
      </trkpt>
      <trkpt lat="45.87127" lon="4.74694">
        <ele>221</ele>
        <time>2017-08-19T09:14:52Z</time>
      </trkpt>
      <trkpt lat="45.87126" lon="4.74685">
        <ele>221</ele>
        <time>2017-08-19T09:14:53Z</time>
      </trkpt>
      <trkpt lat="45.87126" lon="4.74676">
        <ele>221</ele>
        <time>2017-08-19T09:14:54Z</time>
      </trkpt>
      <trkpt lat="45.87126" lon="4.74667">
        <ele>221</ele>
        <time>2017-08-19T09:14:55Z</time>
      </trkpt>
      <trkpt lat="45.87125" lon="4.74658">
        <ele>221</ele>
        <time>2017-08-19T09:14:56Z</time>
      </trkpt>
      <trkpt lat="45.87124" lon="4.7465">
        <ele>222</ele>
        <time>2017-08-19T09:14:57Z</time>
      </trkpt>
      <trkpt lat="45.87124" lon="4.74641">
        <ele>222</ele>
        <time>2017-08-19T09:14:58Z</time>
      </trkpt>
      <trkpt lat="45.87124" lon="4.74633">
        <ele>222</ele>
        <time>2017-08-19T09:14:59Z</time>
      </trkpt>
      <trkpt lat="45.87124" lon="4.74624">
        <ele>222</ele>
        <time>2017-08-19T09:15:00Z</time>
      </trkpt>
      <trkpt lat="45.87123" lon="4.74616">
        <ele>222</ele>
        <time>2017-08-19T09:15:01Z</time>
      </trkpt>
      <trkpt lat="45.87123" lon="4.74608">
        <ele>222</ele>
        <time>2017-08-19T09:15:02Z</time>
      </trkpt>
      <trkpt lat="45.87122" lon="4.746">
        <ele>222</ele>
        <time>2017-08-19T09:15:03Z</time>
      </trkpt>
      <trkpt lat="45.87122" lon="4.74592">
        <ele>222</ele>
        <time>2017-08-19T09:15:04Z</time>
      </trkpt>
      <trkpt lat="45.87119" lon="4.74584">
        <ele>222</ele>
        <time>2017-08-19T09:15:05Z</time>
      </trkpt>
      <trkpt lat="45.87117" lon="4.74576">
        <ele>220</ele>
        <time>2017-08-19T09:15:06Z</time>
      </trkpt>
      <trkpt lat="45.87115" lon="4.74569">
        <ele>220</ele>
        <time>2017-08-19T09:15:07Z</time>
      </trkpt>
      <trkpt lat="45.87112" lon="4.74562">
        <ele>220</ele>
        <time>2017-08-19T09:15:08Z</time>
      </trkpt>
      <trkpt lat="45.8711" lon="4.74555">
        <ele>220</ele>
        <time>2017-08-19T09:15:09Z</time>
      </trkpt>
      <trkpt lat="45.87109" lon="4.74548">
        <ele>220</ele>
        <time>2017-08-19T09:15:10Z</time>
      </trkpt>
      <trkpt lat="45.8711" lon="4.7454">
        <ele>220</ele>
        <time>2017-08-19T09:15:11Z</time>
      </trkpt>
      <trkpt lat="45.87112" lon="4.74534">
        <ele>220</ele>
        <time>2017-08-19T09:15:12Z</time>
      </trkpt>
      <trkpt lat="45.87115" lon="4.74527">
        <ele>220</ele>
        <time>2017-08-19T09:15:13Z</time>
      </trkpt>
      <trkpt lat="45.87118" lon="4.74519">
        <ele>219</ele>
        <time>2017-08-19T09:15:14Z</time>
      </trkpt>
      <trkpt lat="45.87119" lon="4.7451">
        <ele>219</ele>
        <time>2017-08-19T09:15:15Z</time>
      </trkpt>
      <trkpt lat="45.87118" lon="4.74502">
        <ele>219</ele>
        <time>2017-08-19T09:15:16Z</time>
      </trkpt>
      <trkpt lat="45.87117" lon="4.74494">
        <ele>218</ele>
        <time>2017-08-19T09:15:17Z</time>
      </trkpt>
      <trkpt lat="45.87114" lon="4.74487">
        <ele>218</ele>
        <time>2017-08-19T09:15:18Z</time>
      </trkpt>
      <trkpt lat="45.87112" lon="4.7448">
        <ele>218</ele>
        <time>2017-08-19T09:15:19Z</time>
      </trkpt>
      <trkpt lat="45.8711" lon="4.74473">
        <ele>218</ele>
        <time>2017-08-19T09:15:20Z</time>
      </trkpt>
      <trkpt lat="45.87109" lon="4.74465">
        <ele>218</ele>
        <time>2017-08-19T09:15:21Z</time>
      </trkpt>
      <trkpt lat="45.87107" lon="4.74456">
        <ele>218</ele>
        <time>2017-08-19T09:15:22Z</time>
      </trkpt>
      <trkpt lat="45.87106" lon="4.74447">
        <ele>218</ele>
        <time>2017-08-19T09:15:23Z</time>
      </trkpt>
      <trkpt lat="45.87105" lon="4.74437">
        <ele>218</ele>
        <time>2017-08-19T09:15:24Z</time>
      </trkpt>
      <trkpt lat="45.87103" lon="4.74428">
        <ele>218</ele>
        <time>2017-08-19T09:15:25Z</time>
      </trkpt>
      <trkpt lat="45.87101" lon="4.74419">
        <ele>218</ele>
        <time>2017-08-19T09:15:26Z</time>
      </trkpt>
      <trkpt lat="45.87099" lon="4.74411">
        <ele>218</ele>
        <time>2017-08-19T09:15:27Z</time>
      </trkpt>
      <trkpt lat="45.87098" lon="4.74402">
        <ele>218</ele>
        <time>2017-08-19T09:15:28Z</time>
      </trkpt>
      <trkpt lat="45.87097" lon="4.74394">
        <ele>218</ele>
        <time>2017-08-19T09:15:29Z</time>
      </trkpt>
      <trkpt lat="45.87096" lon="4.74386">
        <ele>218</ele>
        <time>2017-08-19T09:15:30Z</time>
      </trkpt>
      <trkpt lat="45.87094" lon="4.74378">
        <ele>218</ele>
        <time>2017-08-19T09:15:31Z</time>
      </trkpt>
      <trkpt lat="45.87092" lon="4.7437">
        <ele>218</ele>
        <time>2017-08-19T09:15:32Z</time>
      </trkpt>
      <trkpt lat="45.8709" lon="4.74362">
        <ele>218</ele>
        <time>2017-08-19T09:15:33Z</time>
      </trkpt>
      <trkpt lat="45.87088" lon="4.74354">
        <ele>218</ele>
        <time>2017-08-19T09:15:34Z</time>
      </trkpt>
      <trkpt lat="45.87086" lon="4.74347">
        <ele>218</ele>
        <time>2017-08-19T09:15:35Z</time>
      </trkpt>
      <trkpt lat="45.87085" lon="4.7434">
        <ele>219</ele>
        <time>2017-08-19T09:15:36Z</time>
      </trkpt>
      <trkpt lat="45.87083" lon="4.74332">
        <ele>219</ele>
        <time>2017-08-19T09:15:37Z</time>
      </trkpt>
      <trkpt lat="45.87083" lon="4.74325">
        <ele>219</ele>
        <time>2017-08-19T09:15:38Z</time>
      </trkpt>
      <trkpt lat="45.87081" lon="4.74317">
        <ele>218</ele>
        <time>2017-08-19T09:15:39Z</time>
      </trkpt>
      <trkpt lat="45.87081" lon="4.74309">
        <ele>218</ele>
        <time>2017-08-19T09:15:40Z</time>
      </trkpt>
      <trkpt lat="45.87081" lon="4.74302">
        <ele>218</ele>
        <time>2017-08-19T09:15:41Z</time>
      </trkpt>
      <trkpt lat="45.8708" lon="4.74294">
        <ele>217</ele>
        <time>2017-08-19T09:15:42Z</time>
      </trkpt>
      <trkpt lat="45.87079" lon="4.74286">
        <ele>217</ele>
        <time>2017-08-19T09:15:43Z</time>
      </trkpt>
      <trkpt lat="45.87079" lon="4.74278">
        <ele>217</ele>
        <time>2017-08-19T09:15:44Z</time>
      </trkpt>
      <trkpt lat="45.87078" lon="4.7427">
        <ele>216</ele>
        <time>2017-08-19T09:15:45Z</time>
      </trkpt>
      <trkpt lat="45.87077" lon="4.74262">
        <ele>216</ele>
        <time>2017-08-19T09:15:46Z</time>
      </trkpt>
      <trkpt lat="45.87076" lon="4.74253">
        <ele>215</ele>
        <time>2017-08-19T09:15:47Z</time>
      </trkpt>
      <trkpt lat="45.87075" lon="4.74245">
        <ele>214</ele>
        <time>2017-08-19T09:15:48Z</time>
      </trkpt>
      <trkpt lat="45.87075" lon="4.74237">
        <ele>214</ele>
        <time>2017-08-19T09:15:49Z</time>
      </trkpt>
      <trkpt lat="45.87075" lon="4.74228">
        <ele>214</ele>
        <time>2017-08-19T09:15:50Z</time>
      </trkpt>
      <trkpt lat="45.87075" lon="4.74219">
        <ele>214</ele>
        <time>2017-08-19T09:15:51Z</time>
      </trkpt>
      <trkpt lat="45.87076" lon="4.7421">
        <ele>214</ele>
        <time>2017-08-19T09:15:52Z</time>
      </trkpt>
      <trkpt lat="45.87076" lon="4.74201">
        <ele>213</ele>
        <time>2017-08-19T09:15:53Z</time>
      </trkpt>
      <trkpt lat="45.87076" lon="4.74191">
        <ele>213</ele>
        <time>2017-08-19T09:15:54Z</time>
      </trkpt>
      <trkpt lat="45.87076" lon="4.74181">
        <ele>212</ele>
        <time>2017-08-19T09:15:55Z</time>
      </trkpt>
      <trkpt lat="45.87076" lon="4.74172">
        <ele>212</ele>
        <time>2017-08-19T09:15:56Z</time>
      </trkpt>
      <trkpt lat="45.87076" lon="4.74163">
        <ele>211</ele>
        <time>2017-08-19T09:15:57Z</time>
      </trkpt>
      <trkpt lat="45.87077" lon="4.74154">
        <ele>212</ele>
        <time>2017-08-19T09:15:58Z</time>
      </trkpt>
      <trkpt lat="45.87077" lon="4.74147">
        <ele>212</ele>
        <time>2017-08-19T09:15:59Z</time>
      </trkpt>
      <trkpt lat="45.87077" lon="4.74139">
        <ele>212</ele>
        <time>2017-08-19T09:16:00Z</time>
      </trkpt>
      <trkpt lat="45.87077" lon="4.74131">
        <ele>212</ele>
        <time>2017-08-19T09:16:01Z</time>
      </trkpt>
      <trkpt lat="45.87076" lon="4.74123">
        <ele>212</ele>
        <time>2017-08-19T09:16:02Z</time>
      </trkpt>
      <trkpt lat="45.87075" lon="4.74115">
        <ele>212</ele>
        <time>2017-08-19T09:16:03Z</time>
      </trkpt>
      <trkpt lat="45.87075" lon="4.74106">
        <ele>212</ele>
        <time>2017-08-19T09:16:04Z</time>
      </trkpt>
      <trkpt lat="45.87075" lon="4.74098">
        <ele>212</ele>
        <time>2017-08-19T09:16:05Z</time>
      </trkpt>
      <trkpt lat="45.87075" lon="4.7409">
        <ele>212</ele>
        <time>2017-08-19T09:16:06Z</time>
      </trkpt>
      <trkpt lat="45.87074" lon="4.74081">
        <ele>213</ele>
        <time>2017-08-19T09:16:07Z</time>
      </trkpt>
      <trkpt lat="45.87074" lon="4.74073">
        <ele>213</ele>
        <time>2017-08-19T09:16:08Z</time>
      </trkpt>
      <trkpt lat="45.87073" lon="4.74064">
        <ele>214</ele>
        <time>2017-08-19T09:16:09Z</time>
      </trkpt>
      <trkpt lat="45.87073" lon="4.74056">
        <ele>214</ele>
        <time>2017-08-19T09:16:10Z</time>
      </trkpt>
      <trkpt lat="45.87073" lon="4.74047">
        <ele>214</ele>
        <time>2017-08-19T09:16:11Z</time>
      </trkpt>
      <trkpt lat="45.87073" lon="4.74038">
        <ele>215</ele>
        <time>2017-08-19T09:16:12Z</time>
      </trkpt>
      <trkpt lat="45.87073" lon="4.7403">
        <ele>215</ele>
        <time>2017-08-19T09:16:13Z</time>
      </trkpt>
      <trkpt lat="45.87074" lon="4.74021">
        <ele>215</ele>
        <time>2017-08-19T09:16:14Z</time>
      </trkpt>
      <trkpt lat="45.87074" lon="4.74013">
        <ele>216</ele>
        <time>2017-08-19T09:16:15Z</time>
      </trkpt>
      <trkpt lat="45.87074" lon="4.74005">
        <ele>216</ele>
        <time>2017-08-19T09:16:16Z</time>
      </trkpt>
      <trkpt lat="45.87074" lon="4.73998">
        <ele>217</ele>
        <time>2017-08-19T09:16:17Z</time>
      </trkpt>
      <trkpt lat="45.87074" lon="4.7399">
        <ele>217</ele>
        <time>2017-08-19T09:16:18Z</time>
      </trkpt>
      <trkpt lat="45.87075" lon="4.73982">
        <ele>217</ele>
        <time>2017-08-19T09:16:19Z</time>
      </trkpt>
      <trkpt lat="45.87075" lon="4.73974">
        <ele>217</ele>
        <time>2017-08-19T09:16:20Z</time>
      </trkpt>
      <trkpt lat="45.87075" lon="4.73966">
        <ele>217</ele>
        <time>2017-08-19T09:16:21Z</time>
      </trkpt>
      <trkpt lat="45.87075" lon="4.73959">
        <ele>217</ele>
        <time>2017-08-19T09:16:22Z</time>
      </trkpt>
      <trkpt lat="45.87075" lon="4.73952">
        <ele>218</ele>
        <time>2017-08-19T09:16:23Z</time>
      </trkpt>
      <trkpt lat="45.87074" lon="4.73944">
        <ele>218</ele>
        <time>2017-08-19T09:16:24Z</time>
      </trkpt>
      <trkpt lat="45.87074" lon="4.73937">
        <ele>218</ele>
        <time>2017-08-19T09:16:25Z</time>
      </trkpt>
      <trkpt lat="45.87074" lon="4.7393">
        <ele>218</ele>
        <time>2017-08-19T09:16:26Z</time>
      </trkpt>
      <trkpt lat="45.87073" lon="4.73923">
        <ele>218</ele>
        <time>2017-08-19T09:16:27Z</time>
      </trkpt>
      <trkpt lat="45.87073" lon="4.73915">
        <ele>218</ele>
        <time>2017-08-19T09:16:28Z</time>
      </trkpt>
      <trkpt lat="45.87073" lon="4.73907">
        <ele>218</ele>
        <time>2017-08-19T09:16:29Z</time>
      </trkpt>
      <trkpt lat="45.87073" lon="4.73899">
        <ele>218</ele>
        <time>2017-08-19T09:16:30Z</time>
      </trkpt>
      <trkpt lat="45.87073" lon="4.73891">
        <ele>218</ele>
        <time>2017-08-19T09:16:31Z</time>
      </trkpt>
      <trkpt lat="45.87073" lon="4.73882">
        <ele>218</ele>
        <time>2017-08-19T09:16:32Z</time>
      </trkpt>
      <trkpt lat="45.87073" lon="4.73873">
        <ele>218</ele>
        <time>2017-08-19T09:16:33Z</time>
      </trkpt>
      <trkpt lat="45.87073" lon="4.73865">
        <ele>218</ele>
        <time>2017-08-19T09:16:34Z</time>
      </trkpt>
      <trkpt lat="45.87072" lon="4.73857">
        <ele>218</ele>
        <time>2017-08-19T09:16:35Z</time>
      </trkpt>
      <trkpt lat="45.87072" lon="4.73848">
        <ele>218</ele>
        <time>2017-08-19T09:16:36Z</time>
      </trkpt>
      <trkpt lat="45.87072" lon="4.7384">
        <ele>218</ele>
        <time>2017-08-19T09:16:37Z</time>
      </trkpt>
      <trkpt lat="45.87072" lon="4.73831">
        <ele>217</ele>
        <time>2017-08-19T09:16:38Z</time>
      </trkpt>
      <trkpt lat="45.87073" lon="4.73823">
        <ele>217</ele>
        <time>2017-08-19T09:16:39Z</time>
      </trkpt>
      <trkpt lat="45.87074" lon="4.73814">
        <ele>217</ele>
        <time>2017-08-19T09:16:40Z</time>
      </trkpt>
      <trkpt lat="45.87074" lon="4.73805">
        <ele>217</ele>
        <time>2017-08-19T09:16:41Z</time>
      </trkpt>
      <trkpt lat="45.87074" lon="4.73797">
        <ele>217</ele>
        <time>2017-08-19T09:16:42Z</time>
      </trkpt>
      <trkpt lat="45.87074" lon="4.73788">
        <ele>217</ele>
        <time>2017-08-19T09:16:43Z</time>
      </trkpt>
      <trkpt lat="45.87074" lon="4.73779">
        <ele>217</ele>
        <time>2017-08-19T09:16:44Z</time>
      </trkpt>
      <trkpt lat="45.87075" lon="4.73771">
        <ele>217</ele>
        <time>2017-08-19T09:16:45Z</time>
      </trkpt>
      <trkpt lat="45.87075" lon="4.73763">
        <ele>216</ele>
        <time>2017-08-19T09:16:46Z</time>
      </trkpt>
      <trkpt lat="45.87076" lon="4.73754">
        <ele>216</ele>
        <time>2017-08-19T09:16:47Z</time>
      </trkpt>
      <trkpt lat="45.87076" lon="4.73746">
        <ele>216</ele>
        <time>2017-08-19T09:16:48Z</time>
      </trkpt>
      <trkpt lat="45.87077" lon="4.73738">
        <ele>216</ele>
        <time>2017-08-19T09:16:49Z</time>
      </trkpt>
      <trkpt lat="45.87078" lon="4.7373">
        <ele>216</ele>
        <time>2017-08-19T09:16:50Z</time>
      </trkpt>
      <trkpt lat="45.87079" lon="4.73722">
        <ele>217</ele>
        <time>2017-08-19T09:16:51Z</time>
      </trkpt>
      <trkpt lat="45.8708" lon="4.73715">
        <ele>217</ele>
        <time>2017-08-19T09:16:52Z</time>
      </trkpt>
      <trkpt lat="45.87081" lon="4.73707">
        <ele>217</ele>
        <time>2017-08-19T09:16:53Z</time>
      </trkpt>
      <trkpt lat="45.87082" lon="4.737">
        <ele>217</ele>
        <time>2017-08-19T09:16:54Z</time>
      </trkpt>
      <trkpt lat="45.87083" lon="4.73692">
        <ele>217</ele>
        <time>2017-08-19T09:16:55Z</time>
      </trkpt>
      <trkpt lat="45.87084" lon="4.73684">
        <ele>215</ele>
        <time>2017-08-19T09:16:56Z</time>
      </trkpt>
      <trkpt lat="45.87085" lon="4.73675">
        <ele>215</ele>
        <time>2017-08-19T09:16:57Z</time>
      </trkpt>
      <trkpt lat="45.87087" lon="4.73666">
        <ele>216</ele>
        <time>2017-08-19T09:16:58Z</time>
      </trkpt>
      <trkpt lat="45.87088" lon="4.73656">
        <ele>215</ele>
        <time>2017-08-19T09:16:59Z</time>
      </trkpt>
      <trkpt lat="45.87089" lon="4.73647">
        <ele>214</ele>
        <time>2017-08-19T09:17:00Z</time>
      </trkpt>
      <trkpt lat="45.87091" lon="4.73637">
        <ele>214</ele>
        <time>2017-08-19T09:17:01Z</time>
      </trkpt>
      <trkpt lat="45.87092" lon="4.73627">
        <ele>214</ele>
        <time>2017-08-19T09:17:02Z</time>
      </trkpt>
      <trkpt lat="45.87093" lon="4.73618">
        <ele>214</ele>
        <time>2017-08-19T09:17:03Z</time>
      </trkpt>
      <trkpt lat="45.87094" lon="4.73608">
        <ele>214</ele>
        <time>2017-08-19T09:17:04Z</time>
      </trkpt>
      <trkpt lat="45.87095" lon="4.73598">
        <ele>214</ele>
        <time>2017-08-19T09:17:05Z</time>
      </trkpt>
      <trkpt lat="45.87096" lon="4.73589">
        <ele>214</ele>
        <time>2017-08-19T09:17:06Z</time>
      </trkpt>
      <trkpt lat="45.87096" lon="4.73579">
        <ele>214</ele>
        <time>2017-08-19T09:17:07Z</time>
      </trkpt>
      <trkpt lat="45.87097" lon="4.7357">
        <ele>213</ele>
        <time>2017-08-19T09:17:08Z</time>
      </trkpt>
      <trkpt lat="45.87097" lon="4.7356">
        <ele>213</ele>
        <time>2017-08-19T09:17:09Z</time>
      </trkpt>
      <trkpt lat="45.87098" lon="4.73551">
        <ele>213</ele>
        <time>2017-08-19T09:17:10Z</time>
      </trkpt>
      <trkpt lat="45.87099" lon="4.73542">
        <ele>213</ele>
        <time>2017-08-19T09:17:11Z</time>
      </trkpt>
      <trkpt lat="45.87099" lon="4.73533">
        <ele>213</ele>
        <time>2017-08-19T09:17:12Z</time>
      </trkpt>
      <trkpt lat="45.87099" lon="4.73524">
        <ele>213</ele>
        <time>2017-08-19T09:17:13Z</time>
      </trkpt>
      <trkpt lat="45.87099" lon="4.73515">
        <ele>213</ele>
        <time>2017-08-19T09:17:14Z</time>
      </trkpt>
      <trkpt lat="45.871" lon="4.73506">
        <ele>213</ele>
        <time>2017-08-19T09:17:15Z</time>
      </trkpt>
      <trkpt lat="45.871" lon="4.73497">
        <ele>213</ele>
        <time>2017-08-19T09:17:16Z</time>
      </trkpt>
      <trkpt lat="45.871" lon="4.73488">
        <ele>213</ele>
        <time>2017-08-19T09:17:17Z</time>
      </trkpt>
      <trkpt lat="45.87101" lon="4.7348">
        <ele>212</ele>
        <time>2017-08-19T09:17:18Z</time>
      </trkpt>
      <trkpt lat="45.87102" lon="4.73471">
        <ele>212</ele>
        <time>2017-08-19T09:17:19Z</time>
      </trkpt>
      <trkpt lat="45.87102" lon="4.73462">
        <ele>212</ele>
        <time>2017-08-19T09:17:20Z</time>
      </trkpt>
      <trkpt lat="45.87102" lon="4.73453">
        <ele>212</ele>
        <time>2017-08-19T09:17:21Z</time>
      </trkpt>
      <trkpt lat="45.87103" lon="4.73445">
        <ele>212</ele>
        <time>2017-08-19T09:17:22Z</time>
      </trkpt>
      <trkpt lat="45.87104" lon="4.73436">
        <ele>212</ele>
        <time>2017-08-19T09:17:23Z</time>
      </trkpt>
      <trkpt lat="45.87104" lon="4.73428">
        <ele>212</ele>
        <time>2017-08-19T09:17:24Z</time>
      </trkpt>
      <trkpt lat="45.87104" lon="4.73419">
        <ele>212</ele>
        <time>2017-08-19T09:17:25Z</time>
      </trkpt>
      <trkpt lat="45.87105" lon="4.7341">
        <ele>212</ele>
        <time>2017-08-19T09:17:26Z</time>
      </trkpt>
      <trkpt lat="45.87105" lon="4.73402">
        <ele>212</ele>
        <time>2017-08-19T09:17:27Z</time>
      </trkpt>
      <trkpt lat="45.87106" lon="4.73393">
        <ele>211</ele>
        <time>2017-08-19T09:17:28Z</time>
      </trkpt>
      <trkpt lat="45.87107" lon="4.73385">
        <ele>211</ele>
        <time>2017-08-19T09:17:29Z</time>
      </trkpt>
      <trkpt lat="45.87108" lon="4.73376">
        <ele>211</ele>
        <time>2017-08-19T09:17:30Z</time>
      </trkpt>
      <trkpt lat="45.87109" lon="4.73368">
        <ele>211</ele>
        <time>2017-08-19T09:17:31Z</time>
      </trkpt>
      <trkpt lat="45.87109" lon="4.73359">
        <ele>211</ele>
        <time>2017-08-19T09:17:32Z</time>
      </trkpt>
      <trkpt lat="45.8711" lon="4.7335">
        <ele>211</ele>
        <time>2017-08-19T09:17:33Z</time>
      </trkpt>
      <trkpt lat="45.87111" lon="4.73341">
        <ele>210</ele>
        <time>2017-08-19T09:17:34Z</time>
      </trkpt>
      <trkpt lat="45.87112" lon="4.73333">
        <ele>209</ele>
        <time>2017-08-19T09:17:35Z</time>
      </trkpt>
      <trkpt lat="45.87114" lon="4.73324">
        <ele>209</ele>
        <time>2017-08-19T09:17:36Z</time>
      </trkpt>
      <trkpt lat="45.87115" lon="4.73316">
        <ele>209</ele>
        <time>2017-08-19T09:17:37Z</time>
      </trkpt>
      <trkpt lat="45.87116" lon="4.73307">
        <ele>209</ele>
        <time>2017-08-19T09:17:38Z</time>
      </trkpt>
      <trkpt lat="45.87118" lon="4.73298">
        <ele>208</ele>
        <time>2017-08-19T09:17:39Z</time>
      </trkpt>
      <trkpt lat="45.87119" lon="4.73289">
        <ele>208</ele>
        <time>2017-08-19T09:17:40Z</time>
      </trkpt>
      <trkpt lat="45.87121" lon="4.7328">
        <ele>208</ele>
        <time>2017-08-19T09:17:41Z</time>
      </trkpt>
      <trkpt lat="45.87122" lon="4.73271">
        <ele>208</ele>
        <time>2017-08-19T09:17:42Z</time>
      </trkpt>
      <trkpt lat="45.87123" lon="4.73262">
        <ele>208</ele>
        <time>2017-08-19T09:17:43Z</time>
      </trkpt>
      <trkpt lat="45.87126" lon="4.73253">
        <ele>208</ele>
        <time>2017-08-19T09:17:44Z</time>
      </trkpt>
      <trkpt lat="45.87128" lon="4.73244">
        <ele>206</ele>
        <time>2017-08-19T09:17:45Z</time>
      </trkpt>
      <trkpt lat="45.87132" lon="4.73235">
        <ele>206</ele>
        <time>2017-08-19T09:17:46Z</time>
      </trkpt>
      <trkpt lat="45.87135" lon="4.73226">
        <ele>206</ele>
        <time>2017-08-19T09:17:47Z</time>
      </trkpt>
      <trkpt lat="45.87138" lon="4.73217">
        <ele>206</ele>
        <time>2017-08-19T09:17:48Z</time>
      </trkpt>
      <trkpt lat="45.87141" lon="4.73208">
        <ele>206</ele>
        <time>2017-08-19T09:17:49Z</time>
      </trkpt>
      <trkpt lat="45.87144" lon="4.732">
        <ele>205</ele>
        <time>2017-08-19T09:17:50Z</time>
      </trkpt>
      <trkpt lat="45.87147" lon="4.73192">
        <ele>205</ele>
        <time>2017-08-19T09:17:51Z</time>
      </trkpt>
      <trkpt lat="45.8715" lon="4.73183">
        <ele>205</ele>
        <time>2017-08-19T09:17:52Z</time>
      </trkpt>
      <trkpt lat="45.87154" lon="4.73174">
        <ele>204</ele>
        <time>2017-08-19T09:17:53Z</time>
      </trkpt>
      <trkpt lat="45.87158" lon="4.73166">
        <ele>204</ele>
        <time>2017-08-19T09:17:54Z</time>
      </trkpt>
      <trkpt lat="45.87161" lon="4.73156">
        <ele>204</ele>
        <time>2017-08-19T09:17:55Z</time>
      </trkpt>
      <trkpt lat="45.87164" lon="4.73146">
        <ele>204</ele>
        <time>2017-08-19T09:17:56Z</time>
      </trkpt>
      <trkpt lat="45.87166" lon="4.73136">
        <ele>204</ele>
        <time>2017-08-19T09:17:57Z</time>
      </trkpt>
      <trkpt lat="45.87168" lon="4.73125">
        <ele>202</ele>
        <time>2017-08-19T09:17:58Z</time>
      </trkpt>
      <trkpt lat="45.87168" lon="4.73114">
        <ele>202</ele>
        <time>2017-08-19T09:17:59Z</time>
      </trkpt>
      <trkpt lat="45.87169" lon="4.73102">
        <ele>202</ele>
        <time>2017-08-19T09:18:00Z</time>
      </trkpt>
      <trkpt lat="45.8717" lon="4.7309">
        <ele>202</ele>
        <time>2017-08-19T09:18:01Z</time>
      </trkpt>
      <trkpt lat="45.8717" lon="4.73079">
        <ele>202</ele>
        <time>2017-08-19T09:18:02Z</time>
      </trkpt>
      <trkpt lat="45.8717" lon="4.73067">
        <ele>202</ele>
        <time>2017-08-19T09:18:03Z</time>
      </trkpt>
      <trkpt lat="45.87171" lon="4.73055">
        <ele>201</ele>
        <time>2017-08-19T09:18:04Z</time>
      </trkpt>
      <trkpt lat="45.87171" lon="4.73043">
        <ele>201</ele>
        <time>2017-08-19T09:18:05Z</time>
      </trkpt>
      <trkpt lat="45.87171" lon="4.73032">
        <ele>201</ele>
        <time>2017-08-19T09:18:06Z</time>
      </trkpt>
      <trkpt lat="45.87172" lon="4.7302">
        <ele>202</ele>
        <time>2017-08-19T09:18:07Z</time>
      </trkpt>
      <trkpt lat="45.87172" lon="4.73009">
        <ele>203</ele>
        <time>2017-08-19T09:18:08Z</time>
      </trkpt>
      <trkpt lat="45.87172" lon="4.72998">
        <ele>203</ele>
        <time>2017-08-19T09:18:09Z</time>
      </trkpt>
      <trkpt lat="45.87172" lon="4.72987">
        <ele>202</ele>
        <time>2017-08-19T09:18:10Z</time>
      </trkpt>
      <trkpt lat="45.87173" lon="4.72976">
        <ele>202</ele>
        <time>2017-08-19T09:18:11Z</time>
      </trkpt>
      <trkpt lat="45.87173" lon="4.72966">
        <ele>201</ele>
        <time>2017-08-19T09:18:12Z</time>
      </trkpt>
      <trkpt lat="45.87173" lon="4.72956">
        <ele>201</ele>
        <time>2017-08-19T09:18:13Z</time>
      </trkpt>
      <trkpt lat="45.87173" lon="4.72946">
        <ele>202</ele>
        <time>2017-08-19T09:18:14Z</time>
      </trkpt>
      <trkpt lat="45.87173" lon="4.72936">
        <ele>202</ele>
        <time>2017-08-19T09:18:15Z</time>
      </trkpt>
      <trkpt lat="45.87173" lon="4.72926">
        <ele>203</ele>
        <time>2017-08-19T09:18:16Z</time>
      </trkpt>
      <trkpt lat="45.87173" lon="4.72916">
        <ele>203</ele>
        <time>2017-08-19T09:18:17Z</time>
      </trkpt>
      <trkpt lat="45.87174" lon="4.72906">
        <ele>202</ele>
        <time>2017-08-19T09:18:18Z</time>
      </trkpt>
      <trkpt lat="45.87174" lon="4.72896">
        <ele>201</ele>
        <time>2017-08-19T09:18:19Z</time>
      </trkpt>
      <trkpt lat="45.87174" lon="4.72885">
        <ele>201</ele>
        <time>2017-08-19T09:18:20Z</time>
      </trkpt>
      <trkpt lat="45.87174" lon="4.72875">
        <ele>200</ele>
        <time>2017-08-19T09:18:21Z</time>
      </trkpt>
      <trkpt lat="45.87174" lon="4.72864">
        <ele>200</ele>
        <time>2017-08-19T09:18:22Z</time>
      </trkpt>
      <trkpt lat="45.87174" lon="4.72853">
        <ele>200</ele>
        <time>2017-08-19T09:18:23Z</time>
      </trkpt>
      <trkpt lat="45.87174" lon="4.72842">
        <ele>201</ele>
        <time>2017-08-19T09:18:24Z</time>
      </trkpt>
      <trkpt lat="45.87174" lon="4.7283">
        <ele>201</ele>
        <time>2017-08-19T09:18:25Z</time>
      </trkpt>
      <trkpt lat="45.87175" lon="4.72819">
        <ele>200</ele>
        <time>2017-08-19T09:18:26Z</time>
      </trkpt>
      <trkpt lat="45.87174" lon="4.72807">
        <ele>199</ele>
        <time>2017-08-19T09:18:27Z</time>
      </trkpt>
      <trkpt lat="45.87173" lon="4.72795">
        <ele>199</ele>
        <time>2017-08-19T09:18:28Z</time>
      </trkpt>
      <trkpt lat="45.87173" lon="4.72783">
        <ele>199</ele>
        <time>2017-08-19T09:18:29Z</time>
      </trkpt>
      <trkpt lat="45.87172" lon="4.7277">
        <ele>200</ele>
        <time>2017-08-19T09:18:30Z</time>
      </trkpt>
      <trkpt lat="45.87172" lon="4.72759">
        <ele>200</ele>
        <time>2017-08-19T09:18:31Z</time>
      </trkpt>
      <trkpt lat="45.87174" lon="4.72747">
        <ele>200</ele>
        <time>2017-08-19T09:18:32Z</time>
      </trkpt>
      <trkpt lat="45.87176" lon="4.72735">
        <ele>200</ele>
        <time>2017-08-19T09:18:33Z</time>
      </trkpt>
      <trkpt lat="45.87178" lon="4.72723">
        <ele>199</ele>
        <time>2017-08-19T09:18:34Z</time>
      </trkpt>
      <trkpt lat="45.87181" lon="4.72712">
        <ele>199</ele>
        <time>2017-08-19T09:18:35Z</time>
      </trkpt>
      <trkpt lat="45.87183" lon="4.727">
        <ele>199</ele>
        <time>2017-08-19T09:18:36Z</time>
      </trkpt>
      <trkpt lat="45.87185" lon="4.72688">
        <ele>199</ele>
        <time>2017-08-19T09:18:37Z</time>
      </trkpt>
      <trkpt lat="45.87188" lon="4.72677">
        <ele>199</ele>
        <time>2017-08-19T09:18:38Z</time>
      </trkpt>
      <trkpt lat="45.87191" lon="4.72666">
        <ele>199</ele>
        <time>2017-08-19T09:18:39Z</time>
      </trkpt>
      <trkpt lat="45.87193" lon="4.72655">
        <ele>199</ele>
        <time>2017-08-19T09:18:40Z</time>
      </trkpt>
      <trkpt lat="45.87195" lon="4.72644">
        <ele>199</ele>
        <time>2017-08-19T09:18:41Z</time>
      </trkpt>
      <trkpt lat="45.87198" lon="4.72633">
        <ele>199</ele>
        <time>2017-08-19T09:18:42Z</time>
      </trkpt>
      <trkpt lat="45.872" lon="4.72622">
        <ele>199</ele>
        <time>2017-08-19T09:18:43Z</time>
      </trkpt>
      <trkpt lat="45.87203" lon="4.72611">
        <ele>199</ele>
        <time>2017-08-19T09:18:44Z</time>
      </trkpt>
      <trkpt lat="45.87206" lon="4.72599">
        <ele>199</ele>
        <time>2017-08-19T09:18:45Z</time>
      </trkpt>
      <trkpt lat="45.87208" lon="4.72588">
        <ele>199</ele>
        <time>2017-08-19T09:18:46Z</time>
      </trkpt>
      <trkpt lat="45.8721" lon="4.72575">
        <ele>199</ele>
        <time>2017-08-19T09:18:47Z</time>
      </trkpt>
      <trkpt lat="45.8721" lon="4.72563">
        <ele>198</ele>
        <time>2017-08-19T09:18:48Z</time>
      </trkpt>
      <trkpt lat="45.8721" lon="4.72551">
        <ele>198</ele>
        <time>2017-08-19T09:18:49Z</time>
      </trkpt>
      <trkpt lat="45.8721" lon="4.72539">
        <ele>198</ele>
        <time>2017-08-19T09:18:50Z</time>
      </trkpt>
      <trkpt lat="45.87209" lon="4.72527">
        <ele>198</ele>
        <time>2017-08-19T09:18:51Z</time>
      </trkpt>
      <trkpt lat="45.87208" lon="4.72515">
        <ele>198</ele>
        <time>2017-08-19T09:18:52Z</time>
      </trkpt>
      <trkpt lat="45.87206" lon="4.72503">
        <ele>198</ele>
        <time>2017-08-19T09:18:53Z</time>
      </trkpt>
      <trkpt lat="45.87204" lon="4.72492">
        <ele>195</ele>
        <time>2017-08-19T09:18:54Z</time>
      </trkpt>
      <trkpt lat="45.87201" lon="4.72481">
        <ele>195</ele>
        <time>2017-08-19T09:18:55Z</time>
      </trkpt>
      <trkpt lat="45.87198" lon="4.72471">
        <ele>195</ele>
        <time>2017-08-19T09:18:56Z</time>
      </trkpt>
      <trkpt lat="45.87194" lon="4.7246">
        <ele>195</ele>
        <time>2017-08-19T09:18:57Z</time>
      </trkpt>
      <trkpt lat="45.8719" lon="4.7245">
        <ele>194</ele>
        <time>2017-08-19T09:18:58Z</time>
      </trkpt>
      <trkpt lat="45.87186" lon="4.7244">
        <ele>194</ele>
        <time>2017-08-19T09:18:59Z</time>
      </trkpt>
      <trkpt lat="45.87181" lon="4.72431">
        <ele>194</ele>
        <time>2017-08-19T09:19:00Z</time>
      </trkpt>
      <trkpt lat="45.87177" lon="4.72421">
        <ele>194</ele>
        <time>2017-08-19T09:19:01Z</time>
      </trkpt>
      <trkpt lat="45.87173" lon="4.72412">
        <ele>193</ele>
        <time>2017-08-19T09:19:02Z</time>
      </trkpt>
      <trkpt lat="45.87169" lon="4.72404">
        <ele>192</ele>
        <time>2017-08-19T09:19:03Z</time>
      </trkpt>
      <trkpt lat="45.87164" lon="4.72395">
        <ele>197</ele>
        <time>2017-08-19T09:19:04Z</time>
      </trkpt>
      <trkpt lat="45.8716" lon="4.72386">
        <ele>197</ele>
        <time>2017-08-19T09:19:05Z</time>
      </trkpt>
      <trkpt lat="45.87157" lon="4.72377">
        <ele>197</ele>
        <time>2017-08-19T09:19:06Z</time>
      </trkpt>
      <trkpt lat="45.87154" lon="4.72369">
        <ele>197</ele>
        <time>2017-08-19T09:19:07Z</time>
      </trkpt>
      <trkpt lat="45.8715" lon="4.72361">
        <ele>197</ele>
        <time>2017-08-19T09:19:08Z</time>
      </trkpt>
      <trkpt lat="45.87147" lon="4.72353">
        <ele>196</ele>
        <time>2017-08-19T09:19:09Z</time>
      </trkpt>
      <trkpt lat="45.87144" lon="4.72345">
        <ele>196</ele>
        <time>2017-08-19T09:19:10Z</time>
      </trkpt>
      <trkpt lat="45.87141" lon="4.72338">
        <ele>196</ele>
        <time>2017-08-19T09:19:11Z</time>
      </trkpt>
      <trkpt lat="45.87137" lon="4.72331">
        <ele>195</ele>
        <time>2017-08-19T09:19:12Z</time>
      </trkpt>
      <trkpt lat="45.87134" lon="4.72323">
        <ele>195</ele>
        <time>2017-08-19T09:19:13Z</time>
      </trkpt>
      <trkpt lat="45.87131" lon="4.72316">
        <ele>196</ele>
        <time>2017-08-19T09:19:14Z</time>
      </trkpt>
      <trkpt lat="45.87127" lon="4.72309">
        <ele>196</ele>
        <time>2017-08-19T09:19:15Z</time>
      </trkpt>
      <trkpt lat="45.87123" lon="4.72303">
        <ele>196</ele>
        <time>2017-08-19T09:19:16Z</time>
      </trkpt>
      <trkpt lat="45.87119" lon="4.72296">
        <ele>197</ele>
        <time>2017-08-19T09:19:17Z</time>
      </trkpt>
      <trkpt lat="45.87115" lon="4.72289">
        <ele>197</ele>
        <time>2017-08-19T09:19:18Z</time>
      </trkpt>
      <trkpt lat="45.8711" lon="4.72283">
        <ele>197</ele>
        <time>2017-08-19T09:19:19Z</time>
      </trkpt>
      <trkpt lat="45.87105" lon="4.72276">
        <ele>197</ele>
        <time>2017-08-19T09:19:20Z</time>
      </trkpt>
      <trkpt lat="45.871" lon="4.72269">
        <ele>197</ele>
        <time>2017-08-19T09:19:21Z</time>
      </trkpt>
      <trkpt lat="45.87094" lon="4.72262">
        <ele>198</ele>
        <time>2017-08-19T09:19:22Z</time>
      </trkpt>
      <trkpt lat="45.87088" lon="4.72256">
        <ele>198</ele>
        <time>2017-08-19T09:19:23Z</time>
      </trkpt>
      <trkpt lat="45.87082" lon="4.72249">
        <ele>199</ele>
        <time>2017-08-19T09:19:24Z</time>
      </trkpt>
      <trkpt lat="45.87076" lon="4.72242">
        <ele>200</ele>
        <time>2017-08-19T09:19:25Z</time>
      </trkpt>
      <trkpt lat="45.8707" lon="4.72236">
        <ele>200</ele>
        <time>2017-08-19T09:19:26Z</time>
      </trkpt>
      <trkpt lat="45.87064" lon="4.72229">
        <ele>200</ele>
        <time>2017-08-19T09:19:27Z</time>
      </trkpt>
      <trkpt lat="45.87058" lon="4.72224">
        <ele>200</ele>
        <time>2017-08-19T09:19:28Z</time>
      </trkpt>
      <trkpt lat="45.87052" lon="4.72219">
        <ele>201</ele>
        <time>2017-08-19T09:19:29Z</time>
      </trkpt>
      <trkpt lat="45.87046" lon="4.72215">
        <ele>201</ele>
        <time>2017-08-19T09:19:30Z</time>
      </trkpt>
      <trkpt lat="45.8704" lon="4.72211">
        <ele>201</ele>
        <time>2017-08-19T09:19:31Z</time>
      </trkpt>
      <trkpt lat="45.87035" lon="4.72206">
        <ele>201</ele>
        <time>2017-08-19T09:19:32Z</time>
      </trkpt>
      <trkpt lat="45.87029" lon="4.72202">
        <ele>201</ele>
        <time>2017-08-19T09:19:33Z</time>
      </trkpt>
      <trkpt lat="45.87024" lon="4.72198">
        <ele>201</ele>
        <time>2017-08-19T09:19:34Z</time>
      </trkpt>
      <trkpt lat="45.87019" lon="4.72194">
        <ele>201</ele>
        <time>2017-08-19T09:19:35Z</time>
      </trkpt>
      <trkpt lat="45.87013" lon="4.7219">
        <ele>201</ele>
        <time>2017-08-19T09:19:36Z</time>
      </trkpt>
      <trkpt lat="45.87009" lon="4.72186">
        <ele>201</ele>
        <time>2017-08-19T09:19:37Z</time>
      </trkpt>
      <trkpt lat="45.87004" lon="4.72183">
        <ele>201</ele>
        <time>2017-08-19T09:19:38Z</time>
      </trkpt>
      <trkpt lat="45.86999" lon="4.7218">
        <ele>206</ele>
        <time>2017-08-19T09:19:39Z</time>
      </trkpt>
      <trkpt lat="45.86995" lon="4.72176">
        <ele>205</ele>
        <time>2017-08-19T09:19:40Z</time>
      </trkpt>
      <trkpt lat="45.8699" lon="4.72173">
        <ele>205</ele>
        <time>2017-08-19T09:19:41Z</time>
      </trkpt>
      <trkpt lat="45.86984" lon="4.72169">
        <ele>207</ele>
        <time>2017-08-19T09:19:42Z</time>
      </trkpt>
      <trkpt lat="45.86978" lon="4.72165">
        <ele>201</ele>
        <time>2017-08-19T09:19:43Z</time>
      </trkpt>
      <trkpt lat="45.86972" lon="4.72161">
        <ele>201</ele>
        <time>2017-08-19T09:19:44Z</time>
      </trkpt>
      <trkpt lat="45.86966" lon="4.72157">
        <ele>201</ele>
        <time>2017-08-19T09:19:45Z</time>
      </trkpt>
      <trkpt lat="45.8696" lon="4.72153">
        <ele>201</ele>
        <time>2017-08-19T09:19:46Z</time>
      </trkpt>
      <trkpt lat="45.86954" lon="4.72149">
        <ele>201</ele>
        <time>2017-08-19T09:19:47Z</time>
      </trkpt>
      <trkpt lat="45.86947" lon="4.72145">
        <ele>202</ele>
        <time>2017-08-19T09:19:48Z</time>
      </trkpt>
      <trkpt lat="45.8694" lon="4.72141">
        <ele>202</ele>
        <time>2017-08-19T09:19:49Z</time>
      </trkpt>
      <trkpt lat="45.86933" lon="4.72137">
        <ele>202</ele>
        <time>2017-08-19T09:19:50Z</time>
      </trkpt>
      <trkpt lat="45.86926" lon="4.72133">
        <ele>201</ele>
        <time>2017-08-19T09:19:51Z</time>
      </trkpt>
      <trkpt lat="45.8692" lon="4.72131">
        <ele>201</ele>
        <time>2017-08-19T09:19:52Z</time>
      </trkpt>
      <trkpt lat="45.86913" lon="4.72128">
        <ele>203</ele>
        <time>2017-08-19T09:19:53Z</time>
      </trkpt>
      <trkpt lat="45.86906" lon="4.72125">
        <ele>202</ele>
        <time>2017-08-19T09:19:54Z</time>
      </trkpt>
      <trkpt lat="45.869" lon="4.72122">
        <ele>202</ele>
        <time>2017-08-19T09:19:55Z</time>
      </trkpt>
      <trkpt lat="45.86893" lon="4.72118">
        <ele>201</ele>
        <time>2017-08-19T09:19:56Z</time>
      </trkpt>
      <trkpt lat="45.86887" lon="4.72115">
        <ele>201</ele>
        <time>2017-08-19T09:19:57Z</time>
      </trkpt>
      <trkpt lat="45.8688" lon="4.72113">
        <ele>201</ele>
        <time>2017-08-19T09:19:58Z</time>
      </trkpt>
      <trkpt lat="45.86874" lon="4.7211">
        <ele>201</ele>
        <time>2017-08-19T09:19:59Z</time>
      </trkpt>
      <trkpt lat="45.86867" lon="4.72107">
        <ele>201</ele>
        <time>2017-08-19T09:20:00Z</time>
      </trkpt>
      <trkpt lat="45.86861" lon="4.72104">
        <ele>200</ele>
        <time>2017-08-19T09:20:01Z</time>
      </trkpt>
      <trkpt lat="45.86855" lon="4.72101">
        <ele>199</ele>
        <time>2017-08-19T09:20:02Z</time>
      </trkpt>
      <trkpt lat="45.86849" lon="4.72098">
        <ele>199</ele>
        <time>2017-08-19T09:20:03Z</time>
      </trkpt>
      <trkpt lat="45.86842" lon="4.72094">
        <ele>197</ele>
        <time>2017-08-19T09:20:04Z</time>
      </trkpt>
      <trkpt lat="45.86835" lon="4.72091">
        <ele>196</ele>
        <time>2017-08-19T09:20:05Z</time>
      </trkpt>
      <trkpt lat="45.86828" lon="4.72088">
        <ele>196</ele>
        <time>2017-08-19T09:20:06Z</time>
      </trkpt>
      <trkpt lat="45.86821" lon="4.72085">
        <ele>198</ele>
        <time>2017-08-19T09:20:07Z</time>
      </trkpt>
      <trkpt lat="45.86814" lon="4.72083">
        <ele>194</ele>
        <time>2017-08-19T09:20:08Z</time>
      </trkpt>
      <trkpt lat="45.86807" lon="4.7208">
        <ele>194</ele>
        <time>2017-08-19T09:20:09Z</time>
      </trkpt>
      <trkpt lat="45.86799" lon="4.72076">
        <ele>194</ele>
        <time>2017-08-19T09:20:10Z</time>
      </trkpt>
      <trkpt lat="45.86792" lon="4.72074">
        <ele>194</ele>
        <time>2017-08-19T09:20:11Z</time>
      </trkpt>
      <trkpt lat="45.86785" lon="4.72071">
        <ele>194</ele>
        <time>2017-08-19T09:20:12Z</time>
      </trkpt>
      <trkpt lat="45.86777" lon="4.72068">
        <ele>195</ele>
        <time>2017-08-19T09:20:13Z</time>
      </trkpt>
      <trkpt lat="45.8677" lon="4.72064">
        <ele>195</ele>
        <time>2017-08-19T09:20:14Z</time>
      </trkpt>
      <trkpt lat="45.86762" lon="4.72061">
        <ele>195</ele>
        <time>2017-08-19T09:20:15Z</time>
      </trkpt>
      <trkpt lat="45.86755" lon="4.72057">
        <ele>195</ele>
        <time>2017-08-19T09:20:16Z</time>
      </trkpt>
      <trkpt lat="45.86747" lon="4.72054">
        <ele>197</ele>
        <time>2017-08-19T09:20:17Z</time>
      </trkpt>
      <trkpt lat="45.8674" lon="4.72051">
        <ele>197</ele>
        <time>2017-08-19T09:20:18Z</time>
      </trkpt>
      <trkpt lat="45.86734" lon="4.72048">
        <ele>197</ele>
        <time>2017-08-19T09:20:19Z</time>
      </trkpt>
      <trkpt lat="45.86727" lon="4.72045">
        <ele>197</ele>
        <time>2017-08-19T09:20:20Z</time>
      </trkpt>
      <trkpt lat="45.86721" lon="4.72041">
        <ele>197</ele>
        <time>2017-08-19T09:20:21Z</time>
      </trkpt>
      <trkpt lat="45.86715" lon="4.72037">
        <ele>197</ele>
        <time>2017-08-19T09:20:22Z</time>
      </trkpt>
      <trkpt lat="45.8671" lon="4.72034">
        <ele>197</ele>
        <time>2017-08-19T09:20:23Z</time>
      </trkpt>
      <trkpt lat="45.86705" lon="4.7203">
        <ele>197</ele>
        <time>2017-08-19T09:20:24Z</time>
      </trkpt>
      <trkpt lat="45.86699" lon="4.72027">
        <ele>197</ele>
        <time>2017-08-19T09:20:25Z</time>
      </trkpt>
      <trkpt lat="45.86694" lon="4.72023">
        <ele>197</ele>
        <time>2017-08-19T09:20:26Z</time>
      </trkpt>
      <trkpt lat="45.86689" lon="4.72019">
        <ele>196</ele>
        <time>2017-08-19T09:20:27Z</time>
      </trkpt>
      <trkpt lat="45.86683" lon="4.72015">
        <ele>196</ele>
        <time>2017-08-19T09:20:28Z</time>
      </trkpt>
      <trkpt lat="45.86677" lon="4.7201">
        <ele>196</ele>
        <time>2017-08-19T09:20:29Z</time>
      </trkpt>
      <trkpt lat="45.86671" lon="4.72005">
        <ele>196</ele>
        <time>2017-08-19T09:20:30Z</time>
      </trkpt>
      <trkpt lat="45.86665" lon="4.72001">
        <ele>195</ele>
        <time>2017-08-19T09:20:31Z</time>
      </trkpt>
      <trkpt lat="45.8666" lon="4.71995">
        <ele>195</ele>
        <time>2017-08-19T09:20:32Z</time>
      </trkpt>
      <trkpt lat="45.86656" lon="4.71988">
        <ele>195</ele>
        <time>2017-08-19T09:20:33Z</time>
      </trkpt>
      <trkpt lat="45.86651" lon="4.71983">
        <ele>195</ele>
        <time>2017-08-19T09:20:34Z</time>
      </trkpt>
      <trkpt lat="45.86645" lon="4.71978">
        <ele>195</ele>
        <time>2017-08-19T09:20:35Z</time>
      </trkpt>
      <trkpt lat="45.86639" lon="4.71973">
        <ele>195</ele>
        <time>2017-08-19T09:20:36Z</time>
      </trkpt>
      <trkpt lat="45.86633" lon="4.71969">
        <ele>195</ele>
        <time>2017-08-19T09:20:37Z</time>
      </trkpt>
      <trkpt lat="45.86627" lon="4.71964">
        <ele>195</ele>
        <time>2017-08-19T09:20:38Z</time>
      </trkpt>
      <trkpt lat="45.8662" lon="4.71959">
        <ele>195</ele>
        <time>2017-08-19T09:20:39Z</time>
      </trkpt>
      <trkpt lat="45.86614" lon="4.71954">
        <ele>194</ele>
        <time>2017-08-19T09:20:40Z</time>
      </trkpt>
      <trkpt lat="45.86609" lon="4.71949">
        <ele>194</ele>
        <time>2017-08-19T09:20:41Z</time>
      </trkpt>
      <trkpt lat="45.86603" lon="4.71945">
        <ele>194</ele>
        <time>2017-08-19T09:20:42Z</time>
      </trkpt>
      <trkpt lat="45.86598" lon="4.71941">
        <ele>194</ele>
        <time>2017-08-19T09:20:43Z</time>
      </trkpt>
      <trkpt lat="45.86593" lon="4.71937">
        <ele>194</ele>
        <time>2017-08-19T09:20:44Z</time>
      </trkpt>
      <trkpt lat="45.86588" lon="4.71933">
        <ele>194</ele>
        <time>2017-08-19T09:20:45Z</time>
      </trkpt>
      <trkpt lat="45.86582" lon="4.71929">
        <ele>195</ele>
        <time>2017-08-19T09:20:46Z</time>
      </trkpt>
      <trkpt lat="45.86577" lon="4.71925">
        <ele>195</ele>
        <time>2017-08-19T09:20:47Z</time>
      </trkpt>
      <trkpt lat="45.86571" lon="4.71921">
        <ele>195</ele>
        <time>2017-08-19T09:20:48Z</time>
      </trkpt>
      <trkpt lat="45.86566" lon="4.71917">
        <ele>195</ele>
        <time>2017-08-19T09:20:49Z</time>
      </trkpt>
      <trkpt lat="45.86561" lon="4.71913">
        <ele>195</ele>
        <time>2017-08-19T09:20:50Z</time>
      </trkpt>
      <trkpt lat="45.86556" lon="4.71909">
        <ele>195</ele>
        <time>2017-08-19T09:20:51Z</time>
      </trkpt>
      <trkpt lat="45.86551" lon="4.71905">
        <ele>195</ele>
        <time>2017-08-19T09:20:52Z</time>
      </trkpt>
      <trkpt lat="45.86546" lon="4.71902">
        <ele>195</ele>
        <time>2017-08-19T09:20:53Z</time>
      </trkpt>
      <trkpt lat="45.86542" lon="4.71898">
        <ele>195</ele>
        <time>2017-08-19T09:20:54Z</time>
      </trkpt>
      <trkpt lat="45.86537" lon="4.71894">
        <ele>195</ele>
        <time>2017-08-19T09:20:55Z</time>
      </trkpt>
      <trkpt lat="45.86532" lon="4.71891">
        <ele>195</ele>
        <time>2017-08-19T09:20:56Z</time>
      </trkpt>
      <trkpt lat="45.86527" lon="4.71887">
        <ele>195</ele>
        <time>2017-08-19T09:20:57Z</time>
      </trkpt>
      <trkpt lat="45.86522" lon="4.71884">
        <ele>195</ele>
        <time>2017-08-19T09:20:58Z</time>
      </trkpt>
      <trkpt lat="45.86517" lon="4.7188">
        <ele>195</ele>
        <time>2017-08-19T09:20:59Z</time>
      </trkpt>
      <trkpt lat="45.86512" lon="4.71876">
        <ele>195</ele>
        <time>2017-08-19T09:21:00Z</time>
      </trkpt>
      <trkpt lat="45.86507" lon="4.71873">
        <ele>195</ele>
        <time>2017-08-19T09:21:01Z</time>
      </trkpt>
      <trkpt lat="45.86501" lon="4.71868">
        <ele>195</ele>
        <time>2017-08-19T09:21:02Z</time>
      </trkpt>
      <trkpt lat="45.86495" lon="4.71863">
        <ele>198</ele>
        <time>2017-08-19T09:21:03Z</time>
      </trkpt>
      <trkpt lat="45.86489" lon="4.71859">
        <ele>198</ele>
        <time>2017-08-19T09:21:04Z</time>
      </trkpt>
      <trkpt lat="45.86484" lon="4.71854">
        <ele>198</ele>
        <time>2017-08-19T09:21:05Z</time>
      </trkpt>
      <trkpt lat="45.86478" lon="4.7185">
        <ele>198</ele>
        <time>2017-08-19T09:21:06Z</time>
      </trkpt>
      <trkpt lat="45.86473" lon="4.71846">
        <ele>199</ele>
        <time>2017-08-19T09:21:07Z</time>
      </trkpt>
      <trkpt lat="45.86467" lon="4.71842">
        <ele>199</ele>
        <time>2017-08-19T09:21:08Z</time>
      </trkpt>
      <trkpt lat="45.86462" lon="4.71838">
        <ele>199</ele>
        <time>2017-08-19T09:21:09Z</time>
      </trkpt>
      <trkpt lat="45.86457" lon="4.71834">
        <ele>200</ele>
        <time>2017-08-19T09:21:10Z</time>
      </trkpt>
      <trkpt lat="45.86451" lon="4.7183">
        <ele>197</ele>
        <time>2017-08-19T09:21:11Z</time>
      </trkpt>
      <trkpt lat="45.86446" lon="4.71826">
        <ele>197</ele>
        <time>2017-08-19T09:21:12Z</time>
      </trkpt>
      <trkpt lat="45.86441" lon="4.71822">
        <ele>198</ele>
        <time>2017-08-19T09:21:13Z</time>
      </trkpt>
      <trkpt lat="45.86436" lon="4.71818">
        <ele>198</ele>
        <time>2017-08-19T09:21:14Z</time>
      </trkpt>
      <trkpt lat="45.86431" lon="4.71815">
        <ele>198</ele>
        <time>2017-08-19T09:21:15Z</time>
      </trkpt>
      <trkpt lat="45.86426" lon="4.71812">
        <ele>198</ele>
        <time>2017-08-19T09:21:16Z</time>
      </trkpt>
      <trkpt lat="45.86422" lon="4.71809">
        <ele>198</ele>
        <time>2017-08-19T09:21:17Z</time>
      </trkpt>
      <trkpt lat="45.86417" lon="4.71805">
        <ele>197</ele>
        <time>2017-08-19T09:21:18Z</time>
      </trkpt>
      <trkpt lat="45.86413" lon="4.71801">
        <ele>199</ele>
        <time>2017-08-19T09:21:19Z</time>
      </trkpt>
      <trkpt lat="45.86408" lon="4.71797">
        <ele>199</ele>
        <time>2017-08-19T09:21:20Z</time>
      </trkpt>
      <trkpt lat="45.86404" lon="4.71794">
        <ele>199</ele>
        <time>2017-08-19T09:21:21Z</time>
      </trkpt>
      <trkpt lat="45.86398" lon="4.7179">
        <ele>198</ele>
        <time>2017-08-19T09:21:22Z</time>
      </trkpt>
      <trkpt lat="45.86393" lon="4.71786">
        <ele>198</ele>
        <time>2017-08-19T09:21:23Z</time>
      </trkpt>
      <trkpt lat="45.86388" lon="4.71781">
        <ele>198</ele>
        <time>2017-08-19T09:21:24Z</time>
      </trkpt>
      <trkpt lat="45.86382" lon="4.71777">
        <ele>198</ele>
        <time>2017-08-19T09:21:25Z</time>
      </trkpt>
      <trkpt lat="45.86377" lon="4.71773">
        <ele>198</ele>
        <time>2017-08-19T09:21:26Z</time>
      </trkpt>
      <trkpt lat="45.86371" lon="4.71768">
        <ele>198</ele>
        <time>2017-08-19T09:21:27Z</time>
      </trkpt>
      <trkpt lat="45.86366" lon="4.71764">
        <ele>198</ele>
        <time>2017-08-19T09:21:28Z</time>
      </trkpt>
      <trkpt lat="45.86362" lon="4.71761">
        <ele>198</ele>
        <time>2017-08-19T09:21:29Z</time>
      </trkpt>
      <trkpt lat="45.86357" lon="4.71757">
        <ele>198</ele>
        <time>2017-08-19T09:21:30Z</time>
      </trkpt>
      <trkpt lat="45.86352" lon="4.71754">
        <ele>197</ele>
        <time>2017-08-19T09:21:31Z</time>
      </trkpt>
      <trkpt lat="45.86347" lon="4.71751">
        <ele>197</ele>
        <time>2017-08-19T09:21:32Z</time>
      </trkpt>
      <trkpt lat="45.86342" lon="4.71747">
        <ele>195</ele>
        <time>2017-08-19T09:21:33Z</time>
      </trkpt>
      <trkpt lat="45.86337" lon="4.71743">
        <ele>195</ele>
        <time>2017-08-19T09:21:34Z</time>
      </trkpt>
      <trkpt lat="45.86332" lon="4.7174">
        <ele>196</ele>
        <time>2017-08-19T09:21:35Z</time>
      </trkpt>
      <trkpt lat="45.86327" lon="4.71736">
        <ele>196</ele>
        <time>2017-08-19T09:21:36Z</time>
      </trkpt>
      <trkpt lat="45.86322" lon="4.71732">
        <ele>196</ele>
        <time>2017-08-19T09:21:37Z</time>
      </trkpt>
      <trkpt lat="45.86317" lon="4.71728">
        <ele>196</ele>
        <time>2017-08-19T09:21:38Z</time>
      </trkpt>
      <trkpt lat="45.86312" lon="4.71724">
        <ele>196</ele>
        <time>2017-08-19T09:21:39Z</time>
      </trkpt>
      <trkpt lat="45.86308" lon="4.71721">
        <ele>196</ele>
        <time>2017-08-19T09:21:40Z</time>
      </trkpt>
      <trkpt lat="45.86303" lon="4.71717">
        <ele>196</ele>
        <time>2017-08-19T09:21:41Z</time>
      </trkpt>
      <trkpt lat="45.86298" lon="4.71713">
        <ele>196</ele>
        <time>2017-08-19T09:21:42Z</time>
      </trkpt>
      <trkpt lat="45.86294" lon="4.71709">
        <ele>195</ele>
        <time>2017-08-19T09:21:43Z</time>
      </trkpt>
      <trkpt lat="45.8629" lon="4.71706">
        <ele>195</ele>
        <time>2017-08-19T09:21:44Z</time>
      </trkpt>
      <trkpt lat="45.86285" lon="4.71702">
        <ele>195</ele>
        <time>2017-08-19T09:21:45Z</time>
      </trkpt>
      <trkpt lat="45.86281" lon="4.71698">
        <ele>195</ele>
        <time>2017-08-19T09:21:46Z</time>
      </trkpt>
      <trkpt lat="45.86277" lon="4.71695">
        <ele>195</ele>
        <time>2017-08-19T09:21:47Z</time>
      </trkpt>
      <trkpt lat="45.86272" lon="4.71692">
        <ele>195</ele>
        <time>2017-08-19T09:21:48Z</time>
      </trkpt>
      <trkpt lat="45.86267" lon="4.71688">
        <ele>195</ele>
        <time>2017-08-19T09:21:49Z</time>
      </trkpt>
      <trkpt lat="45.86262" lon="4.71684">
        <ele>195</ele>
        <time>2017-08-19T09:21:50Z</time>
      </trkpt>
      <trkpt lat="45.86257" lon="4.7168">
        <ele>195</ele>
        <time>2017-08-19T09:21:51Z</time>
      </trkpt>
      <trkpt lat="45.86251" lon="4.71676">
        <ele>195</ele>
        <time>2017-08-19T09:21:52Z</time>
      </trkpt>
      <trkpt lat="45.86246" lon="4.71672">
        <ele>195</ele>
        <time>2017-08-19T09:21:53Z</time>
      </trkpt>
      <trkpt lat="45.86241" lon="4.71668">
        <ele>196</ele>
        <time>2017-08-19T09:21:54Z</time>
      </trkpt>
      <trkpt lat="45.86236" lon="4.71665">
        <ele>195</ele>
        <time>2017-08-19T09:21:55Z</time>
      </trkpt>
      <trkpt lat="45.86232" lon="4.71661">
        <ele>195</ele>
        <time>2017-08-19T09:21:56Z</time>
      </trkpt>
      <trkpt lat="45.86228" lon="4.71657">
        <ele>195</ele>
        <time>2017-08-19T09:21:57Z</time>
      </trkpt>
      <trkpt lat="45.86223" lon="4.71653">
        <ele>195</ele>
        <time>2017-08-19T09:21:58Z</time>
      </trkpt>
      <trkpt lat="45.86216" lon="4.71646">
        <ele>195</ele>
        <time>2017-08-19T09:22:00Z</time>
      </trkpt>
      <trkpt lat="45.86213" lon="4.71641">
        <ele>195</ele>
        <time>2017-08-19T09:22:01Z</time>
      </trkpt>
      <trkpt lat="45.86212" lon="4.71635">
        <ele>195</ele>
        <time>2017-08-19T09:22:02Z</time>
      </trkpt>
      <trkpt lat="45.86212" lon="4.71628">
        <ele>195</ele>
        <time>2017-08-19T09:22:03Z</time>
      </trkpt>
      <trkpt lat="45.86211" lon="4.71621">
        <ele>195</ele>
        <time>2017-08-19T09:22:04Z</time>
      </trkpt>
      <trkpt lat="45.8621" lon="4.71614">
        <ele>195</ele>
        <time>2017-08-19T09:22:05Z</time>
      </trkpt>
      <trkpt lat="45.86207" lon="4.71608">
        <ele>195</ele>
        <time>2017-08-19T09:22:06Z</time>
      </trkpt>
      <trkpt lat="45.86203" lon="4.71603">
        <ele>195</ele>
        <time>2017-08-19T09:22:07Z</time>
      </trkpt>
      <trkpt lat="45.86198" lon="4.71599">
        <ele>195</ele>
        <time>2017-08-19T09:22:08Z</time>
      </trkpt>
      <trkpt lat="45.86194" lon="4.71594">
        <ele>195</ele>
        <time>2017-08-19T09:22:09Z</time>
      </trkpt>
      <trkpt lat="45.86191" lon="4.71588">
        <ele>195</ele>
        <time>2017-08-19T09:22:10Z</time>
      </trkpt>
      <trkpt lat="45.86187" lon="4.71583">
        <ele>195</ele>
        <time>2017-08-19T09:22:11Z</time>
      </trkpt>
      <trkpt lat="45.86184" lon="4.71577">
        <ele>195</ele>
        <time>2017-08-19T09:22:12Z</time>
      </trkpt>
      <trkpt lat="45.86181" lon="4.71572">
        <ele>195</ele>
        <time>2017-08-19T09:22:13Z</time>
      </trkpt>
      <trkpt lat="45.86177" lon="4.71566">
        <ele>195</ele>
        <time>2017-08-19T09:22:14Z</time>
      </trkpt>
      <trkpt lat="45.86174" lon="4.71561">
        <ele>195</ele>
        <time>2017-08-19T09:22:15Z</time>
      </trkpt>
      <trkpt lat="45.86171" lon="4.71556">
        <ele>195</ele>
        <time>2017-08-19T09:22:16Z</time>
      </trkpt>
      <trkpt lat="45.86168" lon="4.7155">
        <ele>195</ele>
        <time>2017-08-19T09:22:17Z</time>
      </trkpt>
      <trkpt lat="45.86164" lon="4.71544">
        <ele>196</ele>
        <time>2017-08-19T09:22:18Z</time>
      </trkpt>
      <trkpt lat="45.8616" lon="4.71538">
        <ele>195</ele>
        <time>2017-08-19T09:22:19Z</time>
      </trkpt>
      <trkpt lat="45.86157" lon="4.71532">
        <ele>195</ele>
        <time>2017-08-19T09:22:20Z</time>
      </trkpt>
      <trkpt lat="45.86153" lon="4.71526">
        <ele>195</ele>
        <time>2017-08-19T09:22:21Z</time>
      </trkpt>
      <trkpt lat="45.8615" lon="4.7152">
        <ele>195</ele>
        <time>2017-08-19T09:22:22Z</time>
      </trkpt>
      <trkpt lat="45.86147" lon="4.71514">
        <ele>195</ele>
        <time>2017-08-19T09:22:23Z</time>
      </trkpt>
      <trkpt lat="45.86144" lon="4.71509">
        <ele>195</ele>
        <time>2017-08-19T09:22:24Z</time>
      </trkpt>
      <trkpt lat="45.86141" lon="4.71503">
        <ele>195</ele>
        <time>2017-08-19T09:22:25Z</time>
      </trkpt>
      <trkpt lat="45.86139" lon="4.71497">
        <ele>195</ele>
        <time>2017-08-19T09:22:26Z</time>
      </trkpt>
      <trkpt lat="45.86136" lon="4.7149">
        <ele>195</ele>
        <time>2017-08-19T09:22:27Z</time>
      </trkpt>
      <trkpt lat="45.86134" lon="4.71483">
        <ele>195</ele>
        <time>2017-08-19T09:22:28Z</time>
      </trkpt>
      <trkpt lat="45.86132" lon="4.71477">
        <ele>195</ele>
        <time>2017-08-19T09:22:29Z</time>
      </trkpt>
      <trkpt lat="45.86129" lon="4.7147">
        <ele>195</ele>
        <time>2017-08-19T09:22:30Z</time>
      </trkpt>
      <trkpt lat="45.86127" lon="4.71463">
        <ele>195</ele>
        <time>2017-08-19T09:22:31Z</time>
      </trkpt>
      <trkpt lat="45.86126" lon="4.71457">
        <ele>195</ele>
        <time>2017-08-19T09:22:32Z</time>
      </trkpt>
      <trkpt lat="45.86124" lon="4.71451">
        <ele>195</ele>
        <time>2017-08-19T09:22:33Z</time>
      </trkpt>
      <trkpt lat="45.8612" lon="4.7144">
        <ele>195</ele>
        <time>2017-08-19T09:22:35Z</time>
      </trkpt>
      <trkpt lat="45.8612" lon="4.71435">
        <ele>195</ele>
        <time>2017-08-19T09:22:36Z</time>
      </trkpt>
      <trkpt lat="45.86118" lon="4.71428">
        <ele>195</ele>
        <time>2017-08-19T09:22:37Z</time>
      </trkpt>
      <trkpt lat="45.86118" lon="4.71421">
        <ele>195</ele>
        <time>2017-08-19T09:22:38Z</time>
      </trkpt>
      <trkpt lat="45.86117" lon="4.71414">
        <ele>196</ele>
        <time>2017-08-19T09:22:39Z</time>
      </trkpt>
      <trkpt lat="45.86117" lon="4.71407">
        <ele>196</ele>
        <time>2017-08-19T09:22:40Z</time>
      </trkpt>
      <trkpt lat="45.86116" lon="4.71399">
        <ele>196</ele>
        <time>2017-08-19T09:22:41Z</time>
      </trkpt>
      <trkpt lat="45.86116" lon="4.71391">
        <ele>196</ele>
        <time>2017-08-19T09:22:42Z</time>
      </trkpt>
      <trkpt lat="45.86115" lon="4.71384">
        <ele>196</ele>
        <time>2017-08-19T09:22:43Z</time>
      </trkpt>
      <trkpt lat="45.86114" lon="4.71377">
        <ele>196</ele>
        <time>2017-08-19T09:22:44Z</time>
      </trkpt>
      <trkpt lat="45.86113" lon="4.71371">
        <ele>196</ele>
        <time>2017-08-19T09:22:45Z</time>
      </trkpt>
      <trkpt lat="45.86112" lon="4.71364">
        <ele>196</ele>
        <time>2017-08-19T09:22:46Z</time>
      </trkpt>
      <trkpt lat="45.86112" lon="4.71358">
        <ele>196</ele>
        <time>2017-08-19T09:22:47Z</time>
      </trkpt>
      <trkpt lat="45.86111" lon="4.71351">
        <ele>196</ele>
        <time>2017-08-19T09:22:48Z</time>
      </trkpt>
      <trkpt lat="45.8611" lon="4.71344">
        <ele>196</ele>
        <time>2017-08-19T09:22:49Z</time>
      </trkpt>
      <trkpt lat="45.86109" lon="4.71336">
        <ele>196</ele>
        <time>2017-08-19T09:22:50Z</time>
      </trkpt>
      <trkpt lat="45.86108" lon="4.71328">
        <ele>196</ele>
        <time>2017-08-19T09:22:51Z</time>
      </trkpt>
      <trkpt lat="45.86106" lon="4.71321">
        <ele>196</ele>
        <time>2017-08-19T09:22:52Z</time>
      </trkpt>
      <trkpt lat="45.86105" lon="4.71313">
        <ele>196</ele>
        <time>2017-08-19T09:22:53Z</time>
      </trkpt>
      <trkpt lat="45.86104" lon="4.71306">
        <ele>196</ele>
        <time>2017-08-19T09:22:54Z</time>
      </trkpt>
      <trkpt lat="45.86103" lon="4.71299">
        <ele>197</ele>
        <time>2017-08-19T09:22:55Z</time>
      </trkpt>
      <trkpt lat="45.86101" lon="4.71293">
        <ele>197</ele>
        <time>2017-08-19T09:22:56Z</time>
      </trkpt>
      <trkpt lat="45.86098" lon="4.71282">
        <ele>197</ele>
        <time>2017-08-19T09:22:58Z</time>
      </trkpt>
      <trkpt lat="45.86096" lon="4.71277">
        <ele>197</ele>
        <time>2017-08-19T09:22:59Z</time>
      </trkpt>
      <trkpt lat="45.86092" lon="4.71267">
        <ele>197</ele>
        <time>2017-08-19T09:23:01Z</time>
      </trkpt>
      <trkpt lat="45.86089" lon="4.71263">
        <ele>197</ele>
        <time>2017-08-19T09:23:02Z</time>
      </trkpt>
      <trkpt lat="45.86084" lon="4.71254">
        <ele>198</ele>
        <time>2017-08-19T09:23:04Z</time>
      </trkpt>
      <trkpt lat="45.86084" lon="4.71247">
        <ele>198</ele>
        <time>2017-08-19T09:23:05Z</time>
      </trkpt>
      <trkpt lat="45.86084" lon="4.7124">
        <ele>198</ele>
        <time>2017-08-19T09:23:06Z</time>
      </trkpt>
      <trkpt lat="45.86083" lon="4.71232">
        <ele>198</ele>
        <time>2017-08-19T09:23:07Z</time>
      </trkpt>
      <trkpt lat="45.86083" lon="4.71225">
        <ele>198</ele>
        <time>2017-08-19T09:23:08Z</time>
      </trkpt>
      <trkpt lat="45.86084" lon="4.71218">
        <ele>197</ele>
        <time>2017-08-19T09:23:09Z</time>
      </trkpt>
      <trkpt lat="45.86085" lon="4.71211">
        <ele>197</ele>
        <time>2017-08-19T09:23:10Z</time>
      </trkpt>
      <trkpt lat="45.86086" lon="4.71203">
        <ele>197</ele>
        <time>2017-08-19T09:23:11Z</time>
      </trkpt>
      <trkpt lat="45.86087" lon="4.71196">
        <ele>197</ele>
        <time>2017-08-19T09:23:12Z</time>
      </trkpt>
      <trkpt lat="45.86089" lon="4.71189">
        <ele>197</ele>
        <time>2017-08-19T09:23:13Z</time>
      </trkpt>
      <trkpt lat="45.8609" lon="4.71182">
        <ele>197</ele>
        <time>2017-08-19T09:23:14Z</time>
      </trkpt>
      <trkpt lat="45.86091" lon="4.71175">
        <ele>197</ele>
        <time>2017-08-19T09:23:15Z</time>
      </trkpt>
      <trkpt lat="45.86092" lon="4.71168">
        <ele>198</ele>
        <time>2017-08-19T09:23:16Z</time>
      </trkpt>
      <trkpt lat="45.86093" lon="4.71161">
        <ele>197</ele>
        <time>2017-08-19T09:23:17Z</time>
      </trkpt>
      <trkpt lat="45.86093" lon="4.71154">
        <ele>197</ele>
        <time>2017-08-19T09:23:18Z</time>
      </trkpt>
      <trkpt lat="45.8609" lon="4.71147">
        <ele>197</ele>
        <time>2017-08-19T09:23:19Z</time>
      </trkpt>
      <trkpt lat="45.86087" lon="4.71142">
        <ele>197</ele>
        <time>2017-08-19T09:23:20Z</time>
      </trkpt>
      <trkpt lat="45.86084" lon="4.71138">
        <ele>197</ele>
        <time>2017-08-19T09:23:21Z</time>
      </trkpt>
      <trkpt lat="45.86076" lon="4.71131">
        <ele>197</ele>
        <time>2017-08-19T09:23:23Z</time>
      </trkpt>
      <trkpt lat="45.86071" lon="4.71127">
        <ele>197</ele>
        <time>2017-08-19T09:23:24Z</time>
      </trkpt>
      <trkpt lat="45.86067" lon="4.71125">
        <ele>197</ele>
        <time>2017-08-19T09:23:25Z</time>
      </trkpt>
      <trkpt lat="45.86062" lon="4.71121">
        <ele>197</ele>
        <time>2017-08-19T09:23:26Z</time>
      </trkpt>
      <trkpt lat="45.86058" lon="4.71116">
        <ele>197</ele>
        <time>2017-08-19T09:23:27Z</time>
      </trkpt>
      <trkpt lat="45.86054" lon="4.71111">
        <ele>197</ele>
        <time>2017-08-19T09:23:28Z</time>
      </trkpt>
      <trkpt lat="45.86051" lon="4.71104">
        <ele>197</ele>
        <time>2017-08-19T09:23:29Z</time>
      </trkpt>
      <trkpt lat="45.86048" lon="4.71099">
        <ele>197</ele>
        <time>2017-08-19T09:23:30Z</time>
      </trkpt>
      <trkpt lat="45.86045" lon="4.71093">
        <ele>197</ele>
        <time>2017-08-19T09:23:31Z</time>
      </trkpt>
      <trkpt lat="45.86043" lon="4.71087">
        <ele>197</ele>
        <time>2017-08-19T09:23:32Z</time>
      </trkpt>
      <trkpt lat="45.86041" lon="4.71081">
        <ele>197</ele>
        <time>2017-08-19T09:23:33Z</time>
      </trkpt>
      <trkpt lat="45.86039" lon="4.71074">
        <ele>197</ele>
        <time>2017-08-19T09:23:34Z</time>
      </trkpt>
      <trkpt lat="45.86038" lon="4.71067">
        <ele>197</ele>
        <time>2017-08-19T09:23:35Z</time>
      </trkpt>
      <trkpt lat="45.86037" lon="4.71059">
        <ele>197</ele>
        <time>2017-08-19T09:23:36Z</time>
      </trkpt>
      <trkpt lat="45.86036" lon="4.71051">
        <ele>197</ele>
        <time>2017-08-19T09:23:37Z</time>
      </trkpt>
      <trkpt lat="45.86035" lon="4.71042">
        <ele>197</ele>
        <time>2017-08-19T09:23:38Z</time>
      </trkpt>
      <trkpt lat="45.86033" lon="4.71034">
        <ele>197</ele>
        <time>2017-08-19T09:23:39Z</time>
      </trkpt>
      <trkpt lat="45.8603" lon="4.71027">
        <ele>197</ele>
        <time>2017-08-19T09:23:40Z</time>
      </trkpt>
      <trkpt lat="45.86027" lon="4.71021">
        <ele>197</ele>
        <time>2017-08-19T09:23:41Z</time>
      </trkpt>
      <trkpt lat="45.86025" lon="4.71016">
        <ele>197</ele>
        <time>2017-08-19T09:23:42Z</time>
      </trkpt>
      <trkpt lat="45.86022" lon="4.7101">
        <ele>197</ele>
        <time>2017-08-19T09:23:43Z</time>
      </trkpt>
      <trkpt lat="45.86018" lon="4.71005">
        <ele>197</ele>
        <time>2017-08-19T09:23:44Z</time>
      </trkpt>
      <trkpt lat="45.86014" lon="4.71">
        <ele>197</ele>
        <time>2017-08-19T09:23:45Z</time>
      </trkpt>
      <trkpt lat="45.8601" lon="4.70995">
        <ele>197</ele>
        <time>2017-08-19T09:23:46Z</time>
      </trkpt>
      <trkpt lat="45.86006" lon="4.7099">
        <ele>197</ele>
        <time>2017-08-19T09:23:47Z</time>
      </trkpt>
      <trkpt lat="45.86" lon="4.70986">
        <ele>197</ele>
        <time>2017-08-19T09:23:48Z</time>
      </trkpt>
      <trkpt lat="45.85995" lon="4.70982">
        <ele>197</ele>
        <time>2017-08-19T09:23:49Z</time>
      </trkpt>
      <trkpt lat="45.85989" lon="4.70978">
        <ele>197</ele>
        <time>2017-08-19T09:23:50Z</time>
      </trkpt>
      <trkpt lat="45.85983" lon="4.70975">
        <ele>197</ele>
        <time>2017-08-19T09:23:51Z</time>
      </trkpt>
      <trkpt lat="45.85977" lon="4.70973">
        <ele>197</ele>
        <time>2017-08-19T09:23:52Z</time>
      </trkpt>
      <trkpt lat="45.85972" lon="4.70971">
        <ele>197</ele>
        <time>2017-08-19T09:23:53Z</time>
      </trkpt>
      <trkpt lat="45.85966" lon="4.7097">
        <ele>197</ele>
        <time>2017-08-19T09:23:54Z</time>
      </trkpt>
      <trkpt lat="45.85961" lon="4.70969">
        <ele>197</ele>
        <time>2017-08-19T09:23:55Z</time>
      </trkpt>
      <trkpt lat="45.85955" lon="4.70969">
        <ele>197</ele>
        <time>2017-08-19T09:23:56Z</time>
      </trkpt>
      <trkpt lat="45.8595" lon="4.70969">
        <ele>197</ele>
        <time>2017-08-19T09:23:57Z</time>
      </trkpt>
      <trkpt lat="45.85946" lon="4.70968">
        <ele>197</ele>
        <time>2017-08-19T09:23:58Z</time>
      </trkpt>
      <trkpt lat="45.85939" lon="4.70959">
        <ele>197</ele>
        <time>2017-08-19T09:24:00Z</time>
      </trkpt>
      <trkpt lat="45.85939" lon="4.70953">
        <ele>197</ele>
        <time>2017-08-19T09:24:01Z</time>
      </trkpt>
      <trkpt lat="45.85942" lon="4.70941">
        <ele>197</ele>
        <time>2017-08-19T09:24:03Z</time>
      </trkpt>
      <trkpt lat="45.85944" lon="4.70935">
        <ele>197</ele>
        <time>2017-08-19T09:24:04Z</time>
      </trkpt>
      <trkpt lat="45.85946" lon="4.70928">
        <ele>197</ele>
        <time>2017-08-19T09:24:05Z</time>
      </trkpt>
      <trkpt lat="45.85949" lon="4.7092">
        <ele>197</ele>
        <time>2017-08-19T09:24:06Z</time>
      </trkpt>
      <trkpt lat="45.85951" lon="4.70913">
        <ele>197</ele>
        <time>2017-08-19T09:24:07Z</time>
      </trkpt>
      <trkpt lat="45.85952" lon="4.70905">
        <ele>197</ele>
        <time>2017-08-19T09:24:08Z</time>
      </trkpt>
      <trkpt lat="45.85954" lon="4.70898">
        <ele>197</ele>
        <time>2017-08-19T09:24:09Z</time>
      </trkpt>
      <trkpt lat="45.85956" lon="4.7089">
        <ele>197</ele>
        <time>2017-08-19T09:24:10Z</time>
      </trkpt>
      <trkpt lat="45.85958" lon="4.70883">
        <ele>197</ele>
        <time>2017-08-19T09:24:11Z</time>
      </trkpt>
      <trkpt lat="45.85959" lon="4.70876">
        <ele>197</ele>
        <time>2017-08-19T09:24:12Z</time>
      </trkpt>
      <trkpt lat="45.85961" lon="4.70869">
        <ele>196</ele>
        <time>2017-08-19T09:24:13Z</time>
      </trkpt>
      <trkpt lat="45.85962" lon="4.70862">
        <ele>196</ele>
        <time>2017-08-19T09:24:14Z</time>
      </trkpt>
      <trkpt lat="45.85962" lon="4.70855">
        <ele>196</ele>
        <time>2017-08-19T09:24:15Z</time>
      </trkpt>
      <trkpt lat="45.85962" lon="4.70847">
        <ele>196</ele>
        <time>2017-08-19T09:24:16Z</time>
      </trkpt>
      <trkpt lat="45.85962" lon="4.70839">
        <ele>196</ele>
        <time>2017-08-19T09:24:17Z</time>
      </trkpt>
      <trkpt lat="45.85962" lon="4.7083">
        <ele>196</ele>
        <time>2017-08-19T09:24:18Z</time>
      </trkpt>
      <trkpt lat="45.85962" lon="4.70821">
        <ele>195</ele>
        <time>2017-08-19T09:24:19Z</time>
      </trkpt>
      <trkpt lat="45.8596" lon="4.70813">
        <ele>195</ele>
        <time>2017-08-19T09:24:20Z</time>
      </trkpt>
      <trkpt lat="45.85958" lon="4.70805">
        <ele>195</ele>
        <time>2017-08-19T09:24:21Z</time>
      </trkpt>
      <trkpt lat="45.85956" lon="4.70797">
        <ele>195</ele>
        <time>2017-08-19T09:24:22Z</time>
      </trkpt>
      <trkpt lat="45.85956" lon="4.70789">
        <ele>195</ele>
        <time>2017-08-19T09:24:23Z</time>
      </trkpt>
      <trkpt lat="45.85956" lon="4.70782">
        <ele>195</ele>
        <time>2017-08-19T09:24:24Z</time>
      </trkpt>
      <trkpt lat="45.85957" lon="4.70774">
        <ele>195</ele>
        <time>2017-08-19T09:24:25Z</time>
      </trkpt>
      <trkpt lat="45.85959" lon="4.70767">
        <ele>195</ele>
        <time>2017-08-19T09:24:26Z</time>
      </trkpt>
      <trkpt lat="45.8596" lon="4.7076">
        <ele>195</ele>
        <time>2017-08-19T09:24:27Z</time>
      </trkpt>
      <trkpt lat="45.8596" lon="4.70752">
        <ele>195</ele>
        <time>2017-08-19T09:24:28Z</time>
      </trkpt>
      <trkpt lat="45.85961" lon="4.70744">
        <ele>194</ele>
        <time>2017-08-19T09:24:29Z</time>
      </trkpt>
      <trkpt lat="45.85961" lon="4.70736">
        <ele>194</ele>
        <time>2017-08-19T09:24:30Z</time>
      </trkpt>
      <trkpt lat="45.85962" lon="4.70727">
        <ele>194</ele>
        <time>2017-08-19T09:24:31Z</time>
      </trkpt>
      <trkpt lat="45.85963" lon="4.70719">
        <ele>194</ele>
        <time>2017-08-19T09:24:32Z</time>
      </trkpt>
      <trkpt lat="45.85963" lon="4.70711">
        <ele>194</ele>
        <time>2017-08-19T09:24:33Z</time>
      </trkpt>
      <trkpt lat="45.85964" lon="4.70703">
        <ele>194</ele>
        <time>2017-08-19T09:24:34Z</time>
      </trkpt>
      <trkpt lat="45.85964" lon="4.70694">
        <ele>194</ele>
        <time>2017-08-19T09:24:35Z</time>
      </trkpt>
      <trkpt lat="45.85963" lon="4.70687">
        <ele>194</ele>
        <time>2017-08-19T09:24:36Z</time>
      </trkpt>
      <trkpt lat="45.85961" lon="4.70678">
        <ele>194</ele>
        <time>2017-08-19T09:24:37Z</time>
      </trkpt>
      <trkpt lat="45.85958" lon="4.7067">
        <ele>194</ele>
        <time>2017-08-19T09:24:38Z</time>
      </trkpt>
      <trkpt lat="45.85954" lon="4.70663">
        <ele>194</ele>
        <time>2017-08-19T09:24:39Z</time>
      </trkpt>
      <trkpt lat="45.85951" lon="4.70656">
        <ele>194</ele>
        <time>2017-08-19T09:24:40Z</time>
      </trkpt>
      <trkpt lat="45.85946" lon="4.70648">
        <ele>194</ele>
        <time>2017-08-19T09:24:41Z</time>
      </trkpt>
      <trkpt lat="45.85942" lon="4.70641">
        <ele>194</ele>
        <time>2017-08-19T09:24:42Z</time>
      </trkpt>
      <trkpt lat="45.85938" lon="4.70635">
        <ele>194</ele>
        <time>2017-08-19T09:24:43Z</time>
      </trkpt>
      <trkpt lat="45.85934" lon="4.70629">
        <ele>194</ele>
        <time>2017-08-19T09:24:44Z</time>
      </trkpt>
      <trkpt lat="45.8593" lon="4.70623">
        <ele>194</ele>
        <time>2017-08-19T09:24:45Z</time>
      </trkpt>
      <trkpt lat="45.85927" lon="4.70618">
        <ele>194</ele>
        <time>2017-08-19T09:24:46Z</time>
      </trkpt>
      <trkpt lat="45.85924" lon="4.70612">
        <ele>194</ele>
        <time>2017-08-19T09:24:47Z</time>
      </trkpt>
      <trkpt lat="45.85921" lon="4.70606">
        <ele>194</ele>
        <time>2017-08-19T09:24:48Z</time>
      </trkpt>
      <trkpt lat="45.85918" lon="4.706">
        <ele>194</ele>
        <time>2017-08-19T09:24:49Z</time>
      </trkpt>
      <trkpt lat="45.85915" lon="4.70595">
        <ele>195</ele>
        <time>2017-08-19T09:24:50Z</time>
      </trkpt>
      <trkpt lat="45.85911" lon="4.70589">
        <ele>195</ele>
        <time>2017-08-19T09:24:51Z</time>
      </trkpt>
      <trkpt lat="45.85905" lon="4.70584">
        <ele>195</ele>
        <time>2017-08-19T09:24:52Z</time>
      </trkpt>
      <trkpt lat="45.859" lon="4.70581">
        <ele>195</ele>
        <time>2017-08-19T09:24:53Z</time>
      </trkpt>
      <trkpt lat="45.85894" lon="4.70579">
        <ele>195</ele>
        <time>2017-08-19T09:24:54Z</time>
      </trkpt>
      <trkpt lat="45.85888" lon="4.70577">
        <ele>195</ele>
        <time>2017-08-19T09:24:55Z</time>
      </trkpt>
      <trkpt lat="45.85882" lon="4.70575">
        <ele>195</ele>
        <time>2017-08-19T09:24:56Z</time>
      </trkpt>
      <trkpt lat="45.85876" lon="4.70574">
        <ele>195</ele>
        <time>2017-08-19T09:24:57Z</time>
      </trkpt>
      <trkpt lat="45.8587" lon="4.70572">
        <ele>195</ele>
        <time>2017-08-19T09:24:58Z</time>
      </trkpt>
      <trkpt lat="45.85865" lon="4.70569">
        <ele>195</ele>
        <time>2017-08-19T09:24:59Z</time>
      </trkpt>
      <trkpt lat="45.8586" lon="4.70566">
        <ele>195</ele>
        <time>2017-08-19T09:25:00Z</time>
      </trkpt>
      <trkpt lat="45.85855" lon="4.70565">
        <ele>195</ele>
        <time>2017-08-19T09:25:01Z</time>
      </trkpt>
      <trkpt lat="45.85849" lon="4.70563">
        <ele>195</ele>
        <time>2017-08-19T09:25:02Z</time>
      </trkpt>
      <trkpt lat="45.85844" lon="4.70561">
        <ele>195</ele>
        <time>2017-08-19T09:25:03Z</time>
      </trkpt>
      <trkpt lat="45.85838" lon="4.70559">
        <ele>195</ele>
        <time>2017-08-19T09:25:04Z</time>
      </trkpt>
      <trkpt lat="45.85833" lon="4.70557">
        <ele>195</ele>
        <time>2017-08-19T09:25:05Z</time>
      </trkpt>
      <trkpt lat="45.85828" lon="4.70555">
        <ele>195</ele>
        <time>2017-08-19T09:25:06Z</time>
      </trkpt>
      <trkpt lat="45.85823" lon="4.70553">
        <ele>195</ele>
        <time>2017-08-19T09:25:07Z</time>
      </trkpt>
      <trkpt lat="45.85818" lon="4.70551">
        <ele>195</ele>
        <time>2017-08-19T09:25:08Z</time>
      </trkpt>
      <trkpt lat="45.85813" lon="4.70549">
        <ele>195</ele>
        <time>2017-08-19T09:25:09Z</time>
      </trkpt>
      <trkpt lat="45.85808" lon="4.70547">
        <ele>195</ele>
        <time>2017-08-19T09:25:10Z</time>
      </trkpt>
      <trkpt lat="45.85803" lon="4.70545">
        <ele>195</ele>
        <time>2017-08-19T09:25:11Z</time>
      </trkpt>
      <trkpt lat="45.85798" lon="4.70543">
        <ele>195</ele>
        <time>2017-08-19T09:25:12Z</time>
      </trkpt>
      <trkpt lat="45.85791" lon="4.70537">
        <ele>196</ele>
        <time>2017-08-19T09:25:14Z</time>
      </trkpt>
      <trkpt lat="45.85787" lon="4.70534">
        <ele>196</ele>
        <time>2017-08-19T09:25:15Z</time>
      </trkpt>
      <trkpt lat="45.8578" lon="4.70529">
        <ele>196</ele>
        <time>2017-08-19T09:25:17Z</time>
      </trkpt>
      <trkpt lat="45.85776" lon="4.70526">
        <ele>196</ele>
        <time>2017-08-19T09:25:18Z</time>
      </trkpt>
      <trkpt lat="45.85769" lon="4.70521">
        <ele>196</ele>
        <time>2017-08-19T09:25:20Z</time>
      </trkpt>
      <trkpt lat="45.85765" lon="4.70518">
        <ele>196</ele>
        <time>2017-08-19T09:25:21Z</time>
      </trkpt>
      <trkpt lat="45.85758" lon="4.70513">
        <ele>196</ele>
        <time>2017-08-19T09:25:23Z</time>
      </trkpt>
      <trkpt lat="45.85755" lon="4.7051">
        <ele>196</ele>
        <time>2017-08-19T09:25:24Z</time>
      </trkpt>
      <trkpt lat="45.8575" lon="4.70505">
        <ele>196</ele>
        <time>2017-08-19T09:25:26Z</time>
      </trkpt>
      <trkpt lat="45.85747" lon="4.70503">
        <ele>196</ele>
        <time>2017-08-19T09:25:27Z</time>
      </trkpt>
      <trkpt lat="45.85742" lon="4.70496">
        <ele>196</ele>
        <time>2017-08-19T09:25:29Z</time>
      </trkpt>
      <trkpt lat="45.85739" lon="4.70492">
        <ele>196</ele>
        <time>2017-08-19T09:25:30Z</time>
      </trkpt>
      <trkpt lat="45.85736" lon="4.70487">
        <ele>196</ele>
        <time>2017-08-19T09:25:31Z</time>
      </trkpt>
      <trkpt lat="45.85733" lon="4.70482">
        <ele>196</ele>
        <time>2017-08-19T09:25:32Z</time>
      </trkpt>
      <trkpt lat="45.8573" lon="4.70476">
        <ele>196</ele>
        <time>2017-08-19T09:25:33Z</time>
      </trkpt>
      <trkpt lat="45.85729" lon="4.70468">
        <ele>196</ele>
        <time>2017-08-19T09:25:34Z</time>
      </trkpt>
      <trkpt lat="45.85727" lon="4.70461">
        <ele>196</ele>
        <time>2017-08-19T09:25:35Z</time>
      </trkpt>
      <trkpt lat="45.85727" lon="4.70453">
        <ele>196</ele>
        <time>2017-08-19T09:25:36Z</time>
      </trkpt>
      <trkpt lat="45.85726" lon="4.70444">
        <ele>196</ele>
        <time>2017-08-19T09:25:37Z</time>
      </trkpt>
      <trkpt lat="45.85725" lon="4.70436">
        <ele>196</ele>
        <time>2017-08-19T09:25:38Z</time>
      </trkpt>
      <trkpt lat="45.85724" lon="4.70428">
        <ele>196</ele>
        <time>2017-08-19T09:25:39Z</time>
      </trkpt>
      <trkpt lat="45.85723" lon="4.70421">
        <ele>196</ele>
        <time>2017-08-19T09:25:40Z</time>
      </trkpt>
      <trkpt lat="45.85721" lon="4.70414">
        <ele>196</ele>
        <time>2017-08-19T09:25:41Z</time>
      </trkpt>
      <trkpt lat="45.8572" lon="4.70407">
        <ele>196</ele>
        <time>2017-08-19T09:25:42Z</time>
      </trkpt>
      <trkpt lat="45.85719" lon="4.704">
        <ele>196</ele>
        <time>2017-08-19T09:25:43Z</time>
      </trkpt>
      <trkpt lat="45.85719" lon="4.70393">
        <ele>196</ele>
        <time>2017-08-19T09:25:44Z</time>
      </trkpt>
      <trkpt lat="45.85718" lon="4.70385">
        <ele>196</ele>
        <time>2017-08-19T09:25:45Z</time>
      </trkpt>
      <trkpt lat="45.85718" lon="4.70377">
        <ele>196</ele>
        <time>2017-08-19T09:25:46Z</time>
      </trkpt>
      <trkpt lat="45.85717" lon="4.7037">
        <ele>196</ele>
        <time>2017-08-19T09:25:47Z</time>
      </trkpt>
      <trkpt lat="45.85716" lon="4.70362">
        <ele>196</ele>
        <time>2017-08-19T09:25:48Z</time>
      </trkpt>
      <trkpt lat="45.85715" lon="4.70353">
        <ele>196</ele>
        <time>2017-08-19T09:25:49Z</time>
      </trkpt>
      <trkpt lat="45.85714" lon="4.70345">
        <ele>196</ele>
        <time>2017-08-19T09:25:50Z</time>
      </trkpt>
      <trkpt lat="45.85713" lon="4.70337">
        <ele>196</ele>
        <time>2017-08-19T09:25:51Z</time>
      </trkpt>
      <trkpt lat="45.85712" lon="4.70328">
        <ele>197</ele>
        <time>2017-08-19T09:25:52Z</time>
      </trkpt>
      <trkpt lat="45.85711" lon="4.70319">
        <ele>197</ele>
        <time>2017-08-19T09:25:53Z</time>
      </trkpt>
      <trkpt lat="45.8571" lon="4.7031">
        <ele>197</ele>
        <time>2017-08-19T09:25:54Z</time>
      </trkpt>
      <trkpt lat="45.8571" lon="4.70302">
        <ele>197</ele>
        <time>2017-08-19T09:25:55Z</time>
      </trkpt>
      <trkpt lat="45.85709" lon="4.70293">
        <ele>197</ele>
        <time>2017-08-19T09:25:56Z</time>
      </trkpt>
      <trkpt lat="45.85708" lon="4.70285">
        <ele>197</ele>
        <time>2017-08-19T09:25:57Z</time>
      </trkpt>
      <trkpt lat="45.85707" lon="4.70277">
        <ele>197</ele>
        <time>2017-08-19T09:25:58Z</time>
      </trkpt>
      <trkpt lat="45.85706" lon="4.7027">
        <ele>197</ele>
        <time>2017-08-19T09:25:59Z</time>
      </trkpt>
      <trkpt lat="45.85705" lon="4.70263">
        <ele>197</ele>
        <time>2017-08-19T09:26:00Z</time>
      </trkpt>
      <trkpt lat="45.85704" lon="4.70256">
        <ele>197</ele>
        <time>2017-08-19T09:26:01Z</time>
      </trkpt>
      <trkpt lat="45.85704" lon="4.70249">
        <ele>197</ele>
        <time>2017-08-19T09:26:02Z</time>
      </trkpt>
      <trkpt lat="45.85703" lon="4.70237">
        <ele>197</ele>
        <time>2017-08-19T09:26:04Z</time>
      </trkpt>
      <trkpt lat="45.85703" lon="4.7023">
        <ele>197</ele>
        <time>2017-08-19T09:26:05Z</time>
      </trkpt>
      <trkpt lat="45.85703" lon="4.70223">
        <ele>197</ele>
        <time>2017-08-19T09:26:06Z</time>
      </trkpt>
      <trkpt lat="45.85701" lon="4.70216">
        <ele>197</ele>
        <time>2017-08-19T09:26:07Z</time>
      </trkpt>
      <trkpt lat="45.857" lon="4.70208">
        <ele>197</ele>
        <time>2017-08-19T09:26:08Z</time>
      </trkpt>
      <trkpt lat="45.85699" lon="4.70201">
        <ele>197</ele>
        <time>2017-08-19T09:26:09Z</time>
      </trkpt>
      <trkpt lat="45.85698" lon="4.70193">
        <ele>197</ele>
        <time>2017-08-19T09:26:10Z</time>
      </trkpt>
      <trkpt lat="45.85695" lon="4.70185">
        <ele>197</ele>
        <time>2017-08-19T09:26:11Z</time>
      </trkpt>
      <trkpt lat="45.85693" lon="4.70178">
        <ele>197</ele>
        <time>2017-08-19T09:26:12Z</time>
      </trkpt>
      <trkpt lat="45.8569" lon="4.7017">
        <ele>197</ele>
        <time>2017-08-19T09:26:13Z</time>
      </trkpt>
      <trkpt lat="45.85688" lon="4.70162">
        <ele>197</ele>
        <time>2017-08-19T09:26:14Z</time>
      </trkpt>
      <trkpt lat="45.85686" lon="4.70154">
        <ele>197</ele>
        <time>2017-08-19T09:26:15Z</time>
      </trkpt>
      <trkpt lat="45.85684" lon="4.70147">
        <ele>197</ele>
        <time>2017-08-19T09:26:16Z</time>
      </trkpt>
      <trkpt lat="45.85683" lon="4.7014">
        <ele>197</ele>
        <time>2017-08-19T09:26:17Z</time>
      </trkpt>
      <trkpt lat="45.85683" lon="4.70133">
        <ele>197</ele>
        <time>2017-08-19T09:26:18Z</time>
      </trkpt>
      <trkpt lat="45.85682" lon="4.70125">
        <ele>197</ele>
        <time>2017-08-19T09:26:19Z</time>
      </trkpt>
      <trkpt lat="45.85681" lon="4.70117">
        <ele>197</ele>
        <time>2017-08-19T09:26:20Z</time>
      </trkpt>
      <trkpt lat="45.85681" lon="4.70109">
        <ele>197</ele>
        <time>2017-08-19T09:26:21Z</time>
      </trkpt>
      <trkpt lat="45.8568" lon="4.70101">
        <ele>196</ele>
        <time>2017-08-19T09:26:22Z</time>
      </trkpt>
      <trkpt lat="45.85681" lon="4.70092">
        <ele>196</ele>
        <time>2017-08-19T09:26:23Z</time>
      </trkpt>
      <trkpt lat="45.85682" lon="4.70084">
        <ele>196</ele>
        <time>2017-08-19T09:26:24Z</time>
      </trkpt>
      <trkpt lat="45.85683" lon="4.70076">
        <ele>196</ele>
        <time>2017-08-19T09:26:25Z</time>
      </trkpt>
      <trkpt lat="45.85684" lon="4.70069">
        <ele>196</ele>
        <time>2017-08-19T09:26:26Z</time>
      </trkpt>
      <trkpt lat="45.85685" lon="4.70062">
        <ele>196</ele>
        <time>2017-08-19T09:26:27Z</time>
      </trkpt>
      <trkpt lat="45.85686" lon="4.70056">
        <ele>195</ele>
        <time>2017-08-19T09:26:28Z</time>
      </trkpt>
      <trkpt lat="45.85688" lon="4.70049">
        <ele>195</ele>
        <time>2017-08-19T09:26:29Z</time>
      </trkpt>
      <trkpt lat="45.85689" lon="4.70043">
        <ele>195</ele>
        <time>2017-08-19T09:26:30Z</time>
      </trkpt>
      <trkpt lat="45.85691" lon="4.70036">
        <ele>195</ele>
        <time>2017-08-19T09:26:31Z</time>
      </trkpt>
      <trkpt lat="45.85692" lon="4.70028">
        <ele>195</ele>
        <time>2017-08-19T09:26:32Z</time>
      </trkpt>
      <trkpt lat="45.85693" lon="4.70021">
        <ele>195</ele>
        <time>2017-08-19T09:26:33Z</time>
      </trkpt>
      <trkpt lat="45.85694" lon="4.70013">
        <ele>195</ele>
        <time>2017-08-19T09:26:34Z</time>
      </trkpt>
      <trkpt lat="45.85695" lon="4.70004">
        <ele>195</ele>
        <time>2017-08-19T09:26:35Z</time>
      </trkpt>
      <trkpt lat="45.85695" lon="4.69996">
        <ele>195</ele>
        <time>2017-08-19T09:26:36Z</time>
      </trkpt>
      <trkpt lat="45.85694" lon="4.69988">
        <ele>195</ele>
        <time>2017-08-19T09:26:37Z</time>
      </trkpt>
      <trkpt lat="45.85693" lon="4.6998">
        <ele>195</ele>
        <time>2017-08-19T09:26:38Z</time>
      </trkpt>
      <trkpt lat="45.85692" lon="4.69972">
        <ele>195</ele>
        <time>2017-08-19T09:26:39Z</time>
      </trkpt>
      <trkpt lat="45.8569" lon="4.69965">
        <ele>195</ele>
        <time>2017-08-19T09:26:40Z</time>
      </trkpt>
      <trkpt lat="45.85688" lon="4.69957">
        <ele>195</ele>
        <time>2017-08-19T09:26:41Z</time>
      </trkpt>
      <trkpt lat="45.85686" lon="4.6995">
        <ele>195</ele>
        <time>2017-08-19T09:26:42Z</time>
      </trkpt>
      <trkpt lat="45.85684" lon="4.69943">
        <ele>195</ele>
        <time>2017-08-19T09:26:43Z</time>
      </trkpt>
      <trkpt lat="45.85681" lon="4.69936">
        <ele>195</ele>
        <time>2017-08-19T09:26:44Z</time>
      </trkpt>
      <trkpt lat="45.85679" lon="4.69929">
        <ele>195</ele>
        <time>2017-08-19T09:26:45Z</time>
      </trkpt>
      <trkpt lat="45.85675" lon="4.69922">
        <ele>195</ele>
        <time>2017-08-19T09:26:46Z</time>
      </trkpt>
      <trkpt lat="45.85673" lon="4.69916">
        <ele>195</ele>
        <time>2017-08-19T09:26:47Z</time>
      </trkpt>
      <trkpt lat="45.85671" lon="4.6991">
        <ele>195</ele>
        <time>2017-08-19T09:26:48Z</time>
      </trkpt>
      <trkpt lat="45.8567" lon="4.69903">
        <ele>195</ele>
        <time>2017-08-19T09:26:49Z</time>
      </trkpt>
      <trkpt lat="45.85669" lon="4.69891">
        <ele>195</ele>
        <time>2017-08-19T09:26:51Z</time>
      </trkpt>
      <trkpt lat="45.85669" lon="4.69885">
        <ele>195</ele>
        <time>2017-08-19T09:26:52Z</time>
      </trkpt>
      <trkpt lat="45.85669" lon="4.69873">
        <ele>195</ele>
        <time>2017-08-19T09:26:54Z</time>
      </trkpt>
      <trkpt lat="45.85669" lon="4.69868">
        <ele>195</ele>
        <time>2017-08-19T09:26:55Z</time>
      </trkpt>
      <trkpt lat="45.85668" lon="4.69857">
        <ele>195</ele>
        <time>2017-08-19T09:26:57Z</time>
      </trkpt>
      <trkpt lat="45.85667" lon="4.69851">
        <ele>195</ele>
        <time>2017-08-19T09:26:58Z</time>
      </trkpt>
      <trkpt lat="45.85666" lon="4.69845">
        <ele>195</ele>
        <time>2017-08-19T09:26:59Z</time>
      </trkpt>
      <trkpt lat="45.85665" lon="4.69838">
        <ele>195</ele>
        <time>2017-08-19T09:27:00Z</time>
      </trkpt>
      <trkpt lat="45.85665" lon="4.69831">
        <ele>195</ele>
        <time>2017-08-19T09:27:01Z</time>
      </trkpt>
      <trkpt lat="45.85664" lon="4.69823">
        <ele>195</ele>
        <time>2017-08-19T09:27:02Z</time>
      </trkpt>
      <trkpt lat="45.85663" lon="4.69815">
        <ele>195</ele>
        <time>2017-08-19T09:27:03Z</time>
      </trkpt>
      <trkpt lat="45.85662" lon="4.69807">
        <ele>195</ele>
        <time>2017-08-19T09:27:04Z</time>
      </trkpt>
      <trkpt lat="45.85662" lon="4.69799">
        <ele>195</ele>
        <time>2017-08-19T09:27:05Z</time>
      </trkpt>
      <trkpt lat="45.85661" lon="4.6979">
        <ele>195</ele>
        <time>2017-08-19T09:27:06Z</time>
      </trkpt>
      <trkpt lat="45.8566" lon="4.69782">
        <ele>195</ele>
        <time>2017-08-19T09:27:07Z</time>
      </trkpt>
      <trkpt lat="45.85659" lon="4.69773">
        <ele>195</ele>
        <time>2017-08-19T09:27:08Z</time>
      </trkpt>
      <trkpt lat="45.85658" lon="4.69764">
        <ele>195</ele>
        <time>2017-08-19T09:27:09Z</time>
      </trkpt>
      <trkpt lat="45.85658" lon="4.69755">
        <ele>194</ele>
        <time>2017-08-19T09:27:10Z</time>
      </trkpt>
      <trkpt lat="45.85657" lon="4.69747">
        <ele>195</ele>
        <time>2017-08-19T09:27:11Z</time>
      </trkpt>
      <trkpt lat="45.85656" lon="4.69738">
        <ele>195</ele>
        <time>2017-08-19T09:27:12Z</time>
      </trkpt>
      <trkpt lat="45.85655" lon="4.6973">
        <ele>195</ele>
        <time>2017-08-19T09:27:13Z</time>
      </trkpt>
      <trkpt lat="45.85655" lon="4.69722">
        <ele>195</ele>
        <time>2017-08-19T09:27:14Z</time>
      </trkpt>
      <trkpt lat="45.85655" lon="4.69714">
        <ele>196</ele>
        <time>2017-08-19T09:27:15Z</time>
      </trkpt>
      <trkpt lat="45.85654" lon="4.69707">
        <ele>196</ele>
        <time>2017-08-19T09:27:16Z</time>
      </trkpt>
      <trkpt lat="45.85653" lon="4.69699">
        <ele>196</ele>
        <time>2017-08-19T09:27:17Z</time>
      </trkpt>
      <trkpt lat="45.85653" lon="4.69692">
        <ele>196</ele>
        <time>2017-08-19T09:27:18Z</time>
      </trkpt>
      <trkpt lat="45.85652" lon="4.69685">
        <ele>196</ele>
        <time>2017-08-19T09:27:19Z</time>
      </trkpt>
      <trkpt lat="45.85652" lon="4.69678">
        <ele>196</ele>
        <time>2017-08-19T09:27:20Z</time>
      </trkpt>
      <trkpt lat="45.85651" lon="4.69671">
        <ele>196</ele>
        <time>2017-08-19T09:27:21Z</time>
      </trkpt>
      <trkpt lat="45.85651" lon="4.69664">
        <ele>196</ele>
        <time>2017-08-19T09:27:22Z</time>
      </trkpt>
      <trkpt lat="45.8565" lon="4.69657">
        <ele>197</ele>
        <time>2017-08-19T09:27:23Z</time>
      </trkpt>
      <trkpt lat="45.85649" lon="4.69649">
        <ele>197</ele>
        <time>2017-08-19T09:27:24Z</time>
      </trkpt>
      <trkpt lat="45.85648" lon="4.69641">
        <ele>197</ele>
        <time>2017-08-19T09:27:25Z</time>
      </trkpt>
      <trkpt lat="45.85647" lon="4.69633">
        <ele>197</ele>
        <time>2017-08-19T09:27:26Z</time>
      </trkpt>
      <trkpt lat="45.85646" lon="4.69626">
        <ele>197</ele>
        <time>2017-08-19T09:27:27Z</time>
      </trkpt>
      <trkpt lat="45.85645" lon="4.69618">
        <ele>197</ele>
        <time>2017-08-19T09:27:28Z</time>
      </trkpt>
      <trkpt lat="45.85644" lon="4.69611">
        <ele>197</ele>
        <time>2017-08-19T09:27:29Z</time>
      </trkpt>
      <trkpt lat="45.85643" lon="4.69604">
        <ele>197</ele>
        <time>2017-08-19T09:27:30Z</time>
      </trkpt>
      <trkpt lat="45.85642" lon="4.69598">
        <ele>197</ele>
        <time>2017-08-19T09:27:31Z</time>
      </trkpt>
      <trkpt lat="45.85642" lon="4.69591">
        <ele>197</ele>
        <time>2017-08-19T09:27:32Z</time>
      </trkpt>
      <trkpt lat="45.85641" lon="4.69583">
        <ele>198</ele>
        <time>2017-08-19T09:27:33Z</time>
      </trkpt>
      <trkpt lat="45.85641" lon="4.69576">
        <ele>198</ele>
        <time>2017-08-19T09:27:34Z</time>
      </trkpt>
      <trkpt lat="45.8564" lon="4.69568">
        <ele>198</ele>
        <time>2017-08-19T09:27:35Z</time>
      </trkpt>
      <trkpt lat="45.8564" lon="4.6956">
        <ele>198</ele>
        <time>2017-08-19T09:27:36Z</time>
      </trkpt>
      <trkpt lat="45.85639" lon="4.69552">
        <ele>198</ele>
        <time>2017-08-19T09:27:37Z</time>
      </trkpt>
      <trkpt lat="45.85639" lon="4.69543">
        <ele>198</ele>
        <time>2017-08-19T09:27:38Z</time>
      </trkpt>
      <trkpt lat="45.85638" lon="4.69535">
        <ele>198</ele>
        <time>2017-08-19T09:27:39Z</time>
      </trkpt>
      <trkpt lat="45.85638" lon="4.69526">
        <ele>198</ele>
        <time>2017-08-19T09:27:40Z</time>
      </trkpt>
      <trkpt lat="45.85637" lon="4.69518">
        <ele>198</ele>
        <time>2017-08-19T09:27:41Z</time>
      </trkpt>
      <trkpt lat="45.85637" lon="4.6951">
        <ele>198</ele>
        <time>2017-08-19T09:27:42Z</time>
      </trkpt>
      <trkpt lat="45.85636" lon="4.69502">
        <ele>198</ele>
        <time>2017-08-19T09:27:43Z</time>
      </trkpt>
      <trkpt lat="45.85636" lon="4.69495">
        <ele>198</ele>
        <time>2017-08-19T09:27:44Z</time>
      </trkpt>
      <trkpt lat="45.85635" lon="4.69488">
        <ele>198</ele>
        <time>2017-08-19T09:27:45Z</time>
      </trkpt>
      <trkpt lat="45.85634" lon="4.69481">
        <ele>198</ele>
        <time>2017-08-19T09:27:46Z</time>
      </trkpt>
      <trkpt lat="45.85633" lon="4.69469">
        <ele>198</ele>
        <time>2017-08-19T09:27:48Z</time>
      </trkpt>
      <trkpt lat="45.85633" lon="4.69463">
        <ele>198</ele>
        <time>2017-08-19T09:27:49Z</time>
      </trkpt>
      <trkpt lat="45.85632" lon="4.69456">
        <ele>198</ele>
        <time>2017-08-19T09:27:50Z</time>
      </trkpt>
      <trkpt lat="45.85631" lon="4.69449">
        <ele>198</ele>
        <time>2017-08-19T09:27:51Z</time>
      </trkpt>
      <trkpt lat="45.85631" lon="4.69441">
        <ele>198</ele>
        <time>2017-08-19T09:27:52Z</time>
      </trkpt>
      <trkpt lat="45.8563" lon="4.69434">
        <ele>198</ele>
        <time>2017-08-19T09:27:53Z</time>
      </trkpt>
      <trkpt lat="45.85629" lon="4.69426">
        <ele>198</ele>
        <time>2017-08-19T09:27:54Z</time>
      </trkpt>
      <trkpt lat="45.85628" lon="4.69418">
        <ele>198</ele>
        <time>2017-08-19T09:27:55Z</time>
      </trkpt>
      <trkpt lat="45.85626" lon="4.6941">
        <ele>198</ele>
        <time>2017-08-19T09:27:56Z</time>
      </trkpt>
      <trkpt lat="45.85625" lon="4.69402">
        <ele>198</ele>
        <time>2017-08-19T09:27:57Z</time>
      </trkpt>
      <trkpt lat="45.85624" lon="4.69394">
        <ele>198</ele>
        <time>2017-08-19T09:27:58Z</time>
      </trkpt>
      <trkpt lat="45.85624" lon="4.69387">
        <ele>198</ele>
        <time>2017-08-19T09:27:59Z</time>
      </trkpt>
      <trkpt lat="45.85623" lon="4.69379">
        <ele>198</ele>
        <time>2017-08-19T09:28:00Z</time>
      </trkpt>
      <trkpt lat="45.85623" lon="4.69372">
        <ele>198</ele>
        <time>2017-08-19T09:28:01Z</time>
      </trkpt>
      <trkpt lat="45.85622" lon="4.69365">
        <ele>198</ele>
        <time>2017-08-19T09:28:02Z</time>
      </trkpt>
      <trkpt lat="45.85621" lon="4.69359">
        <ele>198</ele>
        <time>2017-08-19T09:28:03Z</time>
      </trkpt>
      <trkpt lat="45.8562" lon="4.69352">
        <ele>198</ele>
        <time>2017-08-19T09:28:04Z</time>
      </trkpt>
      <trkpt lat="45.8562" lon="4.69345">
        <ele>198</ele>
        <time>2017-08-19T09:28:05Z</time>
      </trkpt>
      <trkpt lat="45.85619" lon="4.69338">
        <ele>198</ele>
        <time>2017-08-19T09:28:06Z</time>
      </trkpt>
      <trkpt lat="45.85618" lon="4.6933">
        <ele>198</ele>
        <time>2017-08-19T09:28:07Z</time>
      </trkpt>
      <trkpt lat="45.85617" lon="4.69323">
        <ele>198</ele>
        <time>2017-08-19T09:28:08Z</time>
      </trkpt>
      <trkpt lat="45.85616" lon="4.69315">
        <ele>198</ele>
        <time>2017-08-19T09:28:09Z</time>
      </trkpt>
      <trkpt lat="45.85615" lon="4.69308">
        <ele>198</ele>
        <time>2017-08-19T09:28:10Z</time>
      </trkpt>
      <trkpt lat="45.85614" lon="4.693">
        <ele>198</ele>
        <time>2017-08-19T09:28:11Z</time>
      </trkpt>
      <trkpt lat="45.85614" lon="4.69292">
        <ele>198</ele>
        <time>2017-08-19T09:28:12Z</time>
      </trkpt>
      <trkpt lat="45.85615" lon="4.69284">
        <ele>198</ele>
        <time>2017-08-19T09:28:13Z</time>
      </trkpt>
      <trkpt lat="45.85616" lon="4.69276">
        <ele>198</ele>
        <time>2017-08-19T09:28:14Z</time>
      </trkpt>
      <trkpt lat="45.85617" lon="4.69268">
        <ele>198</ele>
        <time>2017-08-19T09:28:15Z</time>
      </trkpt>
      <trkpt lat="45.85617" lon="4.69261">
        <ele>198</ele>
        <time>2017-08-19T09:28:16Z</time>
      </trkpt>
      <trkpt lat="45.85615" lon="4.69253">
        <ele>198</ele>
        <time>2017-08-19T09:28:17Z</time>
      </trkpt>
      <trkpt lat="45.85613" lon="4.69247">
        <ele>199</ele>
        <time>2017-08-19T09:28:18Z</time>
      </trkpt>
      <trkpt lat="45.85611" lon="4.6924">
        <ele>199</ele>
        <time>2017-08-19T09:28:19Z</time>
      </trkpt>
      <trkpt lat="45.85609" lon="4.69234">
        <ele>199</ele>
        <time>2017-08-19T09:28:20Z</time>
      </trkpt>
      <trkpt lat="45.85609" lon="4.69227">
        <ele>199</ele>
        <time>2017-08-19T09:28:21Z</time>
      </trkpt>
      <trkpt lat="45.85608" lon="4.6922">
        <ele>199</ele>
        <time>2017-08-19T09:28:22Z</time>
      </trkpt>
      <trkpt lat="45.85608" lon="4.69214">
        <ele>199</ele>
        <time>2017-08-19T09:28:23Z</time>
      </trkpt>
      <trkpt lat="45.85607" lon="4.69207">
        <ele>199</ele>
        <time>2017-08-19T09:28:24Z</time>
      </trkpt>
      <trkpt lat="45.85607" lon="4.692">
        <ele>199</ele>
        <time>2017-08-19T09:28:25Z</time>
      </trkpt>
      <trkpt lat="45.85606" lon="4.69192">
        <ele>199</ele>
        <time>2017-08-19T09:28:26Z</time>
      </trkpt>
      <trkpt lat="45.85605" lon="4.69184">
        <ele>199</ele>
        <time>2017-08-19T09:28:27Z</time>
      </trkpt>
      <trkpt lat="45.85604" lon="4.69177">
        <ele>199</ele>
        <time>2017-08-19T09:28:28Z</time>
      </trkpt>
      <trkpt lat="45.85603" lon="4.69169">
        <ele>199</ele>
        <time>2017-08-19T09:28:29Z</time>
      </trkpt>
      <trkpt lat="45.85603" lon="4.69162">
        <ele>199</ele>
        <time>2017-08-19T09:28:30Z</time>
      </trkpt>
      <trkpt lat="45.85602" lon="4.69155">
        <ele>199</ele>
        <time>2017-08-19T09:28:31Z</time>
      </trkpt>
      <trkpt lat="45.85601" lon="4.69148">
        <ele>199</ele>
        <time>2017-08-19T09:28:32Z</time>
      </trkpt>
      <trkpt lat="45.85601" lon="4.69141">
        <ele>199</ele>
        <time>2017-08-19T09:28:33Z</time>
      </trkpt>
      <trkpt lat="45.856" lon="4.69134">
        <ele>198</ele>
        <time>2017-08-19T09:28:34Z</time>
      </trkpt>
      <trkpt lat="45.856" lon="4.69127">
        <ele>198</ele>
        <time>2017-08-19T09:28:35Z</time>
      </trkpt>
      <trkpt lat="45.85599" lon="4.6912">
        <ele>198</ele>
        <time>2017-08-19T09:28:36Z</time>
      </trkpt>
      <trkpt lat="45.85598" lon="4.69112">
        <ele>198</ele>
        <time>2017-08-19T09:28:37Z</time>
      </trkpt>
      <trkpt lat="45.85598" lon="4.69104">
        <ele>199</ele>
        <time>2017-08-19T09:28:38Z</time>
      </trkpt>
      <trkpt lat="45.85598" lon="4.69095">
        <ele>199</ele>
        <time>2017-08-19T09:28:39Z</time>
      </trkpt>
      <trkpt lat="45.85597" lon="4.69087">
        <ele>199</ele>
        <time>2017-08-19T09:28:40Z</time>
      </trkpt>
      <trkpt lat="45.85597" lon="4.69079">
        <ele>199</ele>
        <time>2017-08-19T09:28:41Z</time>
      </trkpt>
      <trkpt lat="45.85596" lon="4.69072">
        <ele>199</ele>
        <time>2017-08-19T09:28:42Z</time>
      </trkpt>
      <trkpt lat="45.85596" lon="4.69064">
        <ele>199</ele>
        <time>2017-08-19T09:28:43Z</time>
      </trkpt>
      <trkpt lat="45.85595" lon="4.69056">
        <ele>199</ele>
        <time>2017-08-19T09:28:44Z</time>
      </trkpt>
      <trkpt lat="45.85594" lon="4.69049">
        <ele>199</ele>
        <time>2017-08-19T09:28:45Z</time>
      </trkpt>
      <trkpt lat="45.85594" lon="4.69042">
        <ele>199</ele>
        <time>2017-08-19T09:28:46Z</time>
      </trkpt>
      <trkpt lat="45.85593" lon="4.69034">
        <ele>199</ele>
        <time>2017-08-19T09:28:47Z</time>
      </trkpt>
      <trkpt lat="45.85592" lon="4.69026">
        <ele>199</ele>
        <time>2017-08-19T09:28:48Z</time>
      </trkpt>
      <trkpt lat="45.85592" lon="4.69019">
        <ele>199</ele>
        <time>2017-08-19T09:28:49Z</time>
      </trkpt>
      <trkpt lat="45.85591" lon="4.69012">
        <ele>199</ele>
        <time>2017-08-19T09:28:50Z</time>
      </trkpt>
      <trkpt lat="45.85591" lon="4.69004">
        <ele>200</ele>
        <time>2017-08-19T09:28:51Z</time>
      </trkpt>
      <trkpt lat="45.85589" lon="4.68995">
        <ele>200</ele>
        <time>2017-08-19T09:28:52Z</time>
      </trkpt>
      <trkpt lat="45.85588" lon="4.68986">
        <ele>200</ele>
        <time>2017-08-19T09:28:53Z</time>
      </trkpt>
      <trkpt lat="45.85587" lon="4.68977">
        <ele>200</ele>
        <time>2017-08-19T09:28:54Z</time>
      </trkpt>
      <trkpt lat="45.85586" lon="4.68969">
        <ele>200</ele>
        <time>2017-08-19T09:28:55Z</time>
      </trkpt>
      <trkpt lat="45.85585" lon="4.68961">
        <ele>200</ele>
        <time>2017-08-19T09:28:56Z</time>
      </trkpt>
      <trkpt lat="45.85584" lon="4.68953">
        <ele>200</ele>
        <time>2017-08-19T09:28:57Z</time>
      </trkpt>
      <trkpt lat="45.85584" lon="4.68945">
        <ele>200</ele>
        <time>2017-08-19T09:28:58Z</time>
      </trkpt>
      <trkpt lat="45.85583" lon="4.68938">
        <ele>200</ele>
        <time>2017-08-19T09:28:59Z</time>
      </trkpt>
      <trkpt lat="45.85583" lon="4.6893">
        <ele>200</ele>
        <time>2017-08-19T09:29:00Z</time>
      </trkpt>
      <trkpt lat="45.85582" lon="4.68923">
        <ele>200</ele>
        <time>2017-08-19T09:29:01Z</time>
      </trkpt>
      <trkpt lat="45.85582" lon="4.68915">
        <ele>200</ele>
        <time>2017-08-19T09:29:02Z</time>
      </trkpt>
      <trkpt lat="45.85581" lon="4.68909">
        <ele>200</ele>
        <time>2017-08-19T09:29:03Z</time>
      </trkpt>
      <trkpt lat="45.85581" lon="4.68902">
        <ele>200</ele>
        <time>2017-08-19T09:29:04Z</time>
      </trkpt>
      <trkpt lat="45.85581" lon="4.68895">
        <ele>200</ele>
        <time>2017-08-19T09:29:05Z</time>
      </trkpt>
      <trkpt lat="45.8558" lon="4.68888">
        <ele>200</ele>
        <time>2017-08-19T09:29:06Z</time>
      </trkpt>
      <trkpt lat="45.85579" lon="4.68881">
        <ele>200</ele>
        <time>2017-08-19T09:29:07Z</time>
      </trkpt>
      <trkpt lat="45.85579" lon="4.68874">
        <ele>200</ele>
        <time>2017-08-19T09:29:08Z</time>
      </trkpt>
      <trkpt lat="45.85578" lon="4.68867">
        <ele>200</ele>
        <time>2017-08-19T09:29:09Z</time>
      </trkpt>
      <trkpt lat="45.85577" lon="4.68855">
        <ele>200</ele>
        <time>2017-08-19T09:29:11Z</time>
      </trkpt>
      <trkpt lat="45.85577" lon="4.68849">
        <ele>200</ele>
        <time>2017-08-19T09:29:12Z</time>
      </trkpt>
      <trkpt lat="45.85576" lon="4.68837">
        <ele>200</ele>
        <time>2017-08-19T09:29:14Z</time>
      </trkpt>
      <trkpt lat="45.85576" lon="4.6883">
        <ele>200</ele>
        <time>2017-08-19T09:29:15Z</time>
      </trkpt>
      <trkpt lat="45.85576" lon="4.6882">
        <ele>200</ele>
        <time>2017-08-19T09:29:17Z</time>
      </trkpt>
      <trkpt lat="45.85576" lon="4.68815">
        <ele>200</ele>
        <time>2017-08-19T09:29:18Z</time>
      </trkpt>
      <trkpt lat="45.85574" lon="4.68803">
        <ele>200</ele>
        <time>2017-08-19T09:29:20Z</time>
      </trkpt>
      <trkpt lat="45.85573" lon="4.68797">
        <ele>200</ele>
        <time>2017-08-19T09:29:21Z</time>
      </trkpt>
      <trkpt lat="45.85572" lon="4.68784">
        <ele>200</ele>
        <time>2017-08-19T09:29:24Z</time>
      </trkpt>
      <trkpt lat="45.85572" lon="4.68782">
        <ele>200</ele>
        <time>2017-08-19T09:29:25Z</time>
      </trkpt>
      <trkpt lat="45.8557" lon="4.68771">
        <ele>200</ele>
        <time>2017-08-19T09:29:29Z</time>
      </trkpt>
      <trkpt lat="45.8557" lon="4.68765">
        <ele>200</ele>
        <time>2017-08-19T09:29:30Z</time>
      </trkpt>
      <trkpt lat="45.85569" lon="4.68753">
        <ele>200</ele>
        <time>2017-08-19T09:29:32Z</time>
      </trkpt>
      <trkpt lat="45.85568" lon="4.68746">
        <ele>200</ele>
        <time>2017-08-19T09:29:33Z</time>
      </trkpt>
      <trkpt lat="45.85567" lon="4.68739">
        <ele>200</ele>
        <time>2017-08-19T09:29:34Z</time>
      </trkpt>
      <trkpt lat="45.85565" lon="4.68731">
        <ele>200</ele>
        <time>2017-08-19T09:29:35Z</time>
      </trkpt>
      <trkpt lat="45.85564" lon="4.68723">
        <ele>200</ele>
        <time>2017-08-19T09:29:36Z</time>
      </trkpt>
      <trkpt lat="45.85564" lon="4.68715">
        <ele>200</ele>
        <time>2017-08-19T09:29:37Z</time>
      </trkpt>
      <trkpt lat="45.85563" lon="4.68707">
        <ele>200</ele>
        <time>2017-08-19T09:29:38Z</time>
      </trkpt>
      <trkpt lat="45.85562" lon="4.68699">
        <ele>200</ele>
        <time>2017-08-19T09:29:39Z</time>
      </trkpt>
      <trkpt lat="45.85561" lon="4.68691">
        <ele>200</ele>
        <time>2017-08-19T09:29:40Z</time>
      </trkpt>
      <trkpt lat="45.85559" lon="4.68683">
        <ele>200</ele>
        <time>2017-08-19T09:29:41Z</time>
      </trkpt>
      <trkpt lat="45.85558" lon="4.68674">
        <ele>200</ele>
        <time>2017-08-19T09:29:42Z</time>
      </trkpt>
      <trkpt lat="45.85557" lon="4.68665">
        <ele>200</ele>
        <time>2017-08-19T09:29:43Z</time>
      </trkpt>
      <trkpt lat="45.85556" lon="4.68656">
        <ele>200</ele>
        <time>2017-08-19T09:29:44Z</time>
      </trkpt>
      <trkpt lat="45.85556" lon="4.68648">
        <ele>201</ele>
        <time>2017-08-19T09:29:45Z</time>
      </trkpt>
      <trkpt lat="45.85555" lon="4.6864">
        <ele>201</ele>
        <time>2017-08-19T09:29:46Z</time>
      </trkpt>
      <trkpt lat="45.85555" lon="4.68632">
        <ele>201</ele>
        <time>2017-08-19T09:29:47Z</time>
      </trkpt>
      <trkpt lat="45.85554" lon="4.68624">
        <ele>201</ele>
        <time>2017-08-19T09:29:48Z</time>
      </trkpt>
      <trkpt lat="45.85553" lon="4.68617">
        <ele>201</ele>
        <time>2017-08-19T09:29:49Z</time>
      </trkpt>
      <trkpt lat="45.85552" lon="4.68609">
        <ele>201</ele>
        <time>2017-08-19T09:29:50Z</time>
      </trkpt>
      <trkpt lat="45.8555" lon="4.68602">
        <ele>201</ele>
        <time>2017-08-19T09:29:51Z</time>
      </trkpt>
      <trkpt lat="45.8555" lon="4.68595">
        <ele>201</ele>
        <time>2017-08-19T09:29:52Z</time>
      </trkpt>
      <trkpt lat="45.85549" lon="4.68588">
        <ele>201</ele>
        <time>2017-08-19T09:29:53Z</time>
      </trkpt>
      <trkpt lat="45.85549" lon="4.68581">
        <ele>201</ele>
        <time>2017-08-19T09:29:54Z</time>
      </trkpt>
      <trkpt lat="45.85549" lon="4.68575">
        <ele>201</ele>
        <time>2017-08-19T09:29:55Z</time>
      </trkpt>
      <trkpt lat="45.85548" lon="4.68567">
        <ele>201</ele>
        <time>2017-08-19T09:29:56Z</time>
      </trkpt>
      <trkpt lat="45.85548" lon="4.68559">
        <ele>201</ele>
        <time>2017-08-19T09:29:57Z</time>
      </trkpt>
      <trkpt lat="45.85548" lon="4.68551">
        <ele>201</ele>
        <time>2017-08-19T09:29:58Z</time>
      </trkpt>
      <trkpt lat="45.85548" lon="4.68542">
        <ele>201</ele>
        <time>2017-08-19T09:29:59Z</time>
      </trkpt>
      <trkpt lat="45.85547" lon="4.68533">
        <ele>201</ele>
        <time>2017-08-19T09:30:00Z</time>
      </trkpt>
      <trkpt lat="45.85546" lon="4.68525">
        <ele>201</ele>
        <time>2017-08-19T09:30:01Z</time>
      </trkpt>
      <trkpt lat="45.85545" lon="4.68517">
        <ele>201</ele>
        <time>2017-08-19T09:30:02Z</time>
      </trkpt>
      <trkpt lat="45.85545" lon="4.68509">
        <ele>201</ele>
        <time>2017-08-19T09:30:03Z</time>
      </trkpt>
      <trkpt lat="45.85545" lon="4.68501">
        <ele>201</ele>
        <time>2017-08-19T09:30:04Z</time>
      </trkpt>
      <trkpt lat="45.85545" lon="4.68494">
        <ele>200</ele>
        <time>2017-08-19T09:30:05Z</time>
      </trkpt>
      <trkpt lat="45.85543" lon="4.68487">
        <ele>200</ele>
        <time>2017-08-19T09:30:06Z</time>
      </trkpt>
      <trkpt lat="45.85542" lon="4.6848">
        <ele>200</ele>
        <time>2017-08-19T09:30:07Z</time>
      </trkpt>
      <trkpt lat="45.85542" lon="4.68473">
        <ele>200</ele>
        <time>2017-08-19T09:30:08Z</time>
      </trkpt>
      <trkpt lat="45.85541" lon="4.68466">
        <ele>200</ele>
        <time>2017-08-19T09:30:09Z</time>
      </trkpt>
      <trkpt lat="45.8554" lon="4.6846">
        <ele>200</ele>
        <time>2017-08-19T09:30:10Z</time>
      </trkpt>
      <trkpt lat="45.85539" lon="4.68453">
        <ele>200</ele>
        <time>2017-08-19T09:30:11Z</time>
      </trkpt>
      <trkpt lat="45.85538" lon="4.68447">
        <ele>200</ele>
        <time>2017-08-19T09:30:12Z</time>
      </trkpt>
      <trkpt lat="45.85537" lon="4.6844">
        <ele>200</ele>
        <time>2017-08-19T09:30:13Z</time>
      </trkpt>
      <trkpt lat="45.85536" lon="4.68433">
        <ele>200</ele>
        <time>2017-08-19T09:30:14Z</time>
      </trkpt>
      <trkpt lat="45.85535" lon="4.68425">
        <ele>200</ele>
        <time>2017-08-19T09:30:15Z</time>
      </trkpt>
      <trkpt lat="45.85534" lon="4.68417">
        <ele>200</ele>
        <time>2017-08-19T09:30:16Z</time>
      </trkpt>
      <trkpt lat="45.85532" lon="4.68409">
        <ele>200</ele>
        <time>2017-08-19T09:30:17Z</time>
      </trkpt>
      <trkpt lat="45.85531" lon="4.68402">
        <ele>200</ele>
        <time>2017-08-19T09:30:18Z</time>
      </trkpt>
      <trkpt lat="45.8553" lon="4.68395">
        <ele>200</ele>
        <time>2017-08-19T09:30:19Z</time>
      </trkpt>
      <trkpt lat="45.85529" lon="4.68388">
        <ele>200</ele>
        <time>2017-08-19T09:30:20Z</time>
      </trkpt>
      <trkpt lat="45.85529" lon="4.6838">
        <ele>201</ele>
        <time>2017-08-19T09:30:21Z</time>
      </trkpt>
      <trkpt lat="45.85529" lon="4.68374">
        <ele>201</ele>
        <time>2017-08-19T09:30:22Z</time>
      </trkpt>
      <trkpt lat="45.85528" lon="4.68367">
        <ele>201</ele>
        <time>2017-08-19T09:30:23Z</time>
      </trkpt>
      <trkpt lat="45.85527" lon="4.6836">
        <ele>201</ele>
        <time>2017-08-19T09:30:24Z</time>
      </trkpt>
      <trkpt lat="45.85526" lon="4.68353">
        <ele>201</ele>
        <time>2017-08-19T09:30:25Z</time>
      </trkpt>
      <trkpt lat="45.85525" lon="4.68346">
        <ele>201</ele>
        <time>2017-08-19T09:30:26Z</time>
      </trkpt>
      <trkpt lat="45.85525" lon="4.68339">
        <ele>201</ele>
        <time>2017-08-19T09:30:27Z</time>
      </trkpt>
      <trkpt lat="45.85524" lon="4.68332">
        <ele>202</ele>
        <time>2017-08-19T09:30:28Z</time>
      </trkpt>
      <trkpt lat="45.85523" lon="4.68324">
        <ele>202</ele>
        <time>2017-08-19T09:30:29Z</time>
      </trkpt>
      <trkpt lat="45.85522" lon="4.68317">
        <ele>202</ele>
        <time>2017-08-19T09:30:30Z</time>
      </trkpt>
      <trkpt lat="45.85522" lon="4.68311">
        <ele>202</ele>
        <time>2017-08-19T09:30:31Z</time>
      </trkpt>
      <trkpt lat="45.85522" lon="4.68304">
        <ele>202</ele>
        <time>2017-08-19T09:30:32Z</time>
      </trkpt>
      <trkpt lat="45.85521" lon="4.68298">
        <ele>202</ele>
        <time>2017-08-19T09:30:33Z</time>
      </trkpt>
      <trkpt lat="45.8552" lon="4.68291">
        <ele>202</ele>
        <time>2017-08-19T09:30:34Z</time>
      </trkpt>
      <trkpt lat="45.85519" lon="4.68284">
        <ele>202</ele>
        <time>2017-08-19T09:30:35Z</time>
      </trkpt>
      <trkpt lat="45.85519" lon="4.68276">
        <ele>202</ele>
        <time>2017-08-19T09:30:36Z</time>
      </trkpt>
      <trkpt lat="45.85518" lon="4.68269">
        <ele>202</ele>
        <time>2017-08-19T09:30:37Z</time>
      </trkpt>
      <trkpt lat="45.85517" lon="4.68262">
        <ele>202</ele>
        <time>2017-08-19T09:30:38Z</time>
      </trkpt>
      <trkpt lat="45.85516" lon="4.68254">
        <ele>203</ele>
        <time>2017-08-19T09:30:39Z</time>
      </trkpt>
      <trkpt lat="45.85517" lon="4.68247">
        <ele>203</ele>
        <time>2017-08-19T09:30:40Z</time>
      </trkpt>
      <trkpt lat="45.85516" lon="4.6824">
        <ele>203</ele>
        <time>2017-08-19T09:30:41Z</time>
      </trkpt>
      <trkpt lat="45.85517" lon="4.68228">
        <ele>203</ele>
        <time>2017-08-19T09:30:43Z</time>
      </trkpt>
      <trkpt lat="45.85516" lon="4.68221">
        <ele>203</ele>
        <time>2017-08-19T09:30:44Z</time>
      </trkpt>
      <trkpt lat="45.85516" lon="4.68215">
        <ele>203</ele>
        <time>2017-08-19T09:30:45Z</time>
      </trkpt>
      <trkpt lat="45.85515" lon="4.68208">
        <ele>203</ele>
        <time>2017-08-19T09:30:46Z</time>
      </trkpt>
      <trkpt lat="45.85515" lon="4.68201">
        <ele>203</ele>
        <time>2017-08-19T09:30:47Z</time>
      </trkpt>
      <trkpt lat="45.85514" lon="4.68194">
        <ele>203</ele>
        <time>2017-08-19T09:30:48Z</time>
      </trkpt>
      <trkpt lat="45.85513" lon="4.68187">
        <ele>203</ele>
        <time>2017-08-19T09:30:49Z</time>
      </trkpt>
      <trkpt lat="45.85512" lon="4.68179">
        <ele>204</ele>
        <time>2017-08-19T09:30:50Z</time>
      </trkpt>
      <trkpt lat="45.85511" lon="4.68171">
        <ele>204</ele>
        <time>2017-08-19T09:30:51Z</time>
      </trkpt>
      <trkpt lat="45.85512" lon="4.68163">
        <ele>203</ele>
        <time>2017-08-19T09:30:52Z</time>
      </trkpt>
      <trkpt lat="45.8551" lon="4.68155">
        <ele>203</ele>
        <time>2017-08-19T09:30:53Z</time>
      </trkpt>
      <trkpt lat="45.85509" lon="4.68148">
        <ele>203</ele>
        <time>2017-08-19T09:30:54Z</time>
      </trkpt>
      <trkpt lat="45.85508" lon="4.6814">
        <ele>203</ele>
        <time>2017-08-19T09:30:55Z</time>
      </trkpt>
      <trkpt lat="45.85508" lon="4.68134">
        <ele>203</ele>
        <time>2017-08-19T09:30:56Z</time>
      </trkpt>
      <trkpt lat="45.85507" lon="4.68122">
        <ele>203</ele>
        <time>2017-08-19T09:30:58Z</time>
      </trkpt>
      <trkpt lat="45.85507" lon="4.68115">
        <ele>203</ele>
        <time>2017-08-19T09:30:59Z</time>
      </trkpt>
      <trkpt lat="45.85506" lon="4.68107">
        <ele>203</ele>
        <time>2017-08-19T09:31:00Z</time>
      </trkpt>
      <trkpt lat="45.85506" lon="4.681">
        <ele>203</ele>
        <time>2017-08-19T09:31:01Z</time>
      </trkpt>
      <trkpt lat="45.85506" lon="4.68092">
        <ele>203</ele>
        <time>2017-08-19T09:31:02Z</time>
      </trkpt>
      <trkpt lat="45.85504" lon="4.68085">
        <ele>204</ele>
        <time>2017-08-19T09:31:03Z</time>
      </trkpt>
      <trkpt lat="45.85504" lon="4.68078">
        <ele>204</ele>
        <time>2017-08-19T09:31:04Z</time>
      </trkpt>
      <trkpt lat="45.85504" lon="4.68072">
        <ele>203</ele>
        <time>2017-08-19T09:31:05Z</time>
      </trkpt>
      <trkpt lat="45.85504" lon="4.6806">
        <ele>203</ele>
        <time>2017-08-19T09:31:07Z</time>
      </trkpt>
      <trkpt lat="45.85504" lon="4.68054">
        <ele>203</ele>
        <time>2017-08-19T09:31:08Z</time>
      </trkpt>
      <trkpt lat="45.85501" lon="4.68042">
        <ele>203</ele>
        <time>2017-08-19T09:31:10Z</time>
      </trkpt>
      <trkpt lat="45.85501" lon="4.68036">
        <ele>204</ele>
        <time>2017-08-19T09:31:11Z</time>
      </trkpt>
      <trkpt lat="45.855" lon="4.68024">
        <ele>204</ele>
        <time>2017-08-19T09:31:13Z</time>
      </trkpt>
      <trkpt lat="45.855" lon="4.68018">
        <ele>204</ele>
        <time>2017-08-19T09:31:14Z</time>
      </trkpt>
      <trkpt lat="45.85502" lon="4.68008">
        <ele>205</ele>
        <time>2017-08-19T09:31:16Z</time>
      </trkpt>
      <trkpt lat="45.85503" lon="4.68003">
        <ele>205</ele>
        <time>2017-08-19T09:31:17Z</time>
      </trkpt>
      <trkpt lat="45.85508" lon="4.67994">
        <ele>206</ele>
        <time>2017-08-19T09:31:19Z</time>
      </trkpt>
      <trkpt lat="45.85511" lon="4.6799">
        <ele>206</ele>
        <time>2017-08-19T09:31:20Z</time>
      </trkpt>
      <trkpt lat="45.85516" lon="4.67981">
        <ele>206</ele>
        <time>2017-08-19T09:31:22Z</time>
      </trkpt>
      <trkpt lat="45.85519" lon="4.67977">
        <ele>206</ele>
        <time>2017-08-19T09:31:23Z</time>
      </trkpt>
      <trkpt lat="45.85524" lon="4.67968">
        <ele>206</ele>
        <time>2017-08-19T09:31:25Z</time>
      </trkpt>
      <trkpt lat="45.85527" lon="4.67964">
        <ele>206</ele>
        <time>2017-08-19T09:31:26Z</time>
      </trkpt>
      <trkpt lat="45.85532" lon="4.6796">
        <ele>206</ele>
        <time>2017-08-19T09:31:27Z</time>
      </trkpt>
      <trkpt lat="45.85537" lon="4.67957">
        <ele>205</ele>
        <time>2017-08-19T09:31:28Z</time>
      </trkpt>
      <trkpt lat="45.85542" lon="4.67953">
        <ele>205</ele>
        <time>2017-08-19T09:31:29Z</time>
      </trkpt>
      <trkpt lat="45.85547" lon="4.67948">
        <ele>205</ele>
        <time>2017-08-19T09:31:30Z</time>
      </trkpt>
      <trkpt lat="45.85552" lon="4.67944">
        <ele>205</ele>
        <time>2017-08-19T09:31:31Z</time>
      </trkpt>
      <trkpt lat="45.85556" lon="4.67941">
        <ele>205</ele>
        <time>2017-08-19T09:31:32Z</time>
      </trkpt>
      <trkpt lat="45.85563" lon="4.67935">
        <ele>205</ele>
        <time>2017-08-19T09:31:34Z</time>
      </trkpt>
      <trkpt lat="45.85568" lon="4.67935">
        <ele>205</ele>
        <time>2017-08-19T09:31:35Z</time>
      </trkpt>
      <trkpt lat="45.85575" lon="4.67942">
        <ele>205</ele>
        <time>2017-08-19T09:31:37Z</time>
      </trkpt>
      <trkpt lat="45.85578" lon="4.67948">
        <ele>204</ele>
        <time>2017-08-19T09:31:38Z</time>
      </trkpt>
      <trkpt lat="45.85581" lon="4.67954">
        <ele>204</ele>
        <time>2017-08-19T09:31:39Z</time>
      </trkpt>
      <trkpt lat="45.85584" lon="4.67962">
        <ele>203</ele>
        <time>2017-08-19T09:31:40Z</time>
      </trkpt>
      <trkpt lat="45.85587" lon="4.67969">
        <ele>203</ele>
        <time>2017-08-19T09:31:41Z</time>
      </trkpt>
      <trkpt lat="45.8559" lon="4.67977">
        <ele>203</ele>
        <time>2017-08-19T09:31:42Z</time>
      </trkpt>
      <trkpt lat="45.85592" lon="4.67985">
        <ele>202</ele>
        <time>2017-08-19T09:31:43Z</time>
      </trkpt>
      <trkpt lat="45.85595" lon="4.67993">
        <ele>202</ele>
        <time>2017-08-19T09:31:44Z</time>
      </trkpt>
      <trkpt lat="45.85598" lon="4.68001">
        <ele>201</ele>
        <time>2017-08-19T09:31:45Z</time>
      </trkpt>
      <trkpt lat="45.85601" lon="4.68008">
        <ele>201</ele>
        <time>2017-08-19T09:31:46Z</time>
      </trkpt>
      <trkpt lat="45.85605" lon="4.68015">
        <ele>201</ele>
        <time>2017-08-19T09:31:47Z</time>
      </trkpt>
      <trkpt lat="45.85608" lon="4.68021">
        <ele>201</ele>
        <time>2017-08-19T09:31:48Z</time>
      </trkpt>
      <trkpt lat="45.85612" lon="4.68028">
        <ele>201</ele>
        <time>2017-08-19T09:31:49Z</time>
      </trkpt>
      <trkpt lat="45.85615" lon="4.68034">
        <ele>201</ele>
        <time>2017-08-19T09:31:50Z</time>
      </trkpt>
      <trkpt lat="45.85618" lon="4.6804">
        <ele>200</ele>
        <time>2017-08-19T09:31:51Z</time>
      </trkpt>
      <trkpt lat="45.85621" lon="4.68045">
        <ele>200</ele>
        <time>2017-08-19T09:31:52Z</time>
      </trkpt>
      <trkpt lat="45.85625" lon="4.68053">
        <ele>200</ele>
        <time>2017-08-19T09:32:01Z</time>
      </trkpt>
      <trkpt lat="45.85625" lon="4.68055">
        <ele>200</ele>
        <time>2017-08-19T09:32:02Z</time>
      </trkpt>
      <trkpt lat="45.85624" lon="4.68056">
        <ele>200</ele>
        <time>2017-08-19T09:32:22Z</time>
      </trkpt>
      <trkpt lat="45.85624" lon="4.68055">
        <ele>200</ele>
        <time>2017-08-19T09:32:23Z</time>
      </trkpt>
      <trkpt lat="45.8563" lon="4.68062">
        <ele>200</ele>
        <time>2017-08-19T09:39:58Z</time>
      </trkpt>
      <trkpt lat="45.85632" lon="4.68063">
        <ele>200</ele>
        <time>2017-08-19T09:39:59Z</time>
      </trkpt>
      <trkpt lat="45.85638" lon="4.68068">
        <ele>200</ele>
        <time>2017-08-19T09:40:02Z</time>
      </trkpt>
      <trkpt lat="45.8564" lon="4.68071">
        <ele>200</ele>
        <time>2017-08-19T09:40:03Z</time>
      </trkpt>
      <trkpt lat="45.85645" lon="4.68079">
        <ele>200</ele>
        <time>2017-08-19T09:40:05Z</time>
      </trkpt>
      <trkpt lat="45.85648" lon="4.68083">
        <ele>200</ele>
        <time>2017-08-19T09:40:06Z</time>
      </trkpt>
      <trkpt lat="45.85651" lon="4.68088">
        <ele>200</ele>
        <time>2017-08-19T09:40:07Z</time>
      </trkpt>
      <trkpt lat="45.85654" lon="4.68093">
        <ele>200</ele>
        <time>2017-08-19T09:40:08Z</time>
      </trkpt>
      <trkpt lat="45.8566" lon="4.68101">
        <ele>200</ele>
        <time>2017-08-19T09:40:10Z</time>
      </trkpt>
      <trkpt lat="45.85663" lon="4.68105">
        <ele>200</ele>
        <time>2017-08-19T09:40:11Z</time>
      </trkpt>
      <trkpt lat="45.85669" lon="4.68113">
        <ele>200</ele>
        <time>2017-08-19T09:40:13Z</time>
      </trkpt>
      <trkpt lat="45.85672" lon="4.68116">
        <ele>200</ele>
        <time>2017-08-19T09:40:14Z</time>
      </trkpt>
      <trkpt lat="45.85677" lon="4.68123">
        <ele>200</ele>
        <time>2017-08-19T09:40:16Z</time>
      </trkpt>
      <trkpt lat="45.85681" lon="4.68127">
        <ele>200</ele>
        <time>2017-08-19T09:40:17Z</time>
      </trkpt>
      <trkpt lat="45.85684" lon="4.68131">
        <ele>200</ele>
        <time>2017-08-19T09:40:18Z</time>
      </trkpt>
      <trkpt lat="45.85688" lon="4.68136">
        <ele>200</ele>
        <time>2017-08-19T09:40:19Z</time>
      </trkpt>
      <trkpt lat="45.85692" lon="4.68141">
        <ele>200</ele>
        <time>2017-08-19T09:40:20Z</time>
      </trkpt>
      <trkpt lat="45.85696" lon="4.68146">
        <ele>200</ele>
        <time>2017-08-19T09:40:21Z</time>
      </trkpt>
      <trkpt lat="45.857" lon="4.68151">
        <ele>200</ele>
        <time>2017-08-19T09:40:22Z</time>
      </trkpt>
      <trkpt lat="45.85704" lon="4.68156">
        <ele>200</ele>
        <time>2017-08-19T09:40:23Z</time>
      </trkpt>
      <trkpt lat="45.85709" lon="4.68161">
        <ele>200</ele>
        <time>2017-08-19T09:40:24Z</time>
      </trkpt>
      <trkpt lat="45.85713" lon="4.68166">
        <ele>200</ele>
        <time>2017-08-19T09:40:25Z</time>
      </trkpt>
      <trkpt lat="45.85717" lon="4.68171">
        <ele>199</ele>
        <time>2017-08-19T09:40:26Z</time>
      </trkpt>
      <trkpt lat="45.85722" lon="4.68176">
        <ele>199</ele>
        <time>2017-08-19T09:40:27Z</time>
      </trkpt>
      <trkpt lat="45.85726" lon="4.6818">
        <ele>199</ele>
        <time>2017-08-19T09:40:28Z</time>
      </trkpt>
      <trkpt lat="45.8573" lon="4.68185">
        <ele>199</ele>
        <time>2017-08-19T09:40:29Z</time>
      </trkpt>
      <trkpt lat="45.85735" lon="4.68188">
        <ele>199</ele>
        <time>2017-08-19T09:40:30Z</time>
      </trkpt>
      <trkpt lat="45.85739" lon="4.68192">
        <ele>199</ele>
        <time>2017-08-19T09:40:31Z</time>
      </trkpt>
      <trkpt lat="45.85745" lon="4.68201">
        <ele>199</ele>
        <time>2017-08-19T09:40:33Z</time>
      </trkpt>
      <trkpt lat="45.85749" lon="4.68206">
        <ele>199</ele>
        <time>2017-08-19T09:40:34Z</time>
      </trkpt>
      <trkpt lat="45.85753" lon="4.68211">
        <ele>202</ele>
        <time>2017-08-19T09:40:35Z</time>
      </trkpt>
      <trkpt lat="45.85757" lon="4.68216">
        <ele>201</ele>
        <time>2017-08-19T09:40:36Z</time>
      </trkpt>
      <trkpt lat="45.85761" lon="4.68221">
        <ele>201</ele>
        <time>2017-08-19T09:40:37Z</time>
      </trkpt>
      <trkpt lat="45.85765" lon="4.68225">
        <ele>201</ele>
        <time>2017-08-19T09:40:38Z</time>
      </trkpt>
      <trkpt lat="45.85769" lon="4.6823">
        <ele>201</ele>
        <time>2017-08-19T09:40:39Z</time>
      </trkpt>
      <trkpt lat="45.85773" lon="4.68236">
        <ele>201</ele>
        <time>2017-08-19T09:40:40Z</time>
      </trkpt>
      <trkpt lat="45.85777" lon="4.68241">
        <ele>201</ele>
        <time>2017-08-19T09:40:41Z</time>
      </trkpt>
      <trkpt lat="45.85781" lon="4.68247">
        <ele>202</ele>
        <time>2017-08-19T09:40:42Z</time>
      </trkpt>
      <trkpt lat="45.85786" lon="4.68252">
        <ele>200</ele>
        <time>2017-08-19T09:40:43Z</time>
      </trkpt>
      <trkpt lat="45.8579" lon="4.68258">
        <ele>200</ele>
        <time>2017-08-19T09:40:44Z</time>
      </trkpt>
      <trkpt lat="45.85794" lon="4.68263">
        <ele>201</ele>
        <time>2017-08-19T09:40:45Z</time>
      </trkpt>
      <trkpt lat="45.85798" lon="4.68268">
        <ele>201</ele>
        <time>2017-08-19T09:40:46Z</time>
      </trkpt>
      <trkpt lat="45.85802" lon="4.68273">
        <ele>201</ele>
        <time>2017-08-19T09:40:47Z</time>
      </trkpt>
      <trkpt lat="45.85805" lon="4.68278">
        <ele>201</ele>
        <time>2017-08-19T09:40:48Z</time>
      </trkpt>
      <trkpt lat="45.85808" lon="4.68283">
        <ele>201</ele>
        <time>2017-08-19T09:40:49Z</time>
      </trkpt>
      <trkpt lat="45.85812" lon="4.68288">
        <ele>201</ele>
        <time>2017-08-19T09:40:50Z</time>
      </trkpt>
      <trkpt lat="45.85815" lon="4.68293">
        <ele>201</ele>
        <time>2017-08-19T09:40:51Z</time>
      </trkpt>
      <trkpt lat="45.85817" lon="4.68299">
        <ele>201</ele>
        <time>2017-08-19T09:40:52Z</time>
      </trkpt>
      <trkpt lat="45.8582" lon="4.68304">
        <ele>201</ele>
        <time>2017-08-19T09:40:53Z</time>
      </trkpt>
      <trkpt lat="45.85823" lon="4.6831">
        <ele>200</ele>
        <time>2017-08-19T09:40:54Z</time>
      </trkpt>
      <trkpt lat="45.85826" lon="4.68316">
        <ele>200</ele>
        <time>2017-08-19T09:40:55Z</time>
      </trkpt>
      <trkpt lat="45.85829" lon="4.68322">
        <ele>200</ele>
        <time>2017-08-19T09:40:56Z</time>
      </trkpt>
      <trkpt lat="45.85831" lon="4.68327">
        <ele>200</ele>
        <time>2017-08-19T09:40:57Z</time>
      </trkpt>
      <trkpt lat="45.85834" lon="4.68334">
        <ele>200</ele>
        <time>2017-08-19T09:40:58Z</time>
      </trkpt>
      <trkpt lat="45.85836" lon="4.6834">
        <ele>200</ele>
        <time>2017-08-19T09:40:59Z</time>
      </trkpt>
      <trkpt lat="45.85838" lon="4.68346">
        <ele>200</ele>
        <time>2017-08-19T09:41:00Z</time>
      </trkpt>
      <trkpt lat="45.85841" lon="4.68356">
        <ele>201</ele>
        <time>2017-08-19T09:41:02Z</time>
      </trkpt>
      <trkpt lat="45.85843" lon="4.68362">
        <ele>201</ele>
        <time>2017-08-19T09:41:03Z</time>
      </trkpt>
      <trkpt lat="45.85845" lon="4.68368">
        <ele>201</ele>
        <time>2017-08-19T09:41:04Z</time>
      </trkpt>
      <trkpt lat="45.85848" lon="4.68375">
        <ele>201</ele>
        <time>2017-08-19T09:41:05Z</time>
      </trkpt>
      <trkpt lat="45.85851" lon="4.68382">
        <ele>201</ele>
        <time>2017-08-19T09:41:06Z</time>
      </trkpt>
      <trkpt lat="45.85852" lon="4.6839">
        <ele>201</ele>
        <time>2017-08-19T09:41:07Z</time>
      </trkpt>
      <trkpt lat="45.85854" lon="4.68397">
        <ele>201</ele>
        <time>2017-08-19T09:41:08Z</time>
      </trkpt>
      <trkpt lat="45.85855" lon="4.68406">
        <ele>200</ele>
        <time>2017-08-19T09:41:09Z</time>
      </trkpt>
      <trkpt lat="45.85857" lon="4.68413">
        <ele>200</ele>
        <time>2017-08-19T09:41:10Z</time>
      </trkpt>
      <trkpt lat="45.85858" lon="4.68421">
        <ele>200</ele>
        <time>2017-08-19T09:41:11Z</time>
      </trkpt>
      <trkpt lat="45.85859" lon="4.68428">
        <ele>200</ele>
        <time>2017-08-19T09:41:12Z</time>
      </trkpt>
      <trkpt lat="45.85861" lon="4.68435">
        <ele>200</ele>
        <time>2017-08-19T09:41:13Z</time>
      </trkpt>
      <trkpt lat="45.85862" lon="4.68441">
        <ele>200</ele>
        <time>2017-08-19T09:41:14Z</time>
      </trkpt>
      <trkpt lat="45.85864" lon="4.68448">
        <ele>200</ele>
        <time>2017-08-19T09:41:15Z</time>
      </trkpt>
      <trkpt lat="45.85865" lon="4.68454">
        <ele>200</ele>
        <time>2017-08-19T09:41:16Z</time>
      </trkpt>
      <trkpt lat="45.85867" lon="4.68461">
        <ele>200</ele>
        <time>2017-08-19T09:41:17Z</time>
      </trkpt>
      <trkpt lat="45.85868" lon="4.68468">
        <ele>200</ele>
        <time>2017-08-19T09:41:18Z</time>
      </trkpt>
      <trkpt lat="45.85869" lon="4.68476">
        <ele>200</ele>
        <time>2017-08-19T09:41:19Z</time>
      </trkpt>
      <trkpt lat="45.8587" lon="4.68484">
        <ele>200</ele>
        <time>2017-08-19T09:41:20Z</time>
      </trkpt>
      <trkpt lat="45.85872" lon="4.68492">
        <ele>200</ele>
        <time>2017-08-19T09:41:21Z</time>
      </trkpt>
      <trkpt lat="45.85873" lon="4.68501">
        <ele>200</ele>
        <time>2017-08-19T09:41:22Z</time>
      </trkpt>
      <trkpt lat="45.85875" lon="4.68509">
        <ele>200</ele>
        <time>2017-08-19T09:41:23Z</time>
      </trkpt>
      <trkpt lat="45.85876" lon="4.68518">
        <ele>200</ele>
        <time>2017-08-19T09:41:24Z</time>
      </trkpt>
      <trkpt lat="45.85877" lon="4.68527">
        <ele>200</ele>
        <time>2017-08-19T09:41:25Z</time>
      </trkpt>
      <trkpt lat="45.85879" lon="4.68536">
        <ele>200</ele>
        <time>2017-08-19T09:41:26Z</time>
      </trkpt>
      <trkpt lat="45.8588" lon="4.68545">
        <ele>200</ele>
        <time>2017-08-19T09:41:27Z</time>
      </trkpt>
      <trkpt lat="45.85881" lon="4.68555">
        <ele>200</ele>
        <time>2017-08-19T09:41:28Z</time>
      </trkpt>
      <trkpt lat="45.85881" lon="4.68565">
        <ele>200</ele>
        <time>2017-08-19T09:41:29Z</time>
      </trkpt>
      <trkpt lat="45.85882" lon="4.68574">
        <ele>200</ele>
        <time>2017-08-19T09:41:30Z</time>
      </trkpt>
      <trkpt lat="45.85883" lon="4.68583">
        <ele>199</ele>
        <time>2017-08-19T09:41:31Z</time>
      </trkpt>
      <trkpt lat="45.85885" lon="4.68592">
        <ele>199</ele>
        <time>2017-08-19T09:41:32Z</time>
      </trkpt>
      <trkpt lat="45.85886" lon="4.68601">
        <ele>199</ele>
        <time>2017-08-19T09:41:33Z</time>
      </trkpt>
      <trkpt lat="45.85887" lon="4.6861">
        <ele>199</ele>
        <time>2017-08-19T09:41:34Z</time>
      </trkpt>
      <trkpt lat="45.85887" lon="4.68618">
        <ele>199</ele>
        <time>2017-08-19T09:41:35Z</time>
      </trkpt>
      <trkpt lat="45.85888" lon="4.68627">
        <ele>198</ele>
        <time>2017-08-19T09:41:36Z</time>
      </trkpt>
      <trkpt lat="45.85888" lon="4.68635">
        <ele>198</ele>
        <time>2017-08-19T09:41:37Z</time>
      </trkpt>
      <trkpt lat="45.85888" lon="4.68643">
        <ele>198</ele>
        <time>2017-08-19T09:41:38Z</time>
      </trkpt>
      <trkpt lat="45.85888" lon="4.68652">
        <ele>198</ele>
        <time>2017-08-19T09:41:39Z</time>
      </trkpt>
      <trkpt lat="45.85888" lon="4.68659">
        <ele>198</ele>
        <time>2017-08-19T09:41:40Z</time>
      </trkpt>
      <trkpt lat="45.85888" lon="4.68667">
        <ele>198</ele>
        <time>2017-08-19T09:41:41Z</time>
      </trkpt>
      <trkpt lat="45.85887" lon="4.68674">
        <ele>198</ele>
        <time>2017-08-19T09:41:42Z</time>
      </trkpt>
      <trkpt lat="45.85887" lon="4.68681">
        <ele>198</ele>
        <time>2017-08-19T09:41:43Z</time>
      </trkpt>
      <trkpt lat="45.85887" lon="4.68688">
        <ele>198</ele>
        <time>2017-08-19T09:41:44Z</time>
      </trkpt>
      <trkpt lat="45.85886" lon="4.68696">
        <ele>198</ele>
        <time>2017-08-19T09:41:45Z</time>
      </trkpt>
      <trkpt lat="45.85885" lon="4.68704">
        <ele>198</ele>
        <time>2017-08-19T09:41:46Z</time>
      </trkpt>
      <trkpt lat="45.85884" lon="4.68712">
        <ele>198</ele>
        <time>2017-08-19T09:41:47Z</time>
      </trkpt>
      <trkpt lat="45.85882" lon="4.68721">
        <ele>198</ele>
        <time>2017-08-19T09:41:48Z</time>
      </trkpt>
      <trkpt lat="45.85881" lon="4.6873">
        <ele>198</ele>
        <time>2017-08-19T09:41:49Z</time>
      </trkpt>
      <trkpt lat="45.8588" lon="4.68738">
        <ele>198</ele>
        <time>2017-08-19T09:41:50Z</time>
      </trkpt>
      <trkpt lat="45.85878" lon="4.68746">
        <ele>198</ele>
        <time>2017-08-19T09:41:51Z</time>
      </trkpt>
      <trkpt lat="45.85877" lon="4.68754">
        <ele>198</ele>
        <time>2017-08-19T09:41:52Z</time>
      </trkpt>
      <trkpt lat="45.85875" lon="4.68762">
        <ele>198</ele>
        <time>2017-08-19T09:41:53Z</time>
      </trkpt>
      <trkpt lat="45.85874" lon="4.6877">
        <ele>198</ele>
        <time>2017-08-19T09:41:54Z</time>
      </trkpt>
      <trkpt lat="45.85873" lon="4.68777">
        <ele>198</ele>
        <time>2017-08-19T09:41:55Z</time>
      </trkpt>
      <trkpt lat="45.85872" lon="4.68785">
        <ele>198</ele>
        <time>2017-08-19T09:41:56Z</time>
      </trkpt>
      <trkpt lat="45.85871" lon="4.68793">
        <ele>198</ele>
        <time>2017-08-19T09:41:57Z</time>
      </trkpt>
      <trkpt lat="45.8587" lon="4.688">
        <ele>198</ele>
        <time>2017-08-19T09:41:58Z</time>
      </trkpt>
      <trkpt lat="45.85869" lon="4.68808">
        <ele>198</ele>
        <time>2017-08-19T09:41:59Z</time>
      </trkpt>
      <trkpt lat="45.85868" lon="4.68816">
        <ele>198</ele>
        <time>2017-08-19T09:42:00Z</time>
      </trkpt>
      <trkpt lat="45.85867" lon="4.68823">
        <ele>198</ele>
        <time>2017-08-19T09:42:01Z</time>
      </trkpt>
      <trkpt lat="45.85867" lon="4.68831">
        <ele>198</ele>
        <time>2017-08-19T09:42:02Z</time>
      </trkpt>
      <trkpt lat="45.85866" lon="4.6884">
        <ele>198</ele>
        <time>2017-08-19T09:42:03Z</time>
      </trkpt>
      <trkpt lat="45.85865" lon="4.68849">
        <ele>198</ele>
        <time>2017-08-19T09:42:04Z</time>
      </trkpt>
      <trkpt lat="45.85864" lon="4.68859">
        <ele>198</ele>
        <time>2017-08-19T09:42:05Z</time>
      </trkpt>
      <trkpt lat="45.85863" lon="4.68868">
        <ele>198</ele>
        <time>2017-08-19T09:42:06Z</time>
      </trkpt>
      <trkpt lat="45.85863" lon="4.68878">
        <ele>197</ele>
        <time>2017-08-19T09:42:07Z</time>
      </trkpt>
      <trkpt lat="45.85862" lon="4.68887">
        <ele>197</ele>
        <time>2017-08-19T09:42:08Z</time>
      </trkpt>
      <trkpt lat="45.85861" lon="4.68895">
        <ele>197</ele>
        <time>2017-08-19T09:42:09Z</time>
      </trkpt>
      <trkpt lat="45.85861" lon="4.68904">
        <ele>197</ele>
        <time>2017-08-19T09:42:10Z</time>
      </trkpt>
      <trkpt lat="45.8586" lon="4.68912">
        <ele>197</ele>
        <time>2017-08-19T09:42:11Z</time>
      </trkpt>
      <trkpt lat="45.8586" lon="4.6892">
        <ele>197</ele>
        <time>2017-08-19T09:42:12Z</time>
      </trkpt>
      <trkpt lat="45.8586" lon="4.68928">
        <ele>197</ele>
        <time>2017-08-19T09:42:13Z</time>
      </trkpt>
      <trkpt lat="45.8586" lon="4.68936">
        <ele>197</ele>
        <time>2017-08-19T09:42:14Z</time>
      </trkpt>
      <trkpt lat="45.8586" lon="4.68943">
        <ele>197</ele>
        <time>2017-08-19T09:42:15Z</time>
      </trkpt>
      <trkpt lat="45.8586" lon="4.68951">
        <ele>197</ele>
        <time>2017-08-19T09:42:16Z</time>
      </trkpt>
      <trkpt lat="45.8586" lon="4.68959">
        <ele>197</ele>
        <time>2017-08-19T09:42:17Z</time>
      </trkpt>
      <trkpt lat="45.85861" lon="4.68968">
        <ele>197</ele>
        <time>2017-08-19T09:42:18Z</time>
      </trkpt>
      <trkpt lat="45.85862" lon="4.68977">
        <ele>197</ele>
        <time>2017-08-19T09:42:19Z</time>
      </trkpt>
      <trkpt lat="45.85863" lon="4.68987">
        <ele>197</ele>
        <time>2017-08-19T09:42:20Z</time>
      </trkpt>
      <trkpt lat="45.85865" lon="4.68996">
        <ele>197</ele>
        <time>2017-08-19T09:42:21Z</time>
      </trkpt>
      <trkpt lat="45.85867" lon="4.69005">
        <ele>197</ele>
        <time>2017-08-19T09:42:22Z</time>
      </trkpt>
      <trkpt lat="45.8587" lon="4.69014">
        <ele>197</ele>
        <time>2017-08-19T09:42:23Z</time>
      </trkpt>
      <trkpt lat="45.85873" lon="4.69023">
        <ele>197</ele>
        <time>2017-08-19T09:42:24Z</time>
      </trkpt>
      <trkpt lat="45.85875" lon="4.69031">
        <ele>198</ele>
        <time>2017-08-19T09:42:25Z</time>
      </trkpt>
      <trkpt lat="45.85878" lon="4.69038">
        <ele>198</ele>
        <time>2017-08-19T09:42:26Z</time>
      </trkpt>
      <trkpt lat="45.85882" lon="4.69044">
        <ele>198</ele>
        <time>2017-08-19T09:42:27Z</time>
      </trkpt>
      <trkpt lat="45.85885" lon="4.6905">
        <ele>198</ele>
        <time>2017-08-19T09:42:28Z</time>
      </trkpt>
      <trkpt lat="45.85888" lon="4.69055">
        <ele>198</ele>
        <time>2017-08-19T09:42:29Z</time>
      </trkpt>
      <trkpt lat="45.85892" lon="4.69061">
        <ele>198</ele>
        <time>2017-08-19T09:42:30Z</time>
      </trkpt>
      <trkpt lat="45.85896" lon="4.69066">
        <ele>198</ele>
        <time>2017-08-19T09:42:31Z</time>
      </trkpt>
      <trkpt lat="45.859" lon="4.69071">
        <ele>198</ele>
        <time>2017-08-19T09:42:32Z</time>
      </trkpt>
      <trkpt lat="45.85905" lon="4.69075">
        <ele>198</ele>
        <time>2017-08-19T09:42:33Z</time>
      </trkpt>
      <trkpt lat="45.85911" lon="4.6908">
        <ele>198</ele>
        <time>2017-08-19T09:42:34Z</time>
      </trkpt>
      <trkpt lat="45.85917" lon="4.69083">
        <ele>198</ele>
        <time>2017-08-19T09:42:35Z</time>
      </trkpt>
      <trkpt lat="45.85924" lon="4.69087">
        <ele>198</ele>
        <time>2017-08-19T09:42:36Z</time>
      </trkpt>
      <trkpt lat="45.8593" lon="4.6909">
        <ele>198</ele>
        <time>2017-08-19T09:42:37Z</time>
      </trkpt>
      <trkpt lat="45.85936" lon="4.69092">
        <ele>197</ele>
        <time>2017-08-19T09:42:38Z</time>
      </trkpt>
      <trkpt lat="45.85943" lon="4.69094">
        <ele>197</ele>
        <time>2017-08-19T09:42:39Z</time>
      </trkpt>
      <trkpt lat="45.85949" lon="4.69096">
        <ele>197</ele>
        <time>2017-08-19T09:42:40Z</time>
      </trkpt>
      <trkpt lat="45.85956" lon="4.69097">
        <ele>197</ele>
        <time>2017-08-19T09:42:41Z</time>
      </trkpt>
      <trkpt lat="45.85962" lon="4.69097">
        <ele>197</ele>
        <time>2017-08-19T09:42:42Z</time>
      </trkpt>
      <trkpt lat="45.85968" lon="4.69097">
        <ele>197</ele>
        <time>2017-08-19T09:42:43Z</time>
      </trkpt>
      <trkpt lat="45.85974" lon="4.69097">
        <ele>197</ele>
        <time>2017-08-19T09:42:44Z</time>
      </trkpt>
      <trkpt lat="45.8598" lon="4.69097">
        <ele>197</ele>
        <time>2017-08-19T09:42:45Z</time>
      </trkpt>
      <trkpt lat="45.85986" lon="4.69096">
        <ele>197</ele>
        <time>2017-08-19T09:42:46Z</time>
      </trkpt>
      <trkpt lat="45.85991" lon="4.69095">
        <ele>196</ele>
        <time>2017-08-19T09:42:47Z</time>
      </trkpt>
      <trkpt lat="45.85996" lon="4.69095">
        <ele>196</ele>
        <time>2017-08-19T09:42:48Z</time>
      </trkpt>
      <trkpt lat="45.86001" lon="4.69095">
        <ele>196</ele>
        <time>2017-08-19T09:42:49Z</time>
      </trkpt>
      <trkpt lat="45.86006" lon="4.69094">
        <ele>196</ele>
        <time>2017-08-19T09:42:50Z</time>
      </trkpt>
      <trkpt lat="45.86012" lon="4.69094">
        <ele>197</ele>
        <time>2017-08-19T09:42:51Z</time>
      </trkpt>
      <trkpt lat="45.86017" lon="4.69093">
        <ele>197</ele>
        <time>2017-08-19T09:42:52Z</time>
      </trkpt>
      <trkpt lat="45.86023" lon="4.69093">
        <ele>197</ele>
        <time>2017-08-19T09:42:53Z</time>
      </trkpt>
      <trkpt lat="45.86028" lon="4.69092">
        <ele>197</ele>
        <time>2017-08-19T09:42:54Z</time>
      </trkpt>
      <trkpt lat="45.86034" lon="4.69091">
        <ele>197</ele>
        <time>2017-08-19T09:42:55Z</time>
      </trkpt>
      <trkpt lat="45.8604" lon="4.6909">
        <ele>197</ele>
        <time>2017-08-19T09:42:56Z</time>
      </trkpt>
      <trkpt lat="45.86047" lon="4.6909">
        <ele>197</ele>
        <time>2017-08-19T09:42:57Z</time>
      </trkpt>
      <trkpt lat="45.86053" lon="4.69089">
        <ele>197</ele>
        <time>2017-08-19T09:42:58Z</time>
      </trkpt>
      <trkpt lat="45.8606" lon="4.69089">
        <ele>197</ele>
        <time>2017-08-19T09:42:59Z</time>
      </trkpt>
      <trkpt lat="45.86067" lon="4.69088">
        <ele>198</ele>
        <time>2017-08-19T09:43:00Z</time>
      </trkpt>
      <trkpt lat="45.86074" lon="4.69087">
        <ele>198</ele>
        <time>2017-08-19T09:43:01Z</time>
      </trkpt>
      <trkpt lat="45.8608" lon="4.69087">
        <ele>198</ele>
        <time>2017-08-19T09:43:02Z</time>
      </trkpt>
      <trkpt lat="45.86085" lon="4.69086">
        <ele>198</ele>
        <time>2017-08-19T09:43:03Z</time>
      </trkpt>
      <trkpt lat="45.86091" lon="4.69086">
        <ele>199</ele>
        <time>2017-08-19T09:43:04Z</time>
      </trkpt>
      <trkpt lat="45.86095" lon="4.69086">
        <ele>199</ele>
        <time>2017-08-19T09:43:05Z</time>
      </trkpt>
      <trkpt lat="45.861" lon="4.69086">
        <ele>200</ele>
        <time>2017-08-19T09:43:06Z</time>
      </trkpt>
      <trkpt lat="45.86105" lon="4.69085">
        <ele>200</ele>
        <time>2017-08-19T09:43:07Z</time>
      </trkpt>
      <trkpt lat="45.8611" lon="4.69085">
        <ele>200</ele>
        <time>2017-08-19T09:43:08Z</time>
      </trkpt>
      <trkpt lat="45.86115" lon="4.69083">
        <ele>202</ele>
        <time>2017-08-19T09:43:09Z</time>
      </trkpt>
      <trkpt lat="45.8612" lon="4.69082">
        <ele>202</ele>
        <time>2017-08-19T09:43:10Z</time>
      </trkpt>
      <trkpt lat="45.86125" lon="4.69081">
        <ele>203</ele>
        <time>2017-08-19T09:43:11Z</time>
      </trkpt>
      <trkpt lat="45.8613" lon="4.69081">
        <ele>203</ele>
        <time>2017-08-19T09:43:12Z</time>
      </trkpt>
      <trkpt lat="45.86135" lon="4.69081">
        <ele>203</ele>
        <time>2017-08-19T09:43:13Z</time>
      </trkpt>
      <trkpt lat="45.86141" lon="4.69081">
        <ele>204</ele>
        <time>2017-08-19T09:43:14Z</time>
      </trkpt>
      <trkpt lat="45.86146" lon="4.6908">
        <ele>204</ele>
        <time>2017-08-19T09:43:15Z</time>
      </trkpt>
      <trkpt lat="45.86151" lon="4.69079">
        <ele>204</ele>
        <time>2017-08-19T09:43:16Z</time>
      </trkpt>
      <trkpt lat="45.86155" lon="4.69079">
        <ele>204</ele>
        <time>2017-08-19T09:43:17Z</time>
      </trkpt>
      <trkpt lat="45.8616" lon="4.69079">
        <ele>205</ele>
        <time>2017-08-19T09:43:18Z</time>
      </trkpt>
      <trkpt lat="45.86165" lon="4.69079">
        <ele>205</ele>
        <time>2017-08-19T09:43:19Z</time>
      </trkpt>
      <trkpt lat="45.86174" lon="4.69077">
        <ele>207</ele>
        <time>2017-08-19T09:43:21Z</time>
      </trkpt>
      <trkpt lat="45.86178" lon="4.69077">
        <ele>207</ele>
        <time>2017-08-19T09:43:22Z</time>
      </trkpt>
      <trkpt lat="45.86182" lon="4.69077">
        <ele>208</ele>
        <time>2017-08-19T09:43:23Z</time>
      </trkpt>
      <trkpt lat="45.86187" lon="4.69076">
        <ele>208</ele>
        <time>2017-08-19T09:43:24Z</time>
      </trkpt>
      <trkpt lat="45.86195" lon="4.69075">
        <ele>209</ele>
        <time>2017-08-19T09:43:26Z</time>
      </trkpt>
      <trkpt lat="45.86199" lon="4.69076">
        <ele>209</ele>
        <time>2017-08-19T09:43:27Z</time>
      </trkpt>
      <trkpt lat="45.86208" lon="4.69076">
        <ele>210</ele>
        <time>2017-08-19T09:43:29Z</time>
      </trkpt>
      <trkpt lat="45.86212" lon="4.69076">
        <ele>210</ele>
        <time>2017-08-19T09:43:30Z</time>
      </trkpt>
      <trkpt lat="45.86221" lon="4.69076">
        <ele>210</ele>
        <time>2017-08-19T09:43:32Z</time>
      </trkpt>
      <trkpt lat="45.86225" lon="4.69076">
        <ele>210</ele>
        <time>2017-08-19T09:43:33Z</time>
      </trkpt>
      <trkpt lat="45.8623" lon="4.69077">
        <ele>211</ele>
        <time>2017-08-19T09:43:34Z</time>
      </trkpt>
      <trkpt lat="45.86234" lon="4.69078">
        <ele>211</ele>
        <time>2017-08-19T09:43:35Z</time>
      </trkpt>
      <trkpt lat="45.8624" lon="4.6908">
        <ele>211</ele>
        <time>2017-08-19T09:43:36Z</time>
      </trkpt>
      <trkpt lat="45.86244" lon="4.69082">
        <ele>211</ele>
        <time>2017-08-19T09:43:37Z</time>
      </trkpt>
      <trkpt lat="45.86249" lon="4.69083">
        <ele>211</ele>
        <time>2017-08-19T09:43:38Z</time>
      </trkpt>
      <trkpt lat="45.86254" lon="4.69084">
        <ele>211</ele>
        <time>2017-08-19T09:43:39Z</time>
      </trkpt>
      <trkpt lat="45.86258" lon="4.69086">
        <ele>212</ele>
        <time>2017-08-19T09:43:40Z</time>
      </trkpt>
      <trkpt lat="45.86262" lon="4.69087">
        <ele>212</ele>
        <time>2017-08-19T09:43:41Z</time>
      </trkpt>
      <trkpt lat="45.86267" lon="4.69088">
        <ele>212</ele>
        <time>2017-08-19T09:43:42Z</time>
      </trkpt>
      <trkpt lat="45.86272" lon="4.6909">
        <ele>213</ele>
        <time>2017-08-19T09:43:43Z</time>
      </trkpt>
      <trkpt lat="45.8628" lon="4.69095">
        <ele>213</ele>
        <time>2017-08-19T09:43:45Z</time>
      </trkpt>
      <trkpt lat="45.86283" lon="4.69097">
        <ele>213</ele>
        <time>2017-08-19T09:43:46Z</time>
      </trkpt>
      <trkpt lat="45.8629" lon="4.69102">
        <ele>214</ele>
        <time>2017-08-19T09:43:48Z</time>
      </trkpt>
      <trkpt lat="45.86294" lon="4.69104">
        <ele>214</ele>
        <time>2017-08-19T09:43:49Z</time>
      </trkpt>
      <trkpt lat="45.863" lon="4.69109">
        <ele>214</ele>
        <time>2017-08-19T09:43:51Z</time>
      </trkpt>
      <trkpt lat="45.86302" lon="4.69112">
        <ele>214</ele>
        <time>2017-08-19T09:43:52Z</time>
      </trkpt>
      <trkpt lat="45.86307" lon="4.69117">
        <ele>214</ele>
        <time>2017-08-19T09:43:54Z</time>
      </trkpt>
      <trkpt lat="45.8631" lon="4.6912">
        <ele>214</ele>
        <time>2017-08-19T09:43:55Z</time>
      </trkpt>
      <trkpt lat="45.86316" lon="4.69126">
        <ele>214</ele>
        <time>2017-08-19T09:43:57Z</time>
      </trkpt>
      <trkpt lat="45.86318" lon="4.69129">
        <ele>214</ele>
        <time>2017-08-19T09:43:58Z</time>
      </trkpt>
      <trkpt lat="45.86324" lon="4.69135">
        <ele>215</ele>
        <time>2017-08-19T09:44:00Z</time>
      </trkpt>
      <trkpt lat="45.86326" lon="4.69139">
        <ele>215</ele>
        <time>2017-08-19T09:44:01Z</time>
      </trkpt>
      <trkpt lat="45.8633" lon="4.69145">
        <ele>215</ele>
        <time>2017-08-19T09:44:03Z</time>
      </trkpt>
      <trkpt lat="45.86332" lon="4.69148">
        <ele>215</ele>
        <time>2017-08-19T09:44:04Z</time>
      </trkpt>
      <trkpt lat="45.86337" lon="4.69155">
        <ele>217</ele>
        <time>2017-08-19T09:44:06Z</time>
      </trkpt>
      <trkpt lat="45.86339" lon="4.69159">
        <ele>217</ele>
        <time>2017-08-19T09:44:07Z</time>
      </trkpt>
      <trkpt lat="45.86345" lon="4.69168">
        <ele>218</ele>
        <time>2017-08-19T09:44:10Z</time>
      </trkpt>
      <trkpt lat="45.86346" lon="4.69172">
        <ele>218</ele>
        <time>2017-08-19T09:44:11Z</time>
      </trkpt>
      <trkpt lat="45.86349" lon="4.6918">
        <ele>218</ele>
        <time>2017-08-19T09:44:13Z</time>
      </trkpt>
      <trkpt lat="45.86351" lon="4.69184">
        <ele>218</ele>
        <time>2017-08-19T09:44:14Z</time>
      </trkpt>
      <trkpt lat="45.86354" lon="4.69191">
        <ele>218</ele>
        <time>2017-08-19T09:44:16Z</time>
      </trkpt>
      <trkpt lat="45.86356" lon="4.69194">
        <ele>218</ele>
        <time>2017-08-19T09:44:17Z</time>
      </trkpt>
      <trkpt lat="45.86361" lon="4.69204">
        <ele>219</ele>
        <time>2017-08-19T09:44:20Z</time>
      </trkpt>
      <trkpt lat="45.86362" lon="4.69207">
        <ele>219</ele>
        <time>2017-08-19T09:44:21Z</time>
      </trkpt>
      <trkpt lat="45.86367" lon="4.69216">
        <ele>219</ele>
        <time>2017-08-19T09:44:24Z</time>
      </trkpt>
      <trkpt lat="45.86369" lon="4.6922">
        <ele>219</ele>
        <time>2017-08-19T09:44:25Z</time>
      </trkpt>
      <trkpt lat="45.86372" lon="4.69228">
        <ele>219</ele>
        <time>2017-08-19T09:44:27Z</time>
      </trkpt>
      <trkpt lat="45.86374" lon="4.69232">
        <ele>219</ele>
        <time>2017-08-19T09:44:28Z</time>
      </trkpt>
      <trkpt lat="45.86377" lon="4.69241">
        <ele>219</ele>
        <time>2017-08-19T09:44:30Z</time>
      </trkpt>
      <trkpt lat="45.86379" lon="4.69245">
        <ele>219</ele>
        <time>2017-08-19T09:44:31Z</time>
      </trkpt>
      <trkpt lat="45.86384" lon="4.69256">
        <ele>219</ele>
        <time>2017-08-19T09:44:34Z</time>
      </trkpt>
      <trkpt lat="45.86386" lon="4.69259">
        <ele>219</ele>
        <time>2017-08-19T09:44:35Z</time>
      </trkpt>
      <trkpt lat="45.86389" lon="4.69266">
        <ele>219</ele>
        <time>2017-08-19T09:44:37Z</time>
      </trkpt>
      <trkpt lat="45.8639" lon="4.6927">
        <ele>219</ele>
        <time>2017-08-19T09:44:38Z</time>
      </trkpt>
      <trkpt lat="45.86394" lon="4.69279">
        <ele>219</ele>
        <time>2017-08-19T09:44:40Z</time>
      </trkpt>
      <trkpt lat="45.86396" lon="4.69283">
        <ele>219</ele>
        <time>2017-08-19T09:44:41Z</time>
      </trkpt>
      <trkpt lat="45.86399" lon="4.69292">
        <ele>219</ele>
        <time>2017-08-19T09:44:43Z</time>
      </trkpt>
      <trkpt lat="45.86401" lon="4.69296">
        <ele>219</ele>
        <time>2017-08-19T09:44:44Z</time>
      </trkpt>
      <trkpt lat="45.86405" lon="4.69304">
        <ele>219</ele>
        <time>2017-08-19T09:44:46Z</time>
      </trkpt>
      <trkpt lat="45.86407" lon="4.69308">
        <ele>219</ele>
        <time>2017-08-19T09:44:47Z</time>
      </trkpt>
      <trkpt lat="45.86411" lon="4.69317">
        <ele>219</ele>
        <time>2017-08-19T09:44:49Z</time>
      </trkpt>
      <trkpt lat="45.86413" lon="4.69321">
        <ele>219</ele>
        <time>2017-08-19T09:44:50Z</time>
      </trkpt>
      <trkpt lat="45.86417" lon="4.69331">
        <ele>219</ele>
        <time>2017-08-19T09:44:52Z</time>
      </trkpt>
      <trkpt lat="45.86419" lon="4.69336">
        <ele>219</ele>
        <time>2017-08-19T09:44:53Z</time>
      </trkpt>
      <trkpt lat="45.86424" lon="4.69346">
        <ele>219</ele>
        <time>2017-08-19T09:44:55Z</time>
      </trkpt>
      <trkpt lat="45.86426" lon="4.69351">
        <ele>219</ele>
        <time>2017-08-19T09:44:56Z</time>
      </trkpt>
      <trkpt lat="45.86431" lon="4.69362">
        <ele>219</ele>
        <time>2017-08-19T09:44:58Z</time>
      </trkpt>
      <trkpt lat="45.86433" lon="4.69368">
        <ele>219</ele>
        <time>2017-08-19T09:44:59Z</time>
      </trkpt>
      <trkpt lat="45.86436" lon="4.69373">
        <ele>219</ele>
        <time>2017-08-19T09:45:00Z</time>
      </trkpt>
      <trkpt lat="45.86438" lon="4.69378">
        <ele>219</ele>
        <time>2017-08-19T09:45:01Z</time>
      </trkpt>
      <trkpt lat="45.86442" lon="4.69384">
        <ele>219</ele>
        <time>2017-08-19T09:45:02Z</time>
      </trkpt>
      <trkpt lat="45.86445" lon="4.6939">
        <ele>219</ele>
        <time>2017-08-19T09:45:03Z</time>
      </trkpt>
      <trkpt lat="45.86449" lon="4.69396">
        <ele>219</ele>
        <time>2017-08-19T09:45:04Z</time>
      </trkpt>
      <trkpt lat="45.86452" lon="4.69403">
        <ele>219</ele>
        <time>2017-08-19T09:45:05Z</time>
      </trkpt>
      <trkpt lat="45.86456" lon="4.69409">
        <ele>219</ele>
        <time>2017-08-19T09:45:06Z</time>
      </trkpt>
      <trkpt lat="45.8646" lon="4.69415">
        <ele>219</ele>
        <time>2017-08-19T09:45:07Z</time>
      </trkpt>
      <trkpt lat="45.86464" lon="4.69421">
        <ele>218</ele>
        <time>2017-08-19T09:45:08Z</time>
      </trkpt>
      <trkpt lat="45.86468" lon="4.69427">
        <ele>218</ele>
        <time>2017-08-19T09:45:09Z</time>
      </trkpt>
      <trkpt lat="45.86472" lon="4.69432">
        <ele>218</ele>
        <time>2017-08-19T09:45:10Z</time>
      </trkpt>
      <trkpt lat="45.86475" lon="4.69438">
        <ele>218</ele>
        <time>2017-08-19T09:45:11Z</time>
      </trkpt>
      <trkpt lat="45.86479" lon="4.69442">
        <ele>218</ele>
        <time>2017-08-19T09:45:12Z</time>
      </trkpt>
      <trkpt lat="45.86482" lon="4.69447">
        <ele>218</ele>
        <time>2017-08-19T09:45:13Z</time>
      </trkpt>
      <trkpt lat="45.86485" lon="4.69452">
        <ele>218</ele>
        <time>2017-08-19T09:45:14Z</time>
      </trkpt>
      <trkpt lat="45.86489" lon="4.69456">
        <ele>218</ele>
        <time>2017-08-19T09:45:15Z</time>
      </trkpt>
      <trkpt lat="45.86492" lon="4.69461">
        <ele>218</ele>
        <time>2017-08-19T09:45:16Z</time>
      </trkpt>
      <trkpt lat="45.86495" lon="4.69466">
        <ele>218</ele>
        <time>2017-08-19T09:45:17Z</time>
      </trkpt>
      <trkpt lat="45.86498" lon="4.69471">
        <ele>218</ele>
        <time>2017-08-19T09:45:18Z</time>
      </trkpt>
      <trkpt lat="45.86502" lon="4.69477">
        <ele>219</ele>
        <time>2017-08-19T09:45:19Z</time>
      </trkpt>
      <trkpt lat="45.86506" lon="4.69483">
        <ele>219</ele>
        <time>2017-08-19T09:45:20Z</time>
      </trkpt>
      <trkpt lat="45.86509" lon="4.69488">
        <ele>219</ele>
        <time>2017-08-19T09:45:21Z</time>
      </trkpt>
      <trkpt lat="45.86513" lon="4.69493">
        <ele>219</ele>
        <time>2017-08-19T09:45:22Z</time>
      </trkpt>
      <trkpt lat="45.86517" lon="4.69498">
        <ele>219</ele>
        <time>2017-08-19T09:45:23Z</time>
      </trkpt>
      <trkpt lat="45.8652" lon="4.69503">
        <ele>219</ele>
        <time>2017-08-19T09:45:24Z</time>
      </trkpt>
      <trkpt lat="45.86523" lon="4.69508">
        <ele>219</ele>
        <time>2017-08-19T09:45:25Z</time>
      </trkpt>
      <trkpt lat="45.86529" lon="4.69517">
        <ele>219</ele>
        <time>2017-08-19T09:45:27Z</time>
      </trkpt>
      <trkpt lat="45.86532" lon="4.69522">
        <ele>219</ele>
        <time>2017-08-19T09:45:28Z</time>
      </trkpt>
      <trkpt lat="45.86538" lon="4.6953">
        <ele>219</ele>
        <time>2017-08-19T09:45:30Z</time>
      </trkpt>
      <trkpt lat="45.86542" lon="4.69535">
        <ele>219</ele>
        <time>2017-08-19T09:45:31Z</time>
      </trkpt>
      <trkpt lat="45.86544" lon="4.6954">
        <ele>219</ele>
        <time>2017-08-19T09:45:32Z</time>
      </trkpt>
      <trkpt lat="45.86547" lon="4.69545">
        <ele>219</ele>
        <time>2017-08-19T09:45:33Z</time>
      </trkpt>
      <trkpt lat="45.86551" lon="4.69551">
        <ele>219</ele>
        <time>2017-08-19T09:45:34Z</time>
      </trkpt>
      <trkpt lat="45.86554" lon="4.69557">
        <ele>219</ele>
        <time>2017-08-19T09:45:35Z</time>
      </trkpt>
      <trkpt lat="45.86558" lon="4.69562">
        <ele>219</ele>
        <time>2017-08-19T09:45:36Z</time>
      </trkpt>
      <trkpt lat="45.86562" lon="4.69568">
        <ele>219</ele>
        <time>2017-08-19T09:45:37Z</time>
      </trkpt>
      <trkpt lat="45.86566" lon="4.69574">
        <ele>219</ele>
        <time>2017-08-19T09:45:38Z</time>
      </trkpt>
      <trkpt lat="45.86569" lon="4.69579">
        <ele>219</ele>
        <time>2017-08-19T09:45:39Z</time>
      </trkpt>
      <trkpt lat="45.86573" lon="4.69584">
        <ele>219</ele>
        <time>2017-08-19T09:45:40Z</time>
      </trkpt>
      <trkpt lat="45.86577" lon="4.69589">
        <ele>219</ele>
        <time>2017-08-19T09:45:41Z</time>
      </trkpt>
      <trkpt lat="45.86581" lon="4.69595">
        <ele>219</ele>
        <time>2017-08-19T09:45:42Z</time>
      </trkpt>
      <trkpt lat="45.86584" lon="4.696">
        <ele>219</ele>
        <time>2017-08-19T09:45:43Z</time>
      </trkpt>
      <trkpt lat="45.86587" lon="4.69605">
        <ele>219</ele>
        <time>2017-08-19T09:45:44Z</time>
      </trkpt>
      <trkpt lat="45.86591" lon="4.6961">
        <ele>219</ele>
        <time>2017-08-19T09:45:45Z</time>
      </trkpt>
      <trkpt lat="45.86594" lon="4.69616">
        <ele>219</ele>
        <time>2017-08-19T09:45:46Z</time>
      </trkpt>
      <trkpt lat="45.86598" lon="4.69622">
        <ele>219</ele>
        <time>2017-08-19T09:45:47Z</time>
      </trkpt>
      <trkpt lat="45.86601" lon="4.69628">
        <ele>219</ele>
        <time>2017-08-19T09:45:48Z</time>
      </trkpt>
      <trkpt lat="45.86605" lon="4.69634">
        <ele>219</ele>
        <time>2017-08-19T09:45:49Z</time>
      </trkpt>
      <trkpt lat="45.86609" lon="4.6964">
        <ele>219</ele>
        <time>2017-08-19T09:45:50Z</time>
      </trkpt>
      <trkpt lat="45.86613" lon="4.69646">
        <ele>219</ele>
        <time>2017-08-19T09:45:51Z</time>
      </trkpt>
      <trkpt lat="45.86617" lon="4.69652">
        <ele>219</ele>
        <time>2017-08-19T09:45:52Z</time>
      </trkpt>
      <trkpt lat="45.8662" lon="4.69658">
        <ele>219</ele>
        <time>2017-08-19T09:45:53Z</time>
      </trkpt>
      <trkpt lat="45.86624" lon="4.69663">
        <ele>219</ele>
        <time>2017-08-19T09:45:54Z</time>
      </trkpt>
      <trkpt lat="45.86628" lon="4.69668">
        <ele>218</ele>
        <time>2017-08-19T09:45:55Z</time>
      </trkpt>
      <trkpt lat="45.86632" lon="4.69673">
        <ele>218</ele>
        <time>2017-08-19T09:45:56Z</time>
      </trkpt>
      <trkpt lat="45.86635" lon="4.69679">
        <ele>218</ele>
        <time>2017-08-19T09:45:57Z</time>
      </trkpt>
      <trkpt lat="45.86639" lon="4.69684">
        <ele>218</ele>
        <time>2017-08-19T09:45:58Z</time>
      </trkpt>
      <trkpt lat="45.86643" lon="4.69688">
        <ele>218</ele>
        <time>2017-08-19T09:45:59Z</time>
      </trkpt>
      <trkpt lat="45.86647" lon="4.69692">
        <ele>218</ele>
        <time>2017-08-19T09:46:00Z</time>
      </trkpt>
      <trkpt lat="45.86652" lon="4.69696">
        <ele>218</ele>
        <time>2017-08-19T09:46:01Z</time>
      </trkpt>
      <trkpt lat="45.86657" lon="4.697">
        <ele>218</ele>
        <time>2017-08-19T09:46:02Z</time>
      </trkpt>
      <trkpt lat="45.86661" lon="4.69705">
        <ele>218</ele>
        <time>2017-08-19T09:46:03Z</time>
      </trkpt>
      <trkpt lat="45.86666" lon="4.6971">
        <ele>217</ele>
        <time>2017-08-19T09:46:04Z</time>
      </trkpt>
      <trkpt lat="45.86671" lon="4.69715">
        <ele>217</ele>
        <time>2017-08-19T09:46:05Z</time>
      </trkpt>
      <trkpt lat="45.86677" lon="4.69719">
        <ele>217</ele>
        <time>2017-08-19T09:46:06Z</time>
      </trkpt>
      <trkpt lat="45.86682" lon="4.69724">
        <ele>217</ele>
        <time>2017-08-19T09:46:07Z</time>
      </trkpt>
      <trkpt lat="45.86687" lon="4.69728">
        <ele>217</ele>
        <time>2017-08-19T09:46:08Z</time>
      </trkpt>
      <trkpt lat="45.86692" lon="4.69732">
        <ele>217</ele>
        <time>2017-08-19T09:46:09Z</time>
      </trkpt>
      <trkpt lat="45.86696" lon="4.69737">
        <ele>217</ele>
        <time>2017-08-19T09:46:10Z</time>
      </trkpt>
      <trkpt lat="45.86701" lon="4.69741">
        <ele>217</ele>
        <time>2017-08-19T09:46:11Z</time>
      </trkpt>
      <trkpt lat="45.86705" lon="4.69745">
        <ele>217</ele>
        <time>2017-08-19T09:46:12Z</time>
      </trkpt>
      <trkpt lat="45.8671" lon="4.6975">
        <ele>217</ele>
        <time>2017-08-19T09:46:13Z</time>
      </trkpt>
      <trkpt lat="45.86714" lon="4.69754">
        <ele>217</ele>
        <time>2017-08-19T09:46:14Z</time>
      </trkpt>
      <trkpt lat="45.86719" lon="4.69758">
        <ele>217</ele>
        <time>2017-08-19T09:46:15Z</time>
      </trkpt>
      <trkpt lat="45.86724" lon="4.69761">
        <ele>217</ele>
        <time>2017-08-19T09:46:16Z</time>
      </trkpt>
      <trkpt lat="45.86728" lon="4.69764">
        <ele>217</ele>
        <time>2017-08-19T09:46:17Z</time>
      </trkpt>
      <trkpt lat="45.86732" lon="4.69768">
        <ele>217</ele>
        <time>2017-08-19T09:46:18Z</time>
      </trkpt>
      <trkpt lat="45.86736" lon="4.69773">
        <ele>217</ele>
        <time>2017-08-19T09:46:19Z</time>
      </trkpt>
      <trkpt lat="45.86741" lon="4.69777">
        <ele>217</ele>
        <time>2017-08-19T09:46:20Z</time>
      </trkpt>
      <trkpt lat="45.86746" lon="4.69781">
        <ele>217</ele>
        <time>2017-08-19T09:46:21Z</time>
      </trkpt>
      <trkpt lat="45.86751" lon="4.69785">
        <ele>217</ele>
        <time>2017-08-19T09:46:22Z</time>
      </trkpt>
      <trkpt lat="45.86755" lon="4.69789">
        <ele>217</ele>
        <time>2017-08-19T09:46:23Z</time>
      </trkpt>
      <trkpt lat="45.86759" lon="4.69793">
        <ele>217</ele>
        <time>2017-08-19T09:46:24Z</time>
      </trkpt>
      <trkpt lat="45.86764" lon="4.69798">
        <ele>217</ele>
        <time>2017-08-19T09:46:25Z</time>
      </trkpt>
      <trkpt lat="45.86768" lon="4.69802">
        <ele>217</ele>
        <time>2017-08-19T09:46:26Z</time>
      </trkpt>
      <trkpt lat="45.86773" lon="4.69807">
        <ele>217</ele>
        <time>2017-08-19T09:46:27Z</time>
      </trkpt>
      <trkpt lat="45.86777" lon="4.69811">
        <ele>217</ele>
        <time>2017-08-19T09:46:28Z</time>
      </trkpt>
      <trkpt lat="45.86781" lon="4.69816">
        <ele>217</ele>
        <time>2017-08-19T09:46:29Z</time>
      </trkpt>
      <trkpt lat="45.86786" lon="4.69819">
        <ele>217</ele>
        <time>2017-08-19T09:46:30Z</time>
      </trkpt>
      <trkpt lat="45.8679" lon="4.69823">
        <ele>217</ele>
        <time>2017-08-19T09:46:31Z</time>
      </trkpt>
      <trkpt lat="45.86794" lon="4.69826">
        <ele>217</ele>
        <time>2017-08-19T09:46:32Z</time>
      </trkpt>
      <trkpt lat="45.86799" lon="4.6983">
        <ele>217</ele>
        <time>2017-08-19T09:46:33Z</time>
      </trkpt>
      <trkpt lat="45.86804" lon="4.69833">
        <ele>217</ele>
        <time>2017-08-19T09:46:34Z</time>
      </trkpt>
      <trkpt lat="45.86809" lon="4.69838">
        <ele>217</ele>
        <time>2017-08-19T09:46:35Z</time>
      </trkpt>
      <trkpt lat="45.86814" lon="4.69842">
        <ele>217</ele>
        <time>2017-08-19T09:46:36Z</time>
      </trkpt>
      <trkpt lat="45.86819" lon="4.69849">
        <ele>217</ele>
        <time>2017-08-19T09:46:37Z</time>
      </trkpt>
      <trkpt lat="45.86825" lon="4.69853">
        <ele>217</ele>
        <time>2017-08-19T09:46:38Z</time>
      </trkpt>
      <trkpt lat="45.8683" lon="4.69858">
        <ele>217</ele>
        <time>2017-08-19T09:46:39Z</time>
      </trkpt>
      <trkpt lat="45.86836" lon="4.69862">
        <ele>217</ele>
        <time>2017-08-19T09:46:40Z</time>
      </trkpt>
      <trkpt lat="45.8684" lon="4.69867">
        <ele>217</ele>
        <time>2017-08-19T09:46:41Z</time>
      </trkpt>
      <trkpt lat="45.86845" lon="4.69872">
        <ele>217</ele>
        <time>2017-08-19T09:46:42Z</time>
      </trkpt>
      <trkpt lat="45.8685" lon="4.69876">
        <ele>217</ele>
        <time>2017-08-19T09:46:43Z</time>
      </trkpt>
      <trkpt lat="45.86854" lon="4.6988">
        <ele>217</ele>
        <time>2017-08-19T09:46:44Z</time>
      </trkpt>
      <trkpt lat="45.86859" lon="4.69884">
        <ele>217</ele>
        <time>2017-08-19T09:46:45Z</time>
      </trkpt>
      <trkpt lat="45.86863" lon="4.69887">
        <ele>217</ele>
        <time>2017-08-19T09:46:46Z</time>
      </trkpt>
      <trkpt lat="45.86868" lon="4.69891">
        <ele>217</ele>
        <time>2017-08-19T09:46:47Z</time>
      </trkpt>
      <trkpt lat="45.86872" lon="4.69895">
        <ele>217</ele>
        <time>2017-08-19T09:46:48Z</time>
      </trkpt>
      <trkpt lat="45.86876" lon="4.69898">
        <ele>217</ele>
        <time>2017-08-19T09:46:49Z</time>
      </trkpt>
      <trkpt lat="45.8688" lon="4.69901">
        <ele>217</ele>
        <time>2017-08-19T09:46:50Z</time>
      </trkpt>
      <trkpt lat="45.86884" lon="4.69905">
        <ele>217</ele>
        <time>2017-08-19T09:46:51Z</time>
      </trkpt>
      <trkpt lat="45.8689" lon="4.69909">
        <ele>217</ele>
        <time>2017-08-19T09:46:52Z</time>
      </trkpt>
      <trkpt lat="45.86895" lon="4.69912">
        <ele>217</ele>
        <time>2017-08-19T09:46:53Z</time>
      </trkpt>
      <trkpt lat="45.86901" lon="4.69917">
        <ele>217</ele>
        <time>2017-08-19T09:46:54Z</time>
      </trkpt>
      <trkpt lat="45.86905" lon="4.69921">
        <ele>217</ele>
        <time>2017-08-19T09:46:55Z</time>
      </trkpt>
      <trkpt lat="45.8691" lon="4.69926">
        <ele>217</ele>
        <time>2017-08-19T09:46:56Z</time>
      </trkpt>
      <trkpt lat="45.86915" lon="4.6993">
        <ele>217</ele>
        <time>2017-08-19T09:46:57Z</time>
      </trkpt>
      <trkpt lat="45.86919" lon="4.69934">
        <ele>217</ele>
        <time>2017-08-19T09:46:58Z</time>
      </trkpt>
      <trkpt lat="45.86923" lon="4.69937">
        <ele>217</ele>
        <time>2017-08-19T09:46:59Z</time>
      </trkpt>
      <trkpt lat="45.86927" lon="4.69941">
        <ele>217</ele>
        <time>2017-08-19T09:47:00Z</time>
      </trkpt>
      <trkpt lat="45.86932" lon="4.69945">
        <ele>217</ele>
        <time>2017-08-19T09:47:01Z</time>
      </trkpt>
      <trkpt lat="45.86936" lon="4.69948">
        <ele>217</ele>
        <time>2017-08-19T09:47:02Z</time>
      </trkpt>
      <trkpt lat="45.86941" lon="4.69952">
        <ele>217</ele>
        <time>2017-08-19T09:47:03Z</time>
      </trkpt>
      <trkpt lat="45.86946" lon="4.69956">
        <ele>217</ele>
        <time>2017-08-19T09:47:04Z</time>
      </trkpt>
      <trkpt lat="45.86951" lon="4.6996">
        <ele>217</ele>
        <time>2017-08-19T09:47:05Z</time>
      </trkpt>
      <trkpt lat="45.86956" lon="4.69963">
        <ele>217</ele>
        <time>2017-08-19T09:47:06Z</time>
      </trkpt>
      <trkpt lat="45.8696" lon="4.69967">
        <ele>217</ele>
        <time>2017-08-19T09:47:07Z</time>
      </trkpt>
      <trkpt lat="45.86964" lon="4.69971">
        <ele>217</ele>
        <time>2017-08-19T09:47:08Z</time>
      </trkpt>
      <trkpt lat="45.86967" lon="4.69975">
        <ele>217</ele>
        <time>2017-08-19T09:47:09Z</time>
      </trkpt>
      <trkpt lat="45.86972" lon="4.69984">
        <ele>217</ele>
        <time>2017-08-19T09:47:11Z</time>
      </trkpt>
      <trkpt lat="45.86974" lon="4.69989">
        <ele>217</ele>
        <time>2017-08-19T09:47:12Z</time>
      </trkpt>
      <trkpt lat="45.86978" lon="4.69999">
        <ele>217</ele>
        <time>2017-08-19T09:47:14Z</time>
      </trkpt>
      <trkpt lat="45.86981" lon="4.70003">
        <ele>217</ele>
        <time>2017-08-19T09:47:15Z</time>
      </trkpt>
      <trkpt lat="45.86986" lon="4.70006">
        <ele>217</ele>
        <time>2017-08-19T09:47:16Z</time>
      </trkpt>
      <trkpt lat="45.86991" lon="4.70006">
        <ele>217</ele>
        <time>2017-08-19T09:47:17Z</time>
      </trkpt>
      <trkpt lat="45.86997" lon="4.70005">
        <ele>217</ele>
        <time>2017-08-19T09:47:18Z</time>
      </trkpt>
      <trkpt lat="45.87002" lon="4.70004">
        <ele>217</ele>
        <time>2017-08-19T09:47:19Z</time>
      </trkpt>
      <trkpt lat="45.87007" lon="4.70004">
        <ele>217</ele>
        <time>2017-08-19T09:47:20Z</time>
      </trkpt>
      <trkpt lat="45.87013" lon="4.70006">
        <ele>217</ele>
        <time>2017-08-19T09:47:21Z</time>
      </trkpt>
      <trkpt lat="45.87018" lon="4.70009">
        <ele>217</ele>
        <time>2017-08-19T09:47:22Z</time>
      </trkpt>
      <trkpt lat="45.87023" lon="4.70013">
        <ele>217</ele>
        <time>2017-08-19T09:47:23Z</time>
      </trkpt>
      <trkpt lat="45.87028" lon="4.70017">
        <ele>217</ele>
        <time>2017-08-19T09:47:24Z</time>
      </trkpt>
      <trkpt lat="45.87032" lon="4.70022">
        <ele>217</ele>
        <time>2017-08-19T09:47:25Z</time>
      </trkpt>
      <trkpt lat="45.87036" lon="4.70027">
        <ele>217</ele>
        <time>2017-08-19T09:47:26Z</time>
      </trkpt>
      <trkpt lat="45.87039" lon="4.70033">
        <ele>217</ele>
        <time>2017-08-19T09:47:27Z</time>
      </trkpt>
      <trkpt lat="45.87042" lon="4.70039">
        <ele>217</ele>
        <time>2017-08-19T09:47:28Z</time>
      </trkpt>
      <trkpt lat="45.87044" lon="4.70045">
        <ele>217</ele>
        <time>2017-08-19T09:47:29Z</time>
      </trkpt>
      <trkpt lat="45.87047" lon="4.70051">
        <ele>217</ele>
        <time>2017-08-19T09:47:30Z</time>
      </trkpt>
      <trkpt lat="45.8705" lon="4.70057">
        <ele>217</ele>
        <time>2017-08-19T09:47:31Z</time>
      </trkpt>
      <trkpt lat="45.87053" lon="4.70062">
        <ele>217</ele>
        <time>2017-08-19T09:47:32Z</time>
      </trkpt>
      <trkpt lat="45.87056" lon="4.70067">
        <ele>217</ele>
        <time>2017-08-19T09:47:33Z</time>
      </trkpt>
      <trkpt lat="45.87058" lon="4.70073">
        <ele>217</ele>
        <time>2017-08-19T09:47:34Z</time>
      </trkpt>
      <trkpt lat="45.8706" lon="4.70078">
        <ele>217</ele>
        <time>2017-08-19T09:47:35Z</time>
      </trkpt>
      <trkpt lat="45.87063" lon="4.70084">
        <ele>217</ele>
        <time>2017-08-19T09:47:36Z</time>
      </trkpt>
      <trkpt lat="45.87067" lon="4.7009">
        <ele>217</ele>
        <time>2017-08-19T09:47:37Z</time>
      </trkpt>
      <trkpt lat="45.8707" lon="4.70096">
        <ele>217</ele>
        <time>2017-08-19T09:47:38Z</time>
      </trkpt>
      <trkpt lat="45.87074" lon="4.70102">
        <ele>217</ele>
        <time>2017-08-19T09:47:39Z</time>
      </trkpt>
      <trkpt lat="45.87077" lon="4.70108">
        <ele>217</ele>
        <time>2017-08-19T09:47:40Z</time>
      </trkpt>
      <trkpt lat="45.8708" lon="4.70114">
        <ele>217</ele>
        <time>2017-08-19T09:47:41Z</time>
      </trkpt>
      <trkpt lat="45.87083" lon="4.70121">
        <ele>217</ele>
        <time>2017-08-19T09:47:42Z</time>
      </trkpt>
      <trkpt lat="45.87086" lon="4.70128">
        <ele>217</ele>
        <time>2017-08-19T09:47:43Z</time>
      </trkpt>
      <trkpt lat="45.8709" lon="4.70135">
        <ele>217</ele>
        <time>2017-08-19T09:47:44Z</time>
      </trkpt>
      <trkpt lat="45.87094" lon="4.70142">
        <ele>217</ele>
        <time>2017-08-19T09:47:45Z</time>
      </trkpt>
      <trkpt lat="45.87098" lon="4.70149">
        <ele>217</ele>
        <time>2017-08-19T09:47:46Z</time>
      </trkpt>
      <trkpt lat="45.87101" lon="4.70156">
        <ele>217</ele>
        <time>2017-08-19T09:47:47Z</time>
      </trkpt>
      <trkpt lat="45.87105" lon="4.70163">
        <ele>217</ele>
        <time>2017-08-19T09:47:48Z</time>
      </trkpt>
      <trkpt lat="45.8711" lon="4.70169">
        <ele>216</ele>
        <time>2017-08-19T09:47:49Z</time>
      </trkpt>
      <trkpt lat="45.87114" lon="4.70175">
        <ele>216</ele>
        <time>2017-08-19T09:47:50Z</time>
      </trkpt>
      <trkpt lat="45.87117" lon="4.70181">
        <ele>216</ele>
        <time>2017-08-19T09:47:51Z</time>
      </trkpt>
      <trkpt lat="45.87121" lon="4.70187">
        <ele>216</ele>
        <time>2017-08-19T09:47:52Z</time>
      </trkpt>
      <trkpt lat="45.87125" lon="4.70193">
        <ele>216</ele>
        <time>2017-08-19T09:47:53Z</time>
      </trkpt>
      <trkpt lat="45.87129" lon="4.70198">
        <ele>216</ele>
        <time>2017-08-19T09:47:54Z</time>
      </trkpt>
      <trkpt lat="45.87133" lon="4.70204">
        <ele>216</ele>
        <time>2017-08-19T09:47:55Z</time>
      </trkpt>
      <trkpt lat="45.87136" lon="4.70209">
        <ele>216</ele>
        <time>2017-08-19T09:47:56Z</time>
      </trkpt>
      <trkpt lat="45.8714" lon="4.70214">
        <ele>216</ele>
        <time>2017-08-19T09:47:57Z</time>
      </trkpt>
      <trkpt lat="45.87144" lon="4.7022">
        <ele>216</ele>
        <time>2017-08-19T09:47:58Z</time>
      </trkpt>
      <trkpt lat="45.87148" lon="4.70225">
        <ele>216</ele>
        <time>2017-08-19T09:47:59Z</time>
      </trkpt>
      <trkpt lat="45.87151" lon="4.7023">
        <ele>216</ele>
        <time>2017-08-19T09:48:00Z</time>
      </trkpt>
      <trkpt lat="45.87155" lon="4.70235">
        <ele>216</ele>
        <time>2017-08-19T09:48:01Z</time>
      </trkpt>
      <trkpt lat="45.87159" lon="4.7024">
        <ele>216</ele>
        <time>2017-08-19T09:48:02Z</time>
      </trkpt>
      <trkpt lat="45.87163" lon="4.70245">
        <ele>216</ele>
        <time>2017-08-19T09:48:03Z</time>
      </trkpt>
      <trkpt lat="45.87167" lon="4.7025">
        <ele>216</ele>
        <time>2017-08-19T09:48:04Z</time>
      </trkpt>
      <trkpt lat="45.87172" lon="4.70256">
        <ele>216</ele>
        <time>2017-08-19T09:48:05Z</time>
      </trkpt>
      <trkpt lat="45.87176" lon="4.70262">
        <ele>216</ele>
        <time>2017-08-19T09:48:06Z</time>
      </trkpt>
      <trkpt lat="45.87181" lon="4.70267">
        <ele>216</ele>
        <time>2017-08-19T09:48:07Z</time>
      </trkpt>
      <trkpt lat="45.87185" lon="4.70272">
        <ele>217</ele>
        <time>2017-08-19T09:48:08Z</time>
      </trkpt>
      <trkpt lat="45.87189" lon="4.70278">
        <ele>217</ele>
        <time>2017-08-19T09:48:09Z</time>
      </trkpt>
      <trkpt lat="45.87193" lon="4.70283">
        <ele>217</ele>
        <time>2017-08-19T09:48:10Z</time>
      </trkpt>
      <trkpt lat="45.87197" lon="4.70289">
        <ele>217</ele>
        <time>2017-08-19T09:48:11Z</time>
      </trkpt>
      <trkpt lat="45.87201" lon="4.70295">
        <ele>217</ele>
        <time>2017-08-19T09:48:12Z</time>
      </trkpt>
      <trkpt lat="45.87205" lon="4.70301">
        <ele>217</ele>
        <time>2017-08-19T09:48:13Z</time>
      </trkpt>
      <trkpt lat="45.8721" lon="4.70307">
        <ele>217</ele>
        <time>2017-08-19T09:48:14Z</time>
      </trkpt>
      <trkpt lat="45.87215" lon="4.70312">
        <ele>217</ele>
        <time>2017-08-19T09:48:15Z</time>
      </trkpt>
      <trkpt lat="45.87219" lon="4.70319">
        <ele>217</ele>
        <time>2017-08-19T09:48:16Z</time>
      </trkpt>
      <trkpt lat="45.87223" lon="4.70325">
        <ele>217</ele>
        <time>2017-08-19T09:48:17Z</time>
      </trkpt>
      <trkpt lat="45.87227" lon="4.70331">
        <ele>217</ele>
        <time>2017-08-19T09:48:18Z</time>
      </trkpt>
      <trkpt lat="45.87231" lon="4.70336">
        <ele>217</ele>
        <time>2017-08-19T09:48:19Z</time>
      </trkpt>
      <trkpt lat="45.87235" lon="4.70343">
        <ele>217</ele>
        <time>2017-08-19T09:48:20Z</time>
      </trkpt>
      <trkpt lat="45.8724" lon="4.70349">
        <ele>217</ele>
        <time>2017-08-19T09:48:21Z</time>
      </trkpt>
      <trkpt lat="45.87244" lon="4.70355">
        <ele>217</ele>
        <time>2017-08-19T09:48:22Z</time>
      </trkpt>
      <trkpt lat="45.87248" lon="4.70361">
        <ele>216</ele>
        <time>2017-08-19T09:48:23Z</time>
      </trkpt>
      <trkpt lat="45.87252" lon="4.70367">
        <ele>216</ele>
        <time>2017-08-19T09:48:24Z</time>
      </trkpt>
      <trkpt lat="45.87256" lon="4.70372">
        <ele>216</ele>
        <time>2017-08-19T09:48:25Z</time>
      </trkpt>
      <trkpt lat="45.8726" lon="4.70377">
        <ele>216</ele>
        <time>2017-08-19T09:48:26Z</time>
      </trkpt>
      <trkpt lat="45.87264" lon="4.70383">
        <ele>216</ele>
        <time>2017-08-19T09:48:27Z</time>
      </trkpt>
      <trkpt lat="45.87267" lon="4.70389">
        <ele>216</ele>
        <time>2017-08-19T09:48:28Z</time>
      </trkpt>
      <trkpt lat="45.8727" lon="4.70396">
        <ele>216</ele>
        <time>2017-08-19T09:48:29Z</time>
      </trkpt>
      <trkpt lat="45.87273" lon="4.70403">
        <ele>216</ele>
        <time>2017-08-19T09:48:30Z</time>
      </trkpt>
      <trkpt lat="45.87277" lon="4.70409">
        <ele>216</ele>
        <time>2017-08-19T09:48:31Z</time>
      </trkpt>
      <trkpt lat="45.87282" lon="4.70414">
        <ele>216</ele>
        <time>2017-08-19T09:48:32Z</time>
      </trkpt>
      <trkpt lat="45.87287" lon="4.70417">
        <ele>214</ele>
        <time>2017-08-19T09:48:33Z</time>
      </trkpt>
      <trkpt lat="45.87292" lon="4.70421">
        <ele>214</ele>
        <time>2017-08-19T09:48:34Z</time>
      </trkpt>
      <trkpt lat="45.87297" lon="4.70426">
        <ele>214</ele>
        <time>2017-08-19T09:48:35Z</time>
      </trkpt>
      <trkpt lat="45.87301" lon="4.70432">
        <ele>214</ele>
        <time>2017-08-19T09:48:36Z</time>
      </trkpt>
      <trkpt lat="45.87306" lon="4.70439">
        <ele>214</ele>
        <time>2017-08-19T09:48:37Z</time>
      </trkpt>
      <trkpt lat="45.87311" lon="4.70446">
        <ele>214</ele>
        <time>2017-08-19T09:48:38Z</time>
      </trkpt>
      <trkpt lat="45.87315" lon="4.70452">
        <ele>214</ele>
        <time>2017-08-19T09:48:39Z</time>
      </trkpt>
      <trkpt lat="45.8732" lon="4.70459">
        <ele>214</ele>
        <time>2017-08-19T09:48:40Z</time>
      </trkpt>
      <trkpt lat="45.87324" lon="4.70466">
        <ele>214</ele>
        <time>2017-08-19T09:48:41Z</time>
      </trkpt>
      <trkpt lat="45.87329" lon="4.70474">
        <ele>214</ele>
        <time>2017-08-19T09:48:42Z</time>
      </trkpt>
      <trkpt lat="45.87334" lon="4.70482">
        <ele>213</ele>
        <time>2017-08-19T09:48:43Z</time>
      </trkpt>
      <trkpt lat="45.87339" lon="4.7049">
        <ele>213</ele>
        <time>2017-08-19T09:48:44Z</time>
      </trkpt>
      <trkpt lat="45.87344" lon="4.70498">
        <ele>213</ele>
        <time>2017-08-19T09:48:45Z</time>
      </trkpt>
      <trkpt lat="45.87349" lon="4.70508">
        <ele>212</ele>
        <time>2017-08-19T09:48:46Z</time>
      </trkpt>
      <trkpt lat="45.87354" lon="4.70516">
        <ele>212</ele>
        <time>2017-08-19T09:48:47Z</time>
      </trkpt>
      <trkpt lat="45.87359" lon="4.70525">
        <ele>212</ele>
        <time>2017-08-19T09:48:48Z</time>
      </trkpt>
      <trkpt lat="45.87365" lon="4.70535">
        <ele>212</ele>
        <time>2017-08-19T09:48:49Z</time>
      </trkpt>
      <trkpt lat="45.8737" lon="4.70544">
        <ele>212</ele>
        <time>2017-08-19T09:48:50Z</time>
      </trkpt>
      <trkpt lat="45.87376" lon="4.70553">
        <ele>212</ele>
        <time>2017-08-19T09:48:51Z</time>
      </trkpt>
      <trkpt lat="45.87382" lon="4.70562">
        <ele>211</ele>
        <time>2017-08-19T09:48:52Z</time>
      </trkpt>
      <trkpt lat="45.87388" lon="4.70571">
        <ele>211</ele>
        <time>2017-08-19T09:48:53Z</time>
      </trkpt>
      <trkpt lat="45.87394" lon="4.70579">
        <ele>211</ele>
        <time>2017-08-19T09:48:54Z</time>
      </trkpt>
      <trkpt lat="45.874" lon="4.70588">
        <ele>210</ele>
        <time>2017-08-19T09:48:55Z</time>
      </trkpt>
      <trkpt lat="45.87404" lon="4.70597">
        <ele>210</ele>
        <time>2017-08-19T09:48:56Z</time>
      </trkpt>
      <trkpt lat="45.87409" lon="4.70606">
        <ele>210</ele>
        <time>2017-08-19T09:48:57Z</time>
      </trkpt>
      <trkpt lat="45.87413" lon="4.70616">
        <ele>210</ele>
        <time>2017-08-19T09:48:58Z</time>
      </trkpt>
      <trkpt lat="45.87416" lon="4.70626">
        <ele>209</ele>
        <time>2017-08-19T09:48:59Z</time>
      </trkpt>
      <trkpt lat="45.87418" lon="4.70635">
        <ele>209</ele>
        <time>2017-08-19T09:49:00Z</time>
      </trkpt>
      <trkpt lat="45.8742" lon="4.70645">
        <ele>209</ele>
        <time>2017-08-19T09:49:01Z</time>
      </trkpt>
      <trkpt lat="45.87421" lon="4.70655">
        <ele>208</ele>
        <time>2017-08-19T09:49:02Z</time>
      </trkpt>
      <trkpt lat="45.87422" lon="4.70665">
        <ele>208</ele>
        <time>2017-08-19T09:49:03Z</time>
      </trkpt>
      <trkpt lat="45.87423" lon="4.70674">
        <ele>208</ele>
        <time>2017-08-19T09:49:04Z</time>
      </trkpt>
      <trkpt lat="45.87423" lon="4.70683">
        <ele>209</ele>
        <time>2017-08-19T09:49:05Z</time>
      </trkpt>
      <trkpt lat="45.87424" lon="4.70691">
        <ele>209</ele>
        <time>2017-08-19T09:49:06Z</time>
      </trkpt>
      <trkpt lat="45.87425" lon="4.70699">
        <ele>209</ele>
        <time>2017-08-19T09:49:07Z</time>
      </trkpt>
      <trkpt lat="45.87426" lon="4.70706">
        <ele>209</ele>
        <time>2017-08-19T09:49:08Z</time>
      </trkpt>
      <trkpt lat="45.87428" lon="4.70714">
        <ele>209</ele>
        <time>2017-08-19T09:49:09Z</time>
      </trkpt>
      <trkpt lat="45.87429" lon="4.70722">
        <ele>209</ele>
        <time>2017-08-19T09:49:10Z</time>
      </trkpt>
      <trkpt lat="45.8743" lon="4.7073">
        <ele>209</ele>
        <time>2017-08-19T09:49:11Z</time>
      </trkpt>
      <trkpt lat="45.87431" lon="4.70739">
        <ele>209</ele>
        <time>2017-08-19T09:49:12Z</time>
      </trkpt>
      <trkpt lat="45.87432" lon="4.70747">
        <ele>209</ele>
        <time>2017-08-19T09:49:13Z</time>
      </trkpt>
      <trkpt lat="45.87434" lon="4.70756">
        <ele>209</ele>
        <time>2017-08-19T09:49:14Z</time>
      </trkpt>
      <trkpt lat="45.87437" lon="4.70764">
        <ele>210</ele>
        <time>2017-08-19T09:49:15Z</time>
      </trkpt>
      <trkpt lat="45.87439" lon="4.70771">
        <ele>210</ele>
        <time>2017-08-19T09:49:16Z</time>
      </trkpt>
      <trkpt lat="45.8744" lon="4.70779">
        <ele>210</ele>
        <time>2017-08-19T09:49:17Z</time>
      </trkpt>
      <trkpt lat="45.87442" lon="4.70785">
        <ele>211</ele>
        <time>2017-08-19T09:49:18Z</time>
      </trkpt>
      <trkpt lat="45.87443" lon="4.70792">
        <ele>211</ele>
        <time>2017-08-19T09:49:19Z</time>
      </trkpt>
      <trkpt lat="45.87444" lon="4.70799">
        <ele>211</ele>
        <time>2017-08-19T09:49:20Z</time>
      </trkpt>
      <trkpt lat="45.87445" lon="4.70806">
        <ele>211</ele>
        <time>2017-08-19T09:49:21Z</time>
      </trkpt>
      <trkpt lat="45.87446" lon="4.70813">
        <ele>211</ele>
        <time>2017-08-19T09:49:22Z</time>
      </trkpt>
      <trkpt lat="45.87448" lon="4.7082">
        <ele>211</ele>
        <time>2017-08-19T09:49:23Z</time>
      </trkpt>
      <trkpt lat="45.8745" lon="4.70827">
        <ele>211</ele>
        <time>2017-08-19T09:49:24Z</time>
      </trkpt>
      <trkpt lat="45.87451" lon="4.70835">
        <ele>212</ele>
        <time>2017-08-19T09:49:25Z</time>
      </trkpt>
      <trkpt lat="45.87453" lon="4.70843">
        <ele>213</ele>
        <time>2017-08-19T09:49:26Z</time>
      </trkpt>
      <trkpt lat="45.87455" lon="4.70852">
        <ele>213</ele>
        <time>2017-08-19T09:49:27Z</time>
      </trkpt>
      <trkpt lat="45.87457" lon="4.7086">
        <ele>213</ele>
        <time>2017-08-19T09:49:28Z</time>
      </trkpt>
      <trkpt lat="45.87459" lon="4.70867">
        <ele>213</ele>
        <time>2017-08-19T09:49:29Z</time>
      </trkpt>
      <trkpt lat="45.8746" lon="4.70875">
        <ele>213</ele>
        <time>2017-08-19T09:49:30Z</time>
      </trkpt>
      <trkpt lat="45.87461" lon="4.70883">
        <ele>213</ele>
        <time>2017-08-19T09:49:31Z</time>
      </trkpt>
      <trkpt lat="45.87463" lon="4.7089">
        <ele>214</ele>
        <time>2017-08-19T09:49:32Z</time>
      </trkpt>
      <trkpt lat="45.87464" lon="4.70897">
        <ele>214</ele>
        <time>2017-08-19T09:49:33Z</time>
      </trkpt>
      <trkpt lat="45.87466" lon="4.70905">
        <ele>214</ele>
        <time>2017-08-19T09:49:34Z</time>
      </trkpt>
      <trkpt lat="45.87467" lon="4.70912">
        <ele>214</ele>
        <time>2017-08-19T09:49:35Z</time>
      </trkpt>
      <trkpt lat="45.87469" lon="4.70919">
        <ele>215</ele>
        <time>2017-08-19T09:49:36Z</time>
      </trkpt>
      <trkpt lat="45.87471" lon="4.70927">
        <ele>215</ele>
        <time>2017-08-19T09:49:37Z</time>
      </trkpt>
      <trkpt lat="45.87473" lon="4.70935">
        <ele>215</ele>
        <time>2017-08-19T09:49:38Z</time>
      </trkpt>
      <trkpt lat="45.87475" lon="4.70943">
        <ele>215</ele>
        <time>2017-08-19T09:49:39Z</time>
      </trkpt>
      <trkpt lat="45.87478" lon="4.70951">
        <ele>215</ele>
        <time>2017-08-19T09:49:40Z</time>
      </trkpt>
      <trkpt lat="45.8748" lon="4.70959">
        <ele>215</ele>
        <time>2017-08-19T09:49:41Z</time>
      </trkpt>
      <trkpt lat="45.87483" lon="4.70966">
        <ele>215</ele>
        <time>2017-08-19T09:49:42Z</time>
      </trkpt>
      <trkpt lat="45.87485" lon="4.70973">
        <ele>215</ele>
        <time>2017-08-19T09:49:43Z</time>
      </trkpt>
      <trkpt lat="45.8749" lon="4.70978">
        <ele>215</ele>
        <time>2017-08-19T09:49:44Z</time>
      </trkpt>
      <trkpt lat="45.87494" lon="4.70983">
        <ele>214</ele>
        <time>2017-08-19T09:49:45Z</time>
      </trkpt>
      <trkpt lat="45.87497" lon="4.70989">
        <ele>214</ele>
        <time>2017-08-19T09:49:46Z</time>
      </trkpt>
      <trkpt lat="45.87499" lon="4.70994">
        <ele>214</ele>
        <time>2017-08-19T09:49:47Z</time>
      </trkpt>
      <trkpt lat="45.87504" lon="4.71005">
        <ele>214</ele>
        <time>2017-08-19T09:49:49Z</time>
      </trkpt>
      <trkpt lat="45.87507" lon="4.7101">
        <ele>214</ele>
        <time>2017-08-19T09:49:50Z</time>
      </trkpt>
      <trkpt lat="45.8751" lon="4.71015">
        <ele>215</ele>
        <time>2017-08-19T09:49:51Z</time>
      </trkpt>
      <trkpt lat="45.87514" lon="4.71021">
        <ele>215</ele>
        <time>2017-08-19T09:49:52Z</time>
      </trkpt>
      <trkpt lat="45.87517" lon="4.71027">
        <ele>215</ele>
        <time>2017-08-19T09:49:53Z</time>
      </trkpt>
      <trkpt lat="45.87521" lon="4.71032">
        <ele>215</ele>
        <time>2017-08-19T09:49:54Z</time>
      </trkpt>
      <trkpt lat="45.87526" lon="4.71041">
        <ele>215</ele>
        <time>2017-08-19T09:49:56Z</time>
      </trkpt>
      <trkpt lat="45.87529" lon="4.71046">
        <ele>215</ele>
        <time>2017-08-19T09:49:57Z</time>
      </trkpt>
      <trkpt lat="45.87533" lon="4.71053">
        <ele>215</ele>
        <time>2017-08-19T09:49:59Z</time>
      </trkpt>
      <trkpt lat="45.87535" lon="4.71056">
        <ele>215</ele>
        <time>2017-08-19T09:50:00Z</time>
      </trkpt>
      <trkpt lat="45.8754" lon="4.71064">
        <ele>216</ele>
        <time>2017-08-19T09:50:03Z</time>
      </trkpt>
      <trkpt lat="45.87542" lon="4.71065">
        <ele>216</ele>
        <time>2017-08-19T09:50:04Z</time>
      </trkpt>
      <trkpt lat="45.87549" lon="4.71073">
        <ele>216</ele>
        <time>2017-08-19T09:50:10Z</time>
      </trkpt>
      <trkpt lat="45.87549" lon="4.71073">
        <ele>216</ele>
        <time>2017-08-19T09:50:11Z</time>
      </trkpt>
      <trkpt lat="45.87549" lon="4.71073">
        <ele>216</ele>
        <time>2017-08-19T09:50:14Z</time>
      </trkpt>
      <trkpt lat="45.87549" lon="4.71074">
        <ele>216</ele>
        <time>2017-08-19T09:50:15Z</time>
      </trkpt>
      <trkpt lat="45.87553" lon="4.71078">
        <ele>216</ele>
        <time>2017-08-19T09:50:18Z</time>
      </trkpt>
      <trkpt lat="45.87555" lon="4.71079">
        <ele>216</ele>
        <time>2017-08-19T09:50:19Z</time>
      </trkpt>
      <trkpt lat="45.87563" lon="4.71083">
        <ele>216</ele>
        <time>2017-08-19T09:50:22Z</time>
      </trkpt>
      <trkpt lat="45.87567" lon="4.71087">
        <ele>218</ele>
        <time>2017-08-19T09:50:23Z</time>
      </trkpt>
      <trkpt lat="45.87571" lon="4.7109">
        <ele>218</ele>
        <time>2017-08-19T09:50:24Z</time>
      </trkpt>
      <trkpt lat="45.87576" lon="4.71091">
        <ele>217</ele>
        <time>2017-08-19T09:50:25Z</time>
      </trkpt>
      <trkpt lat="45.8758" lon="4.71093">
        <ele>217</ele>
        <time>2017-08-19T09:50:26Z</time>
      </trkpt>
      <trkpt lat="45.87585" lon="4.71092">
        <ele>218</ele>
        <time>2017-08-19T09:50:27Z</time>
      </trkpt>
      <trkpt lat="45.8759" lon="4.71091">
        <ele>218</ele>
        <time>2017-08-19T09:50:28Z</time>
      </trkpt>
      <trkpt lat="45.87594" lon="4.71089">
        <ele>218</ele>
        <time>2017-08-19T09:50:29Z</time>
      </trkpt>
      <trkpt lat="45.876" lon="4.71088">
        <ele>219</ele>
        <time>2017-08-19T09:50:30Z</time>
      </trkpt>
      <trkpt lat="45.87605" lon="4.71085">
        <ele>219</ele>
        <time>2017-08-19T09:50:31Z</time>
      </trkpt>
      <trkpt lat="45.87609" lon="4.71083">
        <ele>217</ele>
        <time>2017-08-19T09:50:32Z</time>
      </trkpt>
      <trkpt lat="45.87614" lon="4.71081">
        <ele>217</ele>
        <time>2017-08-19T09:50:33Z</time>
      </trkpt>
      <trkpt lat="45.87622" lon="4.71078">
        <ele>217</ele>
        <time>2017-08-19T09:50:35Z</time>
      </trkpt>
      <trkpt lat="45.87627" lon="4.71076">
        <ele>218</ele>
        <time>2017-08-19T09:50:36Z</time>
      </trkpt>
      <trkpt lat="45.87632" lon="4.71075">
        <ele>218</ele>
        <time>2017-08-19T09:50:37Z</time>
      </trkpt>
      <trkpt lat="45.87636" lon="4.71072">
        <ele>218</ele>
        <time>2017-08-19T09:50:38Z</time>
      </trkpt>
      <trkpt lat="45.87644" lon="4.71066">
        <ele>218</ele>
        <time>2017-08-19T09:50:40Z</time>
      </trkpt>
      <trkpt lat="45.87648" lon="4.71064">
        <ele>218</ele>
        <time>2017-08-19T09:50:41Z</time>
      </trkpt>
      <trkpt lat="45.87654" lon="4.71063">
        <ele>218</ele>
        <time>2017-08-19T09:50:42Z</time>
      </trkpt>
      <trkpt lat="45.87659" lon="4.71062">
        <ele>218</ele>
        <time>2017-08-19T09:50:43Z</time>
      </trkpt>
      <trkpt lat="45.87664" lon="4.71061">
        <ele>218</ele>
        <time>2017-08-19T09:50:44Z</time>
      </trkpt>
      <trkpt lat="45.87668" lon="4.71059">
        <ele>220</ele>
        <time>2017-08-19T09:50:45Z</time>
      </trkpt>
      <trkpt lat="45.87677" lon="4.71055">
        <ele>220</ele>
        <time>2017-08-19T09:50:47Z</time>
      </trkpt>
      <trkpt lat="45.87681" lon="4.71054">
        <ele>220</ele>
        <time>2017-08-19T09:50:48Z</time>
      </trkpt>
      <trkpt lat="45.87689" lon="4.71052">
        <ele>220</ele>
        <time>2017-08-19T09:50:50Z</time>
      </trkpt>
      <trkpt lat="45.87692" lon="4.7105">
        <ele>220</ele>
        <time>2017-08-19T09:50:51Z</time>
      </trkpt>
      <trkpt lat="45.87696" lon="4.71049">
        <ele>220</ele>
        <time>2017-08-19T09:50:52Z</time>
      </trkpt>
      <trkpt lat="45.87701" lon="4.71048">
        <ele>220</ele>
        <time>2017-08-19T09:50:53Z</time>
      </trkpt>
      <trkpt lat="45.87706" lon="4.71046">
        <ele>220</ele>
        <time>2017-08-19T09:50:54Z</time>
      </trkpt>
      <trkpt lat="45.87711" lon="4.71045">
        <ele>220</ele>
        <time>2017-08-19T09:50:55Z</time>
      </trkpt>
      <trkpt lat="45.87716" lon="4.71043">
        <ele>220</ele>
        <time>2017-08-19T09:50:56Z</time>
      </trkpt>
      <trkpt lat="45.87721" lon="4.71042">
        <ele>220</ele>
        <time>2017-08-19T09:50:57Z</time>
      </trkpt>
      <trkpt lat="45.87725" lon="4.7104">
        <ele>220</ele>
        <time>2017-08-19T09:50:58Z</time>
      </trkpt>
      <trkpt lat="45.8773" lon="4.71039">
        <ele>220</ele>
        <time>2017-08-19T09:50:59Z</time>
      </trkpt>
      <trkpt lat="45.87737" lon="4.71036">
        <ele>220</ele>
        <time>2017-08-19T09:51:01Z</time>
      </trkpt>
      <trkpt lat="45.87739" lon="4.71036">
        <ele>220</ele>
        <time>2017-08-19T09:51:02Z</time>
      </trkpt>
      <trkpt lat="45.87745" lon="4.71034">
        <ele>220</ele>
        <time>2017-08-19T09:51:04Z</time>
      </trkpt>
      <trkpt lat="45.87748" lon="4.71033">
        <ele>220</ele>
        <time>2017-08-19T09:51:05Z</time>
      </trkpt>
      <trkpt lat="45.87755" lon="4.71029">
        <ele>222</ele>
        <time>2017-08-19T09:51:07Z</time>
      </trkpt>
      <trkpt lat="45.8776" lon="4.71027">
        <ele>222</ele>
        <time>2017-08-19T09:51:08Z</time>
      </trkpt>
      <trkpt lat="45.87765" lon="4.71025">
        <ele>222</ele>
        <time>2017-08-19T09:51:09Z</time>
      </trkpt>
      <trkpt lat="45.8777" lon="4.71024">
        <ele>222</ele>
        <time>2017-08-19T09:51:10Z</time>
      </trkpt>
      <trkpt lat="45.87775" lon="4.71022">
        <ele>222</ele>
        <time>2017-08-19T09:51:11Z</time>
      </trkpt>
      <trkpt lat="45.8778" lon="4.7102">
        <ele>222</ele>
        <time>2017-08-19T09:51:12Z</time>
      </trkpt>
      <trkpt lat="45.87789" lon="4.71018">
        <ele>223</ele>
        <time>2017-08-19T09:51:14Z</time>
      </trkpt>
      <trkpt lat="45.87792" lon="4.71017">
        <ele>223</ele>
        <time>2017-08-19T09:51:15Z</time>
      </trkpt>
      <trkpt lat="45.87799" lon="4.71014">
        <ele>223</ele>
        <time>2017-08-19T09:51:17Z</time>
      </trkpt>
      <trkpt lat="45.87803" lon="4.71012">
        <ele>223</ele>
        <time>2017-08-19T09:51:18Z</time>
      </trkpt>
      <trkpt lat="45.87807" lon="4.7101">
        <ele>223</ele>
        <time>2017-08-19T09:51:19Z</time>
      </trkpt>
      <trkpt lat="45.87812" lon="4.71009">
        <ele>223</ele>
        <time>2017-08-19T09:51:20Z</time>
      </trkpt>
      <trkpt lat="45.87818" lon="4.71007">
        <ele>223</ele>
        <time>2017-08-19T09:51:21Z</time>
      </trkpt>
      <trkpt lat="45.87823" lon="4.71005">
        <ele>224</ele>
        <time>2017-08-19T09:51:22Z</time>
      </trkpt>
      <trkpt lat="45.87827" lon="4.71003">
        <ele>224</ele>
        <time>2017-08-19T09:51:23Z</time>
      </trkpt>
      <trkpt lat="45.87832" lon="4.71001">
        <ele>224</ele>
        <time>2017-08-19T09:51:24Z</time>
      </trkpt>
      <trkpt lat="45.87836" lon="4.70999">
        <ele>224</ele>
        <time>2017-08-19T09:51:25Z</time>
      </trkpt>
      <trkpt lat="45.87841" lon="4.70996">
        <ele>224</ele>
        <time>2017-08-19T09:51:26Z</time>
      </trkpt>
      <trkpt lat="45.87845" lon="4.70994">
        <ele>224</ele>
        <time>2017-08-19T09:51:27Z</time>
      </trkpt>
      <trkpt lat="45.87849" lon="4.70991">
        <ele>224</ele>
        <time>2017-08-19T09:51:28Z</time>
      </trkpt>
      <trkpt lat="45.87853" lon="4.70989">
        <ele>224</ele>
        <time>2017-08-19T09:51:29Z</time>
      </trkpt>
      <trkpt lat="45.87857" lon="4.70986">
        <ele>224</ele>
        <time>2017-08-19T09:51:30Z</time>
      </trkpt>
      <trkpt lat="45.87861" lon="4.70983">
        <ele>224</ele>
        <time>2017-08-19T09:51:31Z</time>
      </trkpt>
      <trkpt lat="45.87865" lon="4.7098">
        <ele>225</ele>
        <time>2017-08-19T09:51:32Z</time>
      </trkpt>
      <trkpt lat="45.87873" lon="4.70975">
        <ele>225</ele>
        <time>2017-08-19T09:51:34Z</time>
      </trkpt>
      <trkpt lat="45.87877" lon="4.70972">
        <ele>225</ele>
        <time>2017-08-19T09:51:35Z</time>
      </trkpt>
      <trkpt lat="45.87885" lon="4.70968">
        <ele>225</ele>
        <time>2017-08-19T09:51:37Z</time>
      </trkpt>
      <trkpt lat="45.87889" lon="4.70965">
        <ele>225</ele>
        <time>2017-08-19T09:51:38Z</time>
      </trkpt>
      <trkpt lat="45.87896" lon="4.7096">
        <ele>225</ele>
        <time>2017-08-19T09:51:40Z</time>
      </trkpt>
      <trkpt lat="45.879" lon="4.70958">
        <ele>225</ele>
        <time>2017-08-19T09:51:41Z</time>
      </trkpt>
      <trkpt lat="45.87906" lon="4.70953">
        <ele>225</ele>
        <time>2017-08-19T09:51:43Z</time>
      </trkpt>
      <trkpt lat="45.87909" lon="4.7095">
        <ele>225</ele>
        <time>2017-08-19T09:51:44Z</time>
      </trkpt>
      <trkpt lat="45.87915" lon="4.70946">
        <ele>225</ele>
        <time>2017-08-19T09:51:46Z</time>
      </trkpt>
      <trkpt lat="45.87918" lon="4.70944">
        <ele>225</ele>
        <time>2017-08-19T09:51:47Z</time>
      </trkpt>
      <trkpt lat="45.87925" lon="4.70941">
        <ele>225</ele>
        <time>2017-08-19T09:51:49Z</time>
      </trkpt>
      <trkpt lat="45.87928" lon="4.70938">
        <ele>225</ele>
        <time>2017-08-19T09:51:50Z</time>
      </trkpt>
      <trkpt lat="45.87932" lon="4.70936">
        <ele>225</ele>
        <time>2017-08-19T09:51:51Z</time>
      </trkpt>
      <trkpt lat="45.87937" lon="4.70933">
        <ele>225</ele>
        <time>2017-08-19T09:51:52Z</time>
      </trkpt>
      <trkpt lat="45.87945" lon="4.70928">
        <ele>225</ele>
        <time>2017-08-19T09:51:54Z</time>
      </trkpt>
      <trkpt lat="45.87948" lon="4.70925">
        <ele>225</ele>
        <time>2017-08-19T09:51:55Z</time>
      </trkpt>
      <trkpt lat="45.87955" lon="4.7092">
        <ele>225</ele>
        <time>2017-08-19T09:51:57Z</time>
      </trkpt>
      <trkpt lat="45.87958" lon="4.70918">
        <ele>225</ele>
        <time>2017-08-19T09:51:58Z</time>
      </trkpt>
      <trkpt lat="45.87966" lon="4.70912">
        <ele>225</ele>
        <time>2017-08-19T09:52:00Z</time>
      </trkpt>
      <trkpt lat="45.8797" lon="4.70909">
        <ele>225</ele>
        <time>2017-08-19T09:52:01Z</time>
      </trkpt>
      <trkpt lat="45.87978" lon="4.70903">
        <ele>225</ele>
        <time>2017-08-19T09:52:03Z</time>
      </trkpt>
      <trkpt lat="45.87982" lon="4.70901">
        <ele>225</ele>
        <time>2017-08-19T09:52:04Z</time>
      </trkpt>
      <trkpt lat="45.87986" lon="4.70898">
        <ele>225</ele>
        <time>2017-08-19T09:52:05Z</time>
      </trkpt>
      <trkpt lat="45.8799" lon="4.70895">
        <ele>225</ele>
        <time>2017-08-19T09:52:06Z</time>
      </trkpt>
      <trkpt lat="45.87998" lon="4.7089">
        <ele>225</ele>
        <time>2017-08-19T09:52:08Z</time>
      </trkpt>
      <trkpt lat="45.88003" lon="4.70887">
        <ele>226</ele>
        <time>2017-08-19T09:52:09Z</time>
      </trkpt>
      <trkpt lat="45.88007" lon="4.70884">
        <ele>226</ele>
        <time>2017-08-19T09:52:10Z</time>
      </trkpt>
      <trkpt lat="45.88011" lon="4.70882">
        <ele>226</ele>
        <time>2017-08-19T09:52:11Z</time>
      </trkpt>
      <trkpt lat="45.88019" lon="4.70877">
        <ele>226</ele>
        <time>2017-08-19T09:52:13Z</time>
      </trkpt>
      <trkpt lat="45.88023" lon="4.70875">
        <ele>226</ele>
        <time>2017-08-19T09:52:14Z</time>
      </trkpt>
      <trkpt lat="45.88027" lon="4.70872">
        <ele>226</ele>
        <time>2017-08-19T09:52:15Z</time>
      </trkpt>
      <trkpt lat="45.88031" lon="4.70869">
        <ele>226</ele>
        <time>2017-08-19T09:52:16Z</time>
      </trkpt>
      <trkpt lat="45.88035" lon="4.70867">
        <ele>226</ele>
        <time>2017-08-19T09:52:17Z</time>
      </trkpt>
      <trkpt lat="45.8804" lon="4.70865">
        <ele>227</ele>
        <time>2017-08-19T09:52:18Z</time>
      </trkpt>
      <trkpt lat="45.88048" lon="4.7086">
        <ele>227</ele>
        <time>2017-08-19T09:52:20Z</time>
      </trkpt>
      <trkpt lat="45.88052" lon="4.70857">
        <ele>227</ele>
        <time>2017-08-19T09:52:21Z</time>
      </trkpt>
      <trkpt lat="45.88059" lon="4.70852">
        <ele>227</ele>
        <time>2017-08-19T09:52:23Z</time>
      </trkpt>
      <trkpt lat="45.88063" lon="4.7085">
        <ele>227</ele>
        <time>2017-08-19T09:52:24Z</time>
      </trkpt>
      <trkpt lat="45.8807" lon="4.70846">
        <ele>228</ele>
        <time>2017-08-19T09:52:26Z</time>
      </trkpt>
      <trkpt lat="45.88074" lon="4.70844">
        <ele>228</ele>
        <time>2017-08-19T09:52:27Z</time>
      </trkpt>
      <trkpt lat="45.88082" lon="4.70843">
        <ele>228</ele>
        <time>2017-08-19T09:52:29Z</time>
      </trkpt>
      <trkpt lat="45.88086" lon="4.70844">
        <ele>229</ele>
        <time>2017-08-19T09:52:30Z</time>
      </trkpt>
      <trkpt lat="45.88093" lon="4.70849">
        <ele>229</ele>
        <time>2017-08-19T09:52:32Z</time>
      </trkpt>
      <trkpt lat="45.88097" lon="4.70851">
        <ele>229</ele>
        <time>2017-08-19T09:52:33Z</time>
      </trkpt>
      <trkpt lat="45.88106" lon="4.70849">
        <ele>229</ele>
        <time>2017-08-19T09:52:35Z</time>
      </trkpt>
      <trkpt lat="45.88109" lon="4.70846">
        <ele>229</ele>
        <time>2017-08-19T09:52:36Z</time>
      </trkpt>
      <trkpt lat="45.88114" lon="4.70837">
        <ele>229</ele>
        <time>2017-08-19T09:52:38Z</time>
      </trkpt>
      <trkpt lat="45.88116" lon="4.70832">
        <ele>230</ele>
        <time>2017-08-19T09:52:39Z</time>
      </trkpt>
      <trkpt lat="45.88121" lon="4.70822">
        <ele>230</ele>
        <time>2017-08-19T09:52:41Z</time>
      </trkpt>
      <trkpt lat="45.88124" lon="4.70818">
        <ele>230</ele>
        <time>2017-08-19T09:52:42Z</time>
      </trkpt>
      <trkpt lat="45.88129" lon="4.70811">
        <ele>230</ele>
        <time>2017-08-19T09:52:44Z</time>
      </trkpt>
      <trkpt lat="45.88133" lon="4.70809">
        <ele>231</ele>
        <time>2017-08-19T09:52:45Z</time>
      </trkpt>
      <trkpt lat="45.88139" lon="4.70803">
        <ele>231</ele>
        <time>2017-08-19T09:52:47Z</time>
      </trkpt>
      <trkpt lat="45.88142" lon="4.708">
        <ele>231</ele>
        <time>2017-08-19T09:52:48Z</time>
      </trkpt>
      <trkpt lat="45.88148" lon="4.70793">
        <ele>231</ele>
        <time>2017-08-19T09:52:50Z</time>
      </trkpt>
      <trkpt lat="45.88151" lon="4.70789">
        <ele>231</ele>
        <time>2017-08-19T09:52:51Z</time>
      </trkpt>
      <trkpt lat="45.88159" lon="4.70783">
        <ele>231</ele>
        <time>2017-08-19T09:52:53Z</time>
      </trkpt>
      <trkpt lat="45.88162" lon="4.7078">
        <ele>231</ele>
        <time>2017-08-19T09:52:54Z</time>
      </trkpt>
      <trkpt lat="45.88169" lon="4.70775">
        <ele>232</ele>
        <time>2017-08-19T09:52:56Z</time>
      </trkpt>
      <trkpt lat="45.88173" lon="4.70773">
        <ele>232</ele>
        <time>2017-08-19T09:52:57Z</time>
      </trkpt>
      <trkpt lat="45.8818" lon="4.70768">
        <ele>232</ele>
        <time>2017-08-19T09:52:59Z</time>
      </trkpt>
      <trkpt lat="45.88185" lon="4.70765">
        <ele>232</ele>
        <time>2017-08-19T09:53:00Z</time>
      </trkpt>
      <trkpt lat="45.88193" lon="4.7076">
        <ele>232</ele>
        <time>2017-08-19T09:53:02Z</time>
      </trkpt>
      <trkpt lat="45.88197" lon="4.70757">
        <ele>232</ele>
        <time>2017-08-19T09:53:03Z</time>
      </trkpt>
      <trkpt lat="45.88204" lon="4.70751">
        <ele>232</ele>
        <time>2017-08-19T09:53:05Z</time>
      </trkpt>
      <trkpt lat="45.88208" lon="4.70749">
        <ele>235</ele>
        <time>2017-08-19T09:53:06Z</time>
      </trkpt>
      <trkpt lat="45.88214" lon="4.70744">
        <ele>235</ele>
        <time>2017-08-19T09:53:08Z</time>
      </trkpt>
      <trkpt lat="45.88217" lon="4.70742">
        <ele>235</ele>
        <time>2017-08-19T09:53:09Z</time>
      </trkpt>
      <trkpt lat="45.88223" lon="4.70738">
        <ele>235</ele>
        <time>2017-08-19T09:53:11Z</time>
      </trkpt>
      <trkpt lat="45.88226" lon="4.70735">
        <ele>235</ele>
        <time>2017-08-19T09:53:12Z</time>
      </trkpt>
      <trkpt lat="45.88232" lon="4.7073">
        <ele>235</ele>
        <time>2017-08-19T09:53:14Z</time>
      </trkpt>
      <trkpt lat="45.88235" lon="4.70728">
        <ele>235</ele>
        <time>2017-08-19T09:53:15Z</time>
      </trkpt>
      <trkpt lat="45.88241" lon="4.70723">
        <ele>235</ele>
        <time>2017-08-19T09:53:17Z</time>
      </trkpt>
      <trkpt lat="45.88245" lon="4.7072">
        <ele>235</ele>
        <time>2017-08-19T09:53:18Z</time>
      </trkpt>
      <trkpt lat="45.88252" lon="4.70714">
        <ele>234</ele>
        <time>2017-08-19T09:53:20Z</time>
      </trkpt>
      <trkpt lat="45.88256" lon="4.70711">
        <ele>235</ele>
        <time>2017-08-19T09:53:21Z</time>
      </trkpt>
      <trkpt lat="45.88263" lon="4.70706">
        <ele>235</ele>
        <time>2017-08-19T09:53:23Z</time>
      </trkpt>
      <trkpt lat="45.88267" lon="4.70704">
        <ele>235</ele>
        <time>2017-08-19T09:53:24Z</time>
      </trkpt>
      <trkpt lat="45.88274" lon="4.70698">
        <ele>235</ele>
        <time>2017-08-19T09:53:26Z</time>
      </trkpt>
      <trkpt lat="45.88277" lon="4.70695">
        <ele>235</ele>
        <time>2017-08-19T09:53:27Z</time>
      </trkpt>
      <trkpt lat="45.88283" lon="4.70691">
        <ele>235</ele>
        <time>2017-08-19T09:53:29Z</time>
      </trkpt>
      <trkpt lat="45.88287" lon="4.70688">
        <ele>235</ele>
        <time>2017-08-19T09:53:30Z</time>
      </trkpt>
      <trkpt lat="45.88294" lon="4.70682">
        <ele>235</ele>
        <time>2017-08-19T09:53:32Z</time>
      </trkpt>
      <trkpt lat="45.88299" lon="4.70679">
        <ele>235</ele>
        <time>2017-08-19T09:53:33Z</time>
      </trkpt>
      <trkpt lat="45.88307" lon="4.70673">
        <ele>235</ele>
        <time>2017-08-19T09:53:35Z</time>
      </trkpt>
      <trkpt lat="45.8831" lon="4.70671">
        <ele>235</ele>
        <time>2017-08-19T09:53:36Z</time>
      </trkpt>
      <trkpt lat="45.88317" lon="4.70665">
        <ele>237</ele>
        <time>2017-08-19T09:53:38Z</time>
      </trkpt>
      <trkpt lat="45.88321" lon="4.70662">
        <ele>237</ele>
        <time>2017-08-19T09:53:39Z</time>
      </trkpt>
      <trkpt lat="45.88325" lon="4.70659">
        <ele>237</ele>
        <time>2017-08-19T09:53:40Z</time>
      </trkpt>
      <trkpt lat="45.88329" lon="4.70655">
        <ele>237</ele>
        <time>2017-08-19T09:53:41Z</time>
      </trkpt>
      <trkpt lat="45.88336" lon="4.70649">
        <ele>235</ele>
        <time>2017-08-19T09:53:43Z</time>
      </trkpt>
      <trkpt lat="45.8834" lon="4.70646">
        <ele>235</ele>
        <time>2017-08-19T09:53:44Z</time>
      </trkpt>
      <trkpt lat="45.88344" lon="4.70643">
        <ele>235</ele>
        <time>2017-08-19T09:53:45Z</time>
      </trkpt>
      <trkpt lat="45.88349" lon="4.7064">
        <ele>235</ele>
        <time>2017-08-19T09:53:46Z</time>
      </trkpt>
      <trkpt lat="45.88356" lon="4.70634">
        <ele>235</ele>
        <time>2017-08-19T09:53:48Z</time>
      </trkpt>
      <trkpt lat="45.8836" lon="4.7063">
        <ele>235</ele>
        <time>2017-08-19T09:53:49Z</time>
      </trkpt>
      <trkpt lat="45.88364" lon="4.70626">
        <ele>235</ele>
        <time>2017-08-19T09:53:50Z</time>
      </trkpt>
      <trkpt lat="45.88369" lon="4.70623">
        <ele>235</ele>
        <time>2017-08-19T09:53:51Z</time>
      </trkpt>
      <trkpt lat="45.88374" lon="4.70618">
        <ele>235</ele>
        <time>2017-08-19T09:53:52Z</time>
      </trkpt>
      <trkpt lat="45.88378" lon="4.70614">
        <ele>235</ele>
        <time>2017-08-19T09:53:53Z</time>
      </trkpt>
      <trkpt lat="45.88383" lon="4.70611">
        <ele>235</ele>
        <time>2017-08-19T09:53:54Z</time>
      </trkpt>
      <trkpt lat="45.88387" lon="4.70607">
        <ele>235</ele>
        <time>2017-08-19T09:53:55Z</time>
      </trkpt>
      <trkpt lat="45.88392" lon="4.70606">
        <ele>235</ele>
        <time>2017-08-19T09:53:56Z</time>
      </trkpt>
      <trkpt lat="45.88397" lon="4.70603">
        <ele>235</ele>
        <time>2017-08-19T09:53:57Z</time>
      </trkpt>
      <trkpt lat="45.88402" lon="4.70599">
        <ele>235</ele>
        <time>2017-08-19T09:53:58Z</time>
      </trkpt>
      <trkpt lat="45.88408" lon="4.70594">
        <ele>235</ele>
        <time>2017-08-19T09:53:59Z</time>
      </trkpt>
      <trkpt lat="45.88413" lon="4.7059">
        <ele>235</ele>
        <time>2017-08-19T09:54:00Z</time>
      </trkpt>
      <trkpt lat="45.88418" lon="4.70585">
        <ele>234</ele>
        <time>2017-08-19T09:54:01Z</time>
      </trkpt>
      <trkpt lat="45.88423" lon="4.70581">
        <ele>235</ele>
        <time>2017-08-19T09:54:02Z</time>
      </trkpt>
      <trkpt lat="45.88428" lon="4.70577">
        <ele>235</ele>
        <time>2017-08-19T09:54:03Z</time>
      </trkpt>
      <trkpt lat="45.88433" lon="4.70573">
        <ele>235</ele>
        <time>2017-08-19T09:54:04Z</time>
      </trkpt>
      <trkpt lat="45.88437" lon="4.70569">
        <ele>234</ele>
        <time>2017-08-19T09:54:05Z</time>
      </trkpt>
      <trkpt lat="45.88442" lon="4.70565">
        <ele>234</ele>
        <time>2017-08-19T09:54:06Z</time>
      </trkpt>
      <trkpt lat="45.88447" lon="4.7056">
        <ele>234</ele>
        <time>2017-08-19T09:54:07Z</time>
      </trkpt>
      <trkpt lat="45.88453" lon="4.70556">
        <ele>234</ele>
        <time>2017-08-19T09:54:08Z</time>
      </trkpt>
      <trkpt lat="45.88459" lon="4.70552">
        <ele>234</ele>
        <time>2017-08-19T09:54:09Z</time>
      </trkpt>
      <trkpt lat="45.88464" lon="4.70548">
        <ele>234</ele>
        <time>2017-08-19T09:54:10Z</time>
      </trkpt>
      <trkpt lat="45.8847" lon="4.70544">
        <ele>234</ele>
        <time>2017-08-19T09:54:11Z</time>
      </trkpt>
      <trkpt lat="45.88475" lon="4.7054">
        <ele>234</ele>
        <time>2017-08-19T09:54:12Z</time>
      </trkpt>
      <trkpt lat="45.8848" lon="4.70535">
        <ele>234</ele>
        <time>2017-08-19T09:54:13Z</time>
      </trkpt>
      <trkpt lat="45.88486" lon="4.70531">
        <ele>234</ele>
        <time>2017-08-19T09:54:14Z</time>
      </trkpt>
      <trkpt lat="45.88491" lon="4.70527">
        <ele>234</ele>
        <time>2017-08-19T09:54:15Z</time>
      </trkpt>
      <trkpt lat="45.88496" lon="4.70523">
        <ele>233</ele>
        <time>2017-08-19T09:54:16Z</time>
      </trkpt>
      <trkpt lat="45.885" lon="4.70519">
        <ele>230</ele>
        <time>2017-08-19T09:54:17Z</time>
      </trkpt>
      <trkpt lat="45.88505" lon="4.70515">
        <ele>231</ele>
        <time>2017-08-19T09:54:18Z</time>
      </trkpt>
      <trkpt lat="45.8851" lon="4.70511">
        <ele>231</ele>
        <time>2017-08-19T09:54:19Z</time>
      </trkpt>
      <trkpt lat="45.88515" lon="4.70507">
        <ele>231</ele>
        <time>2017-08-19T09:54:20Z</time>
      </trkpt>
      <trkpt lat="45.88519" lon="4.70503">
        <ele>230</ele>
        <time>2017-08-19T09:54:21Z</time>
      </trkpt>
      <trkpt lat="45.88524" lon="4.705">
        <ele>232</ele>
        <time>2017-08-19T09:54:22Z</time>
      </trkpt>
      <trkpt lat="45.88528" lon="4.70496">
        <ele>232</ele>
        <time>2017-08-19T09:54:23Z</time>
      </trkpt>
      <trkpt lat="45.88532" lon="4.70492">
        <ele>232</ele>
        <time>2017-08-19T09:54:24Z</time>
      </trkpt>
      <trkpt lat="45.88537" lon="4.70489">
        <ele>232</ele>
        <time>2017-08-19T09:54:25Z</time>
      </trkpt>
      <trkpt lat="45.88542" lon="4.70485">
        <ele>232</ele>
        <time>2017-08-19T09:54:26Z</time>
      </trkpt>
      <trkpt lat="45.88548" lon="4.70481">
        <ele>232</ele>
        <time>2017-08-19T09:54:27Z</time>
      </trkpt>
      <trkpt lat="45.88554" lon="4.70476">
        <ele>231</ele>
        <time>2017-08-19T09:54:28Z</time>
      </trkpt>
      <trkpt lat="45.8856" lon="4.70472">
        <ele>231</ele>
        <time>2017-08-19T09:54:29Z</time>
      </trkpt>
      <trkpt lat="45.88565" lon="4.70467">
        <ele>231</ele>
        <time>2017-08-19T09:54:30Z</time>
      </trkpt>
      <trkpt lat="45.8857" lon="4.70462">
        <ele>231</ele>
        <time>2017-08-19T09:54:31Z</time>
      </trkpt>
      <trkpt lat="45.88576" lon="4.70458">
        <ele>231</ele>
        <time>2017-08-19T09:54:32Z</time>
      </trkpt>
      <trkpt lat="45.88581" lon="4.70454">
        <ele>232</ele>
        <time>2017-08-19T09:54:33Z</time>
      </trkpt>
      <trkpt lat="45.88586" lon="4.7045">
        <ele>228</ele>
        <time>2017-08-19T09:54:34Z</time>
      </trkpt>
      <trkpt lat="45.88592" lon="4.70446">
        <ele>228</ele>
        <time>2017-08-19T09:54:35Z</time>
      </trkpt>
      <trkpt lat="45.88597" lon="4.70442">
        <ele>229</ele>
        <time>2017-08-19T09:54:36Z</time>
      </trkpt>
      <trkpt lat="45.88602" lon="4.70439">
        <ele>228</ele>
        <time>2017-08-19T09:54:37Z</time>
      </trkpt>
      <trkpt lat="45.88607" lon="4.70434">
        <ele>228</ele>
        <time>2017-08-19T09:54:38Z</time>
      </trkpt>
      <trkpt lat="45.88612" lon="4.7043">
        <ele>228</ele>
        <time>2017-08-19T09:54:39Z</time>
      </trkpt>
      <trkpt lat="45.88616" lon="4.70426">
        <ele>228</ele>
        <time>2017-08-19T09:54:40Z</time>
      </trkpt>
      <trkpt lat="45.88621" lon="4.70422">
        <ele>228</ele>
        <time>2017-08-19T09:54:41Z</time>
      </trkpt>
      <trkpt lat="45.88625" lon="4.70419">
        <ele>228</ele>
        <time>2017-08-19T09:54:42Z</time>
      </trkpt>
      <trkpt lat="45.88629" lon="4.70415">
        <ele>230</ele>
        <time>2017-08-19T09:54:43Z</time>
      </trkpt>
      <trkpt lat="45.88634" lon="4.70411">
        <ele>230</ele>
        <time>2017-08-19T09:54:44Z</time>
      </trkpt>
      <trkpt lat="45.88639" lon="4.70407">
        <ele>230</ele>
        <time>2017-08-19T09:54:45Z</time>
      </trkpt>
      <trkpt lat="45.88645" lon="4.70402">
        <ele>230</ele>
        <time>2017-08-19T09:54:46Z</time>
      </trkpt>
      <trkpt lat="45.8865" lon="4.70398">
        <ele>230</ele>
        <time>2017-08-19T09:54:47Z</time>
      </trkpt>
      <trkpt lat="45.88656" lon="4.70393">
        <ele>230</ele>
        <time>2017-08-19T09:54:48Z</time>
      </trkpt>
      <trkpt lat="45.88662" lon="4.70388">
        <ele>230</ele>
        <time>2017-08-19T09:54:49Z</time>
      </trkpt>
      <trkpt lat="45.88668" lon="4.70384">
        <ele>228</ele>
        <time>2017-08-19T09:54:50Z</time>
      </trkpt>
      <trkpt lat="45.88674" lon="4.70379">
        <ele>228</ele>
        <time>2017-08-19T09:54:51Z</time>
      </trkpt>
      <trkpt lat="45.88679" lon="4.70375">
        <ele>228</ele>
        <time>2017-08-19T09:54:52Z</time>
      </trkpt>
      <trkpt lat="45.88684" lon="4.7037">
        <ele>229</ele>
        <time>2017-08-19T09:54:53Z</time>
      </trkpt>
      <trkpt lat="45.88689" lon="4.70366">
        <ele>229</ele>
        <time>2017-08-19T09:54:54Z</time>
      </trkpt>
      <trkpt lat="45.88694" lon="4.70362">
        <ele>229</ele>
        <time>2017-08-19T09:54:55Z</time>
      </trkpt>
      <trkpt lat="45.88698" lon="4.70358">
        <ele>229</ele>
        <time>2017-08-19T09:54:56Z</time>
      </trkpt>
      <trkpt lat="45.88702" lon="4.70355">
        <ele>229</ele>
        <time>2017-08-19T09:54:57Z</time>
      </trkpt>
      <trkpt lat="45.88706" lon="4.70351">
        <ele>229</ele>
        <time>2017-08-19T09:54:58Z</time>
      </trkpt>
      <trkpt lat="45.88711" lon="4.70347">
        <ele>229</ele>
        <time>2017-08-19T09:54:59Z</time>
      </trkpt>
      <trkpt lat="45.88715" lon="4.70344">
        <ele>229</ele>
        <time>2017-08-19T09:55:00Z</time>
      </trkpt>
      <trkpt lat="45.88719" lon="4.70341">
        <ele>229</ele>
        <time>2017-08-19T09:55:01Z</time>
      </trkpt>
      <trkpt lat="45.88724" lon="4.70337">
        <ele>229</ele>
        <time>2017-08-19T09:55:02Z</time>
      </trkpt>
      <trkpt lat="45.88729" lon="4.70333">
        <ele>233</ele>
        <time>2017-08-19T09:55:03Z</time>
      </trkpt>
      <trkpt lat="45.88735" lon="4.70329">
        <ele>232</ele>
        <time>2017-08-19T09:55:04Z</time>
      </trkpt>
      <trkpt lat="45.8874" lon="4.70325">
        <ele>232</ele>
        <time>2017-08-19T09:55:05Z</time>
      </trkpt>
      <trkpt lat="45.88746" lon="4.7032">
        <ele>232</ele>
        <time>2017-08-19T09:55:06Z</time>
      </trkpt>
      <trkpt lat="45.88752" lon="4.70316">
        <ele>232</ele>
        <time>2017-08-19T09:55:07Z</time>
      </trkpt>
      <trkpt lat="45.88758" lon="4.70312">
        <ele>232</ele>
        <time>2017-08-19T09:55:08Z</time>
      </trkpt>
      <trkpt lat="45.88764" lon="4.70308">
        <ele>233</ele>
        <time>2017-08-19T09:55:09Z</time>
      </trkpt>
      <trkpt lat="45.8877" lon="4.70303">
        <ele>233</ele>
        <time>2017-08-19T09:55:10Z</time>
      </trkpt>
      <trkpt lat="45.88777" lon="4.70299">
        <ele>233</ele>
        <time>2017-08-19T09:55:11Z</time>
      </trkpt>
      <trkpt lat="45.88783" lon="4.70293">
        <ele>234</ele>
        <time>2017-08-19T09:55:12Z</time>
      </trkpt>
      <trkpt lat="45.88788" lon="4.70288">
        <ele>234</ele>
        <time>2017-08-19T09:55:13Z</time>
      </trkpt>
      <trkpt lat="45.88794" lon="4.70284">
        <ele>234</ele>
        <time>2017-08-19T09:55:14Z</time>
      </trkpt>
      <trkpt lat="45.88799" lon="4.7028">
        <ele>234</ele>
        <time>2017-08-19T09:55:15Z</time>
      </trkpt>
      <trkpt lat="45.88804" lon="4.70277">
        <ele>234</ele>
        <time>2017-08-19T09:55:16Z</time>
      </trkpt>
      <trkpt lat="45.88809" lon="4.70273">
        <ele>234</ele>
        <time>2017-08-19T09:55:17Z</time>
      </trkpt>
      <trkpt lat="45.88813" lon="4.70269">
        <ele>235</ele>
        <time>2017-08-19T09:55:18Z</time>
      </trkpt>
      <trkpt lat="45.88818" lon="4.70265">
        <ele>235</ele>
        <time>2017-08-19T09:55:19Z</time>
      </trkpt>
      <trkpt lat="45.88823" lon="4.70261">
        <ele>235</ele>
        <time>2017-08-19T09:55:20Z</time>
      </trkpt>
      <trkpt lat="45.88828" lon="4.70258">
        <ele>236</ele>
        <time>2017-08-19T09:55:21Z</time>
      </trkpt>
      <trkpt lat="45.88832" lon="4.70254">
        <ele>236</ele>
        <time>2017-08-19T09:55:22Z</time>
      </trkpt>
      <trkpt lat="45.88837" lon="4.7025">
        <ele>236</ele>
        <time>2017-08-19T09:55:23Z</time>
      </trkpt>
      <trkpt lat="45.88843" lon="4.70247">
        <ele>238</ele>
        <time>2017-08-19T09:55:24Z</time>
      </trkpt>
      <trkpt lat="45.88849" lon="4.70244">
        <ele>238</ele>
        <time>2017-08-19T09:55:25Z</time>
      </trkpt>
      <trkpt lat="45.88854" lon="4.70241">
        <ele>238</ele>
        <time>2017-08-19T09:55:26Z</time>
      </trkpt>
      <trkpt lat="45.88859" lon="4.70238">
        <ele>238</ele>
        <time>2017-08-19T09:55:27Z</time>
      </trkpt>
      <trkpt lat="45.88863" lon="4.70235">
        <ele>238</ele>
        <time>2017-08-19T09:55:28Z</time>
      </trkpt>
      <trkpt lat="45.88868" lon="4.70232">
        <ele>238</ele>
        <time>2017-08-19T09:55:29Z</time>
      </trkpt>
      <trkpt lat="45.88872" lon="4.70229">
        <ele>238</ele>
        <time>2017-08-19T09:55:30Z</time>
      </trkpt>
      <trkpt lat="45.88876" lon="4.70226">
        <ele>238</ele>
        <time>2017-08-19T09:55:31Z</time>
      </trkpt>
      <trkpt lat="45.88881" lon="4.70223">
        <ele>238</ele>
        <time>2017-08-19T09:55:32Z</time>
      </trkpt>
      <trkpt lat="45.88885" lon="4.70222">
        <ele>238</ele>
        <time>2017-08-19T09:55:33Z</time>
      </trkpt>
      <trkpt lat="45.88891" lon="4.70219">
        <ele>238</ele>
        <time>2017-08-19T09:55:34Z</time>
      </trkpt>
      <trkpt lat="45.88896" lon="4.70217">
        <ele>238</ele>
        <time>2017-08-19T09:55:35Z</time>
      </trkpt>
      <trkpt lat="45.88902" lon="4.70214">
        <ele>238</ele>
        <time>2017-08-19T09:55:36Z</time>
      </trkpt>
      <trkpt lat="45.88908" lon="4.70211">
        <ele>238</ele>
        <time>2017-08-19T09:55:37Z</time>
      </trkpt>
      <trkpt lat="45.88914" lon="4.70208">
        <ele>238</ele>
        <time>2017-08-19T09:55:38Z</time>
      </trkpt>
      <trkpt lat="45.8892" lon="4.70204">
        <ele>235</ele>
        <time>2017-08-19T09:55:39Z</time>
      </trkpt>
      <trkpt lat="45.88926" lon="4.70201">
        <ele>235</ele>
        <time>2017-08-19T09:55:40Z</time>
      </trkpt>
      <trkpt lat="45.88932" lon="4.70198">
        <ele>235</ele>
        <time>2017-08-19T09:55:41Z</time>
      </trkpt>
      <trkpt lat="45.88938" lon="4.70195">
        <ele>235</ele>
        <time>2017-08-19T09:55:42Z</time>
      </trkpt>
      <trkpt lat="45.88943" lon="4.70192">
        <ele>235</ele>
        <time>2017-08-19T09:55:43Z</time>
      </trkpt>
      <trkpt lat="45.88948" lon="4.70189">
        <ele>234</ele>
        <time>2017-08-19T09:55:44Z</time>
      </trkpt>
      <trkpt lat="45.88953" lon="4.70186">
        <ele>234</ele>
        <time>2017-08-19T09:55:45Z</time>
      </trkpt>
      <trkpt lat="45.88958" lon="4.70183">
        <ele>234</ele>
        <time>2017-08-19T09:55:46Z</time>
      </trkpt>
      <trkpt lat="45.88963" lon="4.70181">
        <ele>234</ele>
        <time>2017-08-19T09:55:47Z</time>
      </trkpt>
      <trkpt lat="45.88967" lon="4.70178">
        <ele>233</ele>
        <time>2017-08-19T09:55:48Z</time>
      </trkpt>
      <trkpt lat="45.88973" lon="4.70175">
        <ele>233</ele>
        <time>2017-08-19T09:55:49Z</time>
      </trkpt>
      <trkpt lat="45.88978" lon="4.70171">
        <ele>233</ele>
        <time>2017-08-19T09:55:50Z</time>
      </trkpt>
      <trkpt lat="45.88983" lon="4.70168">
        <ele>233</ele>
        <time>2017-08-19T09:55:51Z</time>
      </trkpt>
      <trkpt lat="45.88989" lon="4.70164">
        <ele>234</ele>
        <time>2017-08-19T09:55:52Z</time>
      </trkpt>
      <trkpt lat="45.88995" lon="4.70161">
        <ele>234</ele>
        <time>2017-08-19T09:55:53Z</time>
      </trkpt>
      <trkpt lat="45.89" lon="4.70158">
        <ele>232</ele>
        <time>2017-08-19T09:55:54Z</time>
      </trkpt>
      <trkpt lat="45.89006" lon="4.70155">
        <ele>232</ele>
        <time>2017-08-19T09:55:55Z</time>
      </trkpt>
      <trkpt lat="45.89011" lon="4.70152">
        <ele>232</ele>
        <time>2017-08-19T09:55:56Z</time>
      </trkpt>
      <trkpt lat="45.89016" lon="4.70149">
        <ele>231</ele>
        <time>2017-08-19T09:55:57Z</time>
      </trkpt>
      <trkpt lat="45.89022" lon="4.70146">
        <ele>231</ele>
        <time>2017-08-19T09:55:58Z</time>
      </trkpt>
      <trkpt lat="45.89027" lon="4.70143">
        <ele>231</ele>
        <time>2017-08-19T09:55:59Z</time>
      </trkpt>
      <trkpt lat="45.89032" lon="4.7014">
        <ele>231</ele>
        <time>2017-08-19T09:56:00Z</time>
      </trkpt>
      <trkpt lat="45.89037" lon="4.70137">
        <ele>231</ele>
        <time>2017-08-19T09:56:01Z</time>
      </trkpt>
      <trkpt lat="45.89042" lon="4.70134">
        <ele>231</ele>
        <time>2017-08-19T09:56:02Z</time>
      </trkpt>
      <trkpt lat="45.89047" lon="4.70131">
        <ele>231</ele>
        <time>2017-08-19T09:56:03Z</time>
      </trkpt>
      <trkpt lat="45.89052" lon="4.70127">
        <ele>231</ele>
        <time>2017-08-19T09:56:04Z</time>
      </trkpt>
      <trkpt lat="45.89057" lon="4.70124">
        <ele>230</ele>
        <time>2017-08-19T09:56:05Z</time>
      </trkpt>
      <trkpt lat="45.89063" lon="4.7012">
        <ele>230</ele>
        <time>2017-08-19T09:56:06Z</time>
      </trkpt>
      <trkpt lat="45.89068" lon="4.70117">
        <ele>230</ele>
        <time>2017-08-19T09:56:07Z</time>
      </trkpt>
      <trkpt lat="45.89074" lon="4.70114">
        <ele>230</ele>
        <time>2017-08-19T09:56:08Z</time>
      </trkpt>
      <trkpt lat="45.8908" lon="4.7011">
        <ele>230</ele>
        <time>2017-08-19T09:56:09Z</time>
      </trkpt>
      <trkpt lat="45.89086" lon="4.70107">
        <ele>228</ele>
        <time>2017-08-19T09:56:10Z</time>
      </trkpt>
      <trkpt lat="45.89092" lon="4.70103">
        <ele>228</ele>
        <time>2017-08-19T09:56:11Z</time>
      </trkpt>
      <trkpt lat="45.89098" lon="4.70099">
        <ele>228</ele>
        <time>2017-08-19T09:56:12Z</time>
      </trkpt>
      <trkpt lat="45.89104" lon="4.70095">
        <ele>228</ele>
        <time>2017-08-19T09:56:13Z</time>
      </trkpt>
      <trkpt lat="45.8911" lon="4.70091">
        <ele>228</ele>
        <time>2017-08-19T09:56:14Z</time>
      </trkpt>
      <trkpt lat="45.89116" lon="4.70088">
        <ele>228</ele>
        <time>2017-08-19T09:56:15Z</time>
      </trkpt>
      <trkpt lat="45.89122" lon="4.70085">
        <ele>228</ele>
        <time>2017-08-19T09:56:16Z</time>
      </trkpt>
      <trkpt lat="45.89128" lon="4.70082">
        <ele>231</ele>
        <time>2017-08-19T09:56:17Z</time>
      </trkpt>
      <trkpt lat="45.89134" lon="4.70078">
        <ele>231</ele>
        <time>2017-08-19T09:56:18Z</time>
      </trkpt>
      <trkpt lat="45.8914" lon="4.70075">
        <ele>231</ele>
        <time>2017-08-19T09:56:19Z</time>
      </trkpt>
      <trkpt lat="45.89145" lon="4.70072">
        <ele>230</ele>
        <time>2017-08-19T09:56:20Z</time>
      </trkpt>
      <trkpt lat="45.89151" lon="4.70069">
        <ele>230</ele>
        <time>2017-08-19T09:56:21Z</time>
      </trkpt>
      <trkpt lat="45.89157" lon="4.70067">
        <ele>230</ele>
        <time>2017-08-19T09:56:22Z</time>
      </trkpt>
      <trkpt lat="45.89162" lon="4.70063">
        <ele>230</ele>
        <time>2017-08-19T09:56:23Z</time>
      </trkpt>
      <trkpt lat="45.89168" lon="4.7006">
        <ele>229</ele>
        <time>2017-08-19T09:56:24Z</time>
      </trkpt>
      <trkpt lat="45.89174" lon="4.70058">
        <ele>229</ele>
        <time>2017-08-19T09:56:25Z</time>
      </trkpt>
      <trkpt lat="45.89179" lon="4.70055">
        <ele>229</ele>
        <time>2017-08-19T09:56:26Z</time>
      </trkpt>
      <trkpt lat="45.89184" lon="4.70052">
        <ele>229</ele>
        <time>2017-08-19T09:56:27Z</time>
      </trkpt>
      <trkpt lat="45.8919" lon="4.7005">
        <ele>229</ele>
        <time>2017-08-19T09:56:28Z</time>
      </trkpt>
      <trkpt lat="45.89196" lon="4.70047">
        <ele>229</ele>
        <time>2017-08-19T09:56:29Z</time>
      </trkpt>
      <trkpt lat="45.89202" lon="4.70044">
        <ele>229</ele>
        <time>2017-08-19T09:56:30Z</time>
      </trkpt>
      <trkpt lat="45.89208" lon="4.70042">
        <ele>229</ele>
        <time>2017-08-19T09:56:31Z</time>
      </trkpt>
      <trkpt lat="45.89214" lon="4.70039">
        <ele>228</ele>
        <time>2017-08-19T09:56:32Z</time>
      </trkpt>
      <trkpt lat="45.89221" lon="4.70036">
        <ele>228</ele>
        <time>2017-08-19T09:56:33Z</time>
      </trkpt>
      <trkpt lat="45.89227" lon="4.70033">
        <ele>228</ele>
        <time>2017-08-19T09:56:34Z</time>
      </trkpt>
      <trkpt lat="45.89234" lon="4.70031">
        <ele>228</ele>
        <time>2017-08-19T09:56:35Z</time>
      </trkpt>
      <trkpt lat="45.8924" lon="4.70028">
        <ele>228</ele>
        <time>2017-08-19T09:56:36Z</time>
      </trkpt>
      <trkpt lat="45.89246" lon="4.70027">
        <ele>228</ele>
        <time>2017-08-19T09:56:37Z</time>
      </trkpt>
      <trkpt lat="45.89252" lon="4.70025">
        <ele>227</ele>
        <time>2017-08-19T09:56:38Z</time>
      </trkpt>
      <trkpt lat="45.89258" lon="4.70023">
        <ele>227</ele>
        <time>2017-08-19T09:56:39Z</time>
      </trkpt>
      <trkpt lat="45.89263" lon="4.70021">
        <ele>227</ele>
        <time>2017-08-19T09:56:40Z</time>
      </trkpt>
      <trkpt lat="45.89268" lon="4.70019">
        <ele>227</ele>
        <time>2017-08-19T09:56:41Z</time>
      </trkpt>
      <trkpt lat="45.89274" lon="4.70017">
        <ele>226</ele>
        <time>2017-08-19T09:56:42Z</time>
      </trkpt>
      <trkpt lat="45.89279" lon="4.70015">
        <ele>226</ele>
        <time>2017-08-19T09:56:43Z</time>
      </trkpt>
      <trkpt lat="45.89284" lon="4.70013">
        <ele>226</ele>
        <time>2017-08-19T09:56:44Z</time>
      </trkpt>
      <trkpt lat="45.8929" lon="4.70011">
        <ele>226</ele>
        <time>2017-08-19T09:56:45Z</time>
      </trkpt>
      <trkpt lat="45.89295" lon="4.70009">
        <ele>226</ele>
        <time>2017-08-19T09:56:46Z</time>
      </trkpt>
      <trkpt lat="45.893" lon="4.70007">
        <ele>226</ele>
        <time>2017-08-19T09:56:47Z</time>
      </trkpt>
      <trkpt lat="45.89307" lon="4.70005">
        <ele>226</ele>
        <time>2017-08-19T09:56:48Z</time>
      </trkpt>
      <trkpt lat="45.89313" lon="4.70002">
        <ele>226</ele>
        <time>2017-08-19T09:56:49Z</time>
      </trkpt>
      <trkpt lat="45.8932" lon="4.7">
        <ele>228</ele>
        <time>2017-08-19T09:56:50Z</time>
      </trkpt>
      <trkpt lat="45.89327" lon="4.69998">
        <ele>227</ele>
        <time>2017-08-19T09:56:51Z</time>
      </trkpt>
      <trkpt lat="45.89334" lon="4.69997">
        <ele>226</ele>
        <time>2017-08-19T09:56:52Z</time>
      </trkpt>
      <trkpt lat="45.89341" lon="4.69997">
        <ele>227</ele>
        <time>2017-08-19T09:56:53Z</time>
      </trkpt>
      <trkpt lat="45.89348" lon="4.69997">
        <ele>227</ele>
        <time>2017-08-19T09:56:54Z</time>
      </trkpt>
      <trkpt lat="45.89354" lon="4.69997">
        <ele>227</ele>
        <time>2017-08-19T09:56:55Z</time>
      </trkpt>
      <trkpt lat="45.89361" lon="4.69998">
        <ele>227</ele>
        <time>2017-08-19T09:56:56Z</time>
      </trkpt>
      <trkpt lat="45.89367" lon="4.69999">
        <ele>227</ele>
        <time>2017-08-19T09:56:57Z</time>
      </trkpt>
      <trkpt lat="45.89374" lon="4.7">
        <ele>225</ele>
        <time>2017-08-19T09:56:58Z</time>
      </trkpt>
      <trkpt lat="45.8938" lon="4.70001">
        <ele>225</ele>
        <time>2017-08-19T09:56:59Z</time>
      </trkpt>
      <trkpt lat="45.89387" lon="4.70002">
        <ele>226</ele>
        <time>2017-08-19T09:57:00Z</time>
      </trkpt>
      <trkpt lat="45.89393" lon="4.70003">
        <ele>226</ele>
        <time>2017-08-19T09:57:01Z</time>
      </trkpt>
      <trkpt lat="45.89399" lon="4.70004">
        <ele>226</ele>
        <time>2017-08-19T09:57:02Z</time>
      </trkpt>
      <trkpt lat="45.89406" lon="4.70005">
        <ele>226</ele>
        <time>2017-08-19T09:57:03Z</time>
      </trkpt>
      <trkpt lat="45.89412" lon="4.70006">
        <ele>226</ele>
        <time>2017-08-19T09:57:04Z</time>
      </trkpt>
      <trkpt lat="45.89417" lon="4.70008">
        <ele>226</ele>
        <time>2017-08-19T09:57:05Z</time>
      </trkpt>
      <trkpt lat="45.89424" lon="4.70009">
        <ele>226</ele>
        <time>2017-08-19T09:57:06Z</time>
      </trkpt>
      <trkpt lat="45.8943" lon="4.70011">
        <ele>226</ele>
        <time>2017-08-19T09:57:07Z</time>
      </trkpt>
      <trkpt lat="45.89435" lon="4.70012">
        <ele>225</ele>
        <time>2017-08-19T09:57:08Z</time>
      </trkpt>
      <trkpt lat="45.89442" lon="4.70013">
        <ele>225</ele>
        <time>2017-08-19T09:57:09Z</time>
      </trkpt>
      <trkpt lat="45.89448" lon="4.70015">
        <ele>225</ele>
        <time>2017-08-19T09:57:10Z</time>
      </trkpt>
      <trkpt lat="45.89454" lon="4.70016">
        <ele>225</ele>
        <time>2017-08-19T09:57:11Z</time>
      </trkpt>
      <trkpt lat="45.89461" lon="4.70018">
        <ele>225</ele>
        <time>2017-08-19T09:57:12Z</time>
      </trkpt>
      <trkpt lat="45.89468" lon="4.70019">
        <ele>225</ele>
        <time>2017-08-19T09:57:13Z</time>
      </trkpt>
      <trkpt lat="45.89474" lon="4.7002">
        <ele>224</ele>
        <time>2017-08-19T09:57:14Z</time>
      </trkpt>
      <trkpt lat="45.89481" lon="4.70021">
        <ele>224</ele>
        <time>2017-08-19T09:57:15Z</time>
      </trkpt>
      <trkpt lat="45.89488" lon="4.70022">
        <ele>224</ele>
        <time>2017-08-19T09:57:16Z</time>
      </trkpt>
      <trkpt lat="45.89495" lon="4.70024">
        <ele>224</ele>
        <time>2017-08-19T09:57:17Z</time>
      </trkpt>
      <trkpt lat="45.89501" lon="4.70025">
        <ele>223</ele>
        <time>2017-08-19T09:57:18Z</time>
      </trkpt>
      <trkpt lat="45.89508" lon="4.70026">
        <ele>223</ele>
        <time>2017-08-19T09:57:19Z</time>
      </trkpt>
      <trkpt lat="45.89515" lon="4.70027">
        <ele>223</ele>
        <time>2017-08-19T09:57:20Z</time>
      </trkpt>
      <trkpt lat="45.89521" lon="4.70029">
        <ele>223</ele>
        <time>2017-08-19T09:57:21Z</time>
      </trkpt>
      <trkpt lat="45.89528" lon="4.7003">
        <ele>223</ele>
        <time>2017-08-19T09:57:22Z</time>
      </trkpt>
      <trkpt lat="45.89535" lon="4.70031">
        <ele>223</ele>
        <time>2017-08-19T09:57:23Z</time>
      </trkpt>
      <trkpt lat="45.89542" lon="4.70032">
        <ele>222</ele>
        <time>2017-08-19T09:57:24Z</time>
      </trkpt>
      <trkpt lat="45.89548" lon="4.70033">
        <ele>222</ele>
        <time>2017-08-19T09:57:25Z</time>
      </trkpt>
      <trkpt lat="45.89555" lon="4.70034">
        <ele>222</ele>
        <time>2017-08-19T09:57:26Z</time>
      </trkpt>
      <trkpt lat="45.89561" lon="4.70035">
        <ele>222</ele>
        <time>2017-08-19T09:57:27Z</time>
      </trkpt>
      <trkpt lat="45.89567" lon="4.70037">
        <ele>222</ele>
        <time>2017-08-19T09:57:28Z</time>
      </trkpt>
      <trkpt lat="45.89574" lon="4.70038">
        <ele>222</ele>
        <time>2017-08-19T09:57:29Z</time>
      </trkpt>
      <trkpt lat="45.8958" lon="4.70039">
        <ele>222</ele>
        <time>2017-08-19T09:57:30Z</time>
      </trkpt>
      <trkpt lat="45.89587" lon="4.7004">
        <ele>222</ele>
        <time>2017-08-19T09:57:31Z</time>
      </trkpt>
      <trkpt lat="45.89593" lon="4.70041">
        <ele>222</ele>
        <time>2017-08-19T09:57:32Z</time>
      </trkpt>
      <trkpt lat="45.896" lon="4.70042">
        <ele>222</ele>
        <time>2017-08-19T09:57:33Z</time>
      </trkpt>
      <trkpt lat="45.89606" lon="4.70043">
        <ele>222</ele>
        <time>2017-08-19T09:57:34Z</time>
      </trkpt>
      <trkpt lat="45.89612" lon="4.70044">
        <ele>222</ele>
        <time>2017-08-19T09:57:35Z</time>
      </trkpt>
      <trkpt lat="45.89619" lon="4.70045">
        <ele>222</ele>
        <time>2017-08-19T09:57:36Z</time>
      </trkpt>
      <trkpt lat="45.89625" lon="4.70046">
        <ele>222</ele>
        <time>2017-08-19T09:57:37Z</time>
      </trkpt>
      <trkpt lat="45.89631" lon="4.70047">
        <ele>222</ele>
        <time>2017-08-19T09:57:38Z</time>
      </trkpt>
      <trkpt lat="45.89638" lon="4.70047">
        <ele>222</ele>
        <time>2017-08-19T09:57:39Z</time>
      </trkpt>
      <trkpt lat="45.89644" lon="4.70048">
        <ele>222</ele>
        <time>2017-08-19T09:57:40Z</time>
      </trkpt>
      <trkpt lat="45.89651" lon="4.70049">
        <ele>222</ele>
        <time>2017-08-19T09:57:41Z</time>
      </trkpt>
      <trkpt lat="45.89658" lon="4.7005">
        <ele>222</ele>
        <time>2017-08-19T09:57:42Z</time>
      </trkpt>
      <trkpt lat="45.89664" lon="4.70052">
        <ele>222</ele>
        <time>2017-08-19T09:57:43Z</time>
      </trkpt>
      <trkpt lat="45.8967" lon="4.70053">
        <ele>222</ele>
        <time>2017-08-19T09:57:44Z</time>
      </trkpt>
      <trkpt lat="45.89677" lon="4.70054">
        <ele>222</ele>
        <time>2017-08-19T09:57:45Z</time>
      </trkpt>
      <trkpt lat="45.89683" lon="4.70056">
        <ele>222</ele>
        <time>2017-08-19T09:57:46Z</time>
      </trkpt>
      <trkpt lat="45.89689" lon="4.70057">
        <ele>222</ele>
        <time>2017-08-19T09:57:47Z</time>
      </trkpt>
      <trkpt lat="45.89696" lon="4.70058">
        <ele>222</ele>
        <time>2017-08-19T09:57:48Z</time>
      </trkpt>
      <trkpt lat="45.89702" lon="4.7006">
        <ele>221</ele>
        <time>2017-08-19T09:57:49Z</time>
      </trkpt>
      <trkpt lat="45.89709" lon="4.70061">
        <ele>221</ele>
        <time>2017-08-19T09:57:50Z</time>
      </trkpt>
      <trkpt lat="45.89715" lon="4.70062">
        <ele>221</ele>
        <time>2017-08-19T09:57:51Z</time>
      </trkpt>
      <trkpt lat="45.89721" lon="4.70063">
        <ele>221</ele>
        <time>2017-08-19T09:57:52Z</time>
      </trkpt>
      <trkpt lat="45.89727" lon="4.70064">
        <ele>221</ele>
        <time>2017-08-19T09:57:53Z</time>
      </trkpt>
      <trkpt lat="45.89732" lon="4.70064">
        <ele>221</ele>
        <time>2017-08-19T09:57:54Z</time>
      </trkpt>
      <trkpt lat="45.89737" lon="4.70064">
        <ele>221</ele>
        <time>2017-08-19T09:57:55Z</time>
      </trkpt>
      <trkpt lat="45.89745" lon="4.70066">
        <ele>220</ele>
        <time>2017-08-19T09:57:58Z</time>
      </trkpt>
      <trkpt lat="45.89747" lon="4.70066">
        <ele>220</ele>
        <time>2017-08-19T09:57:59Z</time>
      </trkpt>
      <trkpt lat="45.89748" lon="4.70068">
        <ele>220</ele>
        <time>2017-08-19T09:58:00Z</time>
      </trkpt>
      <trkpt lat="45.89749" lon="4.70068">
        <ele>220</ele>
        <time>2017-08-19T09:58:01Z</time>
      </trkpt>
      <trkpt lat="45.89749" lon="4.70069">
        <ele>220</ele>
        <time>2017-08-19T09:58:10Z</time>
      </trkpt>
      <trkpt lat="45.8975" lon="4.70069">
        <ele>220</ele>
        <time>2017-08-19T09:58:11Z</time>
      </trkpt>
      <trkpt lat="45.89757" lon="4.70067">
        <ele>220</ele>
        <time>2017-08-19T09:58:13Z</time>
      </trkpt>
      <trkpt lat="45.8976" lon="4.70067">
        <ele>220</ele>
        <time>2017-08-19T09:58:14Z</time>
      </trkpt>
      <trkpt lat="45.89768" lon="4.70069">
        <ele>220</ele>
        <time>2017-08-19T09:58:16Z</time>
      </trkpt>
      <trkpt lat="45.89773" lon="4.70069">
        <ele>220</ele>
        <time>2017-08-19T09:58:17Z</time>
      </trkpt>
      <trkpt lat="45.89778" lon="4.7007">
        <ele>221</ele>
        <time>2017-08-19T09:58:18Z</time>
      </trkpt>
      <trkpt lat="45.89782" lon="4.7007">
        <ele>221</ele>
        <time>2017-08-19T09:58:19Z</time>
      </trkpt>
      <trkpt lat="45.89788" lon="4.7007">
        <ele>221</ele>
        <time>2017-08-19T09:58:20Z</time>
      </trkpt>
      <trkpt lat="45.89793" lon="4.70071">
        <ele>221</ele>
        <time>2017-08-19T09:58:21Z</time>
      </trkpt>
      <trkpt lat="45.89799" lon="4.70071">
        <ele>221</ele>
        <time>2017-08-19T09:58:22Z</time>
      </trkpt>
      <trkpt lat="45.89804" lon="4.7007">
        <ele>221</ele>
        <time>2017-08-19T09:58:23Z</time>
      </trkpt>
      <trkpt lat="45.8981" lon="4.7007">
        <ele>221</ele>
        <time>2017-08-19T09:58:24Z</time>
      </trkpt>
      <trkpt lat="45.89816" lon="4.7007">
        <ele>221</ele>
        <time>2017-08-19T09:58:25Z</time>
      </trkpt>
      <trkpt lat="45.89823" lon="4.7007">
        <ele>221</ele>
        <time>2017-08-19T09:58:26Z</time>
      </trkpt>
      <trkpt lat="45.89829" lon="4.70071">
        <ele>221</ele>
        <time>2017-08-19T09:58:27Z</time>
      </trkpt>
      <trkpt lat="45.89835" lon="4.70072">
        <ele>221</ele>
        <time>2017-08-19T09:58:28Z</time>
      </trkpt>
      <trkpt lat="45.89841" lon="4.70073">
        <ele>221</ele>
        <time>2017-08-19T09:58:29Z</time>
      </trkpt>
      <trkpt lat="45.89847" lon="4.70074">
        <ele>221</ele>
        <time>2017-08-19T09:58:30Z</time>
      </trkpt>
      <trkpt lat="45.89853" lon="4.70074">
        <ele>221</ele>
        <time>2017-08-19T09:58:31Z</time>
      </trkpt>
      <trkpt lat="45.89858" lon="4.70075">
        <ele>221</ele>
        <time>2017-08-19T09:58:32Z</time>
      </trkpt>
      <trkpt lat="45.89865" lon="4.70076">
        <ele>221</ele>
        <time>2017-08-19T09:58:33Z</time>
      </trkpt>
      <trkpt lat="45.89871" lon="4.70077">
        <ele>221</ele>
        <time>2017-08-19T09:58:34Z</time>
      </trkpt>
      <trkpt lat="45.89878" lon="4.70077">
        <ele>221</ele>
        <time>2017-08-19T09:58:35Z</time>
      </trkpt>
      <trkpt lat="45.89884" lon="4.70078">
        <ele>221</ele>
        <time>2017-08-19T09:58:36Z</time>
      </trkpt>
      <trkpt lat="45.89891" lon="4.70078">
        <ele>221</ele>
        <time>2017-08-19T09:58:37Z</time>
      </trkpt>
      <trkpt lat="45.89897" lon="4.70078">
        <ele>221</ele>
        <time>2017-08-19T09:58:38Z</time>
      </trkpt>
      <trkpt lat="45.89904" lon="4.70079">
        <ele>221</ele>
        <time>2017-08-19T09:58:39Z</time>
      </trkpt>
      <trkpt lat="45.89911" lon="4.7008">
        <ele>221</ele>
        <time>2017-08-19T09:58:40Z</time>
      </trkpt>
      <trkpt lat="45.89918" lon="4.70081">
        <ele>221</ele>
        <time>2017-08-19T09:58:41Z</time>
      </trkpt>
      <trkpt lat="45.89924" lon="4.70083">
        <ele>222</ele>
        <time>2017-08-19T09:58:42Z</time>
      </trkpt>
      <trkpt lat="45.8993" lon="4.70083">
        <ele>222</ele>
        <time>2017-08-19T09:58:43Z</time>
      </trkpt>
      <trkpt lat="45.89936" lon="4.70084">
        <ele>221</ele>
        <time>2017-08-19T09:58:44Z</time>
      </trkpt>
      <trkpt lat="45.8994" lon="4.70085">
        <ele>221</ele>
        <time>2017-08-19T09:58:45Z</time>
      </trkpt>
      <trkpt lat="45.89945" lon="4.70085">
        <ele>221</ele>
        <time>2017-08-19T09:58:46Z</time>
      </trkpt>
      <trkpt lat="45.8995" lon="4.70085">
        <ele>221</ele>
        <time>2017-08-19T09:58:47Z</time>
      </trkpt>
      <trkpt lat="45.89955" lon="4.70085">
        <ele>221</ele>
        <time>2017-08-19T09:58:48Z</time>
      </trkpt>
      <trkpt lat="45.89961" lon="4.70085">
        <ele>221</ele>
        <time>2017-08-19T09:58:49Z</time>
      </trkpt>
      <trkpt lat="45.89967" lon="4.70086">
        <ele>221</ele>
        <time>2017-08-19T09:58:50Z</time>
      </trkpt>
      <trkpt lat="45.89973" lon="4.70086">
        <ele>221</ele>
        <time>2017-08-19T09:58:51Z</time>
      </trkpt>
      <trkpt lat="45.89979" lon="4.70087">
        <ele>221</ele>
        <time>2017-08-19T09:58:52Z</time>
      </trkpt>
      <trkpt lat="45.89985" lon="4.70087">
        <ele>222</ele>
        <time>2017-08-19T09:58:53Z</time>
      </trkpt>
      <trkpt lat="45.89991" lon="4.70088">
        <ele>222</ele>
        <time>2017-08-19T09:58:54Z</time>
      </trkpt>
      <trkpt lat="45.89996" lon="4.70088">
        <ele>222</ele>
        <time>2017-08-19T09:58:55Z</time>
      </trkpt>
      <trkpt lat="45.90001" lon="4.70088">
        <ele>222</ele>
        <time>2017-08-19T09:58:56Z</time>
      </trkpt>
      <trkpt lat="45.90006" lon="4.70089">
        <ele>222</ele>
        <time>2017-08-19T09:58:57Z</time>
      </trkpt>
      <trkpt lat="45.90011" lon="4.70089">
        <ele>222</ele>
        <time>2017-08-19T09:58:58Z</time>
      </trkpt>
      <trkpt lat="45.90016" lon="4.7009">
        <ele>222</ele>
        <time>2017-08-19T09:58:59Z</time>
      </trkpt>
      <trkpt lat="45.9002" lon="4.7009">
        <ele>222</ele>
        <time>2017-08-19T09:59:00Z</time>
      </trkpt>
      <trkpt lat="45.90025" lon="4.70091">
        <ele>222</ele>
        <time>2017-08-19T09:59:01Z</time>
      </trkpt>
      <trkpt lat="45.9003" lon="4.70091">
        <ele>222</ele>
        <time>2017-08-19T09:59:02Z</time>
      </trkpt>
      <trkpt lat="45.90036" lon="4.70092">
        <ele>222</ele>
        <time>2017-08-19T09:59:03Z</time>
      </trkpt>
      <trkpt lat="45.90041" lon="4.70092">
        <ele>222</ele>
        <time>2017-08-19T09:59:04Z</time>
      </trkpt>
      <trkpt lat="45.90046" lon="4.70093">
        <ele>222</ele>
        <time>2017-08-19T09:59:05Z</time>
      </trkpt>
      <trkpt lat="45.90051" lon="4.70093">
        <ele>222</ele>
        <time>2017-08-19T09:59:06Z</time>
      </trkpt>
      <trkpt lat="45.90057" lon="4.70093">
        <ele>222</ele>
        <time>2017-08-19T09:59:07Z</time>
      </trkpt>
      <trkpt lat="45.90062" lon="4.70093">
        <ele>223</ele>
        <time>2017-08-19T09:59:08Z</time>
      </trkpt>
      <trkpt lat="45.90067" lon="4.70092">
        <ele>223</ele>
        <time>2017-08-19T09:59:09Z</time>
      </trkpt>
      <trkpt lat="45.90073" lon="4.70092">
        <ele>223</ele>
        <time>2017-08-19T09:59:10Z</time>
      </trkpt>
      <trkpt lat="45.90078" lon="4.70092">
        <ele>223</ele>
        <time>2017-08-19T09:59:11Z</time>
      </trkpt>
      <trkpt lat="45.90083" lon="4.70091">
        <ele>223</ele>
        <time>2017-08-19T09:59:12Z</time>
      </trkpt>
      <trkpt lat="45.90088" lon="4.70091">
        <ele>224</ele>
        <time>2017-08-19T09:59:13Z</time>
      </trkpt>
      <trkpt lat="45.90096" lon="4.7009">
        <ele>223</ele>
        <time>2017-08-19T09:59:15Z</time>
      </trkpt>
      <trkpt lat="45.901" lon="4.70089">
        <ele>223</ele>
        <time>2017-08-19T09:59:16Z</time>
      </trkpt>
      <trkpt lat="45.90105" lon="4.70089">
        <ele>223</ele>
        <time>2017-08-19T09:59:17Z</time>
      </trkpt>
      <trkpt lat="45.9011" lon="4.70088">
        <ele>223</ele>
        <time>2017-08-19T09:59:18Z</time>
      </trkpt>
      <trkpt lat="45.90115" lon="4.70087">
        <ele>223</ele>
        <time>2017-08-19T09:59:19Z</time>
      </trkpt>
      <trkpt lat="45.9012" lon="4.70086">
        <ele>223</ele>
        <time>2017-08-19T09:59:20Z</time>
      </trkpt>
      <trkpt lat="45.90125" lon="4.70086">
        <ele>223</ele>
        <time>2017-08-19T09:59:21Z</time>
      </trkpt>
      <trkpt lat="45.90131" lon="4.70085">
        <ele>223</ele>
        <time>2017-08-19T09:59:22Z</time>
      </trkpt>
      <trkpt lat="45.90136" lon="4.70084">
        <ele>224</ele>
        <time>2017-08-19T09:59:23Z</time>
      </trkpt>
      <trkpt lat="45.90141" lon="4.70083">
        <ele>226</ele>
        <time>2017-08-19T09:59:24Z</time>
      </trkpt>
      <trkpt lat="45.90146" lon="4.70082">
        <ele>226</ele>
        <time>2017-08-19T09:59:25Z</time>
      </trkpt>
      <trkpt lat="45.90151" lon="4.70081">
        <ele>226</ele>
        <time>2017-08-19T09:59:26Z</time>
      </trkpt>
      <trkpt lat="45.90156" lon="4.7008">
        <ele>226</ele>
        <time>2017-08-19T09:59:27Z</time>
      </trkpt>
      <trkpt lat="45.9016" lon="4.7008">
        <ele>225</ele>
        <time>2017-08-19T09:59:28Z</time>
      </trkpt>
      <trkpt lat="45.90165" lon="4.70078">
        <ele>225</ele>
        <time>2017-08-19T09:59:29Z</time>
      </trkpt>
      <trkpt lat="45.9017" lon="4.70076">
        <ele>225</ele>
        <time>2017-08-19T09:59:30Z</time>
      </trkpt>
      <trkpt lat="45.90175" lon="4.70075">
        <ele>225</ele>
        <time>2017-08-19T09:59:31Z</time>
      </trkpt>
      <trkpt lat="45.9018" lon="4.70075">
        <ele>226</ele>
        <time>2017-08-19T09:59:32Z</time>
      </trkpt>
      <trkpt lat="45.90184" lon="4.70074">
        <ele>226</ele>
        <time>2017-08-19T09:59:33Z</time>
      </trkpt>
      <trkpt lat="45.90189" lon="4.70073">
        <ele>226</ele>
        <time>2017-08-19T09:59:34Z</time>
      </trkpt>
      <trkpt lat="45.90194" lon="4.70072">
        <ele>226</ele>
        <time>2017-08-19T09:59:35Z</time>
      </trkpt>
      <trkpt lat="45.90199" lon="4.70071">
        <ele>226</ele>
        <time>2017-08-19T09:59:36Z</time>
      </trkpt>
      <trkpt lat="45.90204" lon="4.70071">
        <ele>226</ele>
        <time>2017-08-19T09:59:37Z</time>
      </trkpt>
      <trkpt lat="45.90209" lon="4.7007">
        <ele>226</ele>
        <time>2017-08-19T09:59:38Z</time>
      </trkpt>
      <trkpt lat="45.90215" lon="4.70069">
        <ele>225</ele>
        <time>2017-08-19T09:59:39Z</time>
      </trkpt>
      <trkpt lat="45.9022" lon="4.70068">
        <ele>225</ele>
        <time>2017-08-19T09:59:40Z</time>
      </trkpt>
      <trkpt lat="45.90225" lon="4.70066">
        <ele>225</ele>
        <time>2017-08-19T09:59:41Z</time>
      </trkpt>
      <trkpt lat="45.90231" lon="4.70065">
        <ele>225</ele>
        <time>2017-08-19T09:59:42Z</time>
      </trkpt>
      <trkpt lat="45.90236" lon="4.70064">
        <ele>225</ele>
        <time>2017-08-19T09:59:43Z</time>
      </trkpt>
      <trkpt lat="45.90241" lon="4.70063">
        <ele>225</ele>
        <time>2017-08-19T09:59:44Z</time>
      </trkpt>
      <trkpt lat="45.90246" lon="4.70062">
        <ele>225</ele>
        <time>2017-08-19T09:59:45Z</time>
      </trkpt>
      <trkpt lat="45.90251" lon="4.7006">
        <ele>224</ele>
        <time>2017-08-19T09:59:46Z</time>
      </trkpt>
      <trkpt lat="45.9026" lon="4.70058">
        <ele>224</ele>
        <time>2017-08-19T09:59:48Z</time>
      </trkpt>
      <trkpt lat="45.90264" lon="4.70058">
        <ele>224</ele>
        <time>2017-08-19T09:59:49Z</time>
      </trkpt>
      <trkpt lat="45.90269" lon="4.70057">
        <ele>224</ele>
        <time>2017-08-19T09:59:50Z</time>
      </trkpt>
      <trkpt lat="45.90274" lon="4.70057">
        <ele>224</ele>
        <time>2017-08-19T09:59:51Z</time>
      </trkpt>
      <trkpt lat="45.90279" lon="4.70056">
        <ele>224</ele>
        <time>2017-08-19T09:59:52Z</time>
      </trkpt>
      <trkpt lat="45.90285" lon="4.70055">
        <ele>224</ele>
        <time>2017-08-19T09:59:53Z</time>
      </trkpt>
      <trkpt lat="45.9029" lon="4.70054">
        <ele>224</ele>
        <time>2017-08-19T09:59:54Z</time>
      </trkpt>
      <trkpt lat="45.90296" lon="4.70053">
        <ele>224</ele>
        <time>2017-08-19T09:59:55Z</time>
      </trkpt>
      <trkpt lat="45.90301" lon="4.70052">
        <ele>224</ele>
        <time>2017-08-19T09:59:56Z</time>
      </trkpt>
      <trkpt lat="45.90307" lon="4.70052">
        <ele>224</ele>
        <time>2017-08-19T09:59:57Z</time>
      </trkpt>
      <trkpt lat="45.90312" lon="4.70052">
        <ele>224</ele>
        <time>2017-08-19T09:59:58Z</time>
      </trkpt>
      <trkpt lat="45.90317" lon="4.70051">
        <ele>224</ele>
        <time>2017-08-19T09:59:59Z</time>
      </trkpt>
      <trkpt lat="45.90322" lon="4.7005">
        <ele>224</ele>
        <time>2017-08-19T10:00:00Z</time>
      </trkpt>
      <trkpt lat="45.90327" lon="4.70049">
        <ele>224</ele>
        <time>2017-08-19T10:00:01Z</time>
      </trkpt>
      <trkpt lat="45.90332" lon="4.70048">
        <ele>224</ele>
        <time>2017-08-19T10:00:02Z</time>
      </trkpt>
      <trkpt lat="45.90336" lon="4.70047">
        <ele>224</ele>
        <time>2017-08-19T10:00:03Z</time>
      </trkpt>
      <trkpt lat="45.90341" lon="4.70046">
        <ele>224</ele>
        <time>2017-08-19T10:00:04Z</time>
      </trkpt>
      <trkpt lat="45.90346" lon="4.70045">
        <ele>224</ele>
        <time>2017-08-19T10:00:05Z</time>
      </trkpt>
      <trkpt lat="45.90351" lon="4.70044">
        <ele>224</ele>
        <time>2017-08-19T10:00:06Z</time>
      </trkpt>
      <trkpt lat="45.90357" lon="4.70042">
        <ele>224</ele>
        <time>2017-08-19T10:00:07Z</time>
      </trkpt>
      <trkpt lat="45.90362" lon="4.70041">
        <ele>224</ele>
        <time>2017-08-19T10:00:08Z</time>
      </trkpt>
      <trkpt lat="45.90368" lon="4.7004">
        <ele>224</ele>
        <time>2017-08-19T10:00:09Z</time>
      </trkpt>
      <trkpt lat="45.90374" lon="4.70039">
        <ele>224</ele>
        <time>2017-08-19T10:00:10Z</time>
      </trkpt>
      <trkpt lat="45.9038" lon="4.70038">
        <ele>224</ele>
        <time>2017-08-19T10:00:11Z</time>
      </trkpt>
      <trkpt lat="45.90385" lon="4.70037">
        <ele>225</ele>
        <time>2017-08-19T10:00:12Z</time>
      </trkpt>
      <trkpt lat="45.90391" lon="4.70036">
        <ele>225</ele>
        <time>2017-08-19T10:00:13Z</time>
      </trkpt>
      <trkpt lat="45.90396" lon="4.70035">
        <ele>225</ele>
        <time>2017-08-19T10:00:14Z</time>
      </trkpt>
      <trkpt lat="45.90401" lon="4.70034">
        <ele>225</ele>
        <time>2017-08-19T10:00:15Z</time>
      </trkpt>
      <trkpt lat="45.90406" lon="4.70033">
        <ele>225</ele>
        <time>2017-08-19T10:00:16Z</time>
      </trkpt>
      <trkpt lat="45.90411" lon="4.70032">
        <ele>225</ele>
        <time>2017-08-19T10:00:17Z</time>
      </trkpt>
      <trkpt lat="45.90416" lon="4.7003">
        <ele>225</ele>
        <time>2017-08-19T10:00:18Z</time>
      </trkpt>
      <trkpt lat="45.90421" lon="4.7003">
        <ele>225</ele>
        <time>2017-08-19T10:00:19Z</time>
      </trkpt>
      <trkpt lat="45.90425" lon="4.70029">
        <ele>225</ele>
        <time>2017-08-19T10:00:20Z</time>
      </trkpt>
      <trkpt lat="45.9043" lon="4.70029">
        <ele>225</ele>
        <time>2017-08-19T10:00:21Z</time>
      </trkpt>
      <trkpt lat="45.90435" lon="4.70029">
        <ele>225</ele>
        <time>2017-08-19T10:00:22Z</time>
      </trkpt>
      <trkpt lat="45.9044" lon="4.70029">
        <ele>225</ele>
        <time>2017-08-19T10:00:23Z</time>
      </trkpt>
      <trkpt lat="45.90445" lon="4.7003">
        <ele>225</ele>
        <time>2017-08-19T10:00:24Z</time>
      </trkpt>
      <trkpt lat="45.90451" lon="4.70029">
        <ele>225</ele>
        <time>2017-08-19T10:00:25Z</time>
      </trkpt>
      <trkpt lat="45.90457" lon="4.70029">
        <ele>225</ele>
        <time>2017-08-19T10:00:26Z</time>
      </trkpt>
      <trkpt lat="45.90462" lon="4.7003">
        <ele>225</ele>
        <time>2017-08-19T10:00:27Z</time>
      </trkpt>
      <trkpt lat="45.90468" lon="4.7003">
        <ele>225</ele>
        <time>2017-08-19T10:00:28Z</time>
      </trkpt>
      <trkpt lat="45.90474" lon="4.7003">
        <ele>225</ele>
        <time>2017-08-19T10:00:29Z</time>
      </trkpt>
      <trkpt lat="45.9048" lon="4.70031">
        <ele>225</ele>
        <time>2017-08-19T10:00:30Z</time>
      </trkpt>
      <trkpt lat="45.90486" lon="4.70032">
        <ele>225</ele>
        <time>2017-08-19T10:00:31Z</time>
      </trkpt>
      <trkpt lat="45.90492" lon="4.70034">
        <ele>225</ele>
        <time>2017-08-19T10:00:32Z</time>
      </trkpt>
      <trkpt lat="45.90498" lon="4.70035">
        <ele>225</ele>
        <time>2017-08-19T10:00:33Z</time>
      </trkpt>
      <trkpt lat="45.90504" lon="4.70036">
        <ele>224</ele>
        <time>2017-08-19T10:00:34Z</time>
      </trkpt>
      <trkpt lat="45.9051" lon="4.70038">
        <ele>224</ele>
        <time>2017-08-19T10:00:35Z</time>
      </trkpt>
      <trkpt lat="45.90516" lon="4.70039">
        <ele>224</ele>
        <time>2017-08-19T10:00:36Z</time>
      </trkpt>
      <trkpt lat="45.90522" lon="4.7004">
        <ele>224</ele>
        <time>2017-08-19T10:00:37Z</time>
      </trkpt>
      <trkpt lat="45.90528" lon="4.70042">
        <ele>224</ele>
        <time>2017-08-19T10:00:38Z</time>
      </trkpt>
      <trkpt lat="45.90534" lon="4.70044">
        <ele>224</ele>
        <time>2017-08-19T10:00:39Z</time>
      </trkpt>
      <trkpt lat="45.9054" lon="4.70046">
        <ele>224</ele>
        <time>2017-08-19T10:00:40Z</time>
      </trkpt>
      <trkpt lat="45.90547" lon="4.70049">
        <ele>224</ele>
        <time>2017-08-19T10:00:41Z</time>
      </trkpt>
      <trkpt lat="45.90553" lon="4.70052">
        <ele>224</ele>
        <time>2017-08-19T10:00:42Z</time>
      </trkpt>
      <trkpt lat="45.9056" lon="4.70055">
        <ele>223</ele>
        <time>2017-08-19T10:00:43Z</time>
      </trkpt>
      <trkpt lat="45.90566" lon="4.70059">
        <ele>223</ele>
        <time>2017-08-19T10:00:44Z</time>
      </trkpt>
      <trkpt lat="45.90572" lon="4.70062">
        <ele>223</ele>
        <time>2017-08-19T10:00:45Z</time>
      </trkpt>
      <trkpt lat="45.90578" lon="4.70066">
        <ele>223</ele>
        <time>2017-08-19T10:00:46Z</time>
      </trkpt>
      <trkpt lat="45.90584" lon="4.7007">
        <ele>223</ele>
        <time>2017-08-19T10:00:47Z</time>
      </trkpt>
      <trkpt lat="45.9059" lon="4.70073">
        <ele>223</ele>
        <time>2017-08-19T10:00:48Z</time>
      </trkpt>
      <trkpt lat="45.90596" lon="4.70075">
        <ele>223</ele>
        <time>2017-08-19T10:00:49Z</time>
      </trkpt>
      <trkpt lat="45.90602" lon="4.70079">
        <ele>223</ele>
        <time>2017-08-19T10:00:50Z</time>
      </trkpt>
      <trkpt lat="45.90608" lon="4.70082">
        <ele>223</ele>
        <time>2017-08-19T10:00:51Z</time>
      </trkpt>
      <trkpt lat="45.90614" lon="4.70084">
        <ele>221</ele>
        <time>2017-08-19T10:00:52Z</time>
      </trkpt>
      <trkpt lat="45.9062" lon="4.70087">
        <ele>221</ele>
        <time>2017-08-19T10:00:53Z</time>
      </trkpt>
      <trkpt lat="45.90626" lon="4.70091">
        <ele>221</ele>
        <time>2017-08-19T10:00:54Z</time>
      </trkpt>
      <trkpt lat="45.90631" lon="4.70094">
        <ele>221</ele>
        <time>2017-08-19T10:00:55Z</time>
      </trkpt>
      <trkpt lat="45.90637" lon="4.70097">
        <ele>221</ele>
        <time>2017-08-19T10:00:56Z</time>
      </trkpt>
      <trkpt lat="45.90643" lon="4.70101">
        <ele>221</ele>
        <time>2017-08-19T10:00:57Z</time>
      </trkpt>
      <trkpt lat="45.90648" lon="4.70104">
        <ele>221</ele>
        <time>2017-08-19T10:00:58Z</time>
      </trkpt>
      <trkpt lat="45.90653" lon="4.70107">
        <ele>221</ele>
        <time>2017-08-19T10:00:59Z</time>
      </trkpt>
      <trkpt lat="45.90659" lon="4.7011">
        <ele>221</ele>
        <time>2017-08-19T10:01:00Z</time>
      </trkpt>
      <trkpt lat="45.90664" lon="4.70112">
        <ele>221</ele>
        <time>2017-08-19T10:01:01Z</time>
      </trkpt>
      <trkpt lat="45.9067" lon="4.70115">
        <ele>222</ele>
        <time>2017-08-19T10:01:02Z</time>
      </trkpt>
      <trkpt lat="45.90675" lon="4.70119">
        <ele>221</ele>
        <time>2017-08-19T10:01:03Z</time>
      </trkpt>
      <trkpt lat="45.9068" lon="4.70124">
        <ele>221</ele>
        <time>2017-08-19T10:01:04Z</time>
      </trkpt>
      <trkpt lat="45.90684" lon="4.70129">
        <ele>221</ele>
        <time>2017-08-19T10:01:05Z</time>
      </trkpt>
      <trkpt lat="45.90688" lon="4.70135">
        <ele>221</ele>
        <time>2017-08-19T10:01:06Z</time>
      </trkpt>
      <trkpt lat="45.90693" lon="4.70141">
        <ele>221</ele>
        <time>2017-08-19T10:01:07Z</time>
      </trkpt>
      <trkpt lat="45.90699" lon="4.70144">
        <ele>220</ele>
        <time>2017-08-19T10:01:08Z</time>
      </trkpt>
      <trkpt lat="45.90705" lon="4.70145">
        <ele>220</ele>
        <time>2017-08-19T10:01:09Z</time>
      </trkpt>
      <trkpt lat="45.90711" lon="4.70144">
        <ele>220</ele>
        <time>2017-08-19T10:01:10Z</time>
      </trkpt>
      <trkpt lat="45.90716" lon="4.70142">
        <ele>220</ele>
        <time>2017-08-19T10:01:11Z</time>
      </trkpt>
      <trkpt lat="45.90722" lon="4.70142">
        <ele>220</ele>
        <time>2017-08-19T10:01:12Z</time>
      </trkpt>
      <trkpt lat="45.90728" lon="4.70143">
        <ele>220</ele>
        <time>2017-08-19T10:01:13Z</time>
      </trkpt>
      <trkpt lat="45.90734" lon="4.70143">
        <ele>220</ele>
        <time>2017-08-19T10:01:14Z</time>
      </trkpt>
      <trkpt lat="45.90741" lon="4.70143">
        <ele>220</ele>
        <time>2017-08-19T10:01:15Z</time>
      </trkpt>
      <trkpt lat="45.90748" lon="4.70143">
        <ele>220</ele>
        <time>2017-08-19T10:01:16Z</time>
      </trkpt>
      <trkpt lat="45.90755" lon="4.70143">
        <ele>219</ele>
        <time>2017-08-19T10:01:17Z</time>
      </trkpt>
      <trkpt lat="45.90763" lon="4.70142">
        <ele>219</ele>
        <time>2017-08-19T10:01:18Z</time>
      </trkpt>
      <trkpt lat="45.90769" lon="4.70142">
        <ele>219</ele>
        <time>2017-08-19T10:01:19Z</time>
      </trkpt>
      <trkpt lat="45.90776" lon="4.70142">
        <ele>219</ele>
        <time>2017-08-19T10:01:20Z</time>
      </trkpt>
      <trkpt lat="45.90783" lon="4.70142">
        <ele>219</ele>
        <time>2017-08-19T10:01:21Z</time>
      </trkpt>
      <trkpt lat="45.9079" lon="4.70142">
        <ele>219</ele>
        <time>2017-08-19T10:01:22Z</time>
      </trkpt>
      <trkpt lat="45.90798" lon="4.70142">
        <ele>219</ele>
        <time>2017-08-19T10:01:23Z</time>
      </trkpt>
      <trkpt lat="45.90804" lon="4.70141">
        <ele>219</ele>
        <time>2017-08-19T10:01:24Z</time>
      </trkpt>
      <trkpt lat="45.90811" lon="4.70141">
        <ele>219</ele>
        <time>2017-08-19T10:01:25Z</time>
      </trkpt>
      <trkpt lat="45.90818" lon="4.7014">
        <ele>219</ele>
        <time>2017-08-19T10:01:26Z</time>
      </trkpt>
      <trkpt lat="45.90824" lon="4.7014">
        <ele>218</ele>
        <time>2017-08-19T10:01:27Z</time>
      </trkpt>
      <trkpt lat="45.90831" lon="4.7014">
        <ele>218</ele>
        <time>2017-08-19T10:01:28Z</time>
      </trkpt>
      <trkpt lat="45.90837" lon="4.7014">
        <ele>218</ele>
        <time>2017-08-19T10:01:29Z</time>
      </trkpt>
      <trkpt lat="45.90842" lon="4.7014">
        <ele>218</ele>
        <time>2017-08-19T10:01:30Z</time>
      </trkpt>
      <trkpt lat="45.90848" lon="4.7014">
        <ele>218</ele>
        <time>2017-08-19T10:01:31Z</time>
      </trkpt>
      <trkpt lat="45.90854" lon="4.70139">
        <ele>218</ele>
        <time>2017-08-19T10:01:32Z</time>
      </trkpt>
      <trkpt lat="45.9086" lon="4.70138">
        <ele>218</ele>
        <time>2017-08-19T10:01:33Z</time>
      </trkpt>
      <trkpt lat="45.90866" lon="4.70137">
        <ele>218</ele>
        <time>2017-08-19T10:01:34Z</time>
      </trkpt>
      <trkpt lat="45.90873" lon="4.70136">
        <ele>218</ele>
        <time>2017-08-19T10:01:35Z</time>
      </trkpt>
      <trkpt lat="45.9088" lon="4.70136">
        <ele>218</ele>
        <time>2017-08-19T10:01:36Z</time>
      </trkpt>
      <trkpt lat="45.90887" lon="4.70135">
        <ele>218</ele>
        <time>2017-08-19T10:01:37Z</time>
      </trkpt>
      <trkpt lat="45.90894" lon="4.70134">
        <ele>218</ele>
        <time>2017-08-19T10:01:38Z</time>
      </trkpt>
      <trkpt lat="45.90901" lon="4.70133">
        <ele>218</ele>
        <time>2017-08-19T10:01:39Z</time>
      </trkpt>
      <trkpt lat="45.90907" lon="4.70132">
        <ele>218</ele>
        <time>2017-08-19T10:01:40Z</time>
      </trkpt>
      <trkpt lat="45.90914" lon="4.70132">
        <ele>218</ele>
        <time>2017-08-19T10:01:41Z</time>
      </trkpt>
      <trkpt lat="45.9092" lon="4.70132">
        <ele>219</ele>
        <time>2017-08-19T10:01:42Z</time>
      </trkpt>
      <trkpt lat="45.90927" lon="4.70131">
        <ele>219</ele>
        <time>2017-08-19T10:01:43Z</time>
      </trkpt>
      <trkpt lat="45.90934" lon="4.70131">
        <ele>219</ele>
        <time>2017-08-19T10:01:44Z</time>
      </trkpt>
      <trkpt lat="45.9094" lon="4.70132">
        <ele>219</ele>
        <time>2017-08-19T10:01:45Z</time>
      </trkpt>
      <trkpt lat="45.90946" lon="4.70133">
        <ele>219</ele>
        <time>2017-08-19T10:01:46Z</time>
      </trkpt>
      <trkpt lat="45.90951" lon="4.70135">
        <ele>219</ele>
        <time>2017-08-19T10:01:47Z</time>
      </trkpt>
      <trkpt lat="45.90957" lon="4.70137">
        <ele>219</ele>
        <time>2017-08-19T10:01:48Z</time>
      </trkpt>
      <trkpt lat="45.90962" lon="4.70138">
        <ele>219</ele>
        <time>2017-08-19T10:01:49Z</time>
      </trkpt>
      <trkpt lat="45.90968" lon="4.70143">
        <ele>218</ele>
        <time>2017-08-19T10:01:50Z</time>
      </trkpt>
      <trkpt lat="45.90974" lon="4.70145">
        <ele>218</ele>
        <time>2017-08-19T10:01:51Z</time>
      </trkpt>
      <trkpt lat="45.90981" lon="4.70147">
        <ele>218</ele>
        <time>2017-08-19T10:01:52Z</time>
      </trkpt>
      <trkpt lat="45.90987" lon="4.70149">
        <ele>218</ele>
        <time>2017-08-19T10:01:53Z</time>
      </trkpt>
      <trkpt lat="45.90993" lon="4.70151">
        <ele>218</ele>
        <time>2017-08-19T10:01:54Z</time>
      </trkpt>
      <trkpt lat="45.91" lon="4.70154">
        <ele>217</ele>
        <time>2017-08-19T10:01:55Z</time>
      </trkpt>
      <trkpt lat="45.91007" lon="4.70156">
        <ele>217</ele>
        <time>2017-08-19T10:01:56Z</time>
      </trkpt>
      <trkpt lat="45.91014" lon="4.70158">
        <ele>218</ele>
        <time>2017-08-19T10:01:57Z</time>
      </trkpt>
      <trkpt lat="45.9102" lon="4.7016">
        <ele>218</ele>
        <time>2017-08-19T10:01:58Z</time>
      </trkpt>
      <trkpt lat="45.91027" lon="4.70162">
        <ele>218</ele>
        <time>2017-08-19T10:01:59Z</time>
      </trkpt>
      <trkpt lat="45.91033" lon="4.70163">
        <ele>218</ele>
        <time>2017-08-19T10:02:00Z</time>
      </trkpt>
      <trkpt lat="45.9104" lon="4.70166">
        <ele>218</ele>
        <time>2017-08-19T10:02:01Z</time>
      </trkpt>
      <trkpt lat="45.91046" lon="4.70168">
        <ele>215</ele>
        <time>2017-08-19T10:02:02Z</time>
      </trkpt>
      <trkpt lat="45.91052" lon="4.70171">
        <ele>216</ele>
        <time>2017-08-19T10:02:03Z</time>
      </trkpt>
      <trkpt lat="45.91058" lon="4.70173">
        <ele>216</ele>
        <time>2017-08-19T10:02:04Z</time>
      </trkpt>
      <trkpt lat="45.91064" lon="4.70174">
        <ele>216</ele>
        <time>2017-08-19T10:02:05Z</time>
      </trkpt>
      <trkpt lat="45.91071" lon="4.70177">
        <ele>216</ele>
        <time>2017-08-19T10:02:06Z</time>
      </trkpt>
      <trkpt lat="45.91077" lon="4.70179">
        <ele>216</ele>
        <time>2017-08-19T10:02:07Z</time>
      </trkpt>
      <trkpt lat="45.91084" lon="4.70181">
        <ele>216</ele>
        <time>2017-08-19T10:02:08Z</time>
      </trkpt>
      <trkpt lat="45.91091" lon="4.70182">
        <ele>216</ele>
        <time>2017-08-19T10:02:09Z</time>
      </trkpt>
      <trkpt lat="45.91097" lon="4.70185">
        <ele>216</ele>
        <time>2017-08-19T10:02:10Z</time>
      </trkpt>
      <trkpt lat="45.91103" lon="4.70187">
        <ele>215</ele>
        <time>2017-08-19T10:02:11Z</time>
      </trkpt>
      <trkpt lat="45.9111" lon="4.70189">
        <ele>215</ele>
        <time>2017-08-19T10:02:12Z</time>
      </trkpt>
      <trkpt lat="45.91117" lon="4.70191">
        <ele>215</ele>
        <time>2017-08-19T10:02:13Z</time>
      </trkpt>
      <trkpt lat="45.91123" lon="4.70193">
        <ele>215</ele>
        <time>2017-08-19T10:02:14Z</time>
      </trkpt>
      <trkpt lat="45.91129" lon="4.70194">
        <ele>215</ele>
        <time>2017-08-19T10:02:15Z</time>
      </trkpt>
      <trkpt lat="45.91136" lon="4.70196">
        <ele>215</ele>
        <time>2017-08-19T10:02:16Z</time>
      </trkpt>
      <trkpt lat="45.91142" lon="4.70199">
        <ele>215</ele>
        <time>2017-08-19T10:02:17Z</time>
      </trkpt>
      <trkpt lat="45.91148" lon="4.70201">
        <ele>215</ele>
        <time>2017-08-19T10:02:18Z</time>
      </trkpt>
      <trkpt lat="45.91155" lon="4.70203">
        <ele>215</ele>
        <time>2017-08-19T10:02:19Z</time>
      </trkpt>
      <trkpt lat="45.91161" lon="4.70205">
        <ele>214</ele>
        <time>2017-08-19T10:02:20Z</time>
      </trkpt>
      <trkpt lat="45.91168" lon="4.70207">
        <ele>214</ele>
        <time>2017-08-19T10:02:21Z</time>
      </trkpt>
      <trkpt lat="45.91174" lon="4.70209">
        <ele>214</ele>
        <time>2017-08-19T10:02:22Z</time>
      </trkpt>
      <trkpt lat="45.9118" lon="4.70212">
        <ele>214</ele>
        <time>2017-08-19T10:02:23Z</time>
      </trkpt>
      <trkpt lat="45.91187" lon="4.70215">
        <ele>214</ele>
        <time>2017-08-19T10:02:24Z</time>
      </trkpt>
      <trkpt lat="45.91193" lon="4.70217">
        <ele>214</ele>
        <time>2017-08-19T10:02:25Z</time>
      </trkpt>
      <trkpt lat="45.912" lon="4.70218">
        <ele>214</ele>
        <time>2017-08-19T10:02:26Z</time>
      </trkpt>
      <trkpt lat="45.91207" lon="4.7022">
        <ele>214</ele>
        <time>2017-08-19T10:02:27Z</time>
      </trkpt>
      <trkpt lat="45.91213" lon="4.70219">
        <ele>214</ele>
        <time>2017-08-19T10:02:28Z</time>
      </trkpt>
      <trkpt lat="45.91219" lon="4.7022">
        <ele>214</ele>
        <time>2017-08-19T10:02:29Z</time>
      </trkpt>
      <trkpt lat="45.91226" lon="4.70223">
        <ele>213</ele>
        <time>2017-08-19T10:02:30Z</time>
      </trkpt>
      <trkpt lat="45.91233" lon="4.70226">
        <ele>213</ele>
        <time>2017-08-19T10:02:31Z</time>
      </trkpt>
      <trkpt lat="45.9124" lon="4.70228">
        <ele>213</ele>
        <time>2017-08-19T10:02:32Z</time>
      </trkpt>
      <trkpt lat="45.91246" lon="4.7023">
        <ele>213</ele>
        <time>2017-08-19T10:02:33Z</time>
      </trkpt>
      <trkpt lat="45.91253" lon="4.70231">
        <ele>213</ele>
        <time>2017-08-19T10:02:34Z</time>
      </trkpt>
      <trkpt lat="45.91259" lon="4.70233">
        <ele>213</ele>
        <time>2017-08-19T10:02:35Z</time>
      </trkpt>
      <trkpt lat="45.91266" lon="4.70235">
        <ele>213</ele>
        <time>2017-08-19T10:02:36Z</time>
      </trkpt>
      <trkpt lat="45.91272" lon="4.70238">
        <ele>213</ele>
        <time>2017-08-19T10:02:37Z</time>
      </trkpt>
      <trkpt lat="45.91279" lon="4.7024">
        <ele>213</ele>
        <time>2017-08-19T10:02:38Z</time>
      </trkpt>
      <trkpt lat="45.91285" lon="4.70242">
        <ele>214</ele>
        <time>2017-08-19T10:02:39Z</time>
      </trkpt>
      <trkpt lat="45.9129" lon="4.70245">
        <ele>214</ele>
        <time>2017-08-19T10:02:40Z</time>
      </trkpt>
      <trkpt lat="45.91296" lon="4.70247">
        <ele>214</ele>
        <time>2017-08-19T10:02:41Z</time>
      </trkpt>
      <trkpt lat="45.91303" lon="4.7025">
        <ele>214</ele>
        <time>2017-08-19T10:02:42Z</time>
      </trkpt>
      <trkpt lat="45.91309" lon="4.70253">
        <ele>210</ele>
        <time>2017-08-19T10:02:43Z</time>
      </trkpt>
      <trkpt lat="45.91315" lon="4.70256">
        <ele>210</ele>
        <time>2017-08-19T10:02:44Z</time>
      </trkpt>
      <trkpt lat="45.91321" lon="4.70259">
        <ele>211</ele>
        <time>2017-08-19T10:02:45Z</time>
      </trkpt>
      <trkpt lat="45.91328" lon="4.70265">
        <ele>211</ele>
        <time>2017-08-19T10:02:46Z</time>
      </trkpt>
      <trkpt lat="45.91334" lon="4.70269">
        <ele>211</ele>
        <time>2017-08-19T10:02:47Z</time>
      </trkpt>
      <trkpt lat="45.9134" lon="4.70273">
        <ele>210</ele>
        <time>2017-08-19T10:02:48Z</time>
      </trkpt>
      <trkpt lat="45.91346" lon="4.70277">
        <ele>210</ele>
        <time>2017-08-19T10:02:49Z</time>
      </trkpt>
      <trkpt lat="45.91351" lon="4.70282">
        <ele>210</ele>
        <time>2017-08-19T10:02:50Z</time>
      </trkpt>
      <trkpt lat="45.91357" lon="4.70287">
        <ele>210</ele>
        <time>2017-08-19T10:02:51Z</time>
      </trkpt>
      <trkpt lat="45.91362" lon="4.70293">
        <ele>209</ele>
        <time>2017-08-19T10:02:52Z</time>
      </trkpt>
      <trkpt lat="45.91369" lon="4.70297">
        <ele>209</ele>
        <time>2017-08-19T10:02:53Z</time>
      </trkpt>
      <trkpt lat="45.91374" lon="4.70302">
        <ele>209</ele>
        <time>2017-08-19T10:02:54Z</time>
      </trkpt>
      <trkpt lat="45.91379" lon="4.70307">
        <ele>209</ele>
        <time>2017-08-19T10:02:55Z</time>
      </trkpt>
      <trkpt lat="45.91386" lon="4.70312">
        <ele>209</ele>
        <time>2017-08-19T10:02:56Z</time>
      </trkpt>
      <trkpt lat="45.91392" lon="4.70318">
        <ele>209</ele>
        <time>2017-08-19T10:02:57Z</time>
      </trkpt>
      <trkpt lat="45.91398" lon="4.70322">
        <ele>209</ele>
        <time>2017-08-19T10:02:58Z</time>
      </trkpt>
      <trkpt lat="45.91404" lon="4.70327">
        <ele>209</ele>
        <time>2017-08-19T10:02:59Z</time>
      </trkpt>
      <trkpt lat="45.91409" lon="4.70332">
        <ele>208</ele>
        <time>2017-08-19T10:03:00Z</time>
      </trkpt>
      <trkpt lat="45.91415" lon="4.70337">
        <ele>208</ele>
        <time>2017-08-19T10:03:01Z</time>
      </trkpt>
      <trkpt lat="45.9142" lon="4.70341">
        <ele>207</ele>
        <time>2017-08-19T10:03:02Z</time>
      </trkpt>
      <trkpt lat="45.91426" lon="4.70346">
        <ele>207</ele>
        <time>2017-08-19T10:03:03Z</time>
      </trkpt>
      <trkpt lat="45.91432" lon="4.70351">
        <ele>207</ele>
        <time>2017-08-19T10:03:04Z</time>
      </trkpt>
      <trkpt lat="45.91437" lon="4.70356">
        <ele>207</ele>
        <time>2017-08-19T10:03:05Z</time>
      </trkpt>
      <trkpt lat="45.91443" lon="4.70361">
        <ele>206</ele>
        <time>2017-08-19T10:03:06Z</time>
      </trkpt>
      <trkpt lat="45.91449" lon="4.70366">
        <ele>206</ele>
        <time>2017-08-19T10:03:07Z</time>
      </trkpt>
      <trkpt lat="45.91455" lon="4.70371">
        <ele>206</ele>
        <time>2017-08-19T10:03:08Z</time>
      </trkpt>
      <trkpt lat="45.91461" lon="4.70375">
        <ele>206</ele>
        <time>2017-08-19T10:03:09Z</time>
      </trkpt>
      <trkpt lat="45.91467" lon="4.70381">
        <ele>206</ele>
        <time>2017-08-19T10:03:10Z</time>
      </trkpt>
      <trkpt lat="45.91473" lon="4.70386">
        <ele>206</ele>
        <time>2017-08-19T10:03:11Z</time>
      </trkpt>
      <trkpt lat="45.9148" lon="4.70391">
        <ele>205</ele>
        <time>2017-08-19T10:03:12Z</time>
      </trkpt>
      <trkpt lat="45.91486" lon="4.70396">
        <ele>205</ele>
        <time>2017-08-19T10:03:13Z</time>
      </trkpt>
      <trkpt lat="45.91492" lon="4.70401">
        <ele>205</ele>
        <time>2017-08-19T10:03:14Z</time>
      </trkpt>
      <trkpt lat="45.91498" lon="4.70406">
        <ele>204</ele>
        <time>2017-08-19T10:03:15Z</time>
      </trkpt>
      <trkpt lat="45.91505" lon="4.70411">
        <ele>204</ele>
        <time>2017-08-19T10:03:16Z</time>
      </trkpt>
      <trkpt lat="45.91511" lon="4.70416">
        <ele>204</ele>
        <time>2017-08-19T10:03:17Z</time>
      </trkpt>
      <trkpt lat="45.91517" lon="4.70421">
        <ele>203</ele>
        <time>2017-08-19T10:03:18Z</time>
      </trkpt>
      <trkpt lat="45.91524" lon="4.70426">
        <ele>203</ele>
        <time>2017-08-19T10:03:19Z</time>
      </trkpt>
      <trkpt lat="45.9153" lon="4.70431">
        <ele>203</ele>
        <time>2017-08-19T10:03:20Z</time>
      </trkpt>
      <trkpt lat="45.91537" lon="4.70436">
        <ele>203</ele>
        <time>2017-08-19T10:03:21Z</time>
      </trkpt>
      <trkpt lat="45.91543" lon="4.70441">
        <ele>203</ele>
        <time>2017-08-19T10:03:22Z</time>
      </trkpt>
      <trkpt lat="45.9155" lon="4.70447">
        <ele>203</ele>
        <time>2017-08-19T10:03:23Z</time>
      </trkpt>
      <trkpt lat="45.91556" lon="4.70451">
        <ele>203</ele>
        <time>2017-08-19T10:03:24Z</time>
      </trkpt>
      <trkpt lat="45.91562" lon="4.70457">
        <ele>203</ele>
        <time>2017-08-19T10:03:25Z</time>
      </trkpt>
      <trkpt lat="45.91569" lon="4.70461">
        <ele>203</ele>
        <time>2017-08-19T10:03:26Z</time>
      </trkpt>
      <trkpt lat="45.91575" lon="4.70466">
        <ele>203</ele>
        <time>2017-08-19T10:03:27Z</time>
      </trkpt>
      <trkpt lat="45.91581" lon="4.70471">
        <ele>203</ele>
        <time>2017-08-19T10:03:28Z</time>
      </trkpt>
      <trkpt lat="45.91587" lon="4.70476">
        <ele>202</ele>
        <time>2017-08-19T10:03:29Z</time>
      </trkpt>
      <trkpt lat="45.91593" lon="4.70481">
        <ele>202</ele>
        <time>2017-08-19T10:03:30Z</time>
      </trkpt>
      <trkpt lat="45.916" lon="4.70486">
        <ele>202</ele>
        <time>2017-08-19T10:03:31Z</time>
      </trkpt>
      <trkpt lat="45.91606" lon="4.70491">
        <ele>202</ele>
        <time>2017-08-19T10:03:32Z</time>
      </trkpt>
      <trkpt lat="45.91612" lon="4.70496">
        <ele>202</ele>
        <time>2017-08-19T10:03:33Z</time>
      </trkpt>
      <trkpt lat="45.91618" lon="4.70501">
        <ele>199</ele>
        <time>2017-08-19T10:03:34Z</time>
      </trkpt>
      <trkpt lat="45.91623" lon="4.70506">
        <ele>199</ele>
        <time>2017-08-19T10:03:35Z</time>
      </trkpt>
      <trkpt lat="45.91629" lon="4.70511">
        <ele>199</ele>
        <time>2017-08-19T10:03:36Z</time>
      </trkpt>
      <trkpt lat="45.91635" lon="4.70515">
        <ele>199</ele>
        <time>2017-08-19T10:03:37Z</time>
      </trkpt>
      <trkpt lat="45.9164" lon="4.7052">
        <ele>199</ele>
        <time>2017-08-19T10:03:38Z</time>
      </trkpt>
      <trkpt lat="45.91646" lon="4.70525">
        <ele>199</ele>
        <time>2017-08-19T10:03:39Z</time>
      </trkpt>
      <trkpt lat="45.91651" lon="4.70529">
        <ele>198</ele>
        <time>2017-08-19T10:03:40Z</time>
      </trkpt>
      <trkpt lat="45.91656" lon="4.70533">
        <ele>198</ele>
        <time>2017-08-19T10:03:41Z</time>
      </trkpt>
      <trkpt lat="45.91661" lon="4.70537">
        <ele>198</ele>
        <time>2017-08-19T10:03:42Z</time>
      </trkpt>
      <trkpt lat="45.91667" lon="4.70541">
        <ele>198</ele>
        <time>2017-08-19T10:03:43Z</time>
      </trkpt>
      <trkpt lat="45.91672" lon="4.70545">
        <ele>198</ele>
        <time>2017-08-19T10:03:44Z</time>
      </trkpt>
      <trkpt lat="45.91677" lon="4.70549">
        <ele>198</ele>
        <time>2017-08-19T10:03:45Z</time>
      </trkpt>
      <trkpt lat="45.91681" lon="4.70553">
        <ele>198</ele>
        <time>2017-08-19T10:03:46Z</time>
      </trkpt>
      <trkpt lat="45.91686" lon="4.70557">
        <ele>198</ele>
        <time>2017-08-19T10:03:47Z</time>
      </trkpt>
      <trkpt lat="45.91691" lon="4.7056">
        <ele>198</ele>
        <time>2017-08-19T10:03:48Z</time>
      </trkpt>
      <trkpt lat="45.91695" lon="4.70564">
        <ele>197</ele>
        <time>2017-08-19T10:03:49Z</time>
      </trkpt>
      <trkpt lat="45.91699" lon="4.70569">
        <ele>197</ele>
        <time>2017-08-19T10:03:50Z</time>
      </trkpt>
      <trkpt lat="45.91702" lon="4.70574">
        <ele>197</ele>
        <time>2017-08-19T10:03:51Z</time>
      </trkpt>
      <trkpt lat="45.91705" lon="4.7058">
        <ele>197</ele>
        <time>2017-08-19T10:03:52Z</time>
      </trkpt>
      <trkpt lat="45.91708" lon="4.70586">
        <ele>196</ele>
        <time>2017-08-19T10:03:53Z</time>
      </trkpt>
      <trkpt lat="45.91712" lon="4.70591">
        <ele>195</ele>
        <time>2017-08-19T10:03:54Z</time>
      </trkpt>
      <trkpt lat="45.91716" lon="4.70594">
        <ele>195</ele>
        <time>2017-08-19T10:03:55Z</time>
      </trkpt>
      <trkpt lat="45.91721" lon="4.70594">
        <ele>195</ele>
        <time>2017-08-19T10:03:56Z</time>
      </trkpt>
      <trkpt lat="45.91727" lon="4.70594">
        <ele>195</ele>
        <time>2017-08-19T10:03:57Z</time>
      </trkpt>
      <trkpt lat="45.91733" lon="4.70593">
        <ele>196</ele>
        <time>2017-08-19T10:03:58Z</time>
      </trkpt>
      <trkpt lat="45.91738" lon="4.70594">
        <ele>196</ele>
        <time>2017-08-19T10:03:59Z</time>
      </trkpt>
      <trkpt lat="45.91744" lon="4.70598">
        <ele>196</ele>
        <time>2017-08-19T10:04:00Z</time>
      </trkpt>
      <trkpt lat="45.9175" lon="4.70601">
        <ele>195</ele>
        <time>2017-08-19T10:04:01Z</time>
      </trkpt>
      <trkpt lat="45.91757" lon="4.70604">
        <ele>195</ele>
        <time>2017-08-19T10:04:02Z</time>
      </trkpt>
      <trkpt lat="45.91762" lon="4.70607">
        <ele>195</ele>
        <time>2017-08-19T10:04:03Z</time>
      </trkpt>
      <trkpt lat="45.91768" lon="4.70609">
        <ele>195</ele>
        <time>2017-08-19T10:04:04Z</time>
      </trkpt>
      <trkpt lat="45.91774" lon="4.70611">
        <ele>195</ele>
        <time>2017-08-19T10:04:05Z</time>
      </trkpt>
      <trkpt lat="45.9178" lon="4.70613">
        <ele>195</ele>
        <time>2017-08-19T10:04:06Z</time>
      </trkpt>
      <trkpt lat="45.91785" lon="4.70614">
        <ele>194</ele>
        <time>2017-08-19T10:04:07Z</time>
      </trkpt>
      <trkpt lat="45.9179" lon="4.70616">
        <ele>194</ele>
        <time>2017-08-19T10:04:08Z</time>
      </trkpt>
      <trkpt lat="45.91796" lon="4.70616">
        <ele>194</ele>
        <time>2017-08-19T10:04:09Z</time>
      </trkpt>
      <trkpt lat="45.91801" lon="4.70617">
        <ele>194</ele>
        <time>2017-08-19T10:04:10Z</time>
      </trkpt>
      <trkpt lat="45.91807" lon="4.70618">
        <ele>194</ele>
        <time>2017-08-19T10:04:11Z</time>
      </trkpt>
      <trkpt lat="45.91813" lon="4.70618">
        <ele>194</ele>
        <time>2017-08-19T10:04:12Z</time>
      </trkpt>
      <trkpt lat="45.9182" lon="4.70618">
        <ele>194</ele>
        <time>2017-08-19T10:04:13Z</time>
      </trkpt>
      <trkpt lat="45.91826" lon="4.70619">
        <ele>194</ele>
        <time>2017-08-19T10:04:14Z</time>
      </trkpt>
      <trkpt lat="45.91833" lon="4.70619">
        <ele>194</ele>
        <time>2017-08-19T10:04:15Z</time>
      </trkpt>
      <trkpt lat="45.91839" lon="4.70619">
        <ele>194</ele>
        <time>2017-08-19T10:04:16Z</time>
      </trkpt>
      <trkpt lat="45.91845" lon="4.70619">
        <ele>194</ele>
        <time>2017-08-19T10:04:17Z</time>
      </trkpt>
      <trkpt lat="45.9185" lon="4.70619">
        <ele>194</ele>
        <time>2017-08-19T10:04:18Z</time>
      </trkpt>
      <trkpt lat="45.91855" lon="4.70619">
        <ele>194</ele>
        <time>2017-08-19T10:04:19Z</time>
      </trkpt>
      <trkpt lat="45.9186" lon="4.70619">
        <ele>194</ele>
        <time>2017-08-19T10:04:20Z</time>
      </trkpt>
      <trkpt lat="45.91866" lon="4.70619">
        <ele>194</ele>
        <time>2017-08-19T10:04:21Z</time>
      </trkpt>
      <trkpt lat="45.91872" lon="4.70619">
        <ele>194</ele>
        <time>2017-08-19T10:04:22Z</time>
      </trkpt>
      <trkpt lat="45.91877" lon="4.70619">
        <ele>194</ele>
        <time>2017-08-19T10:04:23Z</time>
      </trkpt>
      <trkpt lat="45.91884" lon="4.70619">
        <ele>194</ele>
        <time>2017-08-19T10:04:24Z</time>
      </trkpt>
      <trkpt lat="45.91889" lon="4.70618">
        <ele>194</ele>
        <time>2017-08-19T10:04:25Z</time>
      </trkpt>
      <trkpt lat="45.91895" lon="4.70617">
        <ele>194</ele>
        <time>2017-08-19T10:04:26Z</time>
      </trkpt>
      <trkpt lat="45.91901" lon="4.70617">
        <ele>194</ele>
        <time>2017-08-19T10:04:27Z</time>
      </trkpt>
      <trkpt lat="45.91906" lon="4.70617">
        <ele>194</ele>
        <time>2017-08-19T10:04:28Z</time>
      </trkpt>
      <trkpt lat="45.91912" lon="4.70616">
        <ele>194</ele>
        <time>2017-08-19T10:04:29Z</time>
      </trkpt>
      <trkpt lat="45.91917" lon="4.70616">
        <ele>194</ele>
        <time>2017-08-19T10:04:30Z</time>
      </trkpt>
      <trkpt lat="45.91921" lon="4.70615">
        <ele>194</ele>
        <time>2017-08-19T10:04:31Z</time>
      </trkpt>
      <trkpt lat="45.91927" lon="4.70614">
        <ele>194</ele>
        <time>2017-08-19T10:04:32Z</time>
      </trkpt>
      <trkpt lat="45.91932" lon="4.70614">
        <ele>194</ele>
        <time>2017-08-19T10:04:33Z</time>
      </trkpt>
      <trkpt lat="45.91938" lon="4.70613">
        <ele>194</ele>
        <time>2017-08-19T10:04:34Z</time>
      </trkpt>
      <trkpt lat="45.91944" lon="4.70612">
        <ele>194</ele>
        <time>2017-08-19T10:04:35Z</time>
      </trkpt>
      <trkpt lat="45.91951" lon="4.70611">
        <ele>194</ele>
        <time>2017-08-19T10:04:36Z</time>
      </trkpt>
      <trkpt lat="45.91957" lon="4.7061">
        <ele>194</ele>
        <time>2017-08-19T10:04:37Z</time>
      </trkpt>
      <trkpt lat="45.91964" lon="4.70609">
        <ele>194</ele>
        <time>2017-08-19T10:04:38Z</time>
      </trkpt>
      <trkpt lat="45.9197" lon="4.70608">
        <ele>194</ele>
        <time>2017-08-19T10:04:39Z</time>
      </trkpt>
      <trkpt lat="45.91977" lon="4.70607">
        <ele>194</ele>
        <time>2017-08-19T10:04:40Z</time>
      </trkpt>
      <trkpt lat="45.91984" lon="4.70606">
        <ele>194</ele>
        <time>2017-08-19T10:04:41Z</time>
      </trkpt>
      <trkpt lat="45.91991" lon="4.70605">
        <ele>194</ele>
        <time>2017-08-19T10:04:42Z</time>
      </trkpt>
      <trkpt lat="45.91997" lon="4.70605">
        <ele>194</ele>
        <time>2017-08-19T10:04:43Z</time>
      </trkpt>
      <trkpt lat="45.92003" lon="4.70604">
        <ele>194</ele>
        <time>2017-08-19T10:04:44Z</time>
      </trkpt>
      <trkpt lat="45.92009" lon="4.70603">
        <ele>194</ele>
        <time>2017-08-19T10:04:45Z</time>
      </trkpt>
      <trkpt lat="45.92015" lon="4.70601">
        <ele>194</ele>
        <time>2017-08-19T10:04:46Z</time>
      </trkpt>
      <trkpt lat="45.92021" lon="4.70601">
        <ele>194</ele>
        <time>2017-08-19T10:04:47Z</time>
      </trkpt>
      <trkpt lat="45.92027" lon="4.706">
        <ele>194</ele>
        <time>2017-08-19T10:04:48Z</time>
      </trkpt>
      <trkpt lat="45.92032" lon="4.706">
        <ele>194</ele>
        <time>2017-08-19T10:04:49Z</time>
      </trkpt>
      <trkpt lat="45.92038" lon="4.70599">
        <ele>193</ele>
        <time>2017-08-19T10:04:50Z</time>
      </trkpt>
      <trkpt lat="45.92043" lon="4.70599">
        <ele>193</ele>
        <time>2017-08-19T10:04:51Z</time>
      </trkpt>
      <trkpt lat="45.92048" lon="4.70598">
        <ele>193</ele>
        <time>2017-08-19T10:04:52Z</time>
      </trkpt>
      <trkpt lat="45.92053" lon="4.70598">
        <ele>193</ele>
        <time>2017-08-19T10:04:53Z</time>
      </trkpt>
      <trkpt lat="45.92059" lon="4.70597">
        <ele>193</ele>
        <time>2017-08-19T10:04:54Z</time>
      </trkpt>
      <trkpt lat="45.92065" lon="4.70596">
        <ele>193</ele>
        <time>2017-08-19T10:04:55Z</time>
      </trkpt>
      <trkpt lat="45.92071" lon="4.70596">
        <ele>193</ele>
        <time>2017-08-19T10:04:56Z</time>
      </trkpt>
      <trkpt lat="45.92078" lon="4.70596">
        <ele>194</ele>
        <time>2017-08-19T10:04:57Z</time>
      </trkpt>
      <trkpt lat="45.92085" lon="4.70595">
        <ele>193</ele>
        <time>2017-08-19T10:04:58Z</time>
      </trkpt>
      <trkpt lat="45.92091" lon="4.70595">
        <ele>193</ele>
        <time>2017-08-19T10:04:59Z</time>
      </trkpt>
      <trkpt lat="45.92098" lon="4.70594">
        <ele>192</ele>
        <time>2017-08-19T10:05:00Z</time>
      </trkpt>
      <trkpt lat="45.92105" lon="4.70593">
        <ele>192</ele>
        <time>2017-08-19T10:05:01Z</time>
      </trkpt>
      <trkpt lat="45.92111" lon="4.70592">
        <ele>192</ele>
        <time>2017-08-19T10:05:02Z</time>
      </trkpt>
      <trkpt lat="45.92118" lon="4.70592">
        <ele>191</ele>
        <time>2017-08-19T10:05:03Z</time>
      </trkpt>
      <trkpt lat="45.92124" lon="4.70591">
        <ele>191</ele>
        <time>2017-08-19T10:05:04Z</time>
      </trkpt>
      <trkpt lat="45.92129" lon="4.70591">
        <ele>191</ele>
        <time>2017-08-19T10:05:05Z</time>
      </trkpt>
      <trkpt lat="45.92135" lon="4.70591">
        <ele>191</ele>
        <time>2017-08-19T10:05:06Z</time>
      </trkpt>
      <trkpt lat="45.9214" lon="4.70591">
        <ele>191</ele>
        <time>2017-08-19T10:05:07Z</time>
      </trkpt>
      <trkpt lat="45.92145" lon="4.70591">
        <ele>191</ele>
        <time>2017-08-19T10:05:08Z</time>
      </trkpt>
      <trkpt lat="45.9215" lon="4.70591">
        <ele>190</ele>
        <time>2017-08-19T10:05:09Z</time>
      </trkpt>
      <trkpt lat="45.92156" lon="4.70591">
        <ele>190</ele>
        <time>2017-08-19T10:05:10Z</time>
      </trkpt>
      <trkpt lat="45.92161" lon="4.70591">
        <ele>190</ele>
        <time>2017-08-19T10:05:11Z</time>
      </trkpt>
      <trkpt lat="45.92167" lon="4.70592">
        <ele>190</ele>
        <time>2017-08-19T10:05:12Z</time>
      </trkpt>
      <trkpt lat="45.92172" lon="4.70593">
        <ele>191</ele>
        <time>2017-08-19T10:05:13Z</time>
      </trkpt>
      <trkpt lat="45.92178" lon="4.70593">
        <ele>191</ele>
        <time>2017-08-19T10:05:14Z</time>
      </trkpt>
      <trkpt lat="45.92184" lon="4.70593">
        <ele>191</ele>
        <time>2017-08-19T10:05:15Z</time>
      </trkpt>
      <trkpt lat="45.9219" lon="4.70594">
        <ele>192</ele>
        <time>2017-08-19T10:05:16Z</time>
      </trkpt>
      <trkpt lat="45.92196" lon="4.70595">
        <ele>192</ele>
        <time>2017-08-19T10:05:17Z</time>
      </trkpt>
      <trkpt lat="45.92201" lon="4.70595">
        <ele>192</ele>
        <time>2017-08-19T10:05:18Z</time>
      </trkpt>
      <trkpt lat="45.92206" lon="4.70596">
        <ele>192</ele>
        <time>2017-08-19T10:05:19Z</time>
      </trkpt>
      <trkpt lat="45.92211" lon="4.70598">
        <ele>193</ele>
        <time>2017-08-19T10:05:20Z</time>
      </trkpt>
      <trkpt lat="45.92216" lon="4.70599">
        <ele>193</ele>
        <time>2017-08-19T10:05:21Z</time>
      </trkpt>
      <trkpt lat="45.92222" lon="4.70601">
        <ele>193</ele>
        <time>2017-08-19T10:05:22Z</time>
      </trkpt>
      <trkpt lat="45.92228" lon="4.70602">
        <ele>193</ele>
        <time>2017-08-19T10:05:23Z</time>
      </trkpt>
      <trkpt lat="45.92233" lon="4.70603">
        <ele>194</ele>
        <time>2017-08-19T10:05:24Z</time>
      </trkpt>
      <trkpt lat="45.92239" lon="4.70604">
        <ele>194</ele>
        <time>2017-08-19T10:05:25Z</time>
      </trkpt>
      <trkpt lat="45.92245" lon="4.70606">
        <ele>194</ele>
        <time>2017-08-19T10:05:26Z</time>
      </trkpt>
      <trkpt lat="45.92251" lon="4.70608">
        <ele>196</ele>
        <time>2017-08-19T10:05:27Z</time>
      </trkpt>
      <trkpt lat="45.92258" lon="4.7061">
        <ele>196</ele>
        <time>2017-08-19T10:05:28Z</time>
      </trkpt>
      <trkpt lat="45.92264" lon="4.70612">
        <ele>196</ele>
        <time>2017-08-19T10:05:29Z</time>
      </trkpt>
      <trkpt lat="45.9227" lon="4.70615">
        <ele>196</ele>
        <time>2017-08-19T10:05:30Z</time>
      </trkpt>
      <trkpt lat="45.92276" lon="4.70617">
        <ele>196</ele>
        <time>2017-08-19T10:05:31Z</time>
      </trkpt>
      <trkpt lat="45.92282" lon="4.70619">
        <ele>196</ele>
        <time>2017-08-19T10:05:32Z</time>
      </trkpt>
      <trkpt lat="45.92287" lon="4.70621">
        <ele>196</ele>
        <time>2017-08-19T10:05:33Z</time>
      </trkpt>
      <trkpt lat="45.92293" lon="4.70624">
        <ele>196</ele>
        <time>2017-08-19T10:05:34Z</time>
      </trkpt>
      <trkpt lat="45.92298" lon="4.70626">
        <ele>196</ele>
        <time>2017-08-19T10:05:35Z</time>
      </trkpt>
      <trkpt lat="45.92303" lon="4.70629">
        <ele>196</ele>
        <time>2017-08-19T10:05:36Z</time>
      </trkpt>
      <trkpt lat="45.92308" lon="4.70632">
        <ele>196</ele>
        <time>2017-08-19T10:05:37Z</time>
      </trkpt>
      <trkpt lat="45.92314" lon="4.70634">
        <ele>196</ele>
        <time>2017-08-19T10:05:38Z</time>
      </trkpt>
      <trkpt lat="45.92319" lon="4.70637">
        <ele>196</ele>
        <time>2017-08-19T10:05:39Z</time>
      </trkpt>
      <trkpt lat="45.92326" lon="4.7064">
        <ele>196</ele>
        <time>2017-08-19T10:05:40Z</time>
      </trkpt>
      <trkpt lat="45.92332" lon="4.70646">
        <ele>196</ele>
        <time>2017-08-19T10:05:41Z</time>
      </trkpt>
      <trkpt lat="45.92338" lon="4.70649">
        <ele>196</ele>
        <time>2017-08-19T10:05:42Z</time>
      </trkpt>
      <trkpt lat="45.92344" lon="4.70652">
        <ele>196</ele>
        <time>2017-08-19T10:05:43Z</time>
      </trkpt>
      <trkpt lat="45.92349" lon="4.70655">
        <ele>196</ele>
        <time>2017-08-19T10:05:44Z</time>
      </trkpt>
      <trkpt lat="45.92356" lon="4.7066">
        <ele>196</ele>
        <time>2017-08-19T10:05:45Z</time>
      </trkpt>
      <trkpt lat="45.92362" lon="4.70663">
        <ele>196</ele>
        <time>2017-08-19T10:05:46Z</time>
      </trkpt>
      <trkpt lat="45.92368" lon="4.70667">
        <ele>196</ele>
        <time>2017-08-19T10:05:47Z</time>
      </trkpt>
      <trkpt lat="45.92373" lon="4.7067">
        <ele>194</ele>
        <time>2017-08-19T10:05:48Z</time>
      </trkpt>
      <trkpt lat="45.92379" lon="4.70673">
        <ele>194</ele>
        <time>2017-08-19T10:05:49Z</time>
      </trkpt>
      <trkpt lat="45.92385" lon="4.70676">
        <ele>194</ele>
        <time>2017-08-19T10:05:50Z</time>
      </trkpt>
      <trkpt lat="45.9239" lon="4.70679">
        <ele>194</ele>
        <time>2017-08-19T10:05:51Z</time>
      </trkpt>
      <trkpt lat="45.92396" lon="4.70682">
        <ele>194</ele>
        <time>2017-08-19T10:05:52Z</time>
      </trkpt>
      <trkpt lat="45.92401" lon="4.70685">
        <ele>194</ele>
        <time>2017-08-19T10:05:53Z</time>
      </trkpt>
      <trkpt lat="45.92406" lon="4.70688">
        <ele>194</ele>
        <time>2017-08-19T10:05:54Z</time>
      </trkpt>
      <trkpt lat="45.92412" lon="4.70691">
        <ele>194</ele>
        <time>2017-08-19T10:05:55Z</time>
      </trkpt>
      <trkpt lat="45.92418" lon="4.70694">
        <ele>195</ele>
        <time>2017-08-19T10:05:56Z</time>
      </trkpt>
      <trkpt lat="45.92424" lon="4.70698">
        <ele>195</ele>
        <time>2017-08-19T10:05:57Z</time>
      </trkpt>
      <trkpt lat="45.9243" lon="4.70701">
        <ele>194</ele>
        <time>2017-08-19T10:05:58Z</time>
      </trkpt>
      <trkpt lat="45.92436" lon="4.70705">
        <ele>194</ele>
        <time>2017-08-19T10:05:59Z</time>
      </trkpt>
      <trkpt lat="45.92443" lon="4.70709">
        <ele>194</ele>
        <time>2017-08-19T10:06:00Z</time>
      </trkpt>
      <trkpt lat="45.92449" lon="4.70712">
        <ele>194</ele>
        <time>2017-08-19T10:06:01Z</time>
      </trkpt>
      <trkpt lat="45.92455" lon="4.70716">
        <ele>194</ele>
        <time>2017-08-19T10:06:02Z</time>
      </trkpt>
      <trkpt lat="45.92461" lon="4.7072">
        <ele>194</ele>
        <time>2017-08-19T10:06:03Z</time>
      </trkpt>
      <trkpt lat="45.92467" lon="4.70723">
        <ele>194</ele>
        <time>2017-08-19T10:06:04Z</time>
      </trkpt>
      <trkpt lat="45.92472" lon="4.70727">
        <ele>194</ele>
        <time>2017-08-19T10:06:05Z</time>
      </trkpt>
      <trkpt lat="45.92478" lon="4.7073">
        <ele>194</ele>
        <time>2017-08-19T10:06:06Z</time>
      </trkpt>
      <trkpt lat="45.92483" lon="4.70733">
        <ele>194</ele>
        <time>2017-08-19T10:06:07Z</time>
      </trkpt>
      <trkpt lat="45.92488" lon="4.70735">
        <ele>194</ele>
        <time>2017-08-19T10:06:08Z</time>
      </trkpt>
      <trkpt lat="45.92493" lon="4.70739">
        <ele>194</ele>
        <time>2017-08-19T10:06:09Z</time>
      </trkpt>
      <trkpt lat="45.92498" lon="4.70742">
        <ele>194</ele>
        <time>2017-08-19T10:06:10Z</time>
      </trkpt>
      <trkpt lat="45.92503" lon="4.70745">
        <ele>195</ele>
        <time>2017-08-19T10:06:11Z</time>
      </trkpt>
      <trkpt lat="45.92509" lon="4.70748">
        <ele>195</ele>
        <time>2017-08-19T10:06:12Z</time>
      </trkpt>
      <trkpt lat="45.92514" lon="4.7075">
        <ele>195</ele>
        <time>2017-08-19T10:06:13Z</time>
      </trkpt>
      <trkpt lat="45.9252" lon="4.70753">
        <ele>195</ele>
        <time>2017-08-19T10:06:14Z</time>
      </trkpt>
      <trkpt lat="45.92525" lon="4.70756">
        <ele>195</ele>
        <time>2017-08-19T10:06:15Z</time>
      </trkpt>
      <trkpt lat="45.92529" lon="4.70759">
        <ele>195</ele>
        <time>2017-08-19T10:06:16Z</time>
      </trkpt>
      <trkpt lat="45.92534" lon="4.70762">
        <ele>195</ele>
        <time>2017-08-19T10:06:17Z</time>
      </trkpt>
      <trkpt lat="45.92539" lon="4.70765">
        <ele>195</ele>
        <time>2017-08-19T10:06:18Z</time>
      </trkpt>
      <trkpt lat="45.92544" lon="4.70768">
        <ele>195</ele>
        <time>2017-08-19T10:06:19Z</time>
      </trkpt>
      <trkpt lat="45.92549" lon="4.70772">
        <ele>195</ele>
        <time>2017-08-19T10:06:20Z</time>
      </trkpt>
      <trkpt lat="45.92554" lon="4.70775">
        <ele>196</ele>
        <time>2017-08-19T10:06:21Z</time>
      </trkpt>
      <trkpt lat="45.92559" lon="4.70778">
        <ele>196</ele>
        <time>2017-08-19T10:06:22Z</time>
      </trkpt>
      <trkpt lat="45.92564" lon="4.70783">
        <ele>196</ele>
        <time>2017-08-19T10:06:23Z</time>
      </trkpt>
      <trkpt lat="45.92569" lon="4.70787">
        <ele>196</ele>
        <time>2017-08-19T10:06:24Z</time>
      </trkpt>
      <trkpt lat="45.92574" lon="4.70792">
        <ele>196</ele>
        <time>2017-08-19T10:06:25Z</time>
      </trkpt>
      <trkpt lat="45.92579" lon="4.70796">
        <ele>196</ele>
        <time>2017-08-19T10:06:26Z</time>
      </trkpt>
      <trkpt lat="45.92584" lon="4.70801">
        <ele>198</ele>
        <time>2017-08-19T10:06:27Z</time>
      </trkpt>
      <trkpt lat="45.92589" lon="4.70805">
        <ele>198</ele>
        <time>2017-08-19T10:06:28Z</time>
      </trkpt>
      <trkpt lat="45.92593" lon="4.7081">
        <ele>198</ele>
        <time>2017-08-19T10:06:29Z</time>
      </trkpt>
      <trkpt lat="45.92598" lon="4.70814">
        <ele>198</ele>
        <time>2017-08-19T10:06:30Z</time>
      </trkpt>
      <trkpt lat="45.92602" lon="4.70817">
        <ele>198</ele>
        <time>2017-08-19T10:06:31Z</time>
      </trkpt>
      <trkpt lat="45.92606" lon="4.70821">
        <ele>198</ele>
        <time>2017-08-19T10:06:32Z</time>
      </trkpt>
      <trkpt lat="45.9261" lon="4.70825">
        <ele>198</ele>
        <time>2017-08-19T10:06:33Z</time>
      </trkpt>
      <trkpt lat="45.92615" lon="4.7083">
        <ele>198</ele>
        <time>2017-08-19T10:06:34Z</time>
      </trkpt>
      <trkpt lat="45.92619" lon="4.70834">
        <ele>197</ele>
        <time>2017-08-19T10:06:35Z</time>
      </trkpt>
      <trkpt lat="45.92624" lon="4.70838">
        <ele>197</ele>
        <time>2017-08-19T10:06:36Z</time>
      </trkpt>
      <trkpt lat="45.92628" lon="4.70842">
        <ele>198</ele>
        <time>2017-08-19T10:06:37Z</time>
      </trkpt>
      <trkpt lat="45.92632" lon="4.70846">
        <ele>198</ele>
        <time>2017-08-19T10:06:38Z</time>
      </trkpt>
      <trkpt lat="45.92636" lon="4.7085">
        <ele>198</ele>
        <time>2017-08-19T10:06:39Z</time>
      </trkpt>
      <trkpt lat="45.92643" lon="4.70857">
        <ele>198</ele>
        <time>2017-08-19T10:06:41Z</time>
      </trkpt>
      <trkpt lat="45.92647" lon="4.70861">
        <ele>198</ele>
        <time>2017-08-19T10:06:42Z</time>
      </trkpt>
      <trkpt lat="45.92653" lon="4.70869">
        <ele>198</ele>
        <time>2017-08-19T10:06:44Z</time>
      </trkpt>
      <trkpt lat="45.92657" lon="4.70872">
        <ele>198</ele>
        <time>2017-08-19T10:06:45Z</time>
      </trkpt>
      <trkpt lat="45.92661" lon="4.70876">
        <ele>197</ele>
        <time>2017-08-19T10:06:46Z</time>
      </trkpt>
      <trkpt lat="45.92665" lon="4.7088">
        <ele>197</ele>
        <time>2017-08-19T10:06:47Z</time>
      </trkpt>
      <trkpt lat="45.9267" lon="4.70884">
        <ele>198</ele>
        <time>2017-08-19T10:06:48Z</time>
      </trkpt>
      <trkpt lat="45.92675" lon="4.70888">
        <ele>198</ele>
        <time>2017-08-19T10:06:49Z</time>
      </trkpt>
      <trkpt lat="45.9268" lon="4.70892">
        <ele>198</ele>
        <time>2017-08-19T10:06:50Z</time>
      </trkpt>
      <trkpt lat="45.92684" lon="4.70896">
        <ele>197</ele>
        <time>2017-08-19T10:06:51Z</time>
      </trkpt>
      <trkpt lat="45.92689" lon="4.709">
        <ele>197</ele>
        <time>2017-08-19T10:06:52Z</time>
      </trkpt>
      <trkpt lat="45.92693" lon="4.70904">
        <ele>197</ele>
        <time>2017-08-19T10:06:53Z</time>
      </trkpt>
      <trkpt lat="45.92698" lon="4.70907">
        <ele>197</ele>
        <time>2017-08-19T10:06:54Z</time>
      </trkpt>
      <trkpt lat="45.92703" lon="4.7091">
        <ele>197</ele>
        <time>2017-08-19T10:06:55Z</time>
      </trkpt>
      <trkpt lat="45.92707" lon="4.70912">
        <ele>197</ele>
        <time>2017-08-19T10:06:56Z</time>
      </trkpt>
      <trkpt lat="45.92712" lon="4.70914">
        <ele>197</ele>
        <time>2017-08-19T10:06:57Z</time>
      </trkpt>
      <trkpt lat="45.92717" lon="4.70915">
        <ele>197</ele>
        <time>2017-08-19T10:06:58Z</time>
      </trkpt>
      <trkpt lat="45.92721" lon="4.70917">
        <ele>195</ele>
        <time>2017-08-19T10:06:59Z</time>
      </trkpt>
      <trkpt lat="45.92727" lon="4.70919">
        <ele>195</ele>
        <time>2017-08-19T10:07:00Z</time>
      </trkpt>
      <trkpt lat="45.92732" lon="4.70921">
        <ele>195</ele>
        <time>2017-08-19T10:07:01Z</time>
      </trkpt>
      <trkpt lat="45.92738" lon="4.70922">
        <ele>195</ele>
        <time>2017-08-19T10:07:02Z</time>
      </trkpt>
      <trkpt lat="45.92742" lon="4.70922">
        <ele>195</ele>
        <time>2017-08-19T10:07:03Z</time>
      </trkpt>
      <trkpt lat="45.92747" lon="4.70923">
        <ele>196</ele>
        <time>2017-08-19T10:07:04Z</time>
      </trkpt>
      <trkpt lat="45.92751" lon="4.70923">
        <ele>196</ele>
        <time>2017-08-19T10:07:05Z</time>
      </trkpt>
      <trkpt lat="45.92756" lon="4.70925">
        <ele>196</ele>
        <time>2017-08-19T10:07:06Z</time>
      </trkpt>
      <trkpt lat="45.9276" lon="4.70927">
        <ele>196</ele>
        <time>2017-08-19T10:07:07Z</time>
      </trkpt>
      <trkpt lat="45.92765" lon="4.70929">
        <ele>196</ele>
        <time>2017-08-19T10:07:08Z</time>
      </trkpt>
      <trkpt lat="45.92771" lon="4.7093">
        <ele>196</ele>
        <time>2017-08-19T10:07:09Z</time>
      </trkpt>
      <trkpt lat="45.92776" lon="4.70931">
        <ele>196</ele>
        <time>2017-08-19T10:07:10Z</time>
      </trkpt>
      <trkpt lat="45.92781" lon="4.70932">
        <ele>196</ele>
        <time>2017-08-19T10:07:11Z</time>
      </trkpt>
      <trkpt lat="45.92786" lon="4.70933">
        <ele>196</ele>
        <time>2017-08-19T10:07:12Z</time>
      </trkpt>
      <trkpt lat="45.92792" lon="4.70935">
        <ele>196</ele>
        <time>2017-08-19T10:07:13Z</time>
      </trkpt>
      <trkpt lat="45.92796" lon="4.70937">
        <ele>196</ele>
        <time>2017-08-19T10:07:14Z</time>
      </trkpt>
      <trkpt lat="45.928" lon="4.70941">
        <ele>196</ele>
        <time>2017-08-19T10:07:15Z</time>
      </trkpt>
      <trkpt lat="45.92804" lon="4.70945">
        <ele>196</ele>
        <time>2017-08-19T10:07:16Z</time>
      </trkpt>
      <trkpt lat="45.92809" lon="4.70949">
        <ele>196</ele>
        <time>2017-08-19T10:07:17Z</time>
      </trkpt>
      <trkpt lat="45.92814" lon="4.70952">
        <ele>196</ele>
        <time>2017-08-19T10:07:18Z</time>
      </trkpt>
      <trkpt lat="45.92818" lon="4.70952">
        <ele>197</ele>
        <time>2017-08-19T10:07:19Z</time>
      </trkpt>
      <trkpt lat="45.92823" lon="4.7095">
        <ele>197</ele>
        <time>2017-08-19T10:07:20Z</time>
      </trkpt>
      <trkpt lat="45.92827" lon="4.70947">
        <ele>197</ele>
        <time>2017-08-19T10:07:21Z</time>
      </trkpt>
      <trkpt lat="45.92832" lon="4.70944">
        <ele>197</ele>
        <time>2017-08-19T10:07:22Z</time>
      </trkpt>
      <trkpt lat="45.92838" lon="4.70943">
        <ele>198</ele>
        <time>2017-08-19T10:07:23Z</time>
      </trkpt>
      <trkpt lat="45.92843" lon="4.70944">
        <ele>198</ele>
        <time>2017-08-19T10:07:24Z</time>
      </trkpt>
      <trkpt lat="45.92849" lon="4.70945">
        <ele>198</ele>
        <time>2017-08-19T10:07:25Z</time>
      </trkpt>
      <trkpt lat="45.92855" lon="4.70947">
        <ele>198</ele>
        <time>2017-08-19T10:07:26Z</time>
      </trkpt>
      <trkpt lat="45.92861" lon="4.70948">
        <ele>198</ele>
        <time>2017-08-19T10:07:27Z</time>
      </trkpt>
      <trkpt lat="45.92868" lon="4.7095">
        <ele>198</ele>
        <time>2017-08-19T10:07:28Z</time>
      </trkpt>
      <trkpt lat="45.92874" lon="4.70951">
        <ele>198</ele>
        <time>2017-08-19T10:07:29Z</time>
      </trkpt>
      <trkpt lat="45.9288" lon="4.70952">
        <ele>198</ele>
        <time>2017-08-19T10:07:30Z</time>
      </trkpt>
      <trkpt lat="45.92885" lon="4.70954">
        <ele>198</ele>
        <time>2017-08-19T10:07:31Z</time>
      </trkpt>
      <trkpt lat="45.92891" lon="4.70955">
        <ele>198</ele>
        <time>2017-08-19T10:07:32Z</time>
      </trkpt>
      <trkpt lat="45.92896" lon="4.70957">
        <ele>198</ele>
        <time>2017-08-19T10:07:33Z</time>
      </trkpt>
      <trkpt lat="45.92902" lon="4.70958">
        <ele>198</ele>
        <time>2017-08-19T10:07:34Z</time>
      </trkpt>
      <trkpt lat="45.92908" lon="4.70958">
        <ele>198</ele>
        <time>2017-08-19T10:07:35Z</time>
      </trkpt>
      <trkpt lat="45.92914" lon="4.70959">
        <ele>197</ele>
        <time>2017-08-19T10:07:36Z</time>
      </trkpt>
      <trkpt lat="45.92919" lon="4.7096">
        <ele>198</ele>
        <time>2017-08-19T10:07:37Z</time>
      </trkpt>
      <trkpt lat="45.92925" lon="4.70962">
        <ele>198</ele>
        <time>2017-08-19T10:07:38Z</time>
      </trkpt>
      <trkpt lat="45.92931" lon="4.70964">
        <ele>198</ele>
        <time>2017-08-19T10:07:39Z</time>
      </trkpt>
      <trkpt lat="45.92937" lon="4.70966">
        <ele>198</ele>
        <time>2017-08-19T10:07:40Z</time>
      </trkpt>
      <trkpt lat="45.92943" lon="4.70967">
        <ele>198</ele>
        <time>2017-08-19T10:07:41Z</time>
      </trkpt>
      <trkpt lat="45.92949" lon="4.70968">
        <ele>198</ele>
        <time>2017-08-19T10:07:42Z</time>
      </trkpt>
      <trkpt lat="45.92954" lon="4.70969">
        <ele>198</ele>
        <time>2017-08-19T10:07:43Z</time>
      </trkpt>
      <trkpt lat="45.9296" lon="4.70971">
        <ele>198</ele>
        <time>2017-08-19T10:07:44Z</time>
      </trkpt>
      <trkpt lat="45.92966" lon="4.70973">
        <ele>198</ele>
        <time>2017-08-19T10:07:45Z</time>
      </trkpt>
      <trkpt lat="45.92972" lon="4.70974">
        <ele>198</ele>
        <time>2017-08-19T10:07:46Z</time>
      </trkpt>
      <trkpt lat="45.92978" lon="4.70976">
        <ele>198</ele>
        <time>2017-08-19T10:07:47Z</time>
      </trkpt>
      <trkpt lat="45.92983" lon="4.70978">
        <ele>198</ele>
        <time>2017-08-19T10:07:48Z</time>
      </trkpt>
      <trkpt lat="45.92989" lon="4.7098">
        <ele>198</ele>
        <time>2017-08-19T10:07:49Z</time>
      </trkpt>
      <trkpt lat="45.92995" lon="4.70983">
        <ele>198</ele>
        <time>2017-08-19T10:07:50Z</time>
      </trkpt>
      <trkpt lat="45.93001" lon="4.70985">
        <ele>198</ele>
        <time>2017-08-19T10:07:51Z</time>
      </trkpt>
      <trkpt lat="45.93007" lon="4.70987">
        <ele>198</ele>
        <time>2017-08-19T10:07:52Z</time>
      </trkpt>
      <trkpt lat="45.93013" lon="4.7099">
        <ele>198</ele>
        <time>2017-08-19T10:07:53Z</time>
      </trkpt>
      <trkpt lat="45.93019" lon="4.70992">
        <ele>198</ele>
        <time>2017-08-19T10:07:54Z</time>
      </trkpt>
      <trkpt lat="45.93025" lon="4.70995">
        <ele>198</ele>
        <time>2017-08-19T10:07:55Z</time>
      </trkpt>
      <trkpt lat="45.93032" lon="4.70999">
        <ele>198</ele>
        <time>2017-08-19T10:07:56Z</time>
      </trkpt>
      <trkpt lat="45.93039" lon="4.71003">
        <ele>197</ele>
        <time>2017-08-19T10:07:57Z</time>
      </trkpt>
      <trkpt lat="45.93046" lon="4.71008">
        <ele>197</ele>
        <time>2017-08-19T10:07:58Z</time>
      </trkpt>
      <trkpt lat="45.93053" lon="4.71013">
        <ele>197</ele>
        <time>2017-08-19T10:07:59Z</time>
      </trkpt>
      <trkpt lat="45.93059" lon="4.71018">
        <ele>197</ele>
        <time>2017-08-19T10:08:00Z</time>
      </trkpt>
      <trkpt lat="45.93065" lon="4.71025">
        <ele>197</ele>
        <time>2017-08-19T10:08:01Z</time>
      </trkpt>
      <trkpt lat="45.93071" lon="4.71032">
        <ele>197</ele>
        <time>2017-08-19T10:08:02Z</time>
      </trkpt>
      <trkpt lat="45.93077" lon="4.7104">
        <ele>196</ele>
        <time>2017-08-19T10:08:03Z</time>
      </trkpt>
      <trkpt lat="45.93083" lon="4.71047">
        <ele>196</ele>
        <time>2017-08-19T10:08:04Z</time>
      </trkpt>
      <trkpt lat="45.93089" lon="4.71054">
        <ele>196</ele>
        <time>2017-08-19T10:08:05Z</time>
      </trkpt>
      <trkpt lat="45.93095" lon="4.71062">
        <ele>195</ele>
        <time>2017-08-19T10:08:06Z</time>
      </trkpt>
      <trkpt lat="45.93101" lon="4.7107">
        <ele>195</ele>
        <time>2017-08-19T10:08:07Z</time>
      </trkpt>
      <trkpt lat="45.93107" lon="4.71078">
        <ele>195</ele>
        <time>2017-08-19T10:08:08Z</time>
      </trkpt>
      <trkpt lat="45.93112" lon="4.71087">
        <ele>193</ele>
        <time>2017-08-19T10:08:09Z</time>
      </trkpt>
      <trkpt lat="45.93117" lon="4.71095">
        <ele>193</ele>
        <time>2017-08-19T10:08:10Z</time>
      </trkpt>
      <trkpt lat="45.93122" lon="4.71104">
        <ele>192</ele>
        <time>2017-08-19T10:08:11Z</time>
      </trkpt>
      <trkpt lat="45.93127" lon="4.71114">
        <ele>192</ele>
        <time>2017-08-19T10:08:12Z</time>
      </trkpt>
      <trkpt lat="45.93132" lon="4.71123">
        <ele>192</ele>
        <time>2017-08-19T10:08:13Z</time>
      </trkpt>
      <trkpt lat="45.93136" lon="4.71133">
        <ele>192</ele>
        <time>2017-08-19T10:08:14Z</time>
      </trkpt>
      <trkpt lat="45.93141" lon="4.71143">
        <ele>192</ele>
        <time>2017-08-19T10:08:15Z</time>
      </trkpt>
      <trkpt lat="45.93145" lon="4.71153">
        <ele>191</ele>
        <time>2017-08-19T10:08:16Z</time>
      </trkpt>
      <trkpt lat="45.9315" lon="4.71163">
        <ele>191</ele>
        <time>2017-08-19T10:08:17Z</time>
      </trkpt>
      <trkpt lat="45.93154" lon="4.71174">
        <ele>190</ele>
        <time>2017-08-19T10:08:18Z</time>
      </trkpt>
      <trkpt lat="45.93159" lon="4.71184">
        <ele>190</ele>
        <time>2017-08-19T10:08:19Z</time>
      </trkpt>
      <trkpt lat="45.93163" lon="4.71194">
        <ele>190</ele>
        <time>2017-08-19T10:08:20Z</time>
      </trkpt>
      <trkpt lat="45.93168" lon="4.71204">
        <ele>190</ele>
        <time>2017-08-19T10:08:21Z</time>
      </trkpt>
      <trkpt lat="45.93172" lon="4.71215">
        <ele>190</ele>
        <time>2017-08-19T10:08:22Z</time>
      </trkpt>
      <trkpt lat="45.93177" lon="4.71225">
        <ele>190</ele>
        <time>2017-08-19T10:08:23Z</time>
      </trkpt>
      <trkpt lat="45.93181" lon="4.71235">
        <ele>190</ele>
        <time>2017-08-19T10:08:24Z</time>
      </trkpt>
      <trkpt lat="45.93186" lon="4.71245">
        <ele>190</ele>
        <time>2017-08-19T10:08:25Z</time>
      </trkpt>
      <trkpt lat="45.9319" lon="4.71255">
        <ele>189</ele>
        <time>2017-08-19T10:08:26Z</time>
      </trkpt>
      <trkpt lat="45.93194" lon="4.71265">
        <ele>189</ele>
        <time>2017-08-19T10:08:27Z</time>
      </trkpt>
      <trkpt lat="45.93199" lon="4.71275">
        <ele>188</ele>
        <time>2017-08-19T10:08:28Z</time>
      </trkpt>
      <trkpt lat="45.93203" lon="4.71284">
        <ele>188</ele>
        <time>2017-08-19T10:08:29Z</time>
      </trkpt>
      <trkpt lat="45.93207" lon="4.71294">
        <ele>188</ele>
        <time>2017-08-19T10:08:30Z</time>
      </trkpt>
      <trkpt lat="45.93211" lon="4.71303">
        <ele>188</ele>
        <time>2017-08-19T10:08:31Z</time>
      </trkpt>
      <trkpt lat="45.93215" lon="4.71312">
        <ele>188</ele>
        <time>2017-08-19T10:08:32Z</time>
      </trkpt>
      <trkpt lat="45.93218" lon="4.71322">
        <ele>187</ele>
        <time>2017-08-19T10:08:33Z</time>
      </trkpt>
      <trkpt lat="45.93222" lon="4.71331">
        <ele>187</ele>
        <time>2017-08-19T10:08:34Z</time>
      </trkpt>
      <trkpt lat="45.93225" lon="4.7134">
        <ele>186</ele>
        <time>2017-08-19T10:08:35Z</time>
      </trkpt>
      <trkpt lat="45.93229" lon="4.71349">
        <ele>186</ele>
        <time>2017-08-19T10:08:36Z</time>
      </trkpt>
      <trkpt lat="45.93232" lon="4.71356">
        <ele>186</ele>
        <time>2017-08-19T10:08:37Z</time>
      </trkpt>
      <trkpt lat="45.93235" lon="4.71363">
        <ele>186</ele>
        <time>2017-08-19T10:08:38Z</time>
      </trkpt>
      <trkpt lat="45.93237" lon="4.71369">
        <ele>186</ele>
        <time>2017-08-19T10:08:39Z</time>
      </trkpt>
      <trkpt lat="45.93242" lon="4.71378">
        <ele>186</ele>
        <time>2017-08-19T10:08:42Z</time>
      </trkpt>
      <trkpt lat="45.93242" lon="4.71379">
        <ele>186</ele>
        <time>2017-08-19T10:08:43Z</time>
      </trkpt>
      <trkpt lat="45.93243" lon="4.71379">
        <ele>186</ele>
        <time>2017-08-19T10:09:07Z</time>
      </trkpt>
      <trkpt lat="45.93244" lon="4.7138">
        <ele>186</ele>
        <time>2017-08-19T10:09:08Z</time>
      </trkpt>
      <trkpt lat="45.93247" lon="4.7139">
        <ele>186</ele>
        <time>2017-08-19T10:09:11Z</time>
      </trkpt>
      <trkpt lat="45.93249" lon="4.71394">
        <ele>186</ele>
        <time>2017-08-19T10:09:12Z</time>
      </trkpt>
      <trkpt lat="45.93253" lon="4.71402">
        <ele>186</ele>
        <time>2017-08-19T10:09:14Z</time>
      </trkpt>
      <trkpt lat="45.93255" lon="4.71407">
        <ele>186</ele>
        <time>2017-08-19T10:09:15Z</time>
      </trkpt>
      <trkpt lat="45.93258" lon="4.71413">
        <ele>186</ele>
        <time>2017-08-19T10:09:16Z</time>
      </trkpt>
      <trkpt lat="45.93261" lon="4.71419">
        <ele>186</ele>
        <time>2017-08-19T10:09:17Z</time>
      </trkpt>
      <trkpt lat="45.93264" lon="4.71425">
        <ele>186</ele>
        <time>2017-08-19T10:09:18Z</time>
      </trkpt>
      <trkpt lat="45.93267" lon="4.71431">
        <ele>185</ele>
        <time>2017-08-19T10:09:19Z</time>
      </trkpt>
      <trkpt lat="45.93271" lon="4.71438">
        <ele>185</ele>
        <time>2017-08-19T10:09:20Z</time>
      </trkpt>
      <trkpt lat="45.93274" lon="4.71444">
        <ele>185</ele>
        <time>2017-08-19T10:09:21Z</time>
      </trkpt>
      <trkpt lat="45.93278" lon="4.71451">
        <ele>185</ele>
        <time>2017-08-19T10:09:22Z</time>
      </trkpt>
      <trkpt lat="45.93281" lon="4.71458">
        <ele>185</ele>
        <time>2017-08-19T10:09:23Z</time>
      </trkpt>
      <trkpt lat="45.93285" lon="4.71465">
        <ele>185</ele>
        <time>2017-08-19T10:09:24Z</time>
      </trkpt>
      <trkpt lat="45.93288" lon="4.71472">
        <ele>185</ele>
        <time>2017-08-19T10:09:25Z</time>
      </trkpt>
      <trkpt lat="45.93291" lon="4.71478">
        <ele>185</ele>
        <time>2017-08-19T10:09:26Z</time>
      </trkpt>
      <trkpt lat="45.93293" lon="4.71484">
        <ele>185</ele>
        <time>2017-08-19T10:09:27Z</time>
      </trkpt>
      <trkpt lat="45.93295" lon="4.7149">
        <ele>185</ele>
        <time>2017-08-19T10:09:28Z</time>
      </trkpt>
      <trkpt lat="45.93298" lon="4.71495">
        <ele>185</ele>
        <time>2017-08-19T10:09:29Z</time>
      </trkpt>
      <trkpt lat="45.93301" lon="4.71507">
        <ele>184</ele>
        <time>2017-08-19T10:09:31Z</time>
      </trkpt>
      <trkpt lat="45.93302" lon="4.71514">
        <ele>184</ele>
        <time>2017-08-19T10:09:32Z</time>
      </trkpt>
      <trkpt lat="45.93304" lon="4.7152">
        <ele>184</ele>
        <time>2017-08-19T10:09:33Z</time>
      </trkpt>
      <trkpt lat="45.93307" lon="4.71528">
        <ele>184</ele>
        <time>2017-08-19T10:09:34Z</time>
      </trkpt>
      <trkpt lat="45.93309" lon="4.71534">
        <ele>184</ele>
        <time>2017-08-19T10:09:35Z</time>
      </trkpt>
      <trkpt lat="45.93312" lon="4.7154">
        <ele>184</ele>
        <time>2017-08-19T10:09:36Z</time>
      </trkpt>
      <trkpt lat="45.93315" lon="4.71546">
        <ele>184</ele>
        <time>2017-08-19T10:09:37Z</time>
      </trkpt>
      <trkpt lat="45.93317" lon="4.71552">
        <ele>184</ele>
        <time>2017-08-19T10:09:38Z</time>
      </trkpt>
      <trkpt lat="45.9332" lon="4.71558">
        <ele>184</ele>
        <time>2017-08-19T10:09:39Z</time>
      </trkpt>
      <trkpt lat="45.93323" lon="4.71563">
        <ele>185</ele>
        <time>2017-08-19T10:09:40Z</time>
      </trkpt>
      <trkpt lat="45.93326" lon="4.71568">
        <ele>185</ele>
        <time>2017-08-19T10:09:41Z</time>
      </trkpt>
      <trkpt lat="45.93329" lon="4.71574">
        <ele>185</ele>
        <time>2017-08-19T10:09:42Z</time>
      </trkpt>
      <trkpt lat="45.93332" lon="4.7158">
        <ele>185</ele>
        <time>2017-08-19T10:09:43Z</time>
      </trkpt>
      <trkpt lat="45.93335" lon="4.71587">
        <ele>185</ele>
        <time>2017-08-19T10:09:44Z</time>
      </trkpt>
      <trkpt lat="45.93338" lon="4.71594">
        <ele>185</ele>
        <time>2017-08-19T10:09:45Z</time>
      </trkpt>
      <trkpt lat="45.93341" lon="4.71601">
        <ele>185</ele>
        <time>2017-08-19T10:09:46Z</time>
      </trkpt>
      <trkpt lat="45.93345" lon="4.71606">
        <ele>185</ele>
        <time>2017-08-19T10:09:47Z</time>
      </trkpt>
      <trkpt lat="45.93348" lon="4.71613">
        <ele>185</ele>
        <time>2017-08-19T10:09:48Z</time>
      </trkpt>
      <trkpt lat="45.93351" lon="4.7162">
        <ele>185</ele>
        <time>2017-08-19T10:09:49Z</time>
      </trkpt>
      <trkpt lat="45.93354" lon="4.71627">
        <ele>185</ele>
        <time>2017-08-19T10:09:50Z</time>
      </trkpt>
      <trkpt lat="45.93357" lon="4.71634">
        <ele>185</ele>
        <time>2017-08-19T10:09:51Z</time>
      </trkpt>
      <trkpt lat="45.9336" lon="4.7164">
        <ele>185</ele>
        <time>2017-08-19T10:09:52Z</time>
      </trkpt>
      <trkpt lat="45.93364" lon="4.71647">
        <ele>185</ele>
        <time>2017-08-19T10:09:53Z</time>
      </trkpt>
      <trkpt lat="45.93367" lon="4.71654">
        <ele>185</ele>
        <time>2017-08-19T10:09:54Z</time>
      </trkpt>
      <trkpt lat="45.9337" lon="4.71661">
        <ele>185</ele>
        <time>2017-08-19T10:09:55Z</time>
      </trkpt>
      <trkpt lat="45.93373" lon="4.71669">
        <ele>185</ele>
        <time>2017-08-19T10:09:56Z</time>
      </trkpt>
      <trkpt lat="45.93376" lon="4.71676">
        <ele>185</ele>
        <time>2017-08-19T10:09:57Z</time>
      </trkpt>
      <trkpt lat="45.9338" lon="4.71684">
        <ele>185</ele>
        <time>2017-08-19T10:09:58Z</time>
      </trkpt>
      <trkpt lat="45.93383" lon="4.71692">
        <ele>184</ele>
        <time>2017-08-19T10:09:59Z</time>
      </trkpt>
      <trkpt lat="45.93386" lon="4.717">
        <ele>184</ele>
        <time>2017-08-19T10:10:00Z</time>
      </trkpt>
      <trkpt lat="45.9339" lon="4.71708">
        <ele>184</ele>
        <time>2017-08-19T10:10:01Z</time>
      </trkpt>
      <trkpt lat="45.93394" lon="4.71717">
        <ele>184</ele>
        <time>2017-08-19T10:10:02Z</time>
      </trkpt>
      <trkpt lat="45.93398" lon="4.71725">
        <ele>184</ele>
        <time>2017-08-19T10:10:03Z</time>
      </trkpt>
      <trkpt lat="45.93402" lon="4.71733">
        <ele>184</ele>
        <time>2017-08-19T10:10:04Z</time>
      </trkpt>
      <trkpt lat="45.93405" lon="4.71742">
        <ele>184</ele>
        <time>2017-08-19T10:10:05Z</time>
      </trkpt>
      <trkpt lat="45.93409" lon="4.71751">
        <ele>183</ele>
        <time>2017-08-19T10:10:06Z</time>
      </trkpt>
      <trkpt lat="45.93412" lon="4.7176">
        <ele>183</ele>
        <time>2017-08-19T10:10:07Z</time>
      </trkpt>
      <trkpt lat="45.93416" lon="4.71769">
        <ele>184</ele>
        <time>2017-08-19T10:10:08Z</time>
      </trkpt>
      <trkpt lat="45.9342" lon="4.71779">
        <ele>182</ele>
        <time>2017-08-19T10:10:09Z</time>
      </trkpt>
      <trkpt lat="45.93423" lon="4.71788">
        <ele>182</ele>
        <time>2017-08-19T10:10:10Z</time>
      </trkpt>
      <trkpt lat="45.93427" lon="4.71797">
        <ele>182</ele>
        <time>2017-08-19T10:10:11Z</time>
      </trkpt>
      <trkpt lat="45.93432" lon="4.71806">
        <ele>182</ele>
        <time>2017-08-19T10:10:12Z</time>
      </trkpt>
      <trkpt lat="45.93437" lon="4.71815">
        <ele>182</ele>
        <time>2017-08-19T10:10:13Z</time>
      </trkpt>
      <trkpt lat="45.9344" lon="4.71824">
        <ele>182</ele>
        <time>2017-08-19T10:10:14Z</time>
      </trkpt>
      <trkpt lat="45.93444" lon="4.71832">
        <ele>182</ele>
        <time>2017-08-19T10:10:15Z</time>
      </trkpt>
      <trkpt lat="45.93449" lon="4.7184">
        <ele>181</ele>
        <time>2017-08-19T10:10:16Z</time>
      </trkpt>
      <trkpt lat="45.93455" lon="4.71848">
        <ele>181</ele>
        <time>2017-08-19T10:10:17Z</time>
      </trkpt>
      <trkpt lat="45.93462" lon="4.71853">
        <ele>180</ele>
        <time>2017-08-19T10:10:18Z</time>
      </trkpt>
      <trkpt lat="45.9347" lon="4.71855">
        <ele>180</ele>
        <time>2017-08-19T10:10:19Z</time>
      </trkpt>
      <trkpt lat="45.93477" lon="4.71856">
        <ele>180</ele>
        <time>2017-08-19T10:10:20Z</time>
      </trkpt>
      <trkpt lat="45.93485" lon="4.71856">
        <ele>180</ele>
        <time>2017-08-19T10:10:21Z</time>
      </trkpt>
      <trkpt lat="45.93493" lon="4.71855">
        <ele>180</ele>
        <time>2017-08-19T10:10:22Z</time>
      </trkpt>
      <trkpt lat="45.935" lon="4.71854">
        <ele>179</ele>
        <time>2017-08-19T10:10:23Z</time>
      </trkpt>
      <trkpt lat="45.93508" lon="4.71852">
        <ele>179</ele>
        <time>2017-08-19T10:10:24Z</time>
      </trkpt>
      <trkpt lat="45.93515" lon="4.71851">
        <ele>179</ele>
        <time>2017-08-19T10:10:25Z</time>
      </trkpt>
      <trkpt lat="45.93523" lon="4.71848">
        <ele>179</ele>
        <time>2017-08-19T10:10:26Z</time>
      </trkpt>
      <trkpt lat="45.9353" lon="4.71847">
        <ele>179</ele>
        <time>2017-08-19T10:10:27Z</time>
      </trkpt>
      <trkpt lat="45.93537" lon="4.71845">
        <ele>179</ele>
        <time>2017-08-19T10:10:28Z</time>
      </trkpt>
      <trkpt lat="45.93544" lon="4.71843">
        <ele>179</ele>
        <time>2017-08-19T10:10:29Z</time>
      </trkpt>
      <trkpt lat="45.93551" lon="4.71841">
        <ele>179</ele>
        <time>2017-08-19T10:10:30Z</time>
      </trkpt>
      <trkpt lat="45.93558" lon="4.71839">
        <ele>179</ele>
        <time>2017-08-19T10:10:31Z</time>
      </trkpt>
      <trkpt lat="45.93565" lon="4.71837">
        <ele>179</ele>
        <time>2017-08-19T10:10:32Z</time>
      </trkpt>
      <trkpt lat="45.93572" lon="4.71836">
        <ele>180</ele>
        <time>2017-08-19T10:10:33Z</time>
      </trkpt>
      <trkpt lat="45.93579" lon="4.71833">
        <ele>180</ele>
        <time>2017-08-19T10:10:34Z</time>
      </trkpt>
      <trkpt lat="45.93586" lon="4.7183">
        <ele>180</ele>
        <time>2017-08-19T10:10:35Z</time>
      </trkpt>
      <trkpt lat="45.93592" lon="4.71828">
        <ele>180</ele>
        <time>2017-08-19T10:10:36Z</time>
      </trkpt>
      <trkpt lat="45.93598" lon="4.71825">
        <ele>179</ele>
        <time>2017-08-19T10:10:37Z</time>
      </trkpt>
      <trkpt lat="45.93603" lon="4.71822">
        <ele>179</ele>
        <time>2017-08-19T10:10:38Z</time>
      </trkpt>
      <trkpt lat="45.93608" lon="4.71817">
        <ele>179</ele>
        <time>2017-08-19T10:10:39Z</time>
      </trkpt>
      <trkpt lat="45.93613" lon="4.71813">
        <ele>179</ele>
        <time>2017-08-19T10:10:40Z</time>
      </trkpt>
      <trkpt lat="45.93617" lon="4.71808">
        <ele>179</ele>
        <time>2017-08-19T10:10:41Z</time>
      </trkpt>
      <trkpt lat="45.93622" lon="4.71805">
        <ele>179</ele>
        <time>2017-08-19T10:10:42Z</time>
      </trkpt>
      <trkpt lat="45.93629" lon="4.71802">
        <ele>179</ele>
        <time>2017-08-19T10:10:44Z</time>
      </trkpt>
      <trkpt lat="45.93633" lon="4.71799">
        <ele>179</ele>
        <time>2017-08-19T10:10:45Z</time>
      </trkpt>
      <trkpt lat="45.93638" lon="4.71797">
        <ele>179</ele>
        <time>2017-08-19T10:10:46Z</time>
      </trkpt>
      <trkpt lat="45.93642" lon="4.71796">
        <ele>179</ele>
        <time>2017-08-19T10:10:47Z</time>
      </trkpt>
      <trkpt lat="45.93649" lon="4.71792">
        <ele>179</ele>
        <time>2017-08-19T10:10:49Z</time>
      </trkpt>
      <trkpt lat="45.93652" lon="4.71791">
        <ele>179</ele>
        <time>2017-08-19T10:10:50Z</time>
      </trkpt>
      <trkpt lat="45.93659" lon="4.71789">
        <ele>179</ele>
        <time>2017-08-19T10:10:52Z</time>
      </trkpt>
      <trkpt lat="45.93663" lon="4.71788">
        <ele>179</ele>
        <time>2017-08-19T10:10:53Z</time>
      </trkpt>
      <trkpt lat="45.93667" lon="4.71787">
        <ele>177</ele>
        <time>2017-08-19T10:10:54Z</time>
      </trkpt>
      <trkpt lat="45.93672" lon="4.71786">
        <ele>177</ele>
        <time>2017-08-19T10:10:55Z</time>
      </trkpt>
      <trkpt lat="45.93677" lon="4.71785">
        <ele>177</ele>
        <time>2017-08-19T10:10:56Z</time>
      </trkpt>
      <trkpt lat="45.93683" lon="4.71786">
        <ele>177</ele>
        <time>2017-08-19T10:10:57Z</time>
      </trkpt>
      <trkpt lat="45.93687" lon="4.71787">
        <ele>177</ele>
        <time>2017-08-19T10:10:58Z</time>
      </trkpt>
      <trkpt lat="45.93692" lon="4.71791">
        <ele>177</ele>
        <time>2017-08-19T10:10:59Z</time>
      </trkpt>
      <trkpt lat="45.93696" lon="4.71794">
        <ele>176</ele>
        <time>2017-08-19T10:11:00Z</time>
      </trkpt>
      <trkpt lat="45.93699" lon="4.718">
        <ele>176</ele>
        <time>2017-08-19T10:11:01Z</time>
      </trkpt>
      <trkpt lat="45.93702" lon="4.7181">
        <ele>176</ele>
        <time>2017-08-19T10:11:03Z</time>
      </trkpt>
      <trkpt lat="45.93702" lon="4.71815">
        <ele>176</ele>
        <time>2017-08-19T10:11:04Z</time>
      </trkpt>
      <trkpt lat="45.93696" lon="4.71823">
        <ele>176</ele>
        <time>2017-08-19T10:11:07Z</time>
      </trkpt>
      <trkpt lat="45.93693" lon="4.71827">
        <ele>176</ele>
        <time>2017-08-19T10:11:08Z</time>
      </trkpt>
      <trkpt lat="45.93689" lon="4.71834">
        <ele>176</ele>
        <time>2017-08-19T10:11:10Z</time>
      </trkpt>
      <trkpt lat="45.93687" lon="4.71838">
        <ele>176</ele>
        <time>2017-08-19T10:11:11Z</time>
      </trkpt>
      <trkpt lat="45.93685" lon="4.71848">
        <ele>175</ele>
        <time>2017-08-19T10:11:14Z</time>
      </trkpt>
      <trkpt lat="45.93682" lon="4.7185">
        <ele>175</ele>
        <time>2017-08-19T10:11:15Z</time>
      </trkpt>
      <trkpt lat="45.9368" lon="4.71861">
        <ele>175</ele>
        <time>2017-08-19T10:11:18Z</time>
      </trkpt>
      <trkpt lat="45.93679" lon="4.71867">
        <ele>175</ele>
        <time>2017-08-19T10:11:19Z</time>
      </trkpt>
      <trkpt lat="45.93677" lon="4.71877">
        <ele>175</ele>
        <time>2017-08-19T10:11:21Z</time>
      </trkpt>
      <trkpt lat="45.93675" lon="4.71883">
        <ele>175</ele>
        <time>2017-08-19T10:11:22Z</time>
      </trkpt>
      <trkpt lat="45.93673" lon="4.7189">
        <ele>175</ele>
        <time>2017-08-19T10:11:23Z</time>
      </trkpt>
      <trkpt lat="45.93672" lon="4.71899">
        <ele>175</ele>
        <time>2017-08-19T10:11:24Z</time>
      </trkpt>
      <trkpt lat="45.9367" lon="4.71906">
        <ele>175</ele>
        <time>2017-08-19T10:11:25Z</time>
      </trkpt>
      <trkpt lat="45.93667" lon="4.71914">
        <ele>175</ele>
        <time>2017-08-19T10:11:26Z</time>
      </trkpt>
      <trkpt lat="45.93658" lon="4.71927">
        <ele>175</ele>
        <time>2017-08-19T10:11:27Z</time>
      </trkpt>
      <trkpt lat="45.93655" lon="4.71935">
        <ele>175</ele>
        <time>2017-08-19T10:11:28Z</time>
      </trkpt>
      <trkpt lat="45.93654" lon="4.71942">
        <ele>175</ele>
        <time>2017-08-19T10:11:29Z</time>
      </trkpt>
      <trkpt lat="45.93652" lon="4.71949">
        <ele>175</ele>
        <time>2017-08-19T10:11:30Z</time>
      </trkpt>
      <trkpt lat="45.93651" lon="4.71957">
        <ele>175</ele>
        <time>2017-08-19T10:11:31Z</time>
      </trkpt>
      <trkpt lat="45.9365" lon="4.71964">
        <ele>175</ele>
        <time>2017-08-19T10:11:32Z</time>
      </trkpt>
      <trkpt lat="45.93646" lon="4.7197">
        <ele>175</ele>
        <time>2017-08-19T10:11:33Z</time>
      </trkpt>
      <trkpt lat="45.93644" lon="4.71977">
        <ele>175</ele>
        <time>2017-08-19T10:11:34Z</time>
      </trkpt>
      <trkpt lat="45.93642" lon="4.71985">
        <ele>175</ele>
        <time>2017-08-19T10:11:35Z</time>
      </trkpt>
      <trkpt lat="45.93639" lon="4.71995">
        <ele>175</ele>
        <time>2017-08-19T10:11:37Z</time>
      </trkpt>
      <trkpt lat="45.93636" lon="4.72001">
        <ele>174</ele>
        <time>2017-08-19T10:11:38Z</time>
      </trkpt>
      <trkpt lat="45.93635" lon="4.72008">
        <ele>174</ele>
        <time>2017-08-19T10:11:39Z</time>
      </trkpt>
      <trkpt lat="45.93634" lon="4.72016">
        <ele>174</ele>
        <time>2017-08-19T10:11:40Z</time>
      </trkpt>
      <trkpt lat="45.93632" lon="4.72023">
        <ele>174</ele>
        <time>2017-08-19T10:11:41Z</time>
      </trkpt>
      <trkpt lat="45.93628" lon="4.7203">
        <ele>174</ele>
        <time>2017-08-19T10:11:42Z</time>
      </trkpt>
      <trkpt lat="45.93626" lon="4.72041">
        <ele>174</ele>
        <time>2017-08-19T10:11:44Z</time>
      </trkpt>
      <trkpt lat="45.93625" lon="4.72047">
        <ele>174</ele>
        <time>2017-08-19T10:11:45Z</time>
      </trkpt>
      <trkpt lat="45.93623" lon="4.72053">
        <ele>174</ele>
        <time>2017-08-19T10:11:46Z</time>
      </trkpt>
      <trkpt lat="45.93621" lon="4.72059">
        <ele>175</ele>
        <time>2017-08-19T10:11:47Z</time>
      </trkpt>
      <trkpt lat="45.9362" lon="4.72067">
        <ele>175</ele>
        <time>2017-08-19T10:11:48Z</time>
      </trkpt>
      <trkpt lat="45.93618" lon="4.72075">
        <ele>175</ele>
        <time>2017-08-19T10:11:49Z</time>
      </trkpt>
      <trkpt lat="45.93614" lon="4.72083">
        <ele>175</ele>
        <time>2017-08-19T10:11:50Z</time>
      </trkpt>
      <trkpt lat="45.93614" lon="4.72091">
        <ele>174</ele>
        <time>2017-08-19T10:11:51Z</time>
      </trkpt>
      <trkpt lat="45.93613" lon="4.721">
        <ele>174</ele>
        <time>2017-08-19T10:11:52Z</time>
      </trkpt>
      <trkpt lat="45.9361" lon="4.72108">
        <ele>174</ele>
        <time>2017-08-19T10:11:53Z</time>
      </trkpt>
      <trkpt lat="45.93608" lon="4.72115">
        <ele>174</ele>
        <time>2017-08-19T10:11:54Z</time>
      </trkpt>
      <trkpt lat="45.93606" lon="4.72122">
        <ele>174</ele>
        <time>2017-08-19T10:11:55Z</time>
      </trkpt>
      <trkpt lat="45.93603" lon="4.72128">
        <ele>174</ele>
        <time>2017-08-19T10:11:56Z</time>
      </trkpt>
      <trkpt lat="45.93599" lon="4.72135">
        <ele>173</ele>
        <time>2017-08-19T10:11:57Z</time>
      </trkpt>
      <trkpt lat="45.93596" lon="4.7214">
        <ele>173</ele>
        <time>2017-08-19T10:11:58Z</time>
      </trkpt>
      <trkpt lat="45.93593" lon="4.72149">
        <ele>173</ele>
        <time>2017-08-19T10:11:59Z</time>
      </trkpt>
      <trkpt lat="45.9359" lon="4.72157">
        <ele>173</ele>
        <time>2017-08-19T10:12:00Z</time>
      </trkpt>
      <trkpt lat="45.93586" lon="4.72166">
        <ele>173</ele>
        <time>2017-08-19T10:12:01Z</time>
      </trkpt>
      <trkpt lat="45.93584" lon="4.72175">
        <ele>173</ele>
        <time>2017-08-19T10:12:02Z</time>
      </trkpt>
      <trkpt lat="45.93581" lon="4.72184">
        <ele>173</ele>
        <time>2017-08-19T10:12:03Z</time>
      </trkpt>
      <trkpt lat="45.93577" lon="4.72193">
        <ele>173</ele>
        <time>2017-08-19T10:12:04Z</time>
      </trkpt>
      <trkpt lat="45.93573" lon="4.72201">
        <ele>173</ele>
        <time>2017-08-19T10:12:05Z</time>
      </trkpt>
      <trkpt lat="45.93569" lon="4.72209">
        <ele>173</ele>
        <time>2017-08-19T10:12:06Z</time>
      </trkpt>
      <trkpt lat="45.93565" lon="4.72218">
        <ele>173</ele>
        <time>2017-08-19T10:12:07Z</time>
      </trkpt>
      <trkpt lat="45.9356" lon="4.72226">
        <ele>173</ele>
        <time>2017-08-19T10:12:08Z</time>
      </trkpt>
      <trkpt lat="45.93549" lon="4.72236">
        <ele>172</ele>
        <time>2017-08-19T10:12:09Z</time>
      </trkpt>
      <trkpt lat="45.93539" lon="4.72242">
        <ele>172</ele>
        <time>2017-08-19T10:12:10Z</time>
      </trkpt>
      <trkpt lat="45.93523" lon="4.72249">
        <ele>172</ele>
        <time>2017-08-19T10:12:11Z</time>
      </trkpt>
      <trkpt lat="45.93519" lon="4.72255">
        <ele>172</ele>
        <time>2017-08-19T10:12:12Z</time>
      </trkpt>
      <trkpt lat="45.93515" lon="4.72263">
        <ele>172</ele>
        <time>2017-08-19T10:12:13Z</time>
      </trkpt>
      <trkpt lat="45.93513" lon="4.7227">
        <ele>172</ele>
        <time>2017-08-19T10:12:14Z</time>
      </trkpt>
      <trkpt lat="45.93511" lon="4.72279">
        <ele>172</ele>
        <time>2017-08-19T10:12:15Z</time>
      </trkpt>
      <trkpt lat="45.93508" lon="4.72286">
        <ele>172</ele>
        <time>2017-08-19T10:12:16Z</time>
      </trkpt>
      <trkpt lat="45.93505" lon="4.72292">
        <ele>172</ele>
        <time>2017-08-19T10:12:17Z</time>
      </trkpt>
      <trkpt lat="45.93502" lon="4.72298">
        <ele>172</ele>
        <time>2017-08-19T10:12:18Z</time>
      </trkpt>
      <trkpt lat="45.93498" lon="4.72306">
        <ele>173</ele>
        <time>2017-08-19T10:12:19Z</time>
      </trkpt>
      <trkpt lat="45.93494" lon="4.72312">
        <ele>173</ele>
        <time>2017-08-19T10:12:20Z</time>
      </trkpt>
      <trkpt lat="45.9349" lon="4.72318">
        <ele>173</ele>
        <time>2017-08-19T10:12:21Z</time>
      </trkpt>
      <trkpt lat="45.93485" lon="4.72325">
        <ele>173</ele>
        <time>2017-08-19T10:12:22Z</time>
      </trkpt>
      <trkpt lat="45.93481" lon="4.72332">
        <ele>173</ele>
        <time>2017-08-19T10:12:23Z</time>
      </trkpt>
      <trkpt lat="45.93476" lon="4.72338">
        <ele>173</ele>
        <time>2017-08-19T10:12:24Z</time>
      </trkpt>
      <trkpt lat="45.93472" lon="4.72345">
        <ele>173</ele>
        <time>2017-08-19T10:12:25Z</time>
      </trkpt>
      <trkpt lat="45.93468" lon="4.72352">
        <ele>173</ele>
        <time>2017-08-19T10:12:26Z</time>
      </trkpt>
      <trkpt lat="45.93463" lon="4.72358">
        <ele>173</ele>
        <time>2017-08-19T10:12:27Z</time>
      </trkpt>
      <trkpt lat="45.93459" lon="4.72364">
        <ele>173</ele>
        <time>2017-08-19T10:12:28Z</time>
      </trkpt>
      <trkpt lat="45.93455" lon="4.7237">
        <ele>173</ele>
        <time>2017-08-19T10:12:29Z</time>
      </trkpt>
      <trkpt lat="45.93451" lon="4.72376">
        <ele>173</ele>
        <time>2017-08-19T10:12:30Z</time>
      </trkpt>
      <trkpt lat="45.93447" lon="4.72381">
        <ele>173</ele>
        <time>2017-08-19T10:12:31Z</time>
      </trkpt>
      <trkpt lat="45.93443" lon="4.72387">
        <ele>173</ele>
        <time>2017-08-19T10:12:32Z</time>
      </trkpt>
      <trkpt lat="45.93439" lon="4.72392">
        <ele>173</ele>
        <time>2017-08-19T10:12:33Z</time>
      </trkpt>
      <trkpt lat="45.93436" lon="4.72396">
        <ele>173</ele>
        <time>2017-08-19T10:12:34Z</time>
      </trkpt>
      <trkpt lat="45.93431" lon="4.724">
        <ele>174</ele>
        <time>2017-08-19T10:12:35Z</time>
      </trkpt>
      <trkpt lat="45.93427" lon="4.72403">
        <ele>174</ele>
        <time>2017-08-19T10:12:36Z</time>
      </trkpt>
      <trkpt lat="45.93421" lon="4.72405">
        <ele>174</ele>
        <time>2017-08-19T10:12:37Z</time>
      </trkpt>
      <trkpt lat="45.93416" lon="4.72406">
        <ele>174</ele>
        <time>2017-08-19T10:12:38Z</time>
      </trkpt>
      <trkpt lat="45.93411" lon="4.72407">
        <ele>174</ele>
        <time>2017-08-19T10:12:39Z</time>
      </trkpt>
      <trkpt lat="45.93407" lon="4.72407">
        <ele>174</ele>
        <time>2017-08-19T10:12:40Z</time>
      </trkpt>
      <trkpt lat="45.93402" lon="4.72406">
        <ele>174</ele>
        <time>2017-08-19T10:12:41Z</time>
      </trkpt>
      <trkpt lat="45.93397" lon="4.72404">
        <ele>174</ele>
        <time>2017-08-19T10:12:42Z</time>
      </trkpt>
      <trkpt lat="45.93392" lon="4.72403">
        <ele>174</ele>
        <time>2017-08-19T10:12:43Z</time>
      </trkpt>
      <trkpt lat="45.93387" lon="4.72403">
        <ele>174</ele>
        <time>2017-08-19T10:12:44Z</time>
      </trkpt>
      <trkpt lat="45.93382" lon="4.72405">
        <ele>174</ele>
        <time>2017-08-19T10:12:45Z</time>
      </trkpt>
      <trkpt lat="45.93378" lon="4.72411">
        <ele>174</ele>
        <time>2017-08-19T10:12:46Z</time>
      </trkpt>
      <trkpt lat="45.93376" lon="4.72418">
        <ele>173</ele>
        <time>2017-08-19T10:12:47Z</time>
      </trkpt>
      <trkpt lat="45.93376" lon="4.72425">
        <ele>173</ele>
        <time>2017-08-19T10:12:48Z</time>
      </trkpt>
      <trkpt lat="45.93378" lon="4.72432">
        <ele>173</ele>
        <time>2017-08-19T10:12:49Z</time>
      </trkpt>
      <trkpt lat="45.93381" lon="4.72439">
        <ele>173</ele>
        <time>2017-08-19T10:12:50Z</time>
      </trkpt>
      <trkpt lat="45.93383" lon="4.72446">
        <ele>173</ele>
        <time>2017-08-19T10:12:51Z</time>
      </trkpt>
      <trkpt lat="45.93384" lon="4.72454">
        <ele>173</ele>
        <time>2017-08-19T10:12:52Z</time>
      </trkpt>
      <trkpt lat="45.93384" lon="4.72462">
        <ele>173</ele>
        <time>2017-08-19T10:12:53Z</time>
      </trkpt>
      <trkpt lat="45.93382" lon="4.72469">
        <ele>173</ele>
        <time>2017-08-19T10:12:54Z</time>
      </trkpt>
      <trkpt lat="45.93378" lon="4.72475">
        <ele>173</ele>
        <time>2017-08-19T10:12:55Z</time>
      </trkpt>
      <trkpt lat="45.93373" lon="4.7248">
        <ele>173</ele>
        <time>2017-08-19T10:12:56Z</time>
      </trkpt>
      <trkpt lat="45.93368" lon="4.72484">
        <ele>173</ele>
        <time>2017-08-19T10:12:57Z</time>
      </trkpt>
      <trkpt lat="45.93363" lon="4.7249">
        <ele>173</ele>
        <time>2017-08-19T10:12:58Z</time>
      </trkpt>
      <trkpt lat="45.9336" lon="4.72495">
        <ele>173</ele>
        <time>2017-08-19T10:12:59Z</time>
      </trkpt>
      <trkpt lat="45.93355" lon="4.725">
        <ele>172</ele>
        <time>2017-08-19T10:13:00Z</time>
      </trkpt>
      <trkpt lat="45.9335" lon="4.72505">
        <ele>172</ele>
        <time>2017-08-19T10:13:01Z</time>
      </trkpt>
      <trkpt lat="45.93346" lon="4.7251">
        <ele>172</ele>
        <time>2017-08-19T10:13:02Z</time>
      </trkpt>
      <trkpt lat="45.93342" lon="4.72514">
        <ele>172</ele>
        <time>2017-08-19T10:13:03Z</time>
      </trkpt>
      <trkpt lat="45.93337" lon="4.72519">
        <ele>172</ele>
        <time>2017-08-19T10:13:04Z</time>
      </trkpt>
      <trkpt lat="45.93333" lon="4.72524">
        <ele>172</ele>
        <time>2017-08-19T10:13:05Z</time>
      </trkpt>
      <trkpt lat="45.9333" lon="4.72529">
        <ele>172</ele>
        <time>2017-08-19T10:13:06Z</time>
      </trkpt>
      <trkpt lat="45.93326" lon="4.72533">
        <ele>172</ele>
        <time>2017-08-19T10:13:07Z</time>
      </trkpt>
      <trkpt lat="45.9332" lon="4.72542">
        <ele>172</ele>
        <time>2017-08-19T10:13:09Z</time>
      </trkpt>
      <trkpt lat="45.93317" lon="4.72546">
        <ele>172</ele>
        <time>2017-08-19T10:13:10Z</time>
      </trkpt>
      <trkpt lat="45.9331" lon="4.72553">
        <ele>172</ele>
        <time>2017-08-19T10:13:12Z</time>
      </trkpt>
      <trkpt lat="45.93306" lon="4.72557">
        <ele>172</ele>
        <time>2017-08-19T10:13:13Z</time>
      </trkpt>
      <trkpt lat="45.933" lon="4.72566">
        <ele>172</ele>
        <time>2017-08-19T10:13:15Z</time>
      </trkpt>
      <trkpt lat="45.93297" lon="4.72569">
        <ele>172</ele>
        <time>2017-08-19T10:13:16Z</time>
      </trkpt>
      <trkpt lat="45.9329" lon="4.72577">
        <ele>171</ele>
        <time>2017-08-19T10:13:18Z</time>
      </trkpt>
      <trkpt lat="45.93287" lon="4.72581">
        <ele>171</ele>
        <time>2017-08-19T10:13:19Z</time>
      </trkpt>
      <trkpt lat="45.93284" lon="4.72586">
        <ele>170</ele>
        <time>2017-08-19T10:13:20Z</time>
      </trkpt>
      <trkpt lat="45.9328" lon="4.7259">
        <ele>170</ele>
        <time>2017-08-19T10:13:21Z</time>
      </trkpt>
      <trkpt lat="45.93276" lon="4.72595">
        <ele>170</ele>
        <time>2017-08-19T10:13:22Z</time>
      </trkpt>
      <trkpt lat="45.93271" lon="4.726">
        <ele>170</ele>
        <time>2017-08-19T10:13:23Z</time>
      </trkpt>
      <trkpt lat="45.93267" lon="4.72605">
        <ele>170</ele>
        <time>2017-08-19T10:13:24Z</time>
      </trkpt>
      <trkpt lat="45.93262" lon="4.7261">
        <ele>170</ele>
        <time>2017-08-19T10:13:25Z</time>
      </trkpt>
      <trkpt lat="45.93257" lon="4.72616">
        <ele>170</ele>
        <time>2017-08-19T10:13:26Z</time>
      </trkpt>
      <trkpt lat="45.93252" lon="4.72622">
        <ele>170</ele>
        <time>2017-08-19T10:13:27Z</time>
      </trkpt>
      <trkpt lat="45.93247" lon="4.72627">
        <ele>170</ele>
        <time>2017-08-19T10:13:28Z</time>
      </trkpt>
      <trkpt lat="45.93242" lon="4.72633">
        <ele>170</ele>
        <time>2017-08-19T10:13:29Z</time>
      </trkpt>
      <trkpt lat="45.93237" lon="4.72638">
        <ele>170</ele>
        <time>2017-08-19T10:13:30Z</time>
      </trkpt>
      <trkpt lat="45.93232" lon="4.72644">
        <ele>170</ele>
        <time>2017-08-19T10:13:31Z</time>
      </trkpt>
      <trkpt lat="45.93228" lon="4.72649">
        <ele>170</ele>
        <time>2017-08-19T10:13:32Z</time>
      </trkpt>
      <trkpt lat="45.93224" lon="4.72655">
        <ele>170</ele>
        <time>2017-08-19T10:13:33Z</time>
      </trkpt>
      <trkpt lat="45.9322" lon="4.7266">
        <ele>170</ele>
        <time>2017-08-19T10:13:34Z</time>
      </trkpt>
      <trkpt lat="45.93216" lon="4.72665">
        <ele>170</ele>
        <time>2017-08-19T10:13:35Z</time>
      </trkpt>
      <trkpt lat="45.93211" lon="4.7267">
        <ele>169</ele>
        <time>2017-08-19T10:13:36Z</time>
      </trkpt>
      <trkpt lat="45.93207" lon="4.72676">
        <ele>169</ele>
        <time>2017-08-19T10:13:37Z</time>
      </trkpt>
      <trkpt lat="45.93202" lon="4.72682">
        <ele>169</ele>
        <time>2017-08-19T10:13:38Z</time>
      </trkpt>
      <trkpt lat="45.93196" lon="4.72688">
        <ele>169</ele>
        <time>2017-08-19T10:13:39Z</time>
      </trkpt>
      <trkpt lat="45.93191" lon="4.72694">
        <ele>169</ele>
        <time>2017-08-19T10:13:40Z</time>
      </trkpt>
      <trkpt lat="45.93186" lon="4.72699">
        <ele>169</ele>
        <time>2017-08-19T10:13:41Z</time>
      </trkpt>
      <trkpt lat="45.93181" lon="4.72704">
        <ele>169</ele>
        <time>2017-08-19T10:13:42Z</time>
      </trkpt>
      <trkpt lat="45.93175" lon="4.7271">
        <ele>170</ele>
        <time>2017-08-19T10:13:43Z</time>
      </trkpt>
      <trkpt lat="45.9317" lon="4.72715">
        <ele>170</ele>
        <time>2017-08-19T10:13:44Z</time>
      </trkpt>
      <trkpt lat="45.93165" lon="4.72721">
        <ele>170</ele>
        <time>2017-08-19T10:13:45Z</time>
      </trkpt>
      <trkpt lat="45.9316" lon="4.72727">
        <ele>170</ele>
        <time>2017-08-19T10:13:46Z</time>
      </trkpt>
      <trkpt lat="45.93155" lon="4.72732">
        <ele>170</ele>
        <time>2017-08-19T10:13:47Z</time>
      </trkpt>
      <trkpt lat="45.93151" lon="4.72737">
        <ele>170</ele>
        <time>2017-08-19T10:13:48Z</time>
      </trkpt>
      <trkpt lat="45.93146" lon="4.72741">
        <ele>170</ele>
        <time>2017-08-19T10:13:49Z</time>
      </trkpt>
      <trkpt lat="45.93142" lon="4.72746">
        <ele>170</ele>
        <time>2017-08-19T10:13:50Z</time>
      </trkpt>
      <trkpt lat="45.93139" lon="4.7275">
        <ele>171</ele>
        <time>2017-08-19T10:13:51Z</time>
      </trkpt>
      <trkpt lat="45.93135" lon="4.72755">
        <ele>171</ele>
        <time>2017-08-19T10:13:52Z</time>
      </trkpt>
      <trkpt lat="45.93131" lon="4.72759">
        <ele>171</ele>
        <time>2017-08-19T10:13:53Z</time>
      </trkpt>
      <trkpt lat="45.93127" lon="4.72763">
        <ele>171</ele>
        <time>2017-08-19T10:13:54Z</time>
      </trkpt>
      <trkpt lat="45.93124" lon="4.72768">
        <ele>171</ele>
        <time>2017-08-19T10:13:55Z</time>
      </trkpt>
      <trkpt lat="45.93119" lon="4.72773">
        <ele>171</ele>
        <time>2017-08-19T10:13:56Z</time>
      </trkpt>
      <trkpt lat="45.93115" lon="4.72778">
        <ele>171</ele>
        <time>2017-08-19T10:13:57Z</time>
      </trkpt>
      <trkpt lat="45.9311" lon="4.72784">
        <ele>171</ele>
        <time>2017-08-19T10:13:58Z</time>
      </trkpt>
      <trkpt lat="45.93106" lon="4.7279">
        <ele>171</ele>
        <time>2017-08-19T10:13:59Z</time>
      </trkpt>
      <trkpt lat="45.93102" lon="4.72795">
        <ele>171</ele>
        <time>2017-08-19T10:14:00Z</time>
      </trkpt>
      <trkpt lat="45.93098" lon="4.72801">
        <ele>171</ele>
        <time>2017-08-19T10:14:01Z</time>
      </trkpt>
      <trkpt lat="45.93094" lon="4.72805">
        <ele>172</ele>
        <time>2017-08-19T10:14:02Z</time>
      </trkpt>
      <trkpt lat="45.9309" lon="4.7281">
        <ele>172</ele>
        <time>2017-08-19T10:14:03Z</time>
      </trkpt>
      <trkpt lat="45.93085" lon="4.72814">
        <ele>172</ele>
        <time>2017-08-19T10:14:04Z</time>
      </trkpt>
      <trkpt lat="45.93082" lon="4.72819">
        <ele>173</ele>
        <time>2017-08-19T10:14:05Z</time>
      </trkpt>
      <trkpt lat="45.93075" lon="4.72827">
        <ele>173</ele>
        <time>2017-08-19T10:14:07Z</time>
      </trkpt>
      <trkpt lat="45.93072" lon="4.72831">
        <ele>173</ele>
        <time>2017-08-19T10:14:08Z</time>
      </trkpt>
      <trkpt lat="45.93066" lon="4.72837">
        <ele>173</ele>
        <time>2017-08-19T10:14:10Z</time>
      </trkpt>
      <trkpt lat="45.93061" lon="4.72843">
        <ele>172</ele>
        <time>2017-08-19T10:14:11Z</time>
      </trkpt>
      <trkpt lat="45.93058" lon="4.7285">
        <ele>172</ele>
        <time>2017-08-19T10:14:12Z</time>
      </trkpt>
      <trkpt lat="45.93053" lon="4.72856">
        <ele>172</ele>
        <time>2017-08-19T10:14:13Z</time>
      </trkpt>
      <trkpt lat="45.93048" lon="4.72858">
        <ele>172</ele>
        <time>2017-08-19T10:14:14Z</time>
      </trkpt>
      <trkpt lat="45.93044" lon="4.72859">
        <ele>172</ele>
        <time>2017-08-19T10:14:15Z</time>
      </trkpt>
      <trkpt lat="45.9304" lon="4.72862">
        <ele>172</ele>
        <time>2017-08-19T10:14:16Z</time>
      </trkpt>
      <trkpt lat="45.93036" lon="4.72868">
        <ele>172</ele>
        <time>2017-08-19T10:14:17Z</time>
      </trkpt>
      <trkpt lat="45.93033" lon="4.72874">
        <ele>172</ele>
        <time>2017-08-19T10:14:18Z</time>
      </trkpt>
      <trkpt lat="45.93028" lon="4.72879">
        <ele>172</ele>
        <time>2017-08-19T10:14:19Z</time>
      </trkpt>
      <trkpt lat="45.93024" lon="4.72884">
        <ele>172</ele>
        <time>2017-08-19T10:14:20Z</time>
      </trkpt>
      <trkpt lat="45.93019" lon="4.72889">
        <ele>172</ele>
        <time>2017-08-19T10:14:21Z</time>
      </trkpt>
      <trkpt lat="45.93015" lon="4.72895">
        <ele>172</ele>
        <time>2017-08-19T10:14:22Z</time>
      </trkpt>
      <trkpt lat="45.93011" lon="4.729">
        <ele>172</ele>
        <time>2017-08-19T10:14:23Z</time>
      </trkpt>
      <trkpt lat="45.93005" lon="4.72906">
        <ele>171</ele>
        <time>2017-08-19T10:14:24Z</time>
      </trkpt>
      <trkpt lat="45.93001" lon="4.72912">
        <ele>171</ele>
        <time>2017-08-19T10:14:25Z</time>
      </trkpt>
      <trkpt lat="45.92997" lon="4.72917">
        <ele>171</ele>
        <time>2017-08-19T10:14:26Z</time>
      </trkpt>
      <trkpt lat="45.92992" lon="4.72922">
        <ele>171</ele>
        <time>2017-08-19T10:14:27Z</time>
      </trkpt>
      <trkpt lat="45.92988" lon="4.72927">
        <ele>171</ele>
        <time>2017-08-19T10:14:28Z</time>
      </trkpt>
      <trkpt lat="45.92984" lon="4.72932">
        <ele>171</ele>
        <time>2017-08-19T10:14:29Z</time>
      </trkpt>
      <trkpt lat="45.9298" lon="4.72937">
        <ele>171</ele>
        <time>2017-08-19T10:14:30Z</time>
      </trkpt>
      <trkpt lat="45.92976" lon="4.72941">
        <ele>171</ele>
        <time>2017-08-19T10:14:31Z</time>
      </trkpt>
      <trkpt lat="45.92972" lon="4.72946">
        <ele>171</ele>
        <time>2017-08-19T10:14:32Z</time>
      </trkpt>
      <trkpt lat="45.92969" lon="4.72951">
        <ele>171</ele>
        <time>2017-08-19T10:14:33Z</time>
      </trkpt>
      <trkpt lat="45.92964" lon="4.72955">
        <ele>171</ele>
        <time>2017-08-19T10:14:34Z</time>
      </trkpt>
      <trkpt lat="45.9296" lon="4.7296">
        <ele>171</ele>
        <time>2017-08-19T10:14:35Z</time>
      </trkpt>
      <trkpt lat="45.92956" lon="4.72965">
        <ele>171</ele>
        <time>2017-08-19T10:14:36Z</time>
      </trkpt>
      <trkpt lat="45.92952" lon="4.7297">
        <ele>171</ele>
        <time>2017-08-19T10:14:37Z</time>
      </trkpt>
      <trkpt lat="45.92947" lon="4.72976">
        <ele>171</ele>
        <time>2017-08-19T10:14:38Z</time>
      </trkpt>
      <trkpt lat="45.92943" lon="4.72981">
        <ele>171</ele>
        <time>2017-08-19T10:14:39Z</time>
      </trkpt>
      <trkpt lat="45.92938" lon="4.72987">
        <ele>171</ele>
        <time>2017-08-19T10:14:40Z</time>
      </trkpt>
      <trkpt lat="45.92934" lon="4.72993">
        <ele>172</ele>
        <time>2017-08-19T10:14:41Z</time>
      </trkpt>
      <trkpt lat="45.9293" lon="4.72998">
        <ele>172</ele>
        <time>2017-08-19T10:14:42Z</time>
      </trkpt>
      <trkpt lat="45.92925" lon="4.73003">
        <ele>172</ele>
        <time>2017-08-19T10:14:43Z</time>
      </trkpt>
      <trkpt lat="45.92921" lon="4.73008">
        <ele>172</ele>
        <time>2017-08-19T10:14:44Z</time>
      </trkpt>
      <trkpt lat="45.92917" lon="4.73013">
        <ele>172</ele>
        <time>2017-08-19T10:14:45Z</time>
      </trkpt>
      <trkpt lat="45.92914" lon="4.73017">
        <ele>172</ele>
        <time>2017-08-19T10:14:46Z</time>
      </trkpt>
      <trkpt lat="45.9291" lon="4.73021">
        <ele>172</ele>
        <time>2017-08-19T10:14:47Z</time>
      </trkpt>
      <trkpt lat="45.92906" lon="4.73025">
        <ele>172</ele>
        <time>2017-08-19T10:14:48Z</time>
      </trkpt>
      <trkpt lat="45.92903" lon="4.7303">
        <ele>172</ele>
        <time>2017-08-19T10:14:49Z</time>
      </trkpt>
      <trkpt lat="45.92899" lon="4.73035">
        <ele>172</ele>
        <time>2017-08-19T10:14:50Z</time>
      </trkpt>
      <trkpt lat="45.92896" lon="4.73041">
        <ele>172</ele>
        <time>2017-08-19T10:14:51Z</time>
      </trkpt>
      <trkpt lat="45.92892" lon="4.73046">
        <ele>172</ele>
        <time>2017-08-19T10:14:52Z</time>
      </trkpt>
      <trkpt lat="45.92888" lon="4.73051">
        <ele>172</ele>
        <time>2017-08-19T10:14:53Z</time>
      </trkpt>
      <trkpt lat="45.92885" lon="4.73057">
        <ele>172</ele>
        <time>2017-08-19T10:14:54Z</time>
      </trkpt>
      <trkpt lat="45.92881" lon="4.73062">
        <ele>172</ele>
        <time>2017-08-19T10:14:55Z</time>
      </trkpt>
      <trkpt lat="45.92877" lon="4.73067">
        <ele>172</ele>
        <time>2017-08-19T10:14:56Z</time>
      </trkpt>
      <trkpt lat="45.92874" lon="4.73072">
        <ele>172</ele>
        <time>2017-08-19T10:14:57Z</time>
      </trkpt>
      <trkpt lat="45.9287" lon="4.73077">
        <ele>172</ele>
        <time>2017-08-19T10:14:58Z</time>
      </trkpt>
      <trkpt lat="45.92867" lon="4.73081">
        <ele>172</ele>
        <time>2017-08-19T10:14:59Z</time>
      </trkpt>
      <trkpt lat="45.92863" lon="4.73086">
        <ele>171</ele>
        <time>2017-08-19T10:15:00Z</time>
      </trkpt>
      <trkpt lat="45.92859" lon="4.73091">
        <ele>171</ele>
        <time>2017-08-19T10:15:01Z</time>
      </trkpt>
      <trkpt lat="45.92855" lon="4.73096">
        <ele>171</ele>
        <time>2017-08-19T10:15:02Z</time>
      </trkpt>
      <trkpt lat="45.92851" lon="4.731">
        <ele>171</ele>
        <time>2017-08-19T10:15:03Z</time>
      </trkpt>
      <trkpt lat="45.92844" lon="4.73103">
        <ele>171</ele>
        <time>2017-08-19T10:15:05Z</time>
      </trkpt>
      <trkpt lat="45.92842" lon="4.73098">
        <ele>171</ele>
        <time>2017-08-19T10:15:06Z</time>
      </trkpt>
      <trkpt lat="45.92842" lon="4.73086">
        <ele>171</ele>
        <time>2017-08-19T10:15:08Z</time>
      </trkpt>
      <trkpt lat="45.92841" lon="4.73078">
        <ele>171</ele>
        <time>2017-08-19T10:15:09Z</time>
      </trkpt>
      <trkpt lat="45.9284" lon="4.7307">
        <ele>171</ele>
        <time>2017-08-19T10:15:10Z</time>
      </trkpt>
      <trkpt lat="45.9284" lon="4.73062">
        <ele>171</ele>
        <time>2017-08-19T10:15:11Z</time>
      </trkpt>
      <trkpt lat="45.92839" lon="4.73054">
        <ele>171</ele>
        <time>2017-08-19T10:15:12Z</time>
      </trkpt>
      <trkpt lat="45.92838" lon="4.73046">
        <ele>171</ele>
        <time>2017-08-19T10:15:13Z</time>
      </trkpt>
      <trkpt lat="45.92837" lon="4.73039">
        <ele>171</ele>
        <time>2017-08-19T10:15:14Z</time>
      </trkpt>
      <trkpt lat="45.92837" lon="4.73031">
        <ele>171</ele>
        <time>2017-08-19T10:15:15Z</time>
      </trkpt>
      <trkpt lat="45.92836" lon="4.73024">
        <ele>171</ele>
        <time>2017-08-19T10:15:16Z</time>
      </trkpt>
      <trkpt lat="45.92835" lon="4.73016">
        <ele>171</ele>
        <time>2017-08-19T10:15:17Z</time>
      </trkpt>
      <trkpt lat="45.92834" lon="4.73009">
        <ele>170</ele>
        <time>2017-08-19T10:15:18Z</time>
      </trkpt>
      <trkpt lat="45.92833" lon="4.73001">
        <ele>170</ele>
        <time>2017-08-19T10:15:19Z</time>
      </trkpt>
      <trkpt lat="45.92833" lon="4.72993">
        <ele>170</ele>
        <time>2017-08-19T10:15:20Z</time>
      </trkpt>
      <trkpt lat="45.92833" lon="4.72985">
        <ele>170</ele>
        <time>2017-08-19T10:15:21Z</time>
      </trkpt>
      <trkpt lat="45.92832" lon="4.72977">
        <ele>170</ele>
        <time>2017-08-19T10:15:22Z</time>
      </trkpt>
      <trkpt lat="45.92832" lon="4.72968">
        <ele>170</ele>
        <time>2017-08-19T10:15:23Z</time>
      </trkpt>
      <trkpt lat="45.92831" lon="4.72959">
        <ele>170</ele>
        <time>2017-08-19T10:15:24Z</time>
      </trkpt>
      <trkpt lat="45.92831" lon="4.7295">
        <ele>170</ele>
        <time>2017-08-19T10:15:25Z</time>
      </trkpt>
      <trkpt lat="45.9283" lon="4.72942">
        <ele>170</ele>
        <time>2017-08-19T10:15:26Z</time>
      </trkpt>
      <trkpt lat="45.92829" lon="4.72934">
        <ele>170</ele>
        <time>2017-08-19T10:15:27Z</time>
      </trkpt>
      <trkpt lat="45.92828" lon="4.72926">
        <ele>170</ele>
        <time>2017-08-19T10:15:28Z</time>
      </trkpt>
      <trkpt lat="45.92827" lon="4.72919">
        <ele>170</ele>
        <time>2017-08-19T10:15:29Z</time>
      </trkpt>
      <trkpt lat="45.92826" lon="4.72912">
        <ele>170</ele>
        <time>2017-08-19T10:15:30Z</time>
      </trkpt>
      <trkpt lat="45.92825" lon="4.72905">
        <ele>170</ele>
        <time>2017-08-19T10:15:31Z</time>
      </trkpt>
      <trkpt lat="45.92825" lon="4.72898">
        <ele>170</ele>
        <time>2017-08-19T10:15:32Z</time>
      </trkpt>
      <trkpt lat="45.92824" lon="4.7289">
        <ele>170</ele>
        <time>2017-08-19T10:15:33Z</time>
      </trkpt>
      <trkpt lat="45.92822" lon="4.72884">
        <ele>170</ele>
        <time>2017-08-19T10:15:34Z</time>
      </trkpt>
      <trkpt lat="45.92821" lon="4.72876">
        <ele>170</ele>
        <time>2017-08-19T10:15:35Z</time>
      </trkpt>
      <trkpt lat="45.92819" lon="4.72869">
        <ele>170</ele>
        <time>2017-08-19T10:15:36Z</time>
      </trkpt>
      <trkpt lat="45.92818" lon="4.72861">
        <ele>170</ele>
        <time>2017-08-19T10:15:37Z</time>
      </trkpt>
      <trkpt lat="45.92817" lon="4.72854">
        <ele>170</ele>
        <time>2017-08-19T10:15:38Z</time>
      </trkpt>
      <trkpt lat="45.92815" lon="4.72846">
        <ele>170</ele>
        <time>2017-08-19T10:15:39Z</time>
      </trkpt>
      <trkpt lat="45.92814" lon="4.72839">
        <ele>170</ele>
        <time>2017-08-19T10:15:40Z</time>
      </trkpt>
      <trkpt lat="45.92813" lon="4.72831">
        <ele>171</ele>
        <time>2017-08-19T10:15:41Z</time>
      </trkpt>
      <trkpt lat="45.92811" lon="4.72824">
        <ele>171</ele>
        <time>2017-08-19T10:15:42Z</time>
      </trkpt>
      <trkpt lat="45.9281" lon="4.72816">
        <ele>171</ele>
        <time>2017-08-19T10:15:43Z</time>
      </trkpt>
      <trkpt lat="45.92809" lon="4.72809">
        <ele>171</ele>
        <time>2017-08-19T10:15:44Z</time>
      </trkpt>
      <trkpt lat="45.92808" lon="4.72802">
        <ele>171</ele>
        <time>2017-08-19T10:15:45Z</time>
      </trkpt>
      <trkpt lat="45.92807" lon="4.72796">
        <ele>171</ele>
        <time>2017-08-19T10:15:46Z</time>
      </trkpt>
      <trkpt lat="45.92803" lon="4.72791">
        <ele>171</ele>
        <time>2017-08-19T10:15:47Z</time>
      </trkpt>
      <trkpt lat="45.92795" lon="4.7279">
        <ele>171</ele>
        <time>2017-08-19T10:15:48Z</time>
      </trkpt>
      <trkpt lat="45.92788" lon="4.72792">
        <ele>170</ele>
        <time>2017-08-19T10:15:49Z</time>
      </trkpt>
      <trkpt lat="45.92782" lon="4.72794">
        <ele>170</ele>
        <time>2017-08-19T10:15:50Z</time>
      </trkpt>
      <trkpt lat="45.92777" lon="4.72796">
        <ele>170</ele>
        <time>2017-08-19T10:15:51Z</time>
      </trkpt>
      <trkpt lat="45.92771" lon="4.72798">
        <ele>170</ele>
        <time>2017-08-19T10:15:52Z</time>
      </trkpt>
      <trkpt lat="45.92766" lon="4.72801">
        <ele>170</ele>
        <time>2017-08-19T10:15:53Z</time>
      </trkpt>
      <trkpt lat="45.92761" lon="4.72804">
        <ele>170</ele>
        <time>2017-08-19T10:15:54Z</time>
      </trkpt>
      <trkpt lat="45.92755" lon="4.72808">
        <ele>170</ele>
        <time>2017-08-19T10:15:55Z</time>
      </trkpt>
      <trkpt lat="45.9275" lon="4.72812">
        <ele>170</ele>
        <time>2017-08-19T10:15:56Z</time>
      </trkpt>
      <trkpt lat="45.92745" lon="4.72815">
        <ele>170</ele>
        <time>2017-08-19T10:15:57Z</time>
      </trkpt>
      <trkpt lat="45.9274" lon="4.72819">
        <ele>170</ele>
        <time>2017-08-19T10:15:58Z</time>
      </trkpt>
      <trkpt lat="45.92736" lon="4.72823">
        <ele>170</ele>
        <time>2017-08-19T10:15:59Z</time>
      </trkpt>
      <trkpt lat="45.92732" lon="4.72826">
        <ele>170</ele>
        <time>2017-08-19T10:16:00Z</time>
      </trkpt>
      <trkpt lat="45.92727" lon="4.7283">
        <ele>170</ele>
        <time>2017-08-19T10:16:01Z</time>
      </trkpt>
      <trkpt lat="45.92722" lon="4.72834">
        <ele>169</ele>
        <time>2017-08-19T10:16:02Z</time>
      </trkpt>
      <trkpt lat="45.92718" lon="4.72837">
        <ele>169</ele>
        <time>2017-08-19T10:16:03Z</time>
      </trkpt>
      <trkpt lat="45.92713" lon="4.72841">
        <ele>169</ele>
        <time>2017-08-19T10:16:04Z</time>
      </trkpt>
      <trkpt lat="45.92708" lon="4.72845">
        <ele>169</ele>
        <time>2017-08-19T10:16:05Z</time>
      </trkpt>
      <trkpt lat="45.92703" lon="4.7285">
        <ele>169</ele>
        <time>2017-08-19T10:16:06Z</time>
      </trkpt>
      <trkpt lat="45.92697" lon="4.72854">
        <ele>169</ele>
        <time>2017-08-19T10:16:07Z</time>
      </trkpt>
      <trkpt lat="45.92692" lon="4.72859">
        <ele>169</ele>
        <time>2017-08-19T10:16:08Z</time>
      </trkpt>
      <trkpt lat="45.92686" lon="4.72864">
        <ele>169</ele>
        <time>2017-08-19T10:16:09Z</time>
      </trkpt>
      <trkpt lat="45.92681" lon="4.72868">
        <ele>169</ele>
        <time>2017-08-19T10:16:10Z</time>
      </trkpt>
      <trkpt lat="45.92676" lon="4.72873">
        <ele>169</ele>
        <time>2017-08-19T10:16:11Z</time>
      </trkpt>
      <trkpt lat="45.92671" lon="4.72877">
        <ele>170</ele>
        <time>2017-08-19T10:16:12Z</time>
      </trkpt>
      <trkpt lat="45.92666" lon="4.72881">
        <ele>169</ele>
        <time>2017-08-19T10:16:13Z</time>
      </trkpt>
      <trkpt lat="45.9266" lon="4.72885">
        <ele>169</ele>
        <time>2017-08-19T10:16:14Z</time>
      </trkpt>
      <trkpt lat="45.92656" lon="4.72889">
        <ele>169</ele>
        <time>2017-08-19T10:16:15Z</time>
      </trkpt>
      <trkpt lat="45.92651" lon="4.72893">
        <ele>169</ele>
        <time>2017-08-19T10:16:16Z</time>
      </trkpt>
      <trkpt lat="45.92647" lon="4.72896">
        <ele>169</ele>
        <time>2017-08-19T10:16:17Z</time>
      </trkpt>
      <trkpt lat="45.92643" lon="4.72899">
        <ele>169</ele>
        <time>2017-08-19T10:16:18Z</time>
      </trkpt>
      <trkpt lat="45.92639" lon="4.72903">
        <ele>169</ele>
        <time>2017-08-19T10:16:19Z</time>
      </trkpt>
      <trkpt lat="45.92634" lon="4.72906">
        <ele>169</ele>
        <time>2017-08-19T10:16:20Z</time>
      </trkpt>
      <trkpt lat="45.9263" lon="4.7291">
        <ele>169</ele>
        <time>2017-08-19T10:16:21Z</time>
      </trkpt>
      <trkpt lat="45.92626" lon="4.72913">
        <ele>169</ele>
        <time>2017-08-19T10:16:22Z</time>
      </trkpt>
      <trkpt lat="45.92622" lon="4.72916">
        <ele>169</ele>
        <time>2017-08-19T10:16:23Z</time>
      </trkpt>
      <trkpt lat="45.92618" lon="4.72919">
        <ele>169</ele>
        <time>2017-08-19T10:16:24Z</time>
      </trkpt>
      <trkpt lat="45.92613" lon="4.72923">
        <ele>169</ele>
        <time>2017-08-19T10:16:25Z</time>
      </trkpt>
      <trkpt lat="45.92608" lon="4.72928">
        <ele>169</ele>
        <time>2017-08-19T10:16:26Z</time>
      </trkpt>
      <trkpt lat="45.92603" lon="4.72933">
        <ele>169</ele>
        <time>2017-08-19T10:16:27Z</time>
      </trkpt>
      <trkpt lat="45.92598" lon="4.72939">
        <ele>169</ele>
        <time>2017-08-19T10:16:28Z</time>
      </trkpt>
      <trkpt lat="45.92593" lon="4.72944">
        <ele>169</ele>
        <time>2017-08-19T10:16:29Z</time>
      </trkpt>
      <trkpt lat="45.92588" lon="4.7295">
        <ele>169</ele>
        <time>2017-08-19T10:16:30Z</time>
      </trkpt>
      <trkpt lat="45.92584" lon="4.72955">
        <ele>169</ele>
        <time>2017-08-19T10:16:31Z</time>
      </trkpt>
      <trkpt lat="45.92579" lon="4.7296">
        <ele>169</ele>
        <time>2017-08-19T10:16:32Z</time>
      </trkpt>
      <trkpt lat="45.92575" lon="4.72966">
        <ele>169</ele>
        <time>2017-08-19T10:16:33Z</time>
      </trkpt>
      <trkpt lat="45.9257" lon="4.72971">
        <ele>169</ele>
        <time>2017-08-19T10:16:34Z</time>
      </trkpt>
      <trkpt lat="45.92566" lon="4.72975">
        <ele>169</ele>
        <time>2017-08-19T10:16:35Z</time>
      </trkpt>
      <trkpt lat="45.92561" lon="4.72979">
        <ele>169</ele>
        <time>2017-08-19T10:16:36Z</time>
      </trkpt>
      <trkpt lat="45.92557" lon="4.72984">
        <ele>169</ele>
        <time>2017-08-19T10:16:37Z</time>
      </trkpt>
      <trkpt lat="45.92552" lon="4.72989">
        <ele>169</ele>
        <time>2017-08-19T10:16:38Z</time>
      </trkpt>
      <trkpt lat="45.92547" lon="4.72995">
        <ele>169</ele>
        <time>2017-08-19T10:16:39Z</time>
      </trkpt>
      <trkpt lat="45.92542" lon="4.73">
        <ele>169</ele>
        <time>2017-08-19T10:16:40Z</time>
      </trkpt>
      <trkpt lat="45.92537" lon="4.73005">
        <ele>169</ele>
        <time>2017-08-19T10:16:41Z</time>
      </trkpt>
      <trkpt lat="45.92531" lon="4.7301">
        <ele>169</ele>
        <time>2017-08-19T10:16:42Z</time>
      </trkpt>
      <trkpt lat="45.92526" lon="4.73015">
        <ele>169</ele>
        <time>2017-08-19T10:16:43Z</time>
      </trkpt>
      <trkpt lat="45.92521" lon="4.7302">
        <ele>169</ele>
        <time>2017-08-19T10:16:44Z</time>
      </trkpt>
      <trkpt lat="45.92516" lon="4.73025">
        <ele>169</ele>
        <time>2017-08-19T10:16:45Z</time>
      </trkpt>
      <trkpt lat="45.92511" lon="4.7303">
        <ele>169</ele>
        <time>2017-08-19T10:16:46Z</time>
      </trkpt>
      <trkpt lat="45.92506" lon="4.73035">
        <ele>169</ele>
        <time>2017-08-19T10:16:47Z</time>
      </trkpt>
      <trkpt lat="45.92502" lon="4.73038">
        <ele>169</ele>
        <time>2017-08-19T10:16:48Z</time>
      </trkpt>
      <trkpt lat="45.92497" lon="4.73042">
        <ele>170</ele>
        <time>2017-08-19T10:16:49Z</time>
      </trkpt>
      <trkpt lat="45.92493" lon="4.73045">
        <ele>170</ele>
        <time>2017-08-19T10:16:50Z</time>
      </trkpt>
      <trkpt lat="45.92489" lon="4.73049">
        <ele>170</ele>
        <time>2017-08-19T10:16:51Z</time>
      </trkpt>
      <trkpt lat="45.92485" lon="4.73052">
        <ele>170</ele>
        <time>2017-08-19T10:16:52Z</time>
      </trkpt>
      <trkpt lat="45.92481" lon="4.73057">
        <ele>170</ele>
        <time>2017-08-19T10:16:53Z</time>
      </trkpt>
      <trkpt lat="45.92476" lon="4.73061">
        <ele>170</ele>
        <time>2017-08-19T10:16:54Z</time>
      </trkpt>
      <trkpt lat="45.92472" lon="4.73065">
        <ele>170</ele>
        <time>2017-08-19T10:16:55Z</time>
      </trkpt>
      <trkpt lat="45.92467" lon="4.73068">
        <ele>170</ele>
        <time>2017-08-19T10:16:56Z</time>
      </trkpt>
      <trkpt lat="45.92462" lon="4.73072">
        <ele>170</ele>
        <time>2017-08-19T10:16:57Z</time>
      </trkpt>
      <trkpt lat="45.92458" lon="4.73076">
        <ele>170</ele>
        <time>2017-08-19T10:16:58Z</time>
      </trkpt>
      <trkpt lat="45.92454" lon="4.7308">
        <ele>170</ele>
        <time>2017-08-19T10:16:59Z</time>
      </trkpt>
      <trkpt lat="45.9245" lon="4.73083">
        <ele>170</ele>
        <time>2017-08-19T10:17:00Z</time>
      </trkpt>
      <trkpt lat="45.92445" lon="4.73087">
        <ele>170</ele>
        <time>2017-08-19T10:17:01Z</time>
      </trkpt>
      <trkpt lat="45.92441" lon="4.7309">
        <ele>171</ele>
        <time>2017-08-19T10:17:02Z</time>
      </trkpt>
      <trkpt lat="45.92437" lon="4.73094">
        <ele>171</ele>
        <time>2017-08-19T10:17:03Z</time>
      </trkpt>
      <trkpt lat="45.92433" lon="4.73097">
        <ele>171</ele>
        <time>2017-08-19T10:17:04Z</time>
      </trkpt>
      <trkpt lat="45.9243" lon="4.73101">
        <ele>171</ele>
        <time>2017-08-19T10:17:05Z</time>
      </trkpt>
      <trkpt lat="45.92422" lon="4.73107">
        <ele>171</ele>
        <time>2017-08-19T10:17:07Z</time>
      </trkpt>
      <trkpt lat="45.92418" lon="4.73109">
        <ele>170</ele>
        <time>2017-08-19T10:17:08Z</time>
      </trkpt>
      <trkpt lat="45.92414" lon="4.73113">
        <ele>171</ele>
        <time>2017-08-19T10:17:09Z</time>
      </trkpt>
      <trkpt lat="45.9241" lon="4.73117">
        <ele>171</ele>
        <time>2017-08-19T10:17:10Z</time>
      </trkpt>
      <trkpt lat="45.92407" lon="4.73123">
        <ele>171</ele>
        <time>2017-08-19T10:17:11Z</time>
      </trkpt>
      <trkpt lat="45.92405" lon="4.7313">
        <ele>171</ele>
        <time>2017-08-19T10:17:12Z</time>
      </trkpt>
      <trkpt lat="45.92405" lon="4.73139">
        <ele>171</ele>
        <time>2017-08-19T10:17:13Z</time>
      </trkpt>
      <trkpt lat="45.92405" lon="4.73147">
        <ele>171</ele>
        <time>2017-08-19T10:17:14Z</time>
      </trkpt>
      <trkpt lat="45.92405" lon="4.73154">
        <ele>171</ele>
        <time>2017-08-19T10:17:15Z</time>
      </trkpt>
      <trkpt lat="45.92404" lon="4.73162">
        <ele>170</ele>
        <time>2017-08-19T10:17:16Z</time>
      </trkpt>
      <trkpt lat="45.92404" lon="4.73168">
        <ele>171</ele>
        <time>2017-08-19T10:17:17Z</time>
      </trkpt>
      <trkpt lat="45.92404" lon="4.73175">
        <ele>171</ele>
        <time>2017-08-19T10:17:18Z</time>
      </trkpt>
      <trkpt lat="45.92405" lon="4.73182">
        <ele>171</ele>
        <time>2017-08-19T10:17:19Z</time>
      </trkpt>
      <trkpt lat="45.92405" lon="4.73189">
        <ele>171</ele>
        <time>2017-08-19T10:17:20Z</time>
      </trkpt>
      <trkpt lat="45.92406" lon="4.73201">
        <ele>171</ele>
        <time>2017-08-19T10:17:22Z</time>
      </trkpt>
      <trkpt lat="45.92406" lon="4.73208">
        <ele>171</ele>
        <time>2017-08-19T10:17:23Z</time>
      </trkpt>
      <trkpt lat="45.92407" lon="4.73221">
        <ele>171</ele>
        <time>2017-08-19T10:17:25Z</time>
      </trkpt>
      <trkpt lat="45.92408" lon="4.73228">
        <ele>171</ele>
        <time>2017-08-19T10:17:26Z</time>
      </trkpt>
      <trkpt lat="45.92409" lon="4.73235">
        <ele>171</ele>
        <time>2017-08-19T10:17:27Z</time>
      </trkpt>
      <trkpt lat="45.92409" lon="4.73242">
        <ele>171</ele>
        <time>2017-08-19T10:17:28Z</time>
      </trkpt>
      <trkpt lat="45.9241" lon="4.7325">
        <ele>171</ele>
        <time>2017-08-19T10:17:29Z</time>
      </trkpt>
      <trkpt lat="45.92411" lon="4.73258">
        <ele>171</ele>
        <time>2017-08-19T10:17:30Z</time>
      </trkpt>
      <trkpt lat="45.92412" lon="4.73266">
        <ele>171</ele>
        <time>2017-08-19T10:17:31Z</time>
      </trkpt>
      <trkpt lat="45.92413" lon="4.73274">
        <ele>171</ele>
        <time>2017-08-19T10:17:32Z</time>
      </trkpt>
      <trkpt lat="45.92413" lon="4.73282">
        <ele>171</ele>
        <time>2017-08-19T10:17:33Z</time>
      </trkpt>
      <trkpt lat="45.92414" lon="4.73289">
        <ele>171</ele>
        <time>2017-08-19T10:17:34Z</time>
      </trkpt>
      <trkpt lat="45.92414" lon="4.73296">
        <ele>171</ele>
        <time>2017-08-19T10:17:35Z</time>
      </trkpt>
      <trkpt lat="45.92415" lon="4.73303">
        <ele>171</ele>
        <time>2017-08-19T10:17:36Z</time>
      </trkpt>
      <trkpt lat="45.92416" lon="4.7331">
        <ele>171</ele>
        <time>2017-08-19T10:17:37Z</time>
      </trkpt>
      <trkpt lat="45.92416" lon="4.73317">
        <ele>171</ele>
        <time>2017-08-19T10:17:38Z</time>
      </trkpt>
      <trkpt lat="45.92417" lon="4.73325">
        <ele>171</ele>
        <time>2017-08-19T10:17:39Z</time>
      </trkpt>
      <trkpt lat="45.92417" lon="4.73332">
        <ele>171</ele>
        <time>2017-08-19T10:17:40Z</time>
      </trkpt>
      <trkpt lat="45.92418" lon="4.7334">
        <ele>171</ele>
        <time>2017-08-19T10:17:41Z</time>
      </trkpt>
      <trkpt lat="45.92419" lon="4.73347">
        <ele>171</ele>
        <time>2017-08-19T10:17:42Z</time>
      </trkpt>
      <trkpt lat="45.9242" lon="4.73354">
        <ele>171</ele>
        <time>2017-08-19T10:17:43Z</time>
      </trkpt>
      <trkpt lat="45.92421" lon="4.73361">
        <ele>172</ele>
        <time>2017-08-19T10:17:44Z</time>
      </trkpt>
      <trkpt lat="45.92423" lon="4.73373">
        <ele>172</ele>
        <time>2017-08-19T10:17:46Z</time>
      </trkpt>
      <trkpt lat="45.92424" lon="4.73379">
        <ele>172</ele>
        <time>2017-08-19T10:17:47Z</time>
      </trkpt>
      <trkpt lat="45.92426" lon="4.7339">
        <ele>172</ele>
        <time>2017-08-19T10:17:49Z</time>
      </trkpt>
      <trkpt lat="45.92427" lon="4.73396">
        <ele>172</ele>
        <time>2017-08-19T10:17:50Z</time>
      </trkpt>
      <trkpt lat="45.9243" lon="4.73402">
        <ele>172</ele>
        <time>2017-08-19T10:17:51Z</time>
      </trkpt>
      <trkpt lat="45.92433" lon="4.73407">
        <ele>172</ele>
        <time>2017-08-19T10:17:52Z</time>
      </trkpt>
      <trkpt lat="45.92436" lon="4.73411">
        <ele>172</ele>
        <time>2017-08-19T10:17:53Z</time>
      </trkpt>
      <trkpt lat="45.92441" lon="4.73416">
        <ele>172</ele>
        <time>2017-08-19T10:17:54Z</time>
      </trkpt>
      <trkpt lat="45.92449" lon="4.73422">
        <ele>173</ele>
        <time>2017-08-19T10:17:56Z</time>
      </trkpt>
      <trkpt lat="45.92452" lon="4.73424">
        <ele>173</ele>
        <time>2017-08-19T10:17:57Z</time>
      </trkpt>
      <trkpt lat="45.92458" lon="4.73432">
        <ele>173</ele>
        <time>2017-08-19T10:17:59Z</time>
      </trkpt>
      <trkpt lat="45.9246" lon="4.73437">
        <ele>173</ele>
        <time>2017-08-19T10:18:00Z</time>
      </trkpt>
      <trkpt lat="45.92464" lon="4.73443">
        <ele>173</ele>
        <time>2017-08-19T10:18:01Z</time>
      </trkpt>
      <trkpt lat="45.92466" lon="4.7345">
        <ele>173</ele>
        <time>2017-08-19T10:18:02Z</time>
      </trkpt>
      <trkpt lat="45.92467" lon="4.73457">
        <ele>173</ele>
        <time>2017-08-19T10:18:03Z</time>
      </trkpt>
      <trkpt lat="45.92467" lon="4.73466">
        <ele>173</ele>
        <time>2017-08-19T10:18:04Z</time>
      </trkpt>
      <trkpt lat="45.92468" lon="4.73474">
        <ele>173</ele>
        <time>2017-08-19T10:18:05Z</time>
      </trkpt>
      <trkpt lat="45.92467" lon="4.73483">
        <ele>173</ele>
        <time>2017-08-19T10:18:06Z</time>
      </trkpt>
      <trkpt lat="45.92467" lon="4.73491">
        <ele>173</ele>
        <time>2017-08-19T10:18:07Z</time>
      </trkpt>
      <trkpt lat="45.92467" lon="4.73499">
        <ele>173</ele>
        <time>2017-08-19T10:18:08Z</time>
      </trkpt>
      <trkpt lat="45.92468" lon="4.73507">
        <ele>174</ele>
        <time>2017-08-19T10:18:09Z</time>
      </trkpt>
      <trkpt lat="45.92468" lon="4.73514">
        <ele>174</ele>
        <time>2017-08-19T10:18:10Z</time>
      </trkpt>
      <trkpt lat="45.92468" lon="4.7352">
        <ele>174</ele>
        <time>2017-08-19T10:18:11Z</time>
      </trkpt>
      <trkpt lat="45.92467" lon="4.73527">
        <ele>174</ele>
        <time>2017-08-19T10:18:12Z</time>
      </trkpt>
      <trkpt lat="45.92466" lon="4.73538">
        <ele>174</ele>
        <time>2017-08-19T10:18:14Z</time>
      </trkpt>
      <trkpt lat="45.92465" lon="4.73544">
        <ele>173</ele>
        <time>2017-08-19T10:18:15Z</time>
      </trkpt>
      <trkpt lat="45.92465" lon="4.73554">
        <ele>173</ele>
        <time>2017-08-19T10:18:17Z</time>
      </trkpt>
      <trkpt lat="45.92465" lon="4.73561">
        <ele>173</ele>
        <time>2017-08-19T10:18:18Z</time>
      </trkpt>
      <trkpt lat="45.92465" lon="4.73568">
        <ele>173</ele>
        <time>2017-08-19T10:18:19Z</time>
      </trkpt>
      <trkpt lat="45.92464" lon="4.73575">
        <ele>173</ele>
        <time>2017-08-19T10:18:20Z</time>
      </trkpt>
      <trkpt lat="45.92465" lon="4.73583">
        <ele>173</ele>
        <time>2017-08-19T10:18:21Z</time>
      </trkpt>
      <trkpt lat="45.92465" lon="4.73591">
        <ele>174</ele>
        <time>2017-08-19T10:18:22Z</time>
      </trkpt>
      <trkpt lat="45.92465" lon="4.73599">
        <ele>174</ele>
        <time>2017-08-19T10:18:23Z</time>
      </trkpt>
      <trkpt lat="45.92465" lon="4.73607">
        <ele>174</ele>
        <time>2017-08-19T10:18:24Z</time>
      </trkpt>
      <trkpt lat="45.92466" lon="4.73614">
        <ele>174</ele>
        <time>2017-08-19T10:18:25Z</time>
      </trkpt>
      <trkpt lat="45.92466" lon="4.73622">
        <ele>174</ele>
        <time>2017-08-19T10:18:26Z</time>
      </trkpt>
      <trkpt lat="45.92467" lon="4.7363">
        <ele>174</ele>
        <time>2017-08-19T10:18:27Z</time>
      </trkpt>
      <trkpt lat="45.92467" lon="4.73637">
        <ele>174</ele>
        <time>2017-08-19T10:18:28Z</time>
      </trkpt>
      <trkpt lat="45.92467" lon="4.73644">
        <ele>174</ele>
        <time>2017-08-19T10:18:29Z</time>
      </trkpt>
      <trkpt lat="45.92467" lon="4.73651">
        <ele>174</ele>
        <time>2017-08-19T10:18:30Z</time>
      </trkpt>
      <trkpt lat="45.92467" lon="4.73658">
        <ele>174</ele>
        <time>2017-08-19T10:18:31Z</time>
      </trkpt>
      <trkpt lat="45.92467" lon="4.73664">
        <ele>174</ele>
        <time>2017-08-19T10:18:32Z</time>
      </trkpt>
      <trkpt lat="45.92466" lon="4.73677">
        <ele>174</ele>
        <time>2017-08-19T10:18:34Z</time>
      </trkpt>
      <trkpt lat="45.92465" lon="4.73683">
        <ele>174</ele>
        <time>2017-08-19T10:18:35Z</time>
      </trkpt>
      <trkpt lat="45.92462" lon="4.73695">
        <ele>174</ele>
        <time>2017-08-19T10:18:37Z</time>
      </trkpt>
      <trkpt lat="45.92461" lon="4.737">
        <ele>174</ele>
        <time>2017-08-19T10:18:38Z</time>
      </trkpt>
      <trkpt lat="45.92461" lon="4.73706">
        <ele>174</ele>
        <time>2017-08-19T10:18:40Z</time>
      </trkpt>
      <trkpt lat="45.92461" lon="4.73707">
        <ele>174</ele>
        <time>2017-08-19T10:18:41Z</time>
      </trkpt>
      <trkpt lat="45.92462" lon="4.7371">
        <ele>174</ele>
        <time>2017-08-19T10:19:09.591Z</time>
      </trkpt>
    </trkseg>
  </trk>
</gpx>